<?xml version="1.0" encoding="UTF-8" standalone="no" ?>
<gpx xmlns="http://www.topografix.com/GPX/1/1" xmlns:xsi="http://www.w3.org/2001/XMLSchema-instance" xsi:schemaLocation="http://www.topografix.com/GPX/1/1 http://www.topografix.com/GPX/1/1/gpx.xsd" version="1.1" creator="VisuGPX - https://www.visugpx.com">
  <metadata>
    <name>Foncine le Haut,Valentin,Le pré d'Haut,Le grand Tartet,Le creux Maldru..</name>
  </metadata>
  <trk>
    <name><![CDATA[Foncine le Haut,Valentin,Le pré d'Haut,Le grand Tartet,Le creux Maldru.._1]]></name>
    <trkseg>
      <trkpt lat="46.64608" lon="6.08101">
        <ele>995.2</ele>
        <time>2020-07-14T07:15:50Z</time>
      </trkpt>
      <trkpt lat="46.64604" lon="6.08095">
        <ele>997.1</ele>
        <time>2020-07-14T07:15:55Z</time>
      </trkpt>
      <trkpt lat="46.64599" lon="6.0809">
        <ele>1009.4</ele>
        <time>2020-07-14T07:16:04Z</time>
      </trkpt>
      <trkpt lat="46.64596" lon="6.08094">
        <ele>1016.8</ele>
        <time>2020-07-14T07:19:21Z</time>
      </trkpt>
      <trkpt lat="46.64593" lon="6.08105">
        <ele>1016.8</ele>
        <time>2020-07-14T07:19:27Z</time>
      </trkpt>
      <trkpt lat="46.64586" lon="6.08113">
        <ele>1017.4</ele>
        <time>2020-07-14T07:20:03Z</time>
      </trkpt>
      <trkpt lat="46.6458" lon="6.0812">
        <ele>1018.3</ele>
        <time>2020-07-14T07:20:46Z</time>
      </trkpt>
      <trkpt lat="46.64577" lon="6.08126">
        <ele>1018.2</ele>
        <time>2020-07-14T07:20:50Z</time>
      </trkpt>
      <trkpt lat="46.64575" lon="6.08132">
        <ele>1018.1</ele>
        <time>2020-07-14T07:20:54Z</time>
      </trkpt>
      <trkpt lat="46.64567" lon="6.08155">
        <ele>1016.7</ele>
        <time>2020-07-14T07:21:09Z</time>
      </trkpt>
      <trkpt lat="46.64564" lon="6.0816">
        <ele>1016.1</ele>
        <time>2020-07-14T07:21:14Z</time>
      </trkpt>
      <trkpt lat="46.64561" lon="6.08166">
        <ele>1015.4</ele>
        <time>2020-07-14T07:21:19Z</time>
      </trkpt>
      <trkpt lat="46.64558" lon="6.08172">
        <ele>1014.7</ele>
        <time>2020-07-14T07:21:23Z</time>
      </trkpt>
      <trkpt lat="46.64555" lon="6.08178">
        <ele>1014.2</ele>
        <time>2020-07-14T07:21:27Z</time>
      </trkpt>
      <trkpt lat="46.64551" lon="6.08182">
        <ele>1013.7</ele>
        <time>2020-07-14T07:21:32Z</time>
      </trkpt>
      <trkpt lat="46.64546" lon="6.08184">
        <ele>1013.7</ele>
        <time>2020-07-14T07:21:37Z</time>
      </trkpt>
      <trkpt lat="46.64542" lon="6.08188">
        <ele>1014</ele>
        <time>2020-07-14T07:21:42Z</time>
      </trkpt>
      <trkpt lat="46.64535" lon="6.08187">
        <ele>1016.9</ele>
        <time>2020-07-14T07:22:09Z</time>
      </trkpt>
      <trkpt lat="46.6453" lon="6.08184">
        <ele>1017.5</ele>
        <time>2020-07-14T07:22:11Z</time>
      </trkpt>
      <trkpt lat="46.64526" lon="6.08182">
        <ele>1018.4</ele>
        <time>2020-07-14T07:22:14Z</time>
      </trkpt>
      <trkpt lat="46.64521" lon="6.08179">
        <ele>1019.5</ele>
        <time>2020-07-14T07:22:18Z</time>
      </trkpt>
      <trkpt lat="46.64517" lon="6.08176">
        <ele>1020.4</ele>
        <time>2020-07-14T07:22:22Z</time>
      </trkpt>
      <trkpt lat="46.64511" lon="6.08173">
        <ele>1021.6</ele>
        <time>2020-07-14T07:22:28Z</time>
      </trkpt>
      <trkpt lat="46.64507" lon="6.08171">
        <ele>1022.4</ele>
        <time>2020-07-14T07:22:33Z</time>
      </trkpt>
      <trkpt lat="46.64497" lon="6.08165">
        <ele>1023.4</ele>
        <time>2020-07-14T07:22:46Z</time>
      </trkpt>
      <trkpt lat="46.64493" lon="6.08161">
        <ele>1023.3</ele>
        <time>2020-07-14T07:22:51Z</time>
      </trkpt>
      <trkpt lat="46.64498" lon="6.0816">
        <ele>1023.6</ele>
        <time>2020-07-14T07:23:06Z</time>
      </trkpt>
      <trkpt lat="46.64502" lon="6.08162">
        <ele>1024</ele>
        <time>2020-07-14T07:23:13Z</time>
      </trkpt>
      <trkpt lat="46.64507" lon="6.08165">
        <ele>1024.3</ele>
        <time>2020-07-14T07:23:18Z</time>
      </trkpt>
      <trkpt lat="46.64511" lon="6.08168">
        <ele>1024.4</ele>
        <time>2020-07-14T07:23:24Z</time>
      </trkpt>
      <trkpt lat="46.64516" lon="6.08171">
        <ele>1024.3</ele>
        <time>2020-07-14T07:23:29Z</time>
      </trkpt>
      <trkpt lat="46.6452" lon="6.08174">
        <ele>1024.1</ele>
        <time>2020-07-14T07:23:33Z</time>
      </trkpt>
      <trkpt lat="46.64525" lon="6.08177">
        <ele>1023.8</ele>
        <time>2020-07-14T07:23:38Z</time>
      </trkpt>
      <trkpt lat="46.64529" lon="6.08179">
        <ele>1023.6</ele>
        <time>2020-07-14T07:23:42Z</time>
      </trkpt>
      <trkpt lat="46.64534" lon="6.08181">
        <ele>1023.6</ele>
        <time>2020-07-14T07:23:46Z</time>
      </trkpt>
      <trkpt lat="46.64539" lon="6.08186">
        <ele>1023.5</ele>
        <time>2020-07-14T07:23:51Z</time>
      </trkpt>
      <trkpt lat="46.64542" lon="6.08191">
        <ele>1023.2</ele>
        <time>2020-07-14T07:23:57Z</time>
      </trkpt>
      <trkpt lat="46.64544" lon="6.08198">
        <ele>1023.1</ele>
        <time>2020-07-14T07:24:04Z</time>
      </trkpt>
      <trkpt lat="46.64546" lon="6.08204">
        <ele>1023</ele>
        <time>2020-07-14T07:24:12Z</time>
      </trkpt>
      <trkpt lat="46.64548" lon="6.0821">
        <ele>1022.9</ele>
        <time>2020-07-14T07:24:18Z</time>
      </trkpt>
      <trkpt lat="46.64552" lon="6.08216">
        <ele>1022.7</ele>
        <time>2020-07-14T07:24:23Z</time>
      </trkpt>
      <trkpt lat="46.64556" lon="6.0822">
        <ele>1022.6</ele>
        <time>2020-07-14T07:24:27Z</time>
      </trkpt>
      <trkpt lat="46.64564" lon="6.08231">
        <ele>1023</ele>
        <time>2020-07-14T07:24:39Z</time>
      </trkpt>
      <trkpt lat="46.64567" lon="6.08237">
        <ele>1023.3</ele>
        <time>2020-07-14T07:24:45Z</time>
      </trkpt>
      <trkpt lat="46.6457" lon="6.08243">
        <ele>1023.7</ele>
        <time>2020-07-14T07:24:52Z</time>
      </trkpt>
      <trkpt lat="46.64574" lon="6.08249">
        <ele>1024</ele>
        <time>2020-07-14T07:24:56Z</time>
      </trkpt>
      <trkpt lat="46.64577" lon="6.08255">
        <ele>1024.3</ele>
        <time>2020-07-14T07:24:59Z</time>
      </trkpt>
      <trkpt lat="46.64579" lon="6.0826">
        <ele>1024.4</ele>
        <time>2020-07-14T07:25:03Z</time>
      </trkpt>
      <trkpt lat="46.64583" lon="6.08266">
        <ele>1024.6</ele>
        <time>2020-07-14T07:25:08Z</time>
      </trkpt>
      <trkpt lat="46.64586" lon="6.08272">
        <ele>1024.7</ele>
        <time>2020-07-14T07:25:11Z</time>
      </trkpt>
      <trkpt lat="46.6459" lon="6.08278">
        <ele>1024.9</ele>
        <time>2020-07-14T07:25:15Z</time>
      </trkpt>
      <trkpt lat="46.64593" lon="6.08284">
        <ele>1025.4</ele>
        <time>2020-07-14T07:25:21Z</time>
      </trkpt>
      <trkpt lat="46.64594" lon="6.0829">
        <ele>1026.6</ele>
        <time>2020-07-14T07:25:32Z</time>
      </trkpt>
      <trkpt lat="46.64597" lon="6.08295">
        <ele>1027.6</ele>
        <time>2020-07-14T07:25:43Z</time>
      </trkpt>
      <trkpt lat="46.64596" lon="6.08302">
        <ele>1028.1</ele>
        <time>2020-07-14T07:25:50Z</time>
      </trkpt>
      <trkpt lat="46.64592" lon="6.08304">
        <ele>1029.1</ele>
        <time>2020-07-14T07:25:58Z</time>
      </trkpt>
      <trkpt lat="46.64587" lon="6.08302">
        <ele>1029.5</ele>
        <time>2020-07-14T07:26:03Z</time>
      </trkpt>
      <trkpt lat="46.64583" lon="6.083">
        <ele>1029.9</ele>
        <time>2020-07-14T07:26:08Z</time>
      </trkpt>
      <trkpt lat="46.64578" lon="6.08301">
        <ele>1030.7</ele>
        <time>2020-07-14T07:26:15Z</time>
      </trkpt>
      <trkpt lat="46.64569" lon="6.08297">
        <ele>1035.7</ele>
        <time>2020-07-14T07:26:41Z</time>
      </trkpt>
      <trkpt lat="46.64565" lon="6.08293">
        <ele>1037</ele>
        <time>2020-07-14T07:26:47Z</time>
      </trkpt>
      <trkpt lat="46.6456" lon="6.08289">
        <ele>1038.6</ele>
        <time>2020-07-14T07:26:53Z</time>
      </trkpt>
      <trkpt lat="46.64557" lon="6.08284">
        <ele>1039.6</ele>
        <time>2020-07-14T07:26:57Z</time>
      </trkpt>
      <trkpt lat="46.64553" lon="6.08279">
        <ele>1041</ele>
        <time>2020-07-14T07:27:04Z</time>
      </trkpt>
      <trkpt lat="46.6455" lon="6.08276">
        <ele>1042</ele>
        <time>2020-07-14T07:27:10Z</time>
      </trkpt>
      <trkpt lat="46.64545" lon="6.08272">
        <ele>1043.1</ele>
        <time>2020-07-14T07:27:15Z</time>
      </trkpt>
      <trkpt lat="46.64535" lon="6.0827">
        <ele>1045.3</ele>
        <time>2020-07-14T07:27:22Z</time>
      </trkpt>
      <trkpt lat="46.64531" lon="6.08267">
        <ele>1046.1</ele>
        <time>2020-07-14T07:27:27Z</time>
      </trkpt>
      <trkpt lat="46.64524" lon="6.08263">
        <ele>1051.2</ele>
        <time>2020-07-14T07:27:48Z</time>
      </trkpt>
      <trkpt lat="46.64519" lon="6.08262">
        <ele>1052.2</ele>
        <time>2020-07-14T07:27:55Z</time>
      </trkpt>
      <trkpt lat="46.64512" lon="6.08259">
        <ele>1051.4</ele>
        <time>2020-07-14T07:28:59Z</time>
      </trkpt>
      <trkpt lat="46.64497" lon="6.08249">
        <ele>1052.8</ele>
        <time>2020-07-14T07:29:20Z</time>
      </trkpt>
      <trkpt lat="46.64493" lon="6.08246">
        <ele>1054.2</ele>
        <time>2020-07-14T07:29:26Z</time>
      </trkpt>
      <trkpt lat="46.64489" lon="6.08244">
        <ele>1057.5</ele>
        <time>2020-07-14T07:29:38Z</time>
      </trkpt>
      <trkpt lat="46.64483" lon="6.08243">
        <ele>1059.8</ele>
        <time>2020-07-14T07:29:44Z</time>
      </trkpt>
      <trkpt lat="46.64478" lon="6.08242">
        <ele>1061.3</ele>
        <time>2020-07-14T07:29:47Z</time>
      </trkpt>
      <trkpt lat="46.64471" lon="6.08242">
        <ele>1069.7</ele>
        <time>2020-07-14T07:30:03Z</time>
      </trkpt>
      <trkpt lat="46.64466" lon="6.08241">
        <ele>1071</ele>
        <time>2020-07-14T07:30:11Z</time>
      </trkpt>
      <trkpt lat="46.64461" lon="6.08241">
        <ele>1071.2</ele>
        <time>2020-07-14T07:30:16Z</time>
      </trkpt>
      <trkpt lat="46.64456" lon="6.08238">
        <ele>1070.9</ele>
        <time>2020-07-14T07:30:23Z</time>
      </trkpt>
      <trkpt lat="46.6443" lon="6.08229">
        <ele>1063.8</ele>
        <time>2020-07-14T07:31:09Z</time>
      </trkpt>
      <trkpt lat="46.64441" lon="6.08332">
        <ele>1098.7</ele>
        <time>2020-07-14T07:34:28Z</time>
      </trkpt>
      <trkpt lat="46.64458" lon="6.08356">
        <ele>1100.4</ele>
        <time>2020-07-14T07:34:55Z</time>
      </trkpt>
      <trkpt lat="46.64475" lon="6.08373">
        <ele>1100.9</ele>
        <time>2020-07-14T07:35:16Z</time>
      </trkpt>
      <trkpt lat="46.64481" lon="6.0838">
        <ele>1101</ele>
        <time>2020-07-14T07:35:18Z</time>
      </trkpt>
      <trkpt lat="46.64486" lon="6.08385">
        <ele>1101.2</ele>
        <time>2020-07-14T07:35:20Z</time>
      </trkpt>
      <trkpt lat="46.6449" lon="6.08389">
        <ele>1101.3</ele>
        <time>2020-07-14T07:35:22Z</time>
      </trkpt>
      <trkpt lat="46.64494" lon="6.08393">
        <ele>1101.7</ele>
        <time>2020-07-14T07:35:25Z</time>
      </trkpt>
      <trkpt lat="46.64497" lon="6.08397">
        <ele>1102.4</ele>
        <time>2020-07-14T07:35:31Z</time>
      </trkpt>
      <trkpt lat="46.64501" lon="6.08402">
        <ele>1103.4</ele>
        <time>2020-07-14T07:35:42Z</time>
      </trkpt>
      <trkpt lat="46.64513" lon="6.0842">
        <ele>1105.1</ele>
        <time>2020-07-14T07:36:01Z</time>
      </trkpt>
      <trkpt lat="46.64514" lon="6.08427">
        <ele>1105.1</ele>
        <time>2020-07-14T07:36:08Z</time>
      </trkpt>
      <trkpt lat="46.64514" lon="6.08433">
        <ele>1105.1</ele>
        <time>2020-07-14T07:36:16Z</time>
      </trkpt>
      <trkpt lat="46.64489" lon="6.08459">
        <ele>1100.4</ele>
        <time>2020-07-14T07:37:21Z</time>
      </trkpt>
      <trkpt lat="46.64473" lon="6.08467">
        <ele>1101.3</ele>
        <time>2020-07-14T07:37:43Z</time>
      </trkpt>
      <trkpt lat="46.64462" lon="6.08452">
        <ele>1103</ele>
        <time>2020-07-14T07:38:05Z</time>
      </trkpt>
      <trkpt lat="46.64459" lon="6.08446">
        <ele>1103.8</ele>
        <time>2020-07-14T07:38:11Z</time>
      </trkpt>
      <trkpt lat="46.64454" lon="6.08441">
        <ele>1104.8</ele>
        <time>2020-07-14T07:38:16Z</time>
      </trkpt>
      <trkpt lat="46.64443" lon="6.08434">
        <ele>1109.4</ele>
        <time>2020-07-14T07:38:30Z</time>
      </trkpt>
      <trkpt lat="46.6443" lon="6.08426">
        <ele>1113.5</ele>
        <time>2020-07-14T07:38:40Z</time>
      </trkpt>
      <trkpt lat="46.64425" lon="6.08424">
        <ele>1114</ele>
        <time>2020-07-14T07:38:44Z</time>
      </trkpt>
      <trkpt lat="46.64415" lon="6.08423">
        <ele>1115.2</ele>
        <time>2020-07-14T07:38:55Z</time>
      </trkpt>
      <trkpt lat="46.64407" lon="6.08415">
        <ele>1115</ele>
        <time>2020-07-14T07:39:05Z</time>
      </trkpt>
      <trkpt lat="46.64383" lon="6.08397">
        <ele>1123</ele>
        <time>2020-07-14T07:41:03Z</time>
      </trkpt>
      <trkpt lat="46.64361" lon="6.08373">
        <ele>1128.6</ele>
        <time>2020-07-14T07:41:37Z</time>
      </trkpt>
      <trkpt lat="46.64344" lon="6.08359">
        <ele>1129.2</ele>
        <time>2020-07-14T07:42:28Z</time>
      </trkpt>
      <trkpt lat="46.64329" lon="6.08351">
        <ele>1132</ele>
        <time>2020-07-14T07:42:44Z</time>
      </trkpt>
      <trkpt lat="46.64324" lon="6.08355">
        <ele>1132.3</ele>
        <time>2020-07-14T07:42:47Z</time>
      </trkpt>
      <trkpt lat="46.64319" lon="6.08357">
        <ele>1132.4</ele>
        <time>2020-07-14T07:42:53Z</time>
      </trkpt>
      <trkpt lat="46.64315" lon="6.08361">
        <ele>1132.5</ele>
        <time>2020-07-14T07:42:58Z</time>
      </trkpt>
      <trkpt lat="46.64281" lon="6.08371">
        <ele>1124.9</ele>
        <time>2020-07-14T07:43:46Z</time>
      </trkpt>
      <trkpt lat="46.64266" lon="6.08369">
        <ele>1122</ele>
        <time>2020-07-14T07:44:10Z</time>
      </trkpt>
      <trkpt lat="46.64249" lon="6.08391">
        <ele>1119</ele>
        <time>2020-07-14T07:44:40Z</time>
      </trkpt>
      <trkpt lat="46.64244" lon="6.08393">
        <ele>1118.8</ele>
        <time>2020-07-14T07:44:48Z</time>
      </trkpt>
      <trkpt lat="46.64239" lon="6.08395">
        <ele>1118.8</ele>
        <time>2020-07-14T07:44:55Z</time>
      </trkpt>
      <trkpt lat="46.64234" lon="6.08391">
        <ele>1119.2</ele>
        <time>2020-07-14T07:45:04Z</time>
      </trkpt>
      <trkpt lat="46.6423" lon="6.08387">
        <ele>1119.8</ele>
        <time>2020-07-14T07:45:09Z</time>
      </trkpt>
      <trkpt lat="46.64226" lon="6.08384">
        <ele>1120.8</ele>
        <time>2020-07-14T07:45:15Z</time>
      </trkpt>
      <trkpt lat="46.64221" lon="6.08384">
        <ele>1122</ele>
        <time>2020-07-14T07:45:23Z</time>
      </trkpt>
      <trkpt lat="46.64201" lon="6.08385">
        <ele>1122.6</ele>
        <time>2020-07-14T07:45:37Z</time>
      </trkpt>
      <trkpt lat="46.64182" lon="6.08393">
        <ele>1125.5</ele>
        <time>2020-07-14T07:46:04Z</time>
      </trkpt>
      <trkpt lat="46.64178" lon="6.08397">
        <ele>1125.7</ele>
        <time>2020-07-14T07:46:08Z</time>
      </trkpt>
      <trkpt lat="46.64165" lon="6.08404">
        <ele>1126.5</ele>
        <time>2020-07-14T07:46:23Z</time>
      </trkpt>
      <trkpt lat="46.64161" lon="6.08403">
        <ele>1127.1</ele>
        <time>2020-07-14T07:46:28Z</time>
      </trkpt>
      <trkpt lat="46.64155" lon="6.08407">
        <ele>1127.4</ele>
        <time>2020-07-14T07:46:36Z</time>
      </trkpt>
      <trkpt lat="46.64141" lon="6.08413">
        <ele>1126.9</ele>
        <time>2020-07-14T07:46:42Z</time>
      </trkpt>
      <trkpt lat="46.64137" lon="6.08417">
        <ele>1126.9</ele>
        <time>2020-07-14T07:46:45Z</time>
      </trkpt>
      <trkpt lat="46.64133" lon="6.0842">
        <ele>1127.3</ele>
        <time>2020-07-14T07:46:51Z</time>
      </trkpt>
      <trkpt lat="46.64128" lon="6.08424">
        <ele>1129</ele>
        <time>2020-07-14T07:46:58Z</time>
      </trkpt>
      <trkpt lat="46.64116" lon="6.08432">
        <ele>1134.8</ele>
        <time>2020-07-14T07:47:16Z</time>
      </trkpt>
      <trkpt lat="46.6411" lon="6.08433">
        <ele>1135.2</ele>
        <time>2020-07-14T07:47:19Z</time>
      </trkpt>
      <trkpt lat="46.64105" lon="6.08438">
        <ele>1135.5</ele>
        <time>2020-07-14T07:47:21Z</time>
      </trkpt>
      <trkpt lat="46.641" lon="6.08442">
        <ele>1135.8</ele>
        <time>2020-07-14T07:47:25Z</time>
      </trkpt>
      <trkpt lat="46.64092" lon="6.08446">
        <ele>1136.5</ele>
        <time>2020-07-14T07:47:35Z</time>
      </trkpt>
      <trkpt lat="46.64072" lon="6.08459">
        <ele>1138.2</ele>
        <time>2020-07-14T07:47:52Z</time>
      </trkpt>
      <trkpt lat="46.64058" lon="6.08477">
        <ele>1141.4</ele>
        <time>2020-07-14T07:48:17Z</time>
      </trkpt>
      <trkpt lat="46.64054" lon="6.08481">
        <ele>1141.8</ele>
        <time>2020-07-14T07:48:20Z</time>
      </trkpt>
      <trkpt lat="46.6405" lon="6.08486">
        <ele>1142.2</ele>
        <time>2020-07-14T07:48:23Z</time>
      </trkpt>
      <trkpt lat="46.64045" lon="6.08488">
        <ele>1142.7</ele>
        <time>2020-07-14T07:48:26Z</time>
      </trkpt>
      <trkpt lat="46.64027" lon="6.08501">
        <ele>1148.1</ele>
        <time>2020-07-14T07:48:43Z</time>
      </trkpt>
      <trkpt lat="46.64017" lon="6.08507">
        <ele>1149.8</ele>
        <time>2020-07-14T07:48:53Z</time>
      </trkpt>
      <trkpt lat="46.64005" lon="6.08517">
        <ele>1152.1</ele>
        <time>2020-07-14T07:49:10Z</time>
      </trkpt>
      <trkpt lat="46.64" lon="6.08521">
        <ele>1151.5</ele>
        <time>2020-07-14T07:49:16Z</time>
      </trkpt>
      <trkpt lat="46.63996" lon="6.08525">
        <ele>1150.9</ele>
        <time>2020-07-14T07:49:20Z</time>
      </trkpt>
      <trkpt lat="46.63991" lon="6.08528">
        <ele>1150.2</ele>
        <time>2020-07-14T07:49:25Z</time>
      </trkpt>
      <trkpt lat="46.63987" lon="6.08532">
        <ele>1149.6</ele>
        <time>2020-07-14T07:49:30Z</time>
      </trkpt>
      <trkpt lat="46.63983" lon="6.08538">
        <ele>1149</ele>
        <time>2020-07-14T07:49:36Z</time>
      </trkpt>
      <trkpt lat="46.6398" lon="6.08545">
        <ele>1148.8</ele>
        <time>2020-07-14T07:49:41Z</time>
      </trkpt>
      <trkpt lat="46.63977" lon="6.08551">
        <ele>1148.9</ele>
        <time>2020-07-14T07:49:46Z</time>
      </trkpt>
      <trkpt lat="46.63969" lon="6.08562">
        <ele>1154.5</ele>
        <time>2020-07-14T07:50:36Z</time>
      </trkpt>
      <trkpt lat="46.63965" lon="6.08592">
        <ele>1156.7</ele>
        <time>2020-07-14T07:50:57Z</time>
      </trkpt>
      <trkpt lat="46.63962" lon="6.08617">
        <ele>1154.6</ele>
        <time>2020-07-14T07:51:22Z</time>
      </trkpt>
      <trkpt lat="46.63962" lon="6.08625">
        <ele>1154.4</ele>
        <time>2020-07-14T07:51:24Z</time>
      </trkpt>
      <trkpt lat="46.63961" lon="6.08632">
        <ele>1154.4</ele>
        <time>2020-07-14T07:51:26Z</time>
      </trkpt>
      <trkpt lat="46.63965" lon="6.08667">
        <ele>1158.6</ele>
        <time>2020-07-14T07:51:56Z</time>
      </trkpt>
      <trkpt lat="46.63968" lon="6.08674">
        <ele>1158.9</ele>
        <time>2020-07-14T07:51:59Z</time>
      </trkpt>
      <trkpt lat="46.6397" lon="6.0868">
        <ele>1159.6</ele>
        <time>2020-07-14T07:52:03Z</time>
      </trkpt>
      <trkpt lat="46.63971" lon="6.08688">
        <ele>1159.9</ele>
        <time>2020-07-14T07:52:05Z</time>
      </trkpt>
      <trkpt lat="46.63972" lon="6.08695">
        <ele>1160.1</ele>
        <time>2020-07-14T07:52:07Z</time>
      </trkpt>
      <trkpt lat="46.63975" lon="6.08719">
        <ele>1162</ele>
        <time>2020-07-14T07:52:29Z</time>
      </trkpt>
      <trkpt lat="46.63976" lon="6.08726">
        <ele>1162.1</ele>
        <time>2020-07-14T07:52:33Z</time>
      </trkpt>
      <trkpt lat="46.63978" lon="6.08751">
        <ele>1162.6</ele>
        <time>2020-07-14T07:52:49Z</time>
      </trkpt>
      <trkpt lat="46.63979" lon="6.08758">
        <ele>1162.2</ele>
        <time>2020-07-14T07:52:53Z</time>
      </trkpt>
      <trkpt lat="46.63977" lon="6.08766">
        <ele>1161.9</ele>
        <time>2020-07-14T07:52:56Z</time>
      </trkpt>
      <trkpt lat="46.63977" lon="6.08773">
        <ele>1161.3</ele>
        <time>2020-07-14T07:53:00Z</time>
      </trkpt>
      <trkpt lat="46.63976" lon="6.0878">
        <ele>1160.8</ele>
        <time>2020-07-14T07:53:04Z</time>
      </trkpt>
      <trkpt lat="46.63972" lon="6.08786">
        <ele>1160.1</ele>
        <time>2020-07-14T07:53:10Z</time>
      </trkpt>
      <trkpt lat="46.6397" lon="6.08794">
        <ele>1160</ele>
        <time>2020-07-14T07:53:13Z</time>
      </trkpt>
      <trkpt lat="46.63964" lon="6.08825">
        <ele>1161.8</ele>
        <time>2020-07-14T07:53:32Z</time>
      </trkpt>
      <trkpt lat="46.63962" lon="6.08832">
        <ele>1161.7</ele>
        <time>2020-07-14T07:53:38Z</time>
      </trkpt>
      <trkpt lat="46.63959" lon="6.08837">
        <ele>1161.9</ele>
        <time>2020-07-14T07:53:42Z</time>
      </trkpt>
      <trkpt lat="46.63957" lon="6.08843">
        <ele>1162.1</ele>
        <time>2020-07-14T07:53:45Z</time>
      </trkpt>
      <trkpt lat="46.63955" lon="6.08849">
        <ele>1162.6</ele>
        <time>2020-07-14T07:53:50Z</time>
      </trkpt>
      <trkpt lat="46.63953" lon="6.08857">
        <ele>1163.4</ele>
        <time>2020-07-14T07:53:57Z</time>
      </trkpt>
      <trkpt lat="46.63952" lon="6.08871">
        <ele>1172.2</ele>
        <time>2020-07-14T07:54:59Z</time>
      </trkpt>
      <trkpt lat="46.63952" lon="6.08879">
        <ele>1172</ele>
        <time>2020-07-14T07:55:05Z</time>
      </trkpt>
      <trkpt lat="46.63955" lon="6.08884">
        <ele>1172.1</ele>
        <time>2020-07-14T07:55:09Z</time>
      </trkpt>
      <trkpt lat="46.63962" lon="6.08924">
        <ele>1170.7</ele>
        <time>2020-07-14T07:55:41Z</time>
      </trkpt>
      <trkpt lat="46.63962" lon="6.08931">
        <ele>1170.7</ele>
        <time>2020-07-14T07:55:45Z</time>
      </trkpt>
      <trkpt lat="46.63969" lon="6.08947">
        <ele>1171.6</ele>
        <time>2020-07-14T07:55:58Z</time>
      </trkpt>
      <trkpt lat="46.6397" lon="6.08954">
        <ele>1171.5</ele>
        <time>2020-07-14T07:56:00Z</time>
      </trkpt>
      <trkpt lat="46.63972" lon="6.08961">
        <ele>1171.4</ele>
        <time>2020-07-14T07:56:05Z</time>
      </trkpt>
      <trkpt lat="46.63975" lon="6.08968">
        <ele>1171.4</ele>
        <time>2020-07-14T07:56:09Z</time>
      </trkpt>
      <trkpt lat="46.63976" lon="6.08975">
        <ele>1171.3</ele>
        <time>2020-07-14T07:56:14Z</time>
      </trkpt>
      <trkpt lat="46.63976" lon="6.08982">
        <ele>1171.1</ele>
        <time>2020-07-14T07:56:22Z</time>
      </trkpt>
      <trkpt lat="46.63979" lon="6.0899">
        <ele>1171.1</ele>
        <time>2020-07-14T07:56:25Z</time>
      </trkpt>
      <trkpt lat="46.63984" lon="6.08994">
        <ele>1171.2</ele>
        <time>2020-07-14T07:56:27Z</time>
      </trkpt>
      <trkpt lat="46.63987" lon="6.08999">
        <ele>1171.3</ele>
        <time>2020-07-14T07:56:31Z</time>
      </trkpt>
      <trkpt lat="46.6399" lon="6.09013">
        <ele>1172.2</ele>
        <time>2020-07-14T07:56:40Z</time>
      </trkpt>
      <trkpt lat="46.63991" lon="6.09022">
        <ele>1172.3</ele>
        <time>2020-07-14T07:56:43Z</time>
      </trkpt>
      <trkpt lat="46.63992" lon="6.09029">
        <ele>1172.4</ele>
        <time>2020-07-14T07:56:47Z</time>
      </trkpt>
      <trkpt lat="46.63995" lon="6.09035">
        <ele>1172.3</ele>
        <time>2020-07-14T07:56:52Z</time>
      </trkpt>
      <trkpt lat="46.63999" lon="6.0904">
        <ele>1172.1</ele>
        <time>2020-07-14T07:56:55Z</time>
      </trkpt>
      <trkpt lat="46.64002" lon="6.09046">
        <ele>1171.9</ele>
        <time>2020-07-14T07:57:00Z</time>
      </trkpt>
      <trkpt lat="46.64003" lon="6.09053">
        <ele>1171.7</ele>
        <time>2020-07-14T07:57:03Z</time>
      </trkpt>
      <trkpt lat="46.64004" lon="6.09061">
        <ele>1171.5</ele>
        <time>2020-07-14T07:57:08Z</time>
      </trkpt>
      <trkpt lat="46.64009" lon="6.09077">
        <ele>1171</ele>
        <time>2020-07-14T07:57:19Z</time>
      </trkpt>
      <trkpt lat="46.64011" lon="6.09084">
        <ele>1171.1</ele>
        <time>2020-07-14T07:57:23Z</time>
      </trkpt>
      <trkpt lat="46.64014" lon="6.09089">
        <ele>1171.1</ele>
        <time>2020-07-14T07:57:27Z</time>
      </trkpt>
      <trkpt lat="46.64016" lon="6.09095">
        <ele>1171.2</ele>
        <time>2020-07-14T07:57:32Z</time>
      </trkpt>
      <trkpt lat="46.64016" lon="6.09103">
        <ele>1171.1</ele>
        <time>2020-07-14T07:57:38Z</time>
      </trkpt>
      <trkpt lat="46.64017" lon="6.0911">
        <ele>1171</ele>
        <time>2020-07-14T07:57:44Z</time>
      </trkpt>
      <trkpt lat="46.64018" lon="6.09117">
        <ele>1170.8</ele>
        <time>2020-07-14T07:57:48Z</time>
      </trkpt>
      <trkpt lat="46.64017" lon="6.09124">
        <ele>1170.6</ele>
        <time>2020-07-14T07:57:50Z</time>
      </trkpt>
      <trkpt lat="46.64017" lon="6.09131">
        <ele>1170.4</ele>
        <time>2020-07-14T07:57:53Z</time>
      </trkpt>
      <trkpt lat="46.64019" lon="6.09138">
        <ele>1170.3</ele>
        <time>2020-07-14T07:57:58Z</time>
      </trkpt>
      <trkpt lat="46.64022" lon="6.09144">
        <ele>1170.2</ele>
        <time>2020-07-14T07:58:01Z</time>
      </trkpt>
      <trkpt lat="46.64027" lon="6.0916">
        <ele>1170.1</ele>
        <time>2020-07-14T07:58:12Z</time>
      </trkpt>
      <trkpt lat="46.64029" lon="6.09166">
        <ele>1169.9</ele>
        <time>2020-07-14T07:58:22Z</time>
      </trkpt>
      <trkpt lat="46.64031" lon="6.09173">
        <ele>1169.8</ele>
        <time>2020-07-14T07:58:29Z</time>
      </trkpt>
      <trkpt lat="46.64033" lon="6.09179">
        <ele>1169.6</ele>
        <time>2020-07-14T07:58:34Z</time>
      </trkpt>
      <trkpt lat="46.64034" lon="6.09186">
        <ele>1169.4</ele>
        <time>2020-07-14T07:58:38Z</time>
      </trkpt>
      <trkpt lat="46.64036" lon="6.09192">
        <ele>1169.3</ele>
        <time>2020-07-14T07:58:42Z</time>
      </trkpt>
      <trkpt lat="46.64038" lon="6.092">
        <ele>1169.1</ele>
        <time>2020-07-14T07:58:47Z</time>
      </trkpt>
      <trkpt lat="46.64041" lon="6.09206">
        <ele>1168.9</ele>
        <time>2020-07-14T07:58:53Z</time>
      </trkpt>
      <trkpt lat="46.64044" lon="6.09212">
        <ele>1168.8</ele>
        <time>2020-07-14T07:58:58Z</time>
      </trkpt>
      <trkpt lat="46.64047" lon="6.09218">
        <ele>1168.5</ele>
        <time>2020-07-14T07:59:03Z</time>
      </trkpt>
      <trkpt lat="46.64049" lon="6.09225">
        <ele>1167.9</ele>
        <time>2020-07-14T07:59:09Z</time>
      </trkpt>
      <trkpt lat="46.64051" lon="6.09232">
        <ele>1167.5</ele>
        <time>2020-07-14T07:59:13Z</time>
      </trkpt>
      <trkpt lat="46.64054" lon="6.09238">
        <ele>1167.1</ele>
        <time>2020-07-14T07:59:18Z</time>
      </trkpt>
      <trkpt lat="46.64057" lon="6.09243">
        <ele>1166.5</ele>
        <time>2020-07-14T07:59:23Z</time>
      </trkpt>
      <trkpt lat="46.64059" lon="6.09248">
        <ele>1165.6</ele>
        <time>2020-07-14T07:59:28Z</time>
      </trkpt>
      <trkpt lat="46.64061" lon="6.09255">
        <ele>1164.9</ele>
        <time>2020-07-14T07:59:33Z</time>
      </trkpt>
      <trkpt lat="46.64063" lon="6.09261">
        <ele>1164.2</ele>
        <time>2020-07-14T07:59:38Z</time>
      </trkpt>
      <trkpt lat="46.64065" lon="6.09268">
        <ele>1163.7</ele>
        <time>2020-07-14T07:59:42Z</time>
      </trkpt>
      <trkpt lat="46.64067" lon="6.09276">
        <ele>1163.2</ele>
        <time>2020-07-14T07:59:49Z</time>
      </trkpt>
      <trkpt lat="46.6407" lon="6.09283">
        <ele>1163</ele>
        <time>2020-07-14T07:59:52Z</time>
      </trkpt>
      <trkpt lat="46.64073" lon="6.09288">
        <ele>1162.6</ele>
        <time>2020-07-14T07:59:56Z</time>
      </trkpt>
      <trkpt lat="46.64077" lon="6.09291">
        <ele>1161.9</ele>
        <time>2020-07-14T08:00:06Z</time>
      </trkpt>
      <trkpt lat="46.64081" lon="6.09296">
        <ele>1158.7</ele>
        <time>2020-07-14T08:00:30Z</time>
      </trkpt>
      <trkpt lat="46.64084" lon="6.09302">
        <ele>1157.4</ele>
        <time>2020-07-14T08:00:35Z</time>
      </trkpt>
      <trkpt lat="46.64087" lon="6.09307">
        <ele>1156.4</ele>
        <time>2020-07-14T08:00:40Z</time>
      </trkpt>
      <trkpt lat="46.6409" lon="6.09312">
        <ele>1155.8</ele>
        <time>2020-07-14T08:00:45Z</time>
      </trkpt>
      <trkpt lat="46.64093" lon="6.09321">
        <ele>1155.5</ele>
        <time>2020-07-14T08:00:49Z</time>
      </trkpt>
      <trkpt lat="46.64095" lon="6.09327">
        <ele>1155.5</ele>
        <time>2020-07-14T08:00:51Z</time>
      </trkpt>
      <trkpt lat="46.64098" lon="6.09334">
        <ele>1155.5</ele>
        <time>2020-07-14T08:00:54Z</time>
      </trkpt>
      <trkpt lat="46.64101" lon="6.09341">
        <ele>1155.2</ele>
        <time>2020-07-14T08:00:59Z</time>
      </trkpt>
      <trkpt lat="46.64102" lon="6.09349">
        <ele>1154.7</ele>
        <time>2020-07-14T08:01:03Z</time>
      </trkpt>
      <trkpt lat="46.64103" lon="6.09356">
        <ele>1154.3</ele>
        <time>2020-07-14T08:01:07Z</time>
      </trkpt>
      <trkpt lat="46.64106" lon="6.09362">
        <ele>1153.9</ele>
        <time>2020-07-14T08:01:11Z</time>
      </trkpt>
      <trkpt lat="46.64109" lon="6.09367">
        <ele>1153.4</ele>
        <time>2020-07-14T08:01:15Z</time>
      </trkpt>
      <trkpt lat="46.64112" lon="6.09372">
        <ele>1152.6</ele>
        <time>2020-07-14T08:01:21Z</time>
      </trkpt>
      <trkpt lat="46.64114" lon="6.09378">
        <ele>1151.6</ele>
        <time>2020-07-14T08:01:27Z</time>
      </trkpt>
      <trkpt lat="46.64117" lon="6.09383">
        <ele>1150.9</ele>
        <time>2020-07-14T08:01:32Z</time>
      </trkpt>
      <trkpt lat="46.64119" lon="6.09389">
        <ele>1150.3</ele>
        <time>2020-07-14T08:01:37Z</time>
      </trkpt>
      <trkpt lat="46.6412" lon="6.09396">
        <ele>1149.9</ele>
        <time>2020-07-14T08:01:42Z</time>
      </trkpt>
      <trkpt lat="46.64124" lon="6.09415">
        <ele>1149.3</ele>
        <time>2020-07-14T08:01:53Z</time>
      </trkpt>
      <trkpt lat="46.64125" lon="6.09422">
        <ele>1149.9</ele>
        <time>2020-07-14T08:02:00Z</time>
      </trkpt>
      <trkpt lat="46.64128" lon="6.09428">
        <ele>1150.4</ele>
        <time>2020-07-14T08:02:07Z</time>
      </trkpt>
      <trkpt lat="46.64131" lon="6.09436">
        <ele>1150.3</ele>
        <time>2020-07-14T08:02:11Z</time>
      </trkpt>
      <trkpt lat="46.64134" lon="6.09442">
        <ele>1150</ele>
        <time>2020-07-14T08:02:15Z</time>
      </trkpt>
      <trkpt lat="46.64138" lon="6.09446">
        <ele>1149.4</ele>
        <time>2020-07-14T08:02:22Z</time>
      </trkpt>
      <trkpt lat="46.64141" lon="6.09452">
        <ele>1149.1</ele>
        <time>2020-07-14T08:02:28Z</time>
      </trkpt>
      <trkpt lat="46.64144" lon="6.09459">
        <ele>1148.8</ele>
        <time>2020-07-14T08:02:32Z</time>
      </trkpt>
      <trkpt lat="46.64146" lon="6.09465">
        <ele>1148.2</ele>
        <time>2020-07-14T08:02:40Z</time>
      </trkpt>
      <trkpt lat="46.64148" lon="6.09472">
        <ele>1148</ele>
        <time>2020-07-14T08:02:45Z</time>
      </trkpt>
      <trkpt lat="46.64155" lon="6.09488">
        <ele>1148.2</ele>
        <time>2020-07-14T08:02:55Z</time>
      </trkpt>
      <trkpt lat="46.64162" lon="6.09505">
        <ele>1148.7</ele>
        <time>2020-07-14T08:03:07Z</time>
      </trkpt>
      <trkpt lat="46.64166" lon="6.09512">
        <ele>1149.1</ele>
        <time>2020-07-14T08:03:11Z</time>
      </trkpt>
      <trkpt lat="46.64171" lon="6.09531">
        <ele>1150.1</ele>
        <time>2020-07-14T08:03:29Z</time>
      </trkpt>
      <trkpt lat="46.64174" lon="6.0954">
        <ele>1150.1</ele>
        <time>2020-07-14T08:03:34Z</time>
      </trkpt>
      <trkpt lat="46.64174" lon="6.09558">
        <ele>1150.2</ele>
        <time>2020-07-14T08:03:47Z</time>
      </trkpt>
      <trkpt lat="46.64173" lon="6.09565">
        <ele>1150.4</ele>
        <time>2020-07-14T08:03:53Z</time>
      </trkpt>
      <trkpt lat="46.64172" lon="6.09574">
        <ele>1151.1</ele>
        <time>2020-07-14T08:03:59Z</time>
      </trkpt>
      <trkpt lat="46.6417" lon="6.0958">
        <ele>1153.2</ele>
        <time>2020-07-14T08:04:07Z</time>
      </trkpt>
      <trkpt lat="46.64173" lon="6.09595">
        <ele>1158.9</ele>
        <time>2020-07-14T08:04:19Z</time>
      </trkpt>
      <trkpt lat="46.64179" lon="6.09611">
        <ele>1168.3</ele>
        <time>2020-07-14T08:04:45Z</time>
      </trkpt>
      <trkpt lat="46.64179" lon="6.09619">
        <ele>1168.8</ele>
        <time>2020-07-14T08:04:47Z</time>
      </trkpt>
      <trkpt lat="46.64183" lon="6.09627">
        <ele>1169.4</ele>
        <time>2020-07-14T08:04:49Z</time>
      </trkpt>
      <trkpt lat="46.64193" lon="6.09641">
        <ele>1174.8</ele>
        <time>2020-07-14T08:05:11Z</time>
      </trkpt>
      <trkpt lat="46.64195" lon="6.09648">
        <ele>1175.5</ele>
        <time>2020-07-14T08:05:14Z</time>
      </trkpt>
      <trkpt lat="46.64204" lon="6.09678">
        <ele>1182</ele>
        <time>2020-07-14T08:05:46Z</time>
      </trkpt>
      <trkpt lat="46.64226" lon="6.09727">
        <ele>1196.5</ele>
        <time>2020-07-14T08:08:01Z</time>
      </trkpt>
      <trkpt lat="46.64225" lon="6.09734">
        <ele>1196.8</ele>
        <time>2020-07-14T08:08:03Z</time>
      </trkpt>
      <trkpt lat="46.64253" lon="6.09805">
        <ele>1201.7</ele>
        <time>2020-07-14T08:09:07Z</time>
      </trkpt>
      <trkpt lat="46.64261" lon="6.09817">
        <ele>1202.7</ele>
        <time>2020-07-14T08:09:24Z</time>
      </trkpt>
      <trkpt lat="46.6427" lon="6.09834">
        <ele>1203</ele>
        <time>2020-07-14T08:09:49Z</time>
      </trkpt>
      <trkpt lat="46.64272" lon="6.09846">
        <ele>1201.8</ele>
        <time>2020-07-14T08:09:59Z</time>
      </trkpt>
      <trkpt lat="46.64278" lon="6.0985">
        <ele>1200.8</ele>
        <time>2020-07-14T08:10:08Z</time>
      </trkpt>
      <trkpt lat="46.6429" lon="6.09867">
        <ele>1195.8</ele>
        <time>2020-07-14T08:10:48Z</time>
      </trkpt>
      <trkpt lat="46.64293" lon="6.09873">
        <ele>1194.1</ele>
        <time>2020-07-14T08:10:58Z</time>
      </trkpt>
      <trkpt lat="46.64296" lon="6.09877">
        <ele>1193.3</ele>
        <time>2020-07-14T08:11:02Z</time>
      </trkpt>
      <trkpt lat="46.643" lon="6.09884">
        <ele>1192.8</ele>
        <time>2020-07-14T08:11:06Z</time>
      </trkpt>
      <trkpt lat="46.64303" lon="6.09889">
        <ele>1192.4</ele>
        <time>2020-07-14T08:11:10Z</time>
      </trkpt>
      <trkpt lat="46.64306" lon="6.09896">
        <ele>1191.6</ele>
        <time>2020-07-14T08:11:15Z</time>
      </trkpt>
      <trkpt lat="46.64309" lon="6.09901">
        <ele>1190.4</ele>
        <time>2020-07-14T08:11:21Z</time>
      </trkpt>
      <trkpt lat="46.64313" lon="6.09905">
        <ele>1188.3</ele>
        <time>2020-07-14T08:11:28Z</time>
      </trkpt>
      <trkpt lat="46.64317" lon="6.0991">
        <ele>1186.2</ele>
        <time>2020-07-14T08:11:34Z</time>
      </trkpt>
      <trkpt lat="46.64319" lon="6.09916">
        <ele>1183.8</ele>
        <time>2020-07-14T08:11:41Z</time>
      </trkpt>
      <trkpt lat="46.64326" lon="6.09937">
        <ele>1179.8</ele>
        <time>2020-07-14T08:11:55Z</time>
      </trkpt>
      <trkpt lat="46.64329" lon="6.09943">
        <ele>1179.6</ele>
        <time>2020-07-14T08:12:01Z</time>
      </trkpt>
      <trkpt lat="46.64338" lon="6.09979">
        <ele>1183.2</ele>
        <time>2020-07-14T08:12:31Z</time>
      </trkpt>
      <trkpt lat="46.64339" lon="6.09986">
        <ele>1183.3</ele>
        <time>2020-07-14T08:12:34Z</time>
      </trkpt>
      <trkpt lat="46.64341" lon="6.09993">
        <ele>1183.8</ele>
        <time>2020-07-14T08:12:38Z</time>
      </trkpt>
      <trkpt lat="46.64343" lon="6.09999">
        <ele>1184.2</ele>
        <time>2020-07-14T08:12:41Z</time>
      </trkpt>
      <trkpt lat="46.64346" lon="6.10005">
        <ele>1184.9</ele>
        <time>2020-07-14T08:12:48Z</time>
      </trkpt>
      <trkpt lat="46.64349" lon="6.10013">
        <ele>1185</ele>
        <time>2020-07-14T08:12:51Z</time>
      </trkpt>
      <trkpt lat="46.64366" lon="6.10038">
        <ele>1185.3</ele>
        <time>2020-07-14T08:13:14Z</time>
      </trkpt>
      <trkpt lat="46.6437" lon="6.10042">
        <ele>1185</ele>
        <time>2020-07-14T08:13:20Z</time>
      </trkpt>
      <trkpt lat="46.64374" lon="6.10045">
        <ele>1184.4</ele>
        <time>2020-07-14T08:13:26Z</time>
      </trkpt>
      <trkpt lat="46.64378" lon="6.10051">
        <ele>1183.9</ele>
        <time>2020-07-14T08:13:33Z</time>
      </trkpt>
      <trkpt lat="46.64381" lon="6.10057">
        <ele>1183.7</ele>
        <time>2020-07-14T08:13:37Z</time>
      </trkpt>
      <trkpt lat="46.64384" lon="6.10063">
        <ele>1183.5</ele>
        <time>2020-07-14T08:13:41Z</time>
      </trkpt>
      <trkpt lat="46.64385" lon="6.1007">
        <ele>1183.2</ele>
        <time>2020-07-14T08:13:47Z</time>
      </trkpt>
      <trkpt lat="46.64393" lon="6.10078">
        <ele>1183.6</ele>
        <time>2020-07-14T08:14:09Z</time>
      </trkpt>
      <trkpt lat="46.64398" lon="6.10079">
        <ele>1183.9</ele>
        <time>2020-07-14T08:14:19Z</time>
      </trkpt>
      <trkpt lat="46.644" lon="6.10084">
        <ele>1185.1</ele>
        <time>2020-07-14T08:14:30Z</time>
      </trkpt>
      <trkpt lat="46.64403" lon="6.10092">
        <ele>1185.8</ele>
        <time>2020-07-14T08:14:35Z</time>
      </trkpt>
      <trkpt lat="46.64405" lon="6.101">
        <ele>1186.7</ele>
        <time>2020-07-14T08:14:44Z</time>
      </trkpt>
      <trkpt lat="46.64412" lon="6.10115">
        <ele>1189.3</ele>
        <time>2020-07-14T08:15:03Z</time>
      </trkpt>
      <trkpt lat="46.64437" lon="6.10156">
        <ele>1194</ele>
        <time>2020-07-14T08:15:33Z</time>
      </trkpt>
      <trkpt lat="46.64441" lon="6.1016">
        <ele>1194.3</ele>
        <time>2020-07-14T08:15:39Z</time>
      </trkpt>
      <trkpt lat="46.64447" lon="6.10165">
        <ele>1193.9</ele>
        <time>2020-07-14T08:15:49Z</time>
      </trkpt>
      <trkpt lat="46.64449" lon="6.10176">
        <ele>1193.7</ele>
        <time>2020-07-14T08:15:54Z</time>
      </trkpt>
      <trkpt lat="46.6445" lon="6.10186">
        <ele>1193.7</ele>
        <time>2020-07-14T08:15:56Z</time>
      </trkpt>
      <trkpt lat="46.64451" lon="6.10195">
        <ele>1193.6</ele>
        <time>2020-07-14T08:15:58Z</time>
      </trkpt>
      <trkpt lat="46.64454" lon="6.10202">
        <ele>1193.5</ele>
        <time>2020-07-14T08:16:02Z</time>
      </trkpt>
      <trkpt lat="46.64457" lon="6.10208">
        <ele>1193.4</ele>
        <time>2020-07-14T08:16:07Z</time>
      </trkpt>
      <trkpt lat="46.6446" lon="6.10213">
        <ele>1192.8</ele>
        <time>2020-07-14T08:16:16Z</time>
      </trkpt>
      <trkpt lat="46.64462" lon="6.10219">
        <ele>1192.5</ele>
        <time>2020-07-14T08:16:23Z</time>
      </trkpt>
      <trkpt lat="46.64462" lon="6.10227">
        <ele>1192.5</ele>
        <time>2020-07-14T08:16:26Z</time>
      </trkpt>
      <trkpt lat="46.64463" lon="6.10233">
        <ele>1192.2</ele>
        <time>2020-07-14T08:16:32Z</time>
      </trkpt>
      <trkpt lat="46.64468" lon="6.10243">
        <ele>1191.4</ele>
        <time>2020-07-14T08:16:41Z</time>
      </trkpt>
      <trkpt lat="46.64471" lon="6.1025">
        <ele>1191.3</ele>
        <time>2020-07-14T08:16:43Z</time>
      </trkpt>
      <trkpt lat="46.64474" lon="6.10256">
        <ele>1191.2</ele>
        <time>2020-07-14T08:16:47Z</time>
      </trkpt>
      <trkpt lat="46.64476" lon="6.10263">
        <ele>1191.2</ele>
        <time>2020-07-14T08:16:53Z</time>
      </trkpt>
      <trkpt lat="46.64481" lon="6.10269">
        <ele>1191.5</ele>
        <time>2020-07-14T08:16:58Z</time>
      </trkpt>
      <trkpt lat="46.64486" lon="6.10272">
        <ele>1191.7</ele>
        <time>2020-07-14T08:17:02Z</time>
      </trkpt>
      <trkpt lat="46.64489" lon="6.10278">
        <ele>1191.6</ele>
        <time>2020-07-14T08:17:12Z</time>
      </trkpt>
      <trkpt lat="46.64493" lon="6.10284">
        <ele>1191.5</ele>
        <time>2020-07-14T08:17:17Z</time>
      </trkpt>
      <trkpt lat="46.64502" lon="6.10306">
        <ele>1190.8</ele>
        <time>2020-07-14T08:17:30Z</time>
      </trkpt>
      <trkpt lat="46.64505" lon="6.10312">
        <ele>1190.7</ele>
        <time>2020-07-14T08:17:35Z</time>
      </trkpt>
      <trkpt lat="46.64507" lon="6.10323">
        <ele>1190.7</ele>
        <time>2020-07-14T08:17:52Z</time>
      </trkpt>
      <trkpt lat="46.64508" lon="6.1033">
        <ele>1190.7</ele>
        <time>2020-07-14T08:17:55Z</time>
      </trkpt>
      <trkpt lat="46.64508" lon="6.10337">
        <ele>1190.5</ele>
        <time>2020-07-14T08:17:58Z</time>
      </trkpt>
      <trkpt lat="46.64509" lon="6.10343">
        <ele>1190.5</ele>
        <time>2020-07-14T08:18:00Z</time>
      </trkpt>
      <trkpt lat="46.64526" lon="6.10375">
        <ele>1190.5</ele>
        <time>2020-07-14T08:18:33Z</time>
      </trkpt>
      <trkpt lat="46.6453" lon="6.10378">
        <ele>1190.7</ele>
        <time>2020-07-14T08:18:37Z</time>
      </trkpt>
      <trkpt lat="46.64535" lon="6.10381">
        <ele>1190.8</ele>
        <time>2020-07-14T08:18:41Z</time>
      </trkpt>
      <trkpt lat="46.64539" lon="6.10384">
        <ele>1190.9</ele>
        <time>2020-07-14T08:18:48Z</time>
      </trkpt>
      <trkpt lat="46.64543" lon="6.1039">
        <ele>1191.7</ele>
        <time>2020-07-14T08:18:59Z</time>
      </trkpt>
      <trkpt lat="46.64546" lon="6.10394">
        <ele>1192.4</ele>
        <time>2020-07-14T08:19:02Z</time>
      </trkpt>
      <trkpt lat="46.64551" lon="6.10394">
        <ele>1193.1</ele>
        <time>2020-07-14T08:19:05Z</time>
      </trkpt>
      <trkpt lat="46.64566" lon="6.10441">
        <ele>1200.9</ele>
        <time>2020-07-14T08:19:32Z</time>
      </trkpt>
      <trkpt lat="46.64566" lon="6.10449">
        <ele>1201.7</ele>
        <time>2020-07-14T08:19:37Z</time>
      </trkpt>
      <trkpt lat="46.64572" lon="6.10462">
        <ele>1203.2</ele>
        <time>2020-07-14T08:19:55Z</time>
      </trkpt>
      <trkpt lat="46.64578" lon="6.1048">
        <ele>1201.7</ele>
        <time>2020-07-14T08:20:14Z</time>
      </trkpt>
      <trkpt lat="46.64582" lon="6.10485">
        <ele>1201.4</ele>
        <time>2020-07-14T08:20:17Z</time>
      </trkpt>
      <trkpt lat="46.64584" lon="6.10491">
        <ele>1201</ele>
        <time>2020-07-14T08:20:24Z</time>
      </trkpt>
      <trkpt lat="46.64586" lon="6.10498">
        <ele>1200.7</ele>
        <time>2020-07-14T08:20:29Z</time>
      </trkpt>
      <trkpt lat="46.64589" lon="6.10504">
        <ele>1200.5</ele>
        <time>2020-07-14T08:20:36Z</time>
      </trkpt>
      <trkpt lat="46.6459" lon="6.1051">
        <ele>1200.6</ele>
        <time>2020-07-14T08:20:42Z</time>
      </trkpt>
      <trkpt lat="46.646" lon="6.10532">
        <ele>1200.2</ele>
        <time>2020-07-14T08:21:41Z</time>
      </trkpt>
      <trkpt lat="46.64601" lon="6.10538">
        <ele>1199.9</ele>
        <time>2020-07-14T08:21:43Z</time>
      </trkpt>
      <trkpt lat="46.64602" lon="6.10546">
        <ele>1199.1</ele>
        <time>2020-07-14T08:21:49Z</time>
      </trkpt>
      <trkpt lat="46.64607" lon="6.10565">
        <ele>1196.8</ele>
        <time>2020-07-14T08:21:59Z</time>
      </trkpt>
      <trkpt lat="46.64605" lon="6.10576">
        <ele>1194.4</ele>
        <time>2020-07-14T08:22:12Z</time>
      </trkpt>
      <trkpt lat="46.64605" lon="6.10596">
        <ele>1191.9</ele>
        <time>2020-07-14T08:22:27Z</time>
      </trkpt>
      <trkpt lat="46.64607" lon="6.1061">
        <ele>1191.4</ele>
        <time>2020-07-14T08:22:42Z</time>
      </trkpt>
      <trkpt lat="46.64607" lon="6.10616">
        <ele>1191.4</ele>
        <time>2020-07-14T08:22:50Z</time>
      </trkpt>
      <trkpt lat="46.64608" lon="6.10623">
        <ele>1191.5</ele>
        <time>2020-07-14T08:22:54Z</time>
      </trkpt>
      <trkpt lat="46.64608" lon="6.1063">
        <ele>1192.4</ele>
        <time>2020-07-14T08:23:02Z</time>
      </trkpt>
      <trkpt lat="46.64608" lon="6.10642">
        <ele>1194.6</ele>
        <time>2020-07-14T08:23:21Z</time>
      </trkpt>
      <trkpt lat="46.6461" lon="6.10651">
        <ele>1195.2</ele>
        <time>2020-07-14T08:23:36Z</time>
      </trkpt>
      <trkpt lat="46.64611" lon="6.10659">
        <ele>1195.6</ele>
        <time>2020-07-14T08:23:39Z</time>
      </trkpt>
      <trkpt lat="46.6461" lon="6.10667">
        <ele>1196</ele>
        <time>2020-07-14T08:23:42Z</time>
      </trkpt>
      <trkpt lat="46.64603" lon="6.10686">
        <ele>1201</ele>
        <time>2020-07-14T08:24:12Z</time>
      </trkpt>
      <trkpt lat="46.64605" lon="6.10692">
        <ele>1201.4</ele>
        <time>2020-07-14T08:24:16Z</time>
      </trkpt>
      <trkpt lat="46.64607" lon="6.10702">
        <ele>1201.9</ele>
        <time>2020-07-14T08:24:20Z</time>
      </trkpt>
      <trkpt lat="46.64607" lon="6.1071">
        <ele>1202.6</ele>
        <time>2020-07-14T08:24:24Z</time>
      </trkpt>
      <trkpt lat="46.64608" lon="6.10718">
        <ele>1203.3</ele>
        <time>2020-07-14T08:24:29Z</time>
      </trkpt>
      <trkpt lat="46.64608" lon="6.10725">
        <ele>1203.9</ele>
        <time>2020-07-14T08:24:33Z</time>
      </trkpt>
      <trkpt lat="46.64602" lon="6.10743">
        <ele>1208.2</ele>
        <time>2020-07-14T08:26:26Z</time>
      </trkpt>
      <trkpt lat="46.64602" lon="6.1075">
        <ele>1208.1</ele>
        <time>2020-07-14T08:26:32Z</time>
      </trkpt>
      <trkpt lat="46.64603" lon="6.10757">
        <ele>1207.4</ele>
        <time>2020-07-14T08:26:38Z</time>
      </trkpt>
      <trkpt lat="46.64604" lon="6.10764">
        <ele>1206.5</ele>
        <time>2020-07-14T08:26:43Z</time>
      </trkpt>
      <trkpt lat="46.64604" lon="6.10771">
        <ele>1205.9</ele>
        <time>2020-07-14T08:26:46Z</time>
      </trkpt>
      <trkpt lat="46.64606" lon="6.10779">
        <ele>1204.9</ele>
        <time>2020-07-14T08:26:51Z</time>
      </trkpt>
      <trkpt lat="46.64607" lon="6.10786">
        <ele>1203.6</ele>
        <time>2020-07-14T08:26:58Z</time>
      </trkpt>
      <trkpt lat="46.64608" lon="6.10796">
        <ele>1203.3</ele>
        <time>2020-07-14T08:27:01Z</time>
      </trkpt>
      <trkpt lat="46.6461" lon="6.10802">
        <ele>1203.1</ele>
        <time>2020-07-14T08:27:03Z</time>
      </trkpt>
      <trkpt lat="46.64612" lon="6.10822">
        <ele>1204.2</ele>
        <time>2020-07-14T08:27:21Z</time>
      </trkpt>
      <trkpt lat="46.64614" lon="6.10831">
        <ele>1204.3</ele>
        <time>2020-07-14T08:27:23Z</time>
      </trkpt>
      <trkpt lat="46.64615" lon="6.10838">
        <ele>1204.7</ele>
        <time>2020-07-14T08:27:27Z</time>
      </trkpt>
      <trkpt lat="46.64616" lon="6.10846">
        <ele>1205.1</ele>
        <time>2020-07-14T08:27:31Z</time>
      </trkpt>
      <trkpt lat="46.64616" lon="6.10854">
        <ele>1206.5</ele>
        <time>2020-07-14T08:27:45Z</time>
      </trkpt>
      <trkpt lat="46.64616" lon="6.10876">
        <ele>1206.3</ele>
        <time>2020-07-14T08:27:55Z</time>
      </trkpt>
      <trkpt lat="46.64618" lon="6.10883">
        <ele>1206.4</ele>
        <time>2020-07-14T08:28:02Z</time>
      </trkpt>
      <trkpt lat="46.6462" lon="6.1089">
        <ele>1206.5</ele>
        <time>2020-07-14T08:28:07Z</time>
      </trkpt>
      <trkpt lat="46.64622" lon="6.10897">
        <ele>1206.6</ele>
        <time>2020-07-14T08:28:11Z</time>
      </trkpt>
      <trkpt lat="46.64623" lon="6.10903">
        <ele>1206.8</ele>
        <time>2020-07-14T08:28:15Z</time>
      </trkpt>
      <trkpt lat="46.64627" lon="6.10908">
        <ele>1206.9</ele>
        <time>2020-07-14T08:28:19Z</time>
      </trkpt>
      <trkpt lat="46.6463" lon="6.10927">
        <ele>1206.9</ele>
        <time>2020-07-14T08:28:31Z</time>
      </trkpt>
      <trkpt lat="46.64629" lon="6.10934">
        <ele>1206.8</ele>
        <time>2020-07-14T08:28:38Z</time>
      </trkpt>
      <trkpt lat="46.64627" lon="6.10941">
        <ele>1206.8</ele>
        <time>2020-07-14T08:28:45Z</time>
      </trkpt>
      <trkpt lat="46.64626" lon="6.10947">
        <ele>1206.8</ele>
        <time>2020-07-14T08:28:51Z</time>
      </trkpt>
      <trkpt lat="46.64627" lon="6.10956">
        <ele>1206.6</ele>
        <time>2020-07-14T08:29:02Z</time>
      </trkpt>
      <trkpt lat="46.64626" lon="6.10963">
        <ele>1206.5</ele>
        <time>2020-07-14T08:29:12Z</time>
      </trkpt>
      <trkpt lat="46.64624" lon="6.10972">
        <ele>1206.3</ele>
        <time>2020-07-14T08:29:18Z</time>
      </trkpt>
      <trkpt lat="46.64622" lon="6.10978">
        <ele>1206.1</ele>
        <time>2020-07-14T08:29:20Z</time>
      </trkpt>
      <trkpt lat="46.64615" lon="6.11011">
        <ele>1203.8</ele>
        <time>2020-07-14T08:29:33Z</time>
      </trkpt>
      <trkpt lat="46.64613" lon="6.1102">
        <ele>1203.1</ele>
        <time>2020-07-14T08:29:42Z</time>
      </trkpt>
      <trkpt lat="46.64606" lon="6.11037">
        <ele>1201.2</ele>
        <time>2020-07-14T08:29:53Z</time>
      </trkpt>
      <trkpt lat="46.64604" lon="6.11045">
        <ele>1200.7</ele>
        <time>2020-07-14T08:29:56Z</time>
      </trkpt>
      <trkpt lat="46.646" lon="6.1105">
        <ele>1200</ele>
        <time>2020-07-14T08:30:00Z</time>
      </trkpt>
      <trkpt lat="46.64596" lon="6.11062">
        <ele>1197.2</ele>
        <time>2020-07-14T08:30:12Z</time>
      </trkpt>
      <trkpt lat="46.64582" lon="6.11104">
        <ele>1197.6</ele>
        <time>2020-07-14T08:31:12Z</time>
      </trkpt>
      <trkpt lat="46.64582" lon="6.11112">
        <ele>1197.7</ele>
        <time>2020-07-14T08:31:14Z</time>
      </trkpt>
      <trkpt lat="46.64583" lon="6.11119">
        <ele>1197.9</ele>
        <time>2020-07-14T08:31:18Z</time>
      </trkpt>
      <trkpt lat="46.6458" lon="6.11126">
        <ele>1198.3</ele>
        <time>2020-07-14T08:31:23Z</time>
      </trkpt>
      <trkpt lat="46.6457" lon="6.11158">
        <ele>1200.5</ele>
        <time>2020-07-14T08:31:47Z</time>
      </trkpt>
      <trkpt lat="46.64567" lon="6.11163">
        <ele>1200.7</ele>
        <time>2020-07-14T08:31:49Z</time>
      </trkpt>
      <trkpt lat="46.64564" lon="6.1117">
        <ele>1201</ele>
        <time>2020-07-14T08:31:54Z</time>
      </trkpt>
      <trkpt lat="46.64561" lon="6.11175">
        <ele>1201</ele>
        <time>2020-07-14T08:31:57Z</time>
      </trkpt>
      <trkpt lat="46.64557" lon="6.11196">
        <ele>1200</ele>
        <time>2020-07-14T08:32:09Z</time>
      </trkpt>
      <trkpt lat="46.64552" lon="6.11216">
        <ele>1197.2</ele>
        <time>2020-07-14T08:32:27Z</time>
      </trkpt>
      <trkpt lat="46.64551" lon="6.11222">
        <ele>1196.8</ele>
        <time>2020-07-14T08:32:35Z</time>
      </trkpt>
      <trkpt lat="46.64547" lon="6.11227">
        <ele>1196.1</ele>
        <time>2020-07-14T08:32:43Z</time>
      </trkpt>
      <trkpt lat="46.64546" lon="6.11234">
        <ele>1195.6</ele>
        <time>2020-07-14T08:32:48Z</time>
      </trkpt>
      <trkpt lat="46.64542" lon="6.11258">
        <ele>1193.5</ele>
        <time>2020-07-14T08:33:04Z</time>
      </trkpt>
      <trkpt lat="46.64538" lon="6.11265">
        <ele>1193.3</ele>
        <time>2020-07-14T08:33:06Z</time>
      </trkpt>
      <trkpt lat="46.64535" lon="6.11272">
        <ele>1193.1</ele>
        <time>2020-07-14T08:33:08Z</time>
      </trkpt>
      <trkpt lat="46.64533" lon="6.11279">
        <ele>1192.5</ele>
        <time>2020-07-14T08:33:11Z</time>
      </trkpt>
      <trkpt lat="46.64528" lon="6.11294">
        <ele>1188.7</ele>
        <time>2020-07-14T08:33:26Z</time>
      </trkpt>
      <trkpt lat="46.64522" lon="6.11306">
        <ele>1187.4</ele>
        <time>2020-07-14T08:33:34Z</time>
      </trkpt>
      <trkpt lat="46.64518" lon="6.11311">
        <ele>1187.3</ele>
        <time>2020-07-14T08:33:39Z</time>
      </trkpt>
      <trkpt lat="46.64514" lon="6.11316">
        <ele>1187.1</ele>
        <time>2020-07-14T08:33:42Z</time>
      </trkpt>
      <trkpt lat="46.64511" lon="6.11322">
        <ele>1186.8</ele>
        <time>2020-07-14T08:33:47Z</time>
      </trkpt>
      <trkpt lat="46.64509" lon="6.11328">
        <ele>1186.6</ele>
        <time>2020-07-14T08:33:52Z</time>
      </trkpt>
      <trkpt lat="46.64506" lon="6.11334">
        <ele>1186.5</ele>
        <time>2020-07-14T08:33:55Z</time>
      </trkpt>
      <trkpt lat="46.64497" lon="6.11353">
        <ele>1186</ele>
        <time>2020-07-14T08:34:05Z</time>
      </trkpt>
      <trkpt lat="46.64495" lon="6.1136">
        <ele>1186.1</ele>
        <time>2020-07-14T08:34:08Z</time>
      </trkpt>
      <trkpt lat="46.64492" lon="6.11366">
        <ele>1186.4</ele>
        <time>2020-07-14T08:34:14Z</time>
      </trkpt>
      <trkpt lat="46.6449" lon="6.11372">
        <ele>1186.7</ele>
        <time>2020-07-14T08:34:21Z</time>
      </trkpt>
      <trkpt lat="46.64488" lon="6.11379">
        <ele>1186.5</ele>
        <time>2020-07-14T08:34:29Z</time>
      </trkpt>
      <trkpt lat="46.64487" lon="6.11393">
        <ele>1186.1</ele>
        <time>2020-07-14T08:34:38Z</time>
      </trkpt>
      <trkpt lat="46.64485" lon="6.11402">
        <ele>1186.1</ele>
        <time>2020-07-14T08:34:40Z</time>
      </trkpt>
      <trkpt lat="46.64475" lon="6.11423">
        <ele>1186.5</ele>
        <time>2020-07-14T08:34:52Z</time>
      </trkpt>
      <trkpt lat="46.64468" lon="6.11431">
        <ele>1187.1</ele>
        <time>2020-07-14T08:35:01Z</time>
      </trkpt>
      <trkpt lat="46.64461" lon="6.11446">
        <ele>1186.9</ele>
        <time>2020-07-14T08:35:15Z</time>
      </trkpt>
      <trkpt lat="46.64458" lon="6.11453">
        <ele>1186.9</ele>
        <time>2020-07-14T08:35:18Z</time>
      </trkpt>
      <trkpt lat="46.64456" lon="6.11459">
        <ele>1187.1</ele>
        <time>2020-07-14T08:35:22Z</time>
      </trkpt>
      <trkpt lat="46.64453" lon="6.11464">
        <ele>1187.4</ele>
        <time>2020-07-14T08:35:27Z</time>
      </trkpt>
      <trkpt lat="46.6445" lon="6.1147">
        <ele>1187.8</ele>
        <time>2020-07-14T08:35:34Z</time>
      </trkpt>
      <trkpt lat="46.64447" lon="6.11476">
        <ele>1187.4</ele>
        <time>2020-07-14T08:35:41Z</time>
      </trkpt>
      <trkpt lat="46.64437" lon="6.11521">
        <ele>1186.6</ele>
        <time>2020-07-14T08:36:10Z</time>
      </trkpt>
      <trkpt lat="46.64433" lon="6.11528">
        <ele>1187.6</ele>
        <time>2020-07-14T08:36:20Z</time>
      </trkpt>
      <trkpt lat="46.64429" lon="6.11539">
        <ele>1188.8</ele>
        <time>2020-07-14T08:36:28Z</time>
      </trkpt>
      <trkpt lat="46.64429" lon="6.11548">
        <ele>1188.9</ele>
        <time>2020-07-14T08:36:32Z</time>
      </trkpt>
      <trkpt lat="46.64428" lon="6.11558">
        <ele>1189.2</ele>
        <time>2020-07-14T08:36:37Z</time>
      </trkpt>
      <trkpt lat="46.64425" lon="6.11566">
        <ele>1189.4</ele>
        <time>2020-07-14T08:36:39Z</time>
      </trkpt>
      <trkpt lat="46.64422" lon="6.11572">
        <ele>1189.6</ele>
        <time>2020-07-14T08:36:41Z</time>
      </trkpt>
      <trkpt lat="46.64418" lon="6.11577">
        <ele>1189.9</ele>
        <time>2020-07-14T08:36:44Z</time>
      </trkpt>
      <trkpt lat="46.64414" lon="6.11581">
        <ele>1190.6</ele>
        <time>2020-07-14T08:36:49Z</time>
      </trkpt>
      <trkpt lat="46.64402" lon="6.11614">
        <ele>1193.7</ele>
        <time>2020-07-14T08:37:27Z</time>
      </trkpt>
      <trkpt lat="46.64403" lon="6.1162">
        <ele>1192.7</ele>
        <time>2020-07-14T08:37:37Z</time>
      </trkpt>
      <trkpt lat="46.64404" lon="6.11628">
        <ele>1191.4</ele>
        <time>2020-07-14T08:37:43Z</time>
      </trkpt>
      <trkpt lat="46.64398" lon="6.11637">
        <ele>1188.5</ele>
        <time>2020-07-14T08:38:14Z</time>
      </trkpt>
      <trkpt lat="46.64395" lon="6.11641">
        <ele>1188.2</ele>
        <time>2020-07-14T08:38:16Z</time>
      </trkpt>
      <trkpt lat="46.64384" lon="6.1165">
        <ele>1186.5</ele>
        <time>2020-07-14T08:38:26Z</time>
      </trkpt>
      <trkpt lat="46.64384" lon="6.11658">
        <ele>1186.3</ele>
        <time>2020-07-14T08:38:32Z</time>
      </trkpt>
      <trkpt lat="46.64378" lon="6.11676">
        <ele>1186.4</ele>
        <time>2020-07-14T08:38:49Z</time>
      </trkpt>
      <trkpt lat="46.64375" lon="6.11682">
        <ele>1186.3</ele>
        <time>2020-07-14T08:38:56Z</time>
      </trkpt>
      <trkpt lat="46.64348" lon="6.11724">
        <ele>1196.9</ele>
        <time>2020-07-14T08:39:43Z</time>
      </trkpt>
      <trkpt lat="46.64343" lon="6.11725">
        <ele>1197.7</ele>
        <time>2020-07-14T08:39:46Z</time>
      </trkpt>
      <trkpt lat="46.64322" lon="6.11731">
        <ele>1202.4</ele>
        <time>2020-07-14T08:40:00Z</time>
      </trkpt>
      <trkpt lat="46.64319" lon="6.11735">
        <ele>1202.5</ele>
        <time>2020-07-14T08:40:03Z</time>
      </trkpt>
      <trkpt lat="46.64315" lon="6.1174">
        <ele>1203.1</ele>
        <time>2020-07-14T08:40:09Z</time>
      </trkpt>
      <trkpt lat="46.64298" lon="6.11747">
        <ele>1206.2</ele>
        <time>2020-07-14T08:40:29Z</time>
      </trkpt>
      <trkpt lat="46.64294" lon="6.1175">
        <ele>1206.3</ele>
        <time>2020-07-14T08:40:31Z</time>
      </trkpt>
      <trkpt lat="46.64288" lon="6.11755">
        <ele>1206.3</ele>
        <time>2020-07-14T08:40:33Z</time>
      </trkpt>
      <trkpt lat="46.64284" lon="6.1176">
        <ele>1206.4</ele>
        <time>2020-07-14T08:40:35Z</time>
      </trkpt>
      <trkpt lat="46.64273" lon="6.11767">
        <ele>1206.4</ele>
        <time>2020-07-14T08:40:52Z</time>
      </trkpt>
      <trkpt lat="46.6426" lon="6.1178">
        <ele>1206</ele>
        <time>2020-07-14T08:41:03Z</time>
      </trkpt>
      <trkpt lat="46.64255" lon="6.11785">
        <ele>1206.3</ele>
        <time>2020-07-14T08:41:08Z</time>
      </trkpt>
      <trkpt lat="46.6425" lon="6.11787">
        <ele>1206.4</ele>
        <time>2020-07-14T08:41:12Z</time>
      </trkpt>
      <trkpt lat="46.64245" lon="6.11789">
        <ele>1206.3</ele>
        <time>2020-07-14T08:41:17Z</time>
      </trkpt>
      <trkpt lat="46.64241" lon="6.1179">
        <ele>1205.6</ele>
        <time>2020-07-14T08:41:23Z</time>
      </trkpt>
      <trkpt lat="46.64235" lon="6.11793">
        <ele>1204.6</ele>
        <time>2020-07-14T08:41:29Z</time>
      </trkpt>
      <trkpt lat="46.6423" lon="6.11796">
        <ele>1204.2</ele>
        <time>2020-07-14T08:41:32Z</time>
      </trkpt>
      <trkpt lat="46.64226" lon="6.11798">
        <ele>1203.6</ele>
        <time>2020-07-14T08:41:37Z</time>
      </trkpt>
      <trkpt lat="46.64221" lon="6.118">
        <ele>1202.9</ele>
        <time>2020-07-14T08:41:41Z</time>
      </trkpt>
      <trkpt lat="46.64217" lon="6.11804">
        <ele>1202.5</ele>
        <time>2020-07-14T08:41:44Z</time>
      </trkpt>
      <trkpt lat="46.64213" lon="6.11808">
        <ele>1201.8</ele>
        <time>2020-07-14T08:41:49Z</time>
      </trkpt>
      <trkpt lat="46.64196" lon="6.11807">
        <ele>1200</ele>
        <time>2020-07-14T08:42:17Z</time>
      </trkpt>
      <trkpt lat="46.64191" lon="6.11808">
        <ele>1200.2</ele>
        <time>2020-07-14T08:42:19Z</time>
      </trkpt>
      <trkpt lat="46.64186" lon="6.11811">
        <ele>1200.5</ele>
        <time>2020-07-14T08:42:22Z</time>
      </trkpt>
      <trkpt lat="46.64181" lon="6.11814">
        <ele>1200.9</ele>
        <time>2020-07-14T08:42:28Z</time>
      </trkpt>
      <trkpt lat="46.64177" lon="6.11817">
        <ele>1202.2</ele>
        <time>2020-07-14T08:42:40Z</time>
      </trkpt>
      <trkpt lat="46.64174" lon="6.11821">
        <ele>1202.5</ele>
        <time>2020-07-14T08:42:43Z</time>
      </trkpt>
      <trkpt lat="46.64169" lon="6.11827">
        <ele>1202.6</ele>
        <time>2020-07-14T08:42:45Z</time>
      </trkpt>
      <trkpt lat="46.64147" lon="6.11846">
        <ele>1204.9</ele>
        <time>2020-07-14T08:43:05Z</time>
      </trkpt>
      <trkpt lat="46.64142" lon="6.11849">
        <ele>1205</ele>
        <time>2020-07-14T08:43:07Z</time>
      </trkpt>
      <trkpt lat="46.64137" lon="6.11851">
        <ele>1204.9</ele>
        <time>2020-07-14T08:43:10Z</time>
      </trkpt>
      <trkpt lat="46.64133" lon="6.11853">
        <ele>1204.6</ele>
        <time>2020-07-14T08:43:15Z</time>
      </trkpt>
      <trkpt lat="46.64128" lon="6.11856">
        <ele>1204.4</ele>
        <time>2020-07-14T08:43:22Z</time>
      </trkpt>
      <trkpt lat="46.64124" lon="6.1186">
        <ele>1204.3</ele>
        <time>2020-07-14T08:43:30Z</time>
      </trkpt>
      <trkpt lat="46.64123" lon="6.11847">
        <ele>1200.4</ele>
        <time>2020-07-14T08:44:21Z</time>
      </trkpt>
      <trkpt lat="46.64124" lon="6.11841">
        <ele>1200.4</ele>
        <time>2020-07-14T08:44:23Z</time>
      </trkpt>
      <trkpt lat="46.64125" lon="6.11833">
        <ele>1200.5</ele>
        <time>2020-07-14T08:44:25Z</time>
      </trkpt>
      <trkpt lat="46.64127" lon="6.11827">
        <ele>1200.9</ele>
        <time>2020-07-14T08:44:30Z</time>
      </trkpt>
      <trkpt lat="46.64128" lon="6.1182">
        <ele>1201.4</ele>
        <time>2020-07-14T08:44:33Z</time>
      </trkpt>
      <trkpt lat="46.64127" lon="6.11812">
        <ele>1203</ele>
        <time>2020-07-14T08:44:39Z</time>
      </trkpt>
      <trkpt lat="46.64133" lon="6.11803">
        <ele>1205.7</ele>
        <time>2020-07-14T08:44:52Z</time>
      </trkpt>
      <trkpt lat="46.64135" lon="6.11796">
        <ele>1205.9</ele>
        <time>2020-07-14T08:44:55Z</time>
      </trkpt>
      <trkpt lat="46.6414" lon="6.11791">
        <ele>1206.2</ele>
        <time>2020-07-14T08:44:59Z</time>
      </trkpt>
      <trkpt lat="46.64143" lon="6.11786">
        <ele>1206.5</ele>
        <time>2020-07-14T08:45:02Z</time>
      </trkpt>
      <trkpt lat="46.64147" lon="6.11783">
        <ele>1207.1</ele>
        <time>2020-07-14T08:45:12Z</time>
      </trkpt>
      <trkpt lat="46.6415" lon="6.11772">
        <ele>1211.4</ele>
        <time>2020-07-14T08:45:29Z</time>
      </trkpt>
      <trkpt lat="46.64133" lon="6.11766">
        <ele>1211.8</ele>
        <time>2020-07-14T08:45:46Z</time>
      </trkpt>
      <trkpt lat="46.64128" lon="6.11768">
        <ele>1211.1</ele>
        <time>2020-07-14T08:45:52Z</time>
      </trkpt>
      <trkpt lat="46.64123" lon="6.11768">
        <ele>1210.7</ele>
        <time>2020-07-14T08:45:57Z</time>
      </trkpt>
      <trkpt lat="46.64119" lon="6.11769">
        <ele>1210.5</ele>
        <time>2020-07-14T08:45:59Z</time>
      </trkpt>
      <trkpt lat="46.64114" lon="6.11772">
        <ele>1210.4</ele>
        <time>2020-07-14T08:46:02Z</time>
      </trkpt>
      <trkpt lat="46.64109" lon="6.11774">
        <ele>1210.3</ele>
        <time>2020-07-14T08:46:05Z</time>
      </trkpt>
      <trkpt lat="46.64104" lon="6.11773">
        <ele>1210.2</ele>
        <time>2020-07-14T08:46:10Z</time>
      </trkpt>
      <trkpt lat="46.641" lon="6.11768">
        <ele>1210.5</ele>
        <time>2020-07-14T08:46:17Z</time>
      </trkpt>
      <trkpt lat="46.64098" lon="6.11762">
        <ele>1211.1</ele>
        <time>2020-07-14T08:46:20Z</time>
      </trkpt>
      <trkpt lat="46.64095" lon="6.11756">
        <ele>1211.5</ele>
        <time>2020-07-14T08:46:22Z</time>
      </trkpt>
      <trkpt lat="46.64092" lon="6.1175">
        <ele>1212.7</ele>
        <time>2020-07-14T08:46:28Z</time>
      </trkpt>
      <trkpt lat="46.64091" lon="6.11743">
        <ele>1214.2</ele>
        <time>2020-07-14T08:46:33Z</time>
      </trkpt>
      <trkpt lat="46.6409" lon="6.11736">
        <ele>1216.1</ele>
        <time>2020-07-14T08:46:43Z</time>
      </trkpt>
      <trkpt lat="46.64087" lon="6.11728">
        <ele>1217.2</ele>
        <time>2020-07-14T08:46:48Z</time>
      </trkpt>
      <trkpt lat="46.64083" lon="6.11723">
        <ele>1217.8</ele>
        <time>2020-07-14T08:46:51Z</time>
      </trkpt>
      <trkpt lat="46.64079" lon="6.11718">
        <ele>1219.5</ele>
        <time>2020-07-14T08:46:59Z</time>
      </trkpt>
      <trkpt lat="46.64076" lon="6.11707">
        <ele>1228.4</ele>
        <time>2020-07-14T08:47:29Z</time>
      </trkpt>
      <trkpt lat="46.64073" lon="6.1169">
        <ele>1228.6</ele>
        <time>2020-07-14T08:47:51Z</time>
      </trkpt>
      <trkpt lat="46.64071" lon="6.11684">
        <ele>1228.8</ele>
        <time>2020-07-14T08:47:55Z</time>
      </trkpt>
      <trkpt lat="46.6407" lon="6.11677">
        <ele>1229.3</ele>
        <time>2020-07-14T08:48:03Z</time>
      </trkpt>
      <trkpt lat="46.64067" lon="6.1167">
        <ele>1229.5</ele>
        <time>2020-07-14T08:48:06Z</time>
      </trkpt>
      <trkpt lat="46.64065" lon="6.11662">
        <ele>1229.5</ele>
        <time>2020-07-14T08:48:08Z</time>
      </trkpt>
      <trkpt lat="46.64064" lon="6.11655">
        <ele>1229.8</ele>
        <time>2020-07-14T08:48:13Z</time>
      </trkpt>
      <trkpt lat="46.64068" lon="6.1165">
        <ele>1230.5</ele>
        <time>2020-07-14T08:48:18Z</time>
      </trkpt>
      <trkpt lat="46.64072" lon="6.11645">
        <ele>1231.1</ele>
        <time>2020-07-14T08:48:22Z</time>
      </trkpt>
      <trkpt lat="46.64076" lon="6.11643">
        <ele>1232</ele>
        <time>2020-07-14T08:48:29Z</time>
      </trkpt>
      <trkpt lat="46.64081" lon="6.11642">
        <ele>1232.3</ele>
        <time>2020-07-14T08:48:35Z</time>
      </trkpt>
      <trkpt lat="46.64085" lon="6.11639">
        <ele>1232.6</ele>
        <time>2020-07-14T08:48:41Z</time>
      </trkpt>
      <trkpt lat="46.6409" lon="6.11639">
        <ele>1233.4</ele>
        <time>2020-07-14T08:48:48Z</time>
      </trkpt>
      <trkpt lat="46.64085" lon="6.11617">
        <ele>1234.7</ele>
        <time>2020-07-14T08:49:13Z</time>
      </trkpt>
      <trkpt lat="46.64084" lon="6.11609">
        <ele>1237.1</ele>
        <time>2020-07-14T08:49:32Z</time>
      </trkpt>
      <trkpt lat="46.64082" lon="6.11601">
        <ele>1237.8</ele>
        <time>2020-07-14T08:49:35Z</time>
      </trkpt>
      <trkpt lat="46.6408" lon="6.11594">
        <ele>1238.8</ele>
        <time>2020-07-14T08:49:39Z</time>
      </trkpt>
      <trkpt lat="46.64079" lon="6.11585">
        <ele>1240.7</ele>
        <time>2020-07-14T08:49:46Z</time>
      </trkpt>
      <trkpt lat="46.64078" lon="6.11579">
        <ele>1241.4</ele>
        <time>2020-07-14T08:49:49Z</time>
      </trkpt>
      <trkpt lat="46.64077" lon="6.11572">
        <ele>1242.2</ele>
        <time>2020-07-14T08:49:53Z</time>
      </trkpt>
      <trkpt lat="46.64075" lon="6.11565">
        <ele>1242.8</ele>
        <time>2020-07-14T08:49:56Z</time>
      </trkpt>
      <trkpt lat="46.64074" lon="6.11557">
        <ele>1243.3</ele>
        <time>2020-07-14T08:49:59Z</time>
      </trkpt>
      <trkpt lat="46.64073" lon="6.11551">
        <ele>1243.8</ele>
        <time>2020-07-14T08:50:02Z</time>
      </trkpt>
      <trkpt lat="46.6407" lon="6.11545">
        <ele>1244.4</ele>
        <time>2020-07-14T08:50:06Z</time>
      </trkpt>
      <trkpt lat="46.64067" lon="6.11538">
        <ele>1245</ele>
        <time>2020-07-14T08:50:10Z</time>
      </trkpt>
      <trkpt lat="46.64065" lon="6.11533">
        <ele>1245.7</ele>
        <time>2020-07-14T08:50:14Z</time>
      </trkpt>
      <trkpt lat="46.64062" lon="6.11526">
        <ele>1246.4</ele>
        <time>2020-07-14T08:50:18Z</time>
      </trkpt>
      <trkpt lat="46.64058" lon="6.11522">
        <ele>1247.1</ele>
        <time>2020-07-14T08:50:22Z</time>
      </trkpt>
      <trkpt lat="46.64055" lon="6.11517">
        <ele>1248.2</ele>
        <time>2020-07-14T08:50:28Z</time>
      </trkpt>
      <trkpt lat="46.64052" lon="6.11512">
        <ele>1249.7</ele>
        <time>2020-07-14T08:50:34Z</time>
      </trkpt>
      <trkpt lat="46.6405" lon="6.11505">
        <ele>1250.8</ele>
        <time>2020-07-14T08:50:40Z</time>
      </trkpt>
      <trkpt lat="46.64048" lon="6.11499">
        <ele>1251.8</ele>
        <time>2020-07-14T08:50:46Z</time>
      </trkpt>
      <trkpt lat="46.64045" lon="6.11484">
        <ele>1253.4</ele>
        <time>2020-07-14T08:51:03Z</time>
      </trkpt>
      <trkpt lat="46.64042" lon="6.11478">
        <ele>1253.4</ele>
        <time>2020-07-14T08:51:10Z</time>
      </trkpt>
      <trkpt lat="46.6404" lon="6.11471">
        <ele>1253</ele>
        <time>2020-07-14T08:51:16Z</time>
      </trkpt>
      <trkpt lat="46.64036" lon="6.11467">
        <ele>1252.2</ele>
        <time>2020-07-14T08:51:22Z</time>
      </trkpt>
      <trkpt lat="46.64032" lon="6.11463">
        <ele>1251.6</ele>
        <time>2020-07-14T08:51:27Z</time>
      </trkpt>
      <trkpt lat="46.64028" lon="6.11459">
        <ele>1250.9</ele>
        <time>2020-07-14T08:51:34Z</time>
      </trkpt>
      <trkpt lat="46.64024" lon="6.11453">
        <ele>1251.2</ele>
        <time>2020-07-14T08:51:40Z</time>
      </trkpt>
      <trkpt lat="46.64021" lon="6.11448">
        <ele>1251.6</ele>
        <time>2020-07-14T08:51:46Z</time>
      </trkpt>
      <trkpt lat="46.6402" lon="6.11442">
        <ele>1252.3</ele>
        <time>2020-07-14T08:51:52Z</time>
      </trkpt>
      <trkpt lat="46.6402" lon="6.11435">
        <ele>1252.8</ele>
        <time>2020-07-14T08:51:56Z</time>
      </trkpt>
      <trkpt lat="46.64021" lon="6.11428">
        <ele>1253.3</ele>
        <time>2020-07-14T08:52:01Z</time>
      </trkpt>
      <trkpt lat="46.64023" lon="6.11422">
        <ele>1253.6</ele>
        <time>2020-07-14T08:52:05Z</time>
      </trkpt>
      <trkpt lat="46.64027" lon="6.11416">
        <ele>1254.1</ele>
        <time>2020-07-14T08:52:10Z</time>
      </trkpt>
      <trkpt lat="46.64032" lon="6.11414">
        <ele>1254.8</ele>
        <time>2020-07-14T08:52:19Z</time>
      </trkpt>
      <trkpt lat="46.64037" lon="6.11418">
        <ele>1254.8</ele>
        <time>2020-07-14T08:52:22Z</time>
      </trkpt>
      <trkpt lat="46.64041" lon="6.11421">
        <ele>1254.8</ele>
        <time>2020-07-14T08:52:26Z</time>
      </trkpt>
      <trkpt lat="46.64044" lon="6.11427">
        <ele>1255.6</ele>
        <time>2020-07-14T08:52:40Z</time>
      </trkpt>
      <trkpt lat="46.64048" lon="6.1143">
        <ele>1255.8</ele>
        <time>2020-07-14T08:52:48Z</time>
      </trkpt>
      <trkpt lat="46.64052" lon="6.11435">
        <ele>1255.7</ele>
        <time>2020-07-14T08:52:52Z</time>
      </trkpt>
      <trkpt lat="46.64055" lon="6.1144">
        <ele>1255.3</ele>
        <time>2020-07-14T08:52:57Z</time>
      </trkpt>
      <trkpt lat="46.64059" lon="6.11444">
        <ele>1254.5</ele>
        <time>2020-07-14T08:53:04Z</time>
      </trkpt>
      <trkpt lat="46.64063" lon="6.11448">
        <ele>1253.9</ele>
        <time>2020-07-14T08:53:11Z</time>
      </trkpt>
      <trkpt lat="46.64067" lon="6.11453">
        <ele>1253.8</ele>
        <time>2020-07-14T08:53:19Z</time>
      </trkpt>
      <trkpt lat="46.64071" lon="6.11455">
        <ele>1253.9</ele>
        <time>2020-07-14T08:53:26Z</time>
      </trkpt>
      <trkpt lat="46.64075" lon="6.1146">
        <ele>1254.1</ele>
        <time>2020-07-14T08:53:30Z</time>
      </trkpt>
      <trkpt lat="46.64094" lon="6.1146">
        <ele>1255.6</ele>
        <time>2020-07-14T08:53:47Z</time>
      </trkpt>
      <trkpt lat="46.64099" lon="6.11457">
        <ele>1255.8</ele>
        <time>2020-07-14T08:53:53Z</time>
      </trkpt>
      <trkpt lat="46.64102" lon="6.11451">
        <ele>1256.3</ele>
        <time>2020-07-14T08:54:00Z</time>
      </trkpt>
      <trkpt lat="46.64105" lon="6.11445">
        <ele>1256.6</ele>
        <time>2020-07-14T08:54:07Z</time>
      </trkpt>
      <trkpt lat="46.64108" lon="6.11441">
        <ele>1257.1</ele>
        <time>2020-07-14T08:54:23Z</time>
      </trkpt>
      <trkpt lat="46.64111" lon="6.11449">
        <ele>1257.8</ele>
        <time>2020-07-14T08:54:35Z</time>
      </trkpt>
      <trkpt lat="46.64108" lon="6.11435">
        <ele>1257.1</ele>
        <time>2020-07-14T08:55:54Z</time>
      </trkpt>
      <trkpt lat="46.64111" lon="6.11429">
        <ele>1256.8</ele>
        <time>2020-07-14T08:56:01Z</time>
      </trkpt>
      <trkpt lat="46.64115" lon="6.11424">
        <ele>1256.8</ele>
        <time>2020-07-14T08:56:04Z</time>
      </trkpt>
      <trkpt lat="46.64119" lon="6.1142">
        <ele>1257</ele>
        <time>2020-07-14T08:56:08Z</time>
      </trkpt>
      <trkpt lat="46.64123" lon="6.11411">
        <ele>1258.1</ele>
        <time>2020-07-14T08:56:34Z</time>
      </trkpt>
      <trkpt lat="46.64127" lon="6.11403">
        <ele>1258.3</ele>
        <time>2020-07-14T08:56:39Z</time>
      </trkpt>
      <trkpt lat="46.6413" lon="6.11398">
        <ele>1258.5</ele>
        <time>2020-07-14T08:56:43Z</time>
      </trkpt>
      <trkpt lat="46.64131" lon="6.11391">
        <ele>1259.1</ele>
        <time>2020-07-14T08:57:21Z</time>
      </trkpt>
      <trkpt lat="46.64131" lon="6.11384">
        <ele>1259</ele>
        <time>2020-07-14T08:57:27Z</time>
      </trkpt>
      <trkpt lat="46.6413" lon="6.11377">
        <ele>1259.1</ele>
        <time>2020-07-14T08:57:34Z</time>
      </trkpt>
      <trkpt lat="46.6413" lon="6.11369">
        <ele>1259.4</ele>
        <time>2020-07-14T08:57:40Z</time>
      </trkpt>
      <trkpt lat="46.64129" lon="6.11362">
        <ele>1259.8</ele>
        <time>2020-07-14T08:57:48Z</time>
      </trkpt>
      <trkpt lat="46.64129" lon="6.11355">
        <ele>1260.5</ele>
        <time>2020-07-14T08:57:55Z</time>
      </trkpt>
      <trkpt lat="46.64132" lon="6.11349">
        <ele>1260.8</ele>
        <time>2020-07-14T08:58:03Z</time>
      </trkpt>
      <trkpt lat="46.64132" lon="6.11341">
        <ele>1260.8</ele>
        <time>2020-07-14T08:58:09Z</time>
      </trkpt>
      <trkpt lat="46.64133" lon="6.11335">
        <ele>1260.9</ele>
        <time>2020-07-14T08:58:15Z</time>
      </trkpt>
      <trkpt lat="46.64134" lon="6.11328">
        <ele>1261.2</ele>
        <time>2020-07-14T08:58:21Z</time>
      </trkpt>
      <trkpt lat="46.64136" lon="6.11321">
        <ele>1261.4</ele>
        <time>2020-07-14T08:58:27Z</time>
      </trkpt>
      <trkpt lat="46.64138" lon="6.11314">
        <ele>1261.5</ele>
        <time>2020-07-14T08:58:31Z</time>
      </trkpt>
      <trkpt lat="46.64138" lon="6.11306">
        <ele>1261.6</ele>
        <time>2020-07-14T08:58:36Z</time>
      </trkpt>
      <trkpt lat="46.64142" lon="6.11289">
        <ele>1262.1</ele>
        <time>2020-07-14T08:58:49Z</time>
      </trkpt>
      <trkpt lat="46.64144" lon="6.11283">
        <ele>1262.4</ele>
        <time>2020-07-14T08:58:54Z</time>
      </trkpt>
      <trkpt lat="46.64152" lon="6.11252">
        <ele>1265</ele>
        <time>2020-07-14T08:59:26Z</time>
      </trkpt>
      <trkpt lat="46.64151" lon="6.11245">
        <ele>1264.5</ele>
        <time>2020-07-14T08:59:33Z</time>
      </trkpt>
      <trkpt lat="46.64149" lon="6.11229">
        <ele>1262.7</ele>
        <time>2020-07-14T09:00:01Z</time>
      </trkpt>
      <trkpt lat="46.64152" lon="6.11221">
        <ele>1265.8</ele>
        <time>2020-07-14T09:00:31Z</time>
      </trkpt>
      <trkpt lat="46.64154" lon="6.11215">
        <ele>1266.2</ele>
        <time>2020-07-14T09:00:35Z</time>
      </trkpt>
      <trkpt lat="46.64156" lon="6.11208">
        <ele>1266.8</ele>
        <time>2020-07-14T09:00:41Z</time>
      </trkpt>
      <trkpt lat="46.64157" lon="6.11201">
        <ele>1267.3</ele>
        <time>2020-07-14T09:00:46Z</time>
      </trkpt>
      <trkpt lat="46.64158" lon="6.11194">
        <ele>1268.2</ele>
        <time>2020-07-14T09:00:53Z</time>
      </trkpt>
      <trkpt lat="46.64159" lon="6.11201">
        <ele>1270</ele>
        <time>2020-07-14T09:02:16Z</time>
      </trkpt>
      <trkpt lat="46.64157" lon="6.11207">
        <ele>1270.1</ele>
        <time>2020-07-14T09:02:21Z</time>
      </trkpt>
      <trkpt lat="46.64155" lon="6.11213">
        <ele>1269.8</ele>
        <time>2020-07-14T09:02:28Z</time>
      </trkpt>
      <trkpt lat="46.6415" lon="6.11216">
        <ele>1269.3</ele>
        <time>2020-07-14T09:02:36Z</time>
      </trkpt>
      <trkpt lat="46.64148" lon="6.11223">
        <ele>1268.6</ele>
        <time>2020-07-14T09:02:42Z</time>
      </trkpt>
      <trkpt lat="46.64147" lon="6.11229">
        <ele>1267.9</ele>
        <time>2020-07-14T09:02:47Z</time>
      </trkpt>
      <trkpt lat="46.64146" lon="6.11237">
        <ele>1267.3</ele>
        <time>2020-07-14T09:02:52Z</time>
      </trkpt>
      <trkpt lat="46.64148" lon="6.11243">
        <ele>1266.8</ele>
        <time>2020-07-14T09:03:08Z</time>
      </trkpt>
      <trkpt lat="46.64149" lon="6.1125">
        <ele>1266.6</ele>
        <time>2020-07-14T09:03:14Z</time>
      </trkpt>
      <trkpt lat="46.6415" lon="6.11257">
        <ele>1266.5</ele>
        <time>2020-07-14T09:03:21Z</time>
      </trkpt>
      <trkpt lat="46.64151" lon="6.11264">
        <ele>1266</ele>
        <time>2020-07-14T09:03:33Z</time>
      </trkpt>
      <trkpt lat="46.64149" lon="6.1127">
        <ele>1266.1</ele>
        <time>2020-07-14T09:03:40Z</time>
      </trkpt>
      <trkpt lat="46.64147" lon="6.11276">
        <ele>1266.1</ele>
        <time>2020-07-14T09:03:44Z</time>
      </trkpt>
      <trkpt lat="46.64145" lon="6.11283">
        <ele>1265.9</ele>
        <time>2020-07-14T09:03:48Z</time>
      </trkpt>
      <trkpt lat="46.64144" lon="6.1129">
        <ele>1265.6</ele>
        <time>2020-07-14T09:03:52Z</time>
      </trkpt>
      <trkpt lat="46.64143" lon="6.11298">
        <ele>1265.3</ele>
        <time>2020-07-14T09:03:56Z</time>
      </trkpt>
      <trkpt lat="46.64141" lon="6.11305">
        <ele>1264.8</ele>
        <time>2020-07-14T09:04:00Z</time>
      </trkpt>
      <trkpt lat="46.64139" lon="6.11311">
        <ele>1264.4</ele>
        <time>2020-07-14T09:04:04Z</time>
      </trkpt>
      <trkpt lat="46.64138" lon="6.11317">
        <ele>1263.9</ele>
        <time>2020-07-14T09:04:08Z</time>
      </trkpt>
      <trkpt lat="46.64136" lon="6.11324">
        <ele>1263.4</ele>
        <time>2020-07-14T09:04:13Z</time>
      </trkpt>
      <trkpt lat="46.64134" lon="6.1133">
        <ele>1262.6</ele>
        <time>2020-07-14T09:04:20Z</time>
      </trkpt>
      <trkpt lat="46.64132" lon="6.11337">
        <ele>1262</ele>
        <time>2020-07-14T09:04:27Z</time>
      </trkpt>
      <trkpt lat="46.64132" lon="6.11345">
        <ele>1261.3</ele>
        <time>2020-07-14T09:04:32Z</time>
      </trkpt>
      <trkpt lat="46.64132" lon="6.11352">
        <ele>1260.9</ele>
        <time>2020-07-14T09:04:36Z</time>
      </trkpt>
      <trkpt lat="46.6413" lon="6.11359">
        <ele>1260.7</ele>
        <time>2020-07-14T09:04:42Z</time>
      </trkpt>
      <trkpt lat="46.64127" lon="6.11364">
        <ele>1260.9</ele>
        <time>2020-07-14T09:04:54Z</time>
      </trkpt>
      <trkpt lat="46.64126" lon="6.11372">
        <ele>1261.2</ele>
        <time>2020-07-14T09:05:01Z</time>
      </trkpt>
      <trkpt lat="46.64126" lon="6.1138">
        <ele>1261.3</ele>
        <time>2020-07-14T09:05:06Z</time>
      </trkpt>
      <trkpt lat="46.64126" lon="6.11388">
        <ele>1261.2</ele>
        <time>2020-07-14T09:05:10Z</time>
      </trkpt>
      <trkpt lat="46.64126" lon="6.11395">
        <ele>1261.1</ele>
        <time>2020-07-14T09:05:14Z</time>
      </trkpt>
      <trkpt lat="46.64126" lon="6.11401">
        <ele>1260.7</ele>
        <time>2020-07-14T09:05:19Z</time>
      </trkpt>
      <trkpt lat="46.64124" lon="6.11407">
        <ele>1259.6</ele>
        <time>2020-07-14T09:05:25Z</time>
      </trkpt>
      <trkpt lat="46.6412" lon="6.11412">
        <ele>1258.6</ele>
        <time>2020-07-14T09:05:31Z</time>
      </trkpt>
      <trkpt lat="46.64116" lon="6.11415">
        <ele>1257.6</ele>
        <time>2020-07-14T09:05:38Z</time>
      </trkpt>
      <trkpt lat="46.64113" lon="6.11422">
        <ele>1256.3</ele>
        <time>2020-07-14T09:05:45Z</time>
      </trkpt>
      <trkpt lat="46.64112" lon="6.11429">
        <ele>1255.4</ele>
        <time>2020-07-14T09:05:49Z</time>
      </trkpt>
      <trkpt lat="46.64111" lon="6.11437">
        <ele>1254</ele>
        <time>2020-07-14T09:05:55Z</time>
      </trkpt>
      <trkpt lat="46.6411" lon="6.11444">
        <ele>1253.2</ele>
        <time>2020-07-14T09:06:07Z</time>
      </trkpt>
      <trkpt lat="46.64106" lon="6.11451">
        <ele>1254.5</ele>
        <time>2020-07-14T09:06:16Z</time>
      </trkpt>
      <trkpt lat="46.64101" lon="6.11455">
        <ele>1255.1</ele>
        <time>2020-07-14T09:06:21Z</time>
      </trkpt>
      <trkpt lat="46.64097" lon="6.11458">
        <ele>1255.5</ele>
        <time>2020-07-14T09:06:25Z</time>
      </trkpt>
      <trkpt lat="46.64091" lon="6.1146">
        <ele>1255.7</ele>
        <time>2020-07-14T09:06:30Z</time>
      </trkpt>
      <trkpt lat="46.64086" lon="6.1146">
        <ele>1256.1</ele>
        <time>2020-07-14T09:06:36Z</time>
      </trkpt>
      <trkpt lat="46.64082" lon="6.11458">
        <ele>1256.1</ele>
        <time>2020-07-14T09:06:41Z</time>
      </trkpt>
      <trkpt lat="46.64077" lon="6.11455">
        <ele>1255.8</ele>
        <time>2020-07-14T09:06:46Z</time>
      </trkpt>
      <trkpt lat="46.64072" lon="6.11453">
        <ele>1255.4</ele>
        <time>2020-07-14T09:06:50Z</time>
      </trkpt>
      <trkpt lat="46.64068" lon="6.1145">
        <ele>1254.7</ele>
        <time>2020-07-14T09:06:56Z</time>
      </trkpt>
      <trkpt lat="46.64064" lon="6.11446">
        <ele>1253.7</ele>
        <time>2020-07-14T09:07:01Z</time>
      </trkpt>
      <trkpt lat="46.64061" lon="6.11441">
        <ele>1251.9</ele>
        <time>2020-07-14T09:07:07Z</time>
      </trkpt>
      <trkpt lat="46.64058" lon="6.11437">
        <ele>1250.2</ele>
        <time>2020-07-14T09:07:13Z</time>
      </trkpt>
      <trkpt lat="46.64053" lon="6.11432">
        <ele>1249.2</ele>
        <time>2020-07-14T09:07:18Z</time>
      </trkpt>
      <trkpt lat="46.64049" lon="6.11427">
        <ele>1248.8</ele>
        <time>2020-07-14T09:07:21Z</time>
      </trkpt>
      <trkpt lat="46.64046" lon="6.11422">
        <ele>1248.7</ele>
        <time>2020-07-14T09:07:24Z</time>
      </trkpt>
      <trkpt lat="46.64042" lon="6.11418">
        <ele>1248.6</ele>
        <time>2020-07-14T09:07:28Z</time>
      </trkpt>
      <trkpt lat="46.64038" lon="6.11414">
        <ele>1248.5</ele>
        <time>2020-07-14T09:07:33Z</time>
      </trkpt>
      <trkpt lat="46.64035" lon="6.11409">
        <ele>1248.7</ele>
        <time>2020-07-14T09:07:38Z</time>
      </trkpt>
      <trkpt lat="46.64031" lon="6.11406">
        <ele>1249</ele>
        <time>2020-07-14T09:07:44Z</time>
      </trkpt>
      <trkpt lat="46.64026" lon="6.11409">
        <ele>1249.2</ele>
        <time>2020-07-14T09:07:51Z</time>
      </trkpt>
      <trkpt lat="46.64023" lon="6.11415">
        <ele>1248.6</ele>
        <time>2020-07-14T09:08:00Z</time>
      </trkpt>
      <trkpt lat="46.64021" lon="6.11421">
        <ele>1247.8</ele>
        <time>2020-07-14T09:08:06Z</time>
      </trkpt>
      <trkpt lat="46.6402" lon="6.11428">
        <ele>1246.4</ele>
        <time>2020-07-14T09:08:13Z</time>
      </trkpt>
      <trkpt lat="46.64015" lon="6.11427">
        <ele>1245.4</ele>
        <time>2020-07-14T09:08:25Z</time>
      </trkpt>
      <trkpt lat="46.64011" lon="6.11424">
        <ele>1246.1</ele>
        <time>2020-07-14T09:08:31Z</time>
      </trkpt>
      <trkpt lat="46.64006" lon="6.11415">
        <ele>1249.1</ele>
        <time>2020-07-14T09:08:50Z</time>
      </trkpt>
      <trkpt lat="46.64003" lon="6.11409">
        <ele>1249.5</ele>
        <time>2020-07-14T09:08:53Z</time>
      </trkpt>
      <trkpt lat="46.63999" lon="6.11404">
        <ele>1249.9</ele>
        <time>2020-07-14T09:08:57Z</time>
      </trkpt>
      <trkpt lat="46.63997" lon="6.11398">
        <ele>1250</ele>
        <time>2020-07-14T09:09:02Z</time>
      </trkpt>
      <trkpt lat="46.63995" lon="6.11392">
        <ele>1249.8</ele>
        <time>2020-07-14T09:09:07Z</time>
      </trkpt>
      <trkpt lat="46.63992" lon="6.11386">
        <ele>1249.4</ele>
        <time>2020-07-14T09:09:14Z</time>
      </trkpt>
      <trkpt lat="46.63987" lon="6.11372">
        <ele>1247.4</ele>
        <time>2020-07-14T09:09:29Z</time>
      </trkpt>
      <trkpt lat="46.63982" lon="6.11355">
        <ele>1245</ele>
        <time>2020-07-14T09:09:39Z</time>
      </trkpt>
      <trkpt lat="46.63979" lon="6.11351">
        <ele>1244.3</ele>
        <time>2020-07-14T09:09:44Z</time>
      </trkpt>
      <trkpt lat="46.63975" lon="6.11345">
        <ele>1243.8</ele>
        <time>2020-07-14T09:09:52Z</time>
      </trkpt>
      <trkpt lat="46.63972" lon="6.1134">
        <ele>1243.4</ele>
        <time>2020-07-14T09:10:05Z</time>
      </trkpt>
      <trkpt lat="46.6397" lon="6.11334">
        <ele>1243.6</ele>
        <time>2020-07-14T09:10:09Z</time>
      </trkpt>
      <trkpt lat="46.63963" lon="6.11316">
        <ele>1244.4</ele>
        <time>2020-07-14T09:10:22Z</time>
      </trkpt>
      <trkpt lat="46.63961" lon="6.11309">
        <ele>1244.7</ele>
        <time>2020-07-14T09:10:29Z</time>
      </trkpt>
      <trkpt lat="46.6396" lon="6.11302">
        <ele>1244.7</ele>
        <time>2020-07-14T09:10:31Z</time>
      </trkpt>
      <trkpt lat="46.63959" lon="6.11294">
        <ele>1244.8</ele>
        <time>2020-07-14T09:10:33Z</time>
      </trkpt>
      <trkpt lat="46.63958" lon="6.11285">
        <ele>1244.9</ele>
        <time>2020-07-14T09:10:36Z</time>
      </trkpt>
      <trkpt lat="46.63958" lon="6.11278">
        <ele>1245.2</ele>
        <time>2020-07-14T09:10:40Z</time>
      </trkpt>
      <trkpt lat="46.63959" lon="6.11272">
        <ele>1245.7</ele>
        <time>2020-07-14T09:10:45Z</time>
      </trkpt>
      <trkpt lat="46.63962" lon="6.11265">
        <ele>1246.7</ele>
        <time>2020-07-14T09:10:51Z</time>
      </trkpt>
      <trkpt lat="46.63962" lon="6.11258">
        <ele>1247.6</ele>
        <time>2020-07-14T09:10:55Z</time>
      </trkpt>
      <trkpt lat="46.6396" lon="6.11252">
        <ele>1249.6</ele>
        <time>2020-07-14T09:11:04Z</time>
      </trkpt>
      <trkpt lat="46.63958" lon="6.11246">
        <ele>1250.1</ele>
        <time>2020-07-14T09:11:09Z</time>
      </trkpt>
      <trkpt lat="46.63955" lon="6.1124">
        <ele>1250.6</ele>
        <time>2020-07-14T09:11:18Z</time>
      </trkpt>
      <trkpt lat="46.63952" lon="6.11235">
        <ele>1250.1</ele>
        <time>2020-07-14T09:11:26Z</time>
      </trkpt>
      <trkpt lat="46.63949" lon="6.1123">
        <ele>1249.4</ele>
        <time>2020-07-14T09:11:32Z</time>
      </trkpt>
      <trkpt lat="46.63945" lon="6.11228">
        <ele>1248.8</ele>
        <time>2020-07-14T09:11:37Z</time>
      </trkpt>
      <trkpt lat="46.6394" lon="6.11221">
        <ele>1248.5</ele>
        <time>2020-07-14T09:11:41Z</time>
      </trkpt>
      <trkpt lat="46.63936" lon="6.11215">
        <ele>1248.3</ele>
        <time>2020-07-14T09:11:44Z</time>
      </trkpt>
      <trkpt lat="46.63931" lon="6.11212">
        <ele>1248.1</ele>
        <time>2020-07-14T09:11:47Z</time>
      </trkpt>
      <trkpt lat="46.63926" lon="6.11209">
        <ele>1247.4</ele>
        <time>2020-07-14T09:11:54Z</time>
      </trkpt>
      <trkpt lat="46.63923" lon="6.11204">
        <ele>1246.8</ele>
        <time>2020-07-14T09:12:03Z</time>
      </trkpt>
      <trkpt lat="46.6392" lon="6.11198">
        <ele>1246.7</ele>
        <time>2020-07-14T09:12:07Z</time>
      </trkpt>
      <trkpt lat="46.63915" lon="6.11195">
        <ele>1246.4</ele>
        <time>2020-07-14T09:12:11Z</time>
      </trkpt>
      <trkpt lat="46.63911" lon="6.11192">
        <ele>1246.2</ele>
        <time>2020-07-14T09:12:18Z</time>
      </trkpt>
      <trkpt lat="46.63906" lon="6.11192">
        <ele>1246.4</ele>
        <time>2020-07-14T09:12:23Z</time>
      </trkpt>
      <trkpt lat="46.63901" lon="6.11192">
        <ele>1246.5</ele>
        <time>2020-07-14T09:12:29Z</time>
      </trkpt>
      <trkpt lat="46.63898" lon="6.11187">
        <ele>1246.9</ele>
        <time>2020-07-14T09:12:34Z</time>
      </trkpt>
      <trkpt lat="46.63894" lon="6.11184">
        <ele>1247.4</ele>
        <time>2020-07-14T09:12:39Z</time>
      </trkpt>
      <trkpt lat="46.63883" lon="6.11166">
        <ele>1247.6</ele>
        <time>2020-07-14T09:12:52Z</time>
      </trkpt>
      <trkpt lat="46.63882" lon="6.11159">
        <ele>1247.4</ele>
        <time>2020-07-14T09:12:56Z</time>
      </trkpt>
      <trkpt lat="46.6388" lon="6.11151">
        <ele>1247.4</ele>
        <time>2020-07-14T09:13:00Z</time>
      </trkpt>
      <trkpt lat="46.63878" lon="6.11144">
        <ele>1247.2</ele>
        <time>2020-07-14T09:13:05Z</time>
      </trkpt>
      <trkpt lat="46.63876" lon="6.11138">
        <ele>1247.2</ele>
        <time>2020-07-14T09:13:09Z</time>
      </trkpt>
      <trkpt lat="46.63874" lon="6.11131">
        <ele>1247.4</ele>
        <time>2020-07-14T09:13:13Z</time>
      </trkpt>
      <trkpt lat="46.63874" lon="6.11124">
        <ele>1247.7</ele>
        <time>2020-07-14T09:13:18Z</time>
      </trkpt>
      <trkpt lat="46.63873" lon="6.11117">
        <ele>1248</ele>
        <time>2020-07-14T09:13:22Z</time>
      </trkpt>
      <trkpt lat="46.63871" lon="6.1111">
        <ele>1248.3</ele>
        <time>2020-07-14T09:13:28Z</time>
      </trkpt>
      <trkpt lat="46.63871" lon="6.11102">
        <ele>1248.1</ele>
        <time>2020-07-14T09:13:38Z</time>
      </trkpt>
      <trkpt lat="46.6387" lon="6.11095">
        <ele>1247.8</ele>
        <time>2020-07-14T09:13:43Z</time>
      </trkpt>
      <trkpt lat="46.63868" lon="6.11089">
        <ele>1246.7</ele>
        <time>2020-07-14T09:13:50Z</time>
      </trkpt>
      <trkpt lat="46.63867" lon="6.11081">
        <ele>1245.3</ele>
        <time>2020-07-14T09:13:56Z</time>
      </trkpt>
      <trkpt lat="46.63867" lon="6.11075">
        <ele>1244</ele>
        <time>2020-07-14T09:14:01Z</time>
      </trkpt>
      <trkpt lat="46.63864" lon="6.11069">
        <ele>1243.1</ele>
        <time>2020-07-14T09:14:05Z</time>
      </trkpt>
      <trkpt lat="46.6386" lon="6.11065">
        <ele>1242.7</ele>
        <time>2020-07-14T09:14:09Z</time>
      </trkpt>
      <trkpt lat="46.6385" lon="6.1106">
        <ele>1243.8</ele>
        <time>2020-07-14T09:14:21Z</time>
      </trkpt>
      <trkpt lat="46.63846" lon="6.11056">
        <ele>1244.3</ele>
        <time>2020-07-14T09:14:25Z</time>
      </trkpt>
      <trkpt lat="46.63842" lon="6.11052">
        <ele>1244.6</ele>
        <time>2020-07-14T09:14:29Z</time>
      </trkpt>
      <trkpt lat="46.63837" lon="6.11051">
        <ele>1244.5</ele>
        <time>2020-07-14T09:14:33Z</time>
      </trkpt>
      <trkpt lat="46.63836" lon="6.11044">
        <ele>1244.6</ele>
        <time>2020-07-14T09:14:47Z</time>
      </trkpt>
      <trkpt lat="46.63836" lon="6.11037">
        <ele>1244.8</ele>
        <time>2020-07-14T09:14:51Z</time>
      </trkpt>
      <trkpt lat="46.63838" lon="6.1103">
        <ele>1245.3</ele>
        <time>2020-07-14T09:15:00Z</time>
      </trkpt>
      <trkpt lat="46.63839" lon="6.11024">
        <ele>1245.7</ele>
        <time>2020-07-14T09:15:07Z</time>
      </trkpt>
      <trkpt lat="46.63841" lon="6.11017">
        <ele>1245.7</ele>
        <time>2020-07-14T09:15:10Z</time>
      </trkpt>
      <trkpt lat="46.63842" lon="6.11009">
        <ele>1245.6</ele>
        <time>2020-07-14T09:15:13Z</time>
      </trkpt>
      <trkpt lat="46.63843" lon="6.11002">
        <ele>1245.3</ele>
        <time>2020-07-14T09:15:18Z</time>
      </trkpt>
      <trkpt lat="46.63846" lon="6.10996">
        <ele>1245.1</ele>
        <time>2020-07-14T09:15:23Z</time>
      </trkpt>
      <trkpt lat="46.63848" lon="6.10989">
        <ele>1244.8</ele>
        <time>2020-07-14T09:15:28Z</time>
      </trkpt>
      <trkpt lat="46.63849" lon="6.10982">
        <ele>1244.3</ele>
        <time>2020-07-14T09:15:32Z</time>
      </trkpt>
      <trkpt lat="46.63851" lon="6.10975">
        <ele>1243.8</ele>
        <time>2020-07-14T09:15:36Z</time>
      </trkpt>
      <trkpt lat="46.63854" lon="6.10968">
        <ele>1243.1</ele>
        <time>2020-07-14T09:15:43Z</time>
      </trkpt>
      <trkpt lat="46.63858" lon="6.10963">
        <ele>1243.2</ele>
        <time>2020-07-14T09:15:48Z</time>
      </trkpt>
      <trkpt lat="46.63861" lon="6.10958">
        <ele>1243.4</ele>
        <time>2020-07-14T09:15:51Z</time>
      </trkpt>
      <trkpt lat="46.63863" lon="6.10952">
        <ele>1243.6</ele>
        <time>2020-07-14T09:15:54Z</time>
      </trkpt>
      <trkpt lat="46.63865" lon="6.10944">
        <ele>1243.9</ele>
        <time>2020-07-14T09:15:58Z</time>
      </trkpt>
      <trkpt lat="46.63866" lon="6.10937">
        <ele>1244.5</ele>
        <time>2020-07-14T09:16:05Z</time>
      </trkpt>
      <trkpt lat="46.63867" lon="6.1093">
        <ele>1245</ele>
        <time>2020-07-14T09:16:13Z</time>
      </trkpt>
      <trkpt lat="46.63869" lon="6.10923">
        <ele>1245</ele>
        <time>2020-07-14T09:16:20Z</time>
      </trkpt>
      <trkpt lat="46.6387" lon="6.10915">
        <ele>1244.9</ele>
        <time>2020-07-14T09:16:26Z</time>
      </trkpt>
      <trkpt lat="46.63872" lon="6.10908">
        <ele>1244.7</ele>
        <time>2020-07-14T09:16:31Z</time>
      </trkpt>
      <trkpt lat="46.63873" lon="6.10901">
        <ele>1244.4</ele>
        <time>2020-07-14T09:16:36Z</time>
      </trkpt>
      <trkpt lat="46.63874" lon="6.10893">
        <ele>1244.1</ele>
        <time>2020-07-14T09:16:41Z</time>
      </trkpt>
      <trkpt lat="46.63877" lon="6.10886">
        <ele>1244.1</ele>
        <time>2020-07-14T09:16:46Z</time>
      </trkpt>
      <trkpt lat="46.6388" lon="6.10879">
        <ele>1244.1</ele>
        <time>2020-07-14T09:16:50Z</time>
      </trkpt>
      <trkpt lat="46.63883" lon="6.10873">
        <ele>1244.1</ele>
        <time>2020-07-14T09:16:54Z</time>
      </trkpt>
      <trkpt lat="46.63885" lon="6.10867">
        <ele>1244.3</ele>
        <time>2020-07-14T09:16:59Z</time>
      </trkpt>
      <trkpt lat="46.63887" lon="6.10861">
        <ele>1244.9</ele>
        <time>2020-07-14T09:17:04Z</time>
      </trkpt>
      <trkpt lat="46.6389" lon="6.10856">
        <ele>1245.5</ele>
        <time>2020-07-14T09:17:10Z</time>
      </trkpt>
      <trkpt lat="46.63894" lon="6.10851">
        <ele>1246</ele>
        <time>2020-07-14T09:17:16Z</time>
      </trkpt>
      <trkpt lat="46.63896" lon="6.10845">
        <ele>1246.2</ele>
        <time>2020-07-14T09:17:20Z</time>
      </trkpt>
      <trkpt lat="46.63899" lon="6.10839">
        <ele>1246.2</ele>
        <time>2020-07-14T09:17:27Z</time>
      </trkpt>
      <trkpt lat="46.63906" lon="6.10824">
        <ele>1243.7</ele>
        <time>2020-07-14T09:18:30Z</time>
      </trkpt>
      <trkpt lat="46.63909" lon="6.10818">
        <ele>1243.2</ele>
        <time>2020-07-14T09:18:35Z</time>
      </trkpt>
      <trkpt lat="46.6391" lon="6.10811">
        <ele>1243.3</ele>
        <time>2020-07-14T09:18:41Z</time>
      </trkpt>
      <trkpt lat="46.63909" lon="6.10803">
        <ele>1243.6</ele>
        <time>2020-07-14T09:18:47Z</time>
      </trkpt>
      <trkpt lat="46.63907" lon="6.10797">
        <ele>1243.7</ele>
        <time>2020-07-14T09:18:51Z</time>
      </trkpt>
      <trkpt lat="46.63906" lon="6.1079">
        <ele>1244</ele>
        <time>2020-07-14T09:18:57Z</time>
      </trkpt>
      <trkpt lat="46.63904" lon="6.10784">
        <ele>1244</ele>
        <time>2020-07-14T09:19:04Z</time>
      </trkpt>
      <trkpt lat="46.63902" lon="6.10776">
        <ele>1244</ele>
        <time>2020-07-14T09:19:10Z</time>
      </trkpt>
      <trkpt lat="46.63902" lon="6.10768">
        <ele>1244.1</ele>
        <time>2020-07-14T09:19:17Z</time>
      </trkpt>
      <trkpt lat="46.63903" lon="6.10762">
        <ele>1244.3</ele>
        <time>2020-07-14T09:19:22Z</time>
      </trkpt>
      <trkpt lat="46.63905" lon="6.10755">
        <ele>1244.4</ele>
        <time>2020-07-14T09:19:28Z</time>
      </trkpt>
      <trkpt lat="46.63907" lon="6.1075">
        <ele>1244.4</ele>
        <time>2020-07-14T09:19:40Z</time>
      </trkpt>
      <trkpt lat="46.63912" lon="6.10749">
        <ele>1245.1</ele>
        <time>2020-07-14T09:19:56Z</time>
      </trkpt>
      <trkpt lat="46.63912" lon="6.10742">
        <ele>1245.6</ele>
        <time>2020-07-14T09:20:08Z</time>
      </trkpt>
      <trkpt lat="46.63911" lon="6.10735">
        <ele>1245</ele>
        <time>2020-07-14T09:20:14Z</time>
      </trkpt>
      <trkpt lat="46.63911" lon="6.10729">
        <ele>1244.6</ele>
        <time>2020-07-14T09:20:19Z</time>
      </trkpt>
      <trkpt lat="46.63912" lon="6.10721">
        <ele>1244.5</ele>
        <time>2020-07-14T09:20:24Z</time>
      </trkpt>
      <trkpt lat="46.63913" lon="6.10714">
        <ele>1244.5</ele>
        <time>2020-07-14T09:20:29Z</time>
      </trkpt>
      <trkpt lat="46.63912" lon="6.10721">
        <ele>1245.9</ele>
        <time>2020-07-14T09:20:51Z</time>
      </trkpt>
      <trkpt lat="46.63912" lon="6.10729">
        <ele>1246.1</ele>
        <time>2020-07-14T09:20:55Z</time>
      </trkpt>
      <trkpt lat="46.63911" lon="6.10736">
        <ele>1246.3</ele>
        <time>2020-07-14T09:20:59Z</time>
      </trkpt>
      <trkpt lat="46.63908" lon="6.10743">
        <ele>1246</ele>
        <time>2020-07-14T09:21:05Z</time>
      </trkpt>
      <trkpt lat="46.63907" lon="6.1075">
        <ele>1245.5</ele>
        <time>2020-07-14T09:21:10Z</time>
      </trkpt>
      <trkpt lat="46.63906" lon="6.10757">
        <ele>1245.1</ele>
        <time>2020-07-14T09:21:15Z</time>
      </trkpt>
      <trkpt lat="46.63906" lon="6.10764">
        <ele>1244.9</ele>
        <time>2020-07-14T09:21:22Z</time>
      </trkpt>
      <trkpt lat="46.63905" lon="6.10772">
        <ele>1244.4</ele>
        <time>2020-07-14T09:21:29Z</time>
      </trkpt>
      <trkpt lat="46.63906" lon="6.10779">
        <ele>1243.8</ele>
        <time>2020-07-14T09:21:35Z</time>
      </trkpt>
      <trkpt lat="46.63908" lon="6.10785">
        <ele>1243.6</ele>
        <time>2020-07-14T09:21:39Z</time>
      </trkpt>
      <trkpt lat="46.6391" lon="6.10791">
        <ele>1243.4</ele>
        <time>2020-07-14T09:21:42Z</time>
      </trkpt>
      <trkpt lat="46.63911" lon="6.10798">
        <ele>1243</ele>
        <time>2020-07-14T09:21:48Z</time>
      </trkpt>
      <trkpt lat="46.63912" lon="6.10805">
        <ele>1242.7</ele>
        <time>2020-07-14T09:21:54Z</time>
      </trkpt>
      <trkpt lat="46.63911" lon="6.10813">
        <ele>1243.1</ele>
        <time>2020-07-14T09:22:00Z</time>
      </trkpt>
      <trkpt lat="46.6391" lon="6.10819">
        <ele>1243.7</ele>
        <time>2020-07-14T09:22:08Z</time>
      </trkpt>
      <trkpt lat="46.63909" lon="6.10826">
        <ele>1243.7</ele>
        <time>2020-07-14T09:22:14Z</time>
      </trkpt>
      <trkpt lat="46.63907" lon="6.10833">
        <ele>1243.7</ele>
        <time>2020-07-14T09:22:19Z</time>
      </trkpt>
      <trkpt lat="46.63904" lon="6.10841">
        <ele>1244.1</ele>
        <time>2020-07-14T09:22:36Z</time>
      </trkpt>
      <trkpt lat="46.63902" lon="6.10847">
        <ele>1244.7</ele>
        <time>2020-07-14T09:22:44Z</time>
      </trkpt>
      <trkpt lat="46.63899" lon="6.10852">
        <ele>1245.1</ele>
        <time>2020-07-14T09:22:53Z</time>
      </trkpt>
      <trkpt lat="46.63896" lon="6.10858">
        <ele>1245.2</ele>
        <time>2020-07-14T09:22:56Z</time>
      </trkpt>
      <trkpt lat="46.63893" lon="6.10864">
        <ele>1245.3</ele>
        <time>2020-07-14T09:22:59Z</time>
      </trkpt>
      <trkpt lat="46.6389" lon="6.1087">
        <ele>1245.5</ele>
        <time>2020-07-14T09:23:02Z</time>
      </trkpt>
      <trkpt lat="46.63887" lon="6.10877">
        <ele>1245.5</ele>
        <time>2020-07-14T09:23:04Z</time>
      </trkpt>
      <trkpt lat="46.63884" lon="6.10884">
        <ele>1245.6</ele>
        <time>2020-07-14T09:23:06Z</time>
      </trkpt>
      <trkpt lat="46.63882" lon="6.1089">
        <ele>1245.7</ele>
        <time>2020-07-14T09:23:09Z</time>
      </trkpt>
      <trkpt lat="46.6388" lon="6.10897">
        <ele>1246.1</ele>
        <time>2020-07-14T09:23:14Z</time>
      </trkpt>
      <trkpt lat="46.63878" lon="6.10903">
        <ele>1246.9</ele>
        <time>2020-07-14T09:23:21Z</time>
      </trkpt>
      <trkpt lat="46.63875" lon="6.10908">
        <ele>1247.4</ele>
        <time>2020-07-14T09:23:30Z</time>
      </trkpt>
      <trkpt lat="46.63872" lon="6.10915">
        <ele>1247.5</ele>
        <time>2020-07-14T09:23:38Z</time>
      </trkpt>
      <trkpt lat="46.63871" lon="6.10921">
        <ele>1247.5</ele>
        <time>2020-07-14T09:23:44Z</time>
      </trkpt>
      <trkpt lat="46.63871" lon="6.10929">
        <ele>1247.2</ele>
        <time>2020-07-14T09:23:49Z</time>
      </trkpt>
      <trkpt lat="46.63871" lon="6.10936">
        <ele>1246.2</ele>
        <time>2020-07-14T09:23:57Z</time>
      </trkpt>
      <trkpt lat="46.6387" lon="6.10943">
        <ele>1245.5</ele>
        <time>2020-07-14T09:24:05Z</time>
      </trkpt>
      <trkpt lat="46.63865" lon="6.10956">
        <ele>1245.9</ele>
        <time>2020-07-14T09:24:16Z</time>
      </trkpt>
      <trkpt lat="46.63864" lon="6.10965">
        <ele>1246</ele>
        <time>2020-07-14T09:24:18Z</time>
      </trkpt>
      <trkpt lat="46.63861" lon="6.1097">
        <ele>1246.1</ele>
        <time>2020-07-14T09:24:20Z</time>
      </trkpt>
      <trkpt lat="46.63858" lon="6.10979">
        <ele>1246.6</ele>
        <time>2020-07-14T09:24:26Z</time>
      </trkpt>
      <trkpt lat="46.63857" lon="6.10986">
        <ele>1246.7</ele>
        <time>2020-07-14T09:24:28Z</time>
      </trkpt>
      <trkpt lat="46.63854" lon="6.10993">
        <ele>1246.8</ele>
        <time>2020-07-14T09:24:30Z</time>
      </trkpt>
      <trkpt lat="46.63851" lon="6.10998">
        <ele>1246.8</ele>
        <time>2020-07-14T09:24:32Z</time>
      </trkpt>
      <trkpt lat="46.63848" lon="6.11003">
        <ele>1246.8</ele>
        <time>2020-07-14T09:24:36Z</time>
      </trkpt>
      <trkpt lat="46.63847" lon="6.1101">
        <ele>1246.5</ele>
        <time>2020-07-14T09:24:46Z</time>
      </trkpt>
      <trkpt lat="46.63846" lon="6.11017">
        <ele>1246.3</ele>
        <time>2020-07-14T09:24:50Z</time>
      </trkpt>
      <trkpt lat="46.63844" lon="6.11024">
        <ele>1245.9</ele>
        <time>2020-07-14T09:24:55Z</time>
      </trkpt>
      <trkpt lat="46.63843" lon="6.11031">
        <ele>1245.7</ele>
        <time>2020-07-14T09:25:03Z</time>
      </trkpt>
      <trkpt lat="46.63843" lon="6.11037">
        <ele>1245.9</ele>
        <time>2020-07-14T09:25:09Z</time>
      </trkpt>
      <trkpt lat="46.63846" lon="6.11044">
        <ele>1247.1</ele>
        <time>2020-07-14T09:25:21Z</time>
      </trkpt>
      <trkpt lat="46.63847" lon="6.11052">
        <ele>1247.5</ele>
        <time>2020-07-14T09:25:23Z</time>
      </trkpt>
      <trkpt lat="46.6385" lon="6.11058">
        <ele>1248.6</ele>
        <time>2020-07-14T09:25:28Z</time>
      </trkpt>
      <trkpt lat="46.63855" lon="6.11062">
        <ele>1251</ele>
        <time>2020-07-14T09:25:36Z</time>
      </trkpt>
      <trkpt lat="46.6386" lon="6.11061">
        <ele>1251.7</ele>
        <time>2020-07-14T09:25:38Z</time>
      </trkpt>
      <trkpt lat="46.63871" lon="6.11082">
        <ele>1256.1</ele>
        <time>2020-07-14T09:26:08Z</time>
      </trkpt>
      <trkpt lat="46.63871" lon="6.11089">
        <ele>1256.3</ele>
        <time>2020-07-14T09:26:12Z</time>
      </trkpt>
      <trkpt lat="46.63871" lon="6.11097">
        <ele>1256.4</ele>
        <time>2020-07-14T09:26:18Z</time>
      </trkpt>
      <trkpt lat="46.63872" lon="6.11104">
        <ele>1256.6</ele>
        <time>2020-07-14T09:26:24Z</time>
      </trkpt>
      <trkpt lat="46.63875" lon="6.11111">
        <ele>1257</ele>
        <time>2020-07-14T09:26:29Z</time>
      </trkpt>
      <trkpt lat="46.63877" lon="6.11117">
        <ele>1257.7</ele>
        <time>2020-07-14T09:26:34Z</time>
      </trkpt>
      <trkpt lat="46.63879" lon="6.11124">
        <ele>1258.1</ele>
        <time>2020-07-14T09:26:38Z</time>
      </trkpt>
      <trkpt lat="46.63881" lon="6.1113">
        <ele>1258.4</ele>
        <time>2020-07-14T09:26:41Z</time>
      </trkpt>
      <trkpt lat="46.63883" lon="6.11136">
        <ele>1258.4</ele>
        <time>2020-07-14T09:26:44Z</time>
      </trkpt>
      <trkpt lat="46.63885" lon="6.11142">
        <ele>1258.1</ele>
        <time>2020-07-14T09:26:48Z</time>
      </trkpt>
      <trkpt lat="46.63886" lon="6.1115">
        <ele>1257.5</ele>
        <time>2020-07-14T09:26:53Z</time>
      </trkpt>
      <trkpt lat="46.63887" lon="6.11156">
        <ele>1256.9</ele>
        <time>2020-07-14T09:26:57Z</time>
      </trkpt>
      <trkpt lat="46.63889" lon="6.11164">
        <ele>1256.3</ele>
        <time>2020-07-14T09:27:02Z</time>
      </trkpt>
      <trkpt lat="46.63891" lon="6.1117">
        <ele>1255.8</ele>
        <time>2020-07-14T09:27:08Z</time>
      </trkpt>
      <trkpt lat="46.63894" lon="6.11176">
        <ele>1255.3</ele>
        <time>2020-07-14T09:27:14Z</time>
      </trkpt>
      <trkpt lat="46.63898" lon="6.11181">
        <ele>1254.9</ele>
        <time>2020-07-14T09:27:19Z</time>
      </trkpt>
      <trkpt lat="46.63901" lon="6.11185">
        <ele>1254.2</ele>
        <time>2020-07-14T09:27:26Z</time>
      </trkpt>
      <trkpt lat="46.63906" lon="6.11188">
        <ele>1253.5</ele>
        <time>2020-07-14T09:27:31Z</time>
      </trkpt>
      <trkpt lat="46.6391" lon="6.11191">
        <ele>1252.8</ele>
        <time>2020-07-14T09:27:38Z</time>
      </trkpt>
      <trkpt lat="46.63915" lon="6.11193">
        <ele>1252.5</ele>
        <time>2020-07-14T09:27:44Z</time>
      </trkpt>
      <trkpt lat="46.6392" lon="6.1119">
        <ele>1251.8</ele>
        <time>2020-07-14T09:27:59Z</time>
      </trkpt>
      <trkpt lat="46.63925" lon="6.11195">
        <ele>1252.6</ele>
        <time>2020-07-14T09:28:28Z</time>
      </trkpt>
      <trkpt lat="46.6393" lon="6.11198">
        <ele>1253.4</ele>
        <time>2020-07-14T09:28:34Z</time>
      </trkpt>
      <trkpt lat="46.63935" lon="6.112">
        <ele>1254.1</ele>
        <time>2020-07-14T09:28:40Z</time>
      </trkpt>
      <trkpt lat="46.63939" lon="6.11204">
        <ele>1254.7</ele>
        <time>2020-07-14T09:28:46Z</time>
      </trkpt>
      <trkpt lat="46.63942" lon="6.11209">
        <ele>1254.9</ele>
        <time>2020-07-14T09:28:51Z</time>
      </trkpt>
      <trkpt lat="46.63945" lon="6.11215">
        <ele>1255</ele>
        <time>2020-07-14T09:28:56Z</time>
      </trkpt>
      <trkpt lat="46.63948" lon="6.11221">
        <ele>1255.2</ele>
        <time>2020-07-14T09:29:02Z</time>
      </trkpt>
      <trkpt lat="46.63951" lon="6.11229">
        <ele>1255.4</ele>
        <time>2020-07-14T09:29:06Z</time>
      </trkpt>
      <trkpt lat="46.63955" lon="6.11236">
        <ele>1255.5</ele>
        <time>2020-07-14T09:29:09Z</time>
      </trkpt>
      <trkpt lat="46.63958" lon="6.11241">
        <ele>1255.7</ele>
        <time>2020-07-14T09:29:13Z</time>
      </trkpt>
      <trkpt lat="46.63963" lon="6.11247">
        <ele>1256</ele>
        <time>2020-07-14T09:29:18Z</time>
      </trkpt>
      <trkpt lat="46.63966" lon="6.11253">
        <ele>1256.4</ele>
        <time>2020-07-14T09:29:24Z</time>
      </trkpt>
      <trkpt lat="46.63967" lon="6.1126">
        <ele>1256.7</ele>
        <time>2020-07-14T09:29:29Z</time>
      </trkpt>
      <trkpt lat="46.63968" lon="6.11267">
        <ele>1256.9</ele>
        <time>2020-07-14T09:29:34Z</time>
      </trkpt>
      <trkpt lat="46.63969" lon="6.11275">
        <ele>1257</ele>
        <time>2020-07-14T09:29:39Z</time>
      </trkpt>
      <trkpt lat="46.6397" lon="6.11282">
        <ele>1257.1</ele>
        <time>2020-07-14T09:29:43Z</time>
      </trkpt>
      <trkpt lat="46.6397" lon="6.11289">
        <ele>1257.2</ele>
        <time>2020-07-14T09:29:48Z</time>
      </trkpt>
      <trkpt lat="46.63969" lon="6.11297">
        <ele>1257</ele>
        <time>2020-07-14T09:29:53Z</time>
      </trkpt>
      <trkpt lat="46.6397" lon="6.11304">
        <ele>1256.7</ele>
        <time>2020-07-14T09:29:57Z</time>
      </trkpt>
      <trkpt lat="46.63972" lon="6.11311">
        <ele>1255.9</ele>
        <time>2020-07-14T09:30:03Z</time>
      </trkpt>
      <trkpt lat="46.63972" lon="6.11318">
        <ele>1253.8</ele>
        <time>2020-07-14T09:30:14Z</time>
      </trkpt>
      <trkpt lat="46.63972" lon="6.11325">
        <ele>1252.9</ele>
        <time>2020-07-14T09:30:20Z</time>
      </trkpt>
      <trkpt lat="46.63975" lon="6.11342">
        <ele>1251</ele>
        <time>2020-07-14T09:30:31Z</time>
      </trkpt>
      <trkpt lat="46.63978" lon="6.11347">
        <ele>1250.6</ele>
        <time>2020-07-14T09:30:35Z</time>
      </trkpt>
      <trkpt lat="46.6398" lon="6.11353">
        <ele>1250.1</ele>
        <time>2020-07-14T09:30:39Z</time>
      </trkpt>
      <trkpt lat="46.63982" lon="6.11359">
        <ele>1249.8</ele>
        <time>2020-07-14T09:30:42Z</time>
      </trkpt>
      <trkpt lat="46.63985" lon="6.11364">
        <ele>1249.5</ele>
        <time>2020-07-14T09:30:47Z</time>
      </trkpt>
      <trkpt lat="46.63989" lon="6.11369">
        <ele>1250.3</ele>
        <time>2020-07-14T09:30:57Z</time>
      </trkpt>
      <trkpt lat="46.6399" lon="6.11375">
        <ele>1251.3</ele>
        <time>2020-07-14T09:31:03Z</time>
      </trkpt>
      <trkpt lat="46.63994" lon="6.11379">
        <ele>1252.4</ele>
        <time>2020-07-14T09:31:10Z</time>
      </trkpt>
      <trkpt lat="46.63997" lon="6.11386">
        <ele>1253</ele>
        <time>2020-07-14T09:31:16Z</time>
      </trkpt>
      <trkpt lat="46.63999" lon="6.11393">
        <ele>1253.4</ele>
        <time>2020-07-14T09:31:20Z</time>
      </trkpt>
      <trkpt lat="46.64001" lon="6.11399">
        <ele>1253.7</ele>
        <time>2020-07-14T09:31:24Z</time>
      </trkpt>
      <trkpt lat="46.64003" lon="6.11405">
        <ele>1254.2</ele>
        <time>2020-07-14T09:31:32Z</time>
      </trkpt>
      <trkpt lat="46.64005" lon="6.11411">
        <ele>1254.6</ele>
        <time>2020-07-14T09:31:38Z</time>
      </trkpt>
      <trkpt lat="46.64006" lon="6.11417">
        <ele>1255.1</ele>
        <time>2020-07-14T09:31:46Z</time>
      </trkpt>
      <trkpt lat="46.64009" lon="6.11422">
        <ele>1255.3</ele>
        <time>2020-07-14T09:31:53Z</time>
      </trkpt>
      <trkpt lat="46.64013" lon="6.11427">
        <ele>1255.4</ele>
        <time>2020-07-14T09:32:00Z</time>
      </trkpt>
      <trkpt lat="46.64017" lon="6.11431">
        <ele>1255.5</ele>
        <time>2020-07-14T09:32:04Z</time>
      </trkpt>
      <trkpt lat="46.64021" lon="6.11435">
        <ele>1255.5</ele>
        <time>2020-07-14T09:32:09Z</time>
      </trkpt>
      <trkpt lat="46.6402" lon="6.11443">
        <ele>1255.4</ele>
        <time>2020-07-14T09:32:16Z</time>
      </trkpt>
      <trkpt lat="46.64023" lon="6.11449">
        <ele>1255.3</ele>
        <time>2020-07-14T09:32:20Z</time>
      </trkpt>
      <trkpt lat="46.64026" lon="6.11454">
        <ele>1255.2</ele>
        <time>2020-07-14T09:32:24Z</time>
      </trkpt>
      <trkpt lat="46.64029" lon="6.1146">
        <ele>1255.1</ele>
        <time>2020-07-14T09:32:29Z</time>
      </trkpt>
      <trkpt lat="46.64033" lon="6.11466">
        <ele>1255.1</ele>
        <time>2020-07-14T09:32:35Z</time>
      </trkpt>
      <trkpt lat="46.64036" lon="6.11471">
        <ele>1255</ele>
        <time>2020-07-14T09:32:42Z</time>
      </trkpt>
      <trkpt lat="46.6404" lon="6.11476">
        <ele>1254.6</ele>
        <time>2020-07-14T09:32:47Z</time>
      </trkpt>
      <trkpt lat="46.64044" lon="6.11481">
        <ele>1253.9</ele>
        <time>2020-07-14T09:32:53Z</time>
      </trkpt>
      <trkpt lat="46.64047" lon="6.11487">
        <ele>1253.4</ele>
        <time>2020-07-14T09:32:59Z</time>
      </trkpt>
      <trkpt lat="46.64051" lon="6.11493">
        <ele>1253.2</ele>
        <time>2020-07-14T09:33:03Z</time>
      </trkpt>
      <trkpt lat="46.64055" lon="6.11498">
        <ele>1252.9</ele>
        <time>2020-07-14T09:33:07Z</time>
      </trkpt>
      <trkpt lat="46.64059" lon="6.11506">
        <ele>1252.4</ele>
        <time>2020-07-14T09:33:12Z</time>
      </trkpt>
      <trkpt lat="46.64062" lon="6.11512">
        <ele>1252</ele>
        <time>2020-07-14T09:33:16Z</time>
      </trkpt>
      <trkpt lat="46.64065" lon="6.11517">
        <ele>1251.7</ele>
        <time>2020-07-14T09:33:18Z</time>
      </trkpt>
      <trkpt lat="46.64069" lon="6.11522">
        <ele>1251.3</ele>
        <time>2020-07-14T09:33:23Z</time>
      </trkpt>
      <trkpt lat="46.64083" lon="6.11549">
        <ele>1250.9</ele>
        <time>2020-07-14T09:33:39Z</time>
      </trkpt>
      <trkpt lat="46.64083" lon="6.11557">
        <ele>1251</ele>
        <time>2020-07-14T09:33:42Z</time>
      </trkpt>
      <trkpt lat="46.64085" lon="6.11564">
        <ele>1251.1</ele>
        <time>2020-07-14T09:33:47Z</time>
      </trkpt>
      <trkpt lat="46.64087" lon="6.11571">
        <ele>1251.2</ele>
        <time>2020-07-14T09:33:53Z</time>
      </trkpt>
      <trkpt lat="46.64087" lon="6.11578">
        <ele>1251.6</ele>
        <time>2020-07-14T09:33:58Z</time>
      </trkpt>
      <trkpt lat="46.64088" lon="6.11585">
        <ele>1251.9</ele>
        <time>2020-07-14T09:34:04Z</time>
      </trkpt>
      <trkpt lat="46.64091" lon="6.11591">
        <ele>1251.9</ele>
        <time>2020-07-14T09:34:10Z</time>
      </trkpt>
      <trkpt lat="46.64094" lon="6.11596">
        <ele>1251.5</ele>
        <time>2020-07-14T09:34:18Z</time>
      </trkpt>
      <trkpt lat="46.64096" lon="6.11604">
        <ele>1250.3</ele>
        <time>2020-07-14T09:34:26Z</time>
      </trkpt>
      <trkpt lat="46.641" lon="6.11621">
        <ele>1247.6</ele>
        <time>2020-07-14T09:34:41Z</time>
      </trkpt>
      <trkpt lat="46.641" lon="6.11628">
        <ele>1247.3</ele>
        <time>2020-07-14T09:34:44Z</time>
      </trkpt>
      <trkpt lat="46.641" lon="6.11635">
        <ele>1247</ele>
        <time>2020-07-14T09:34:47Z</time>
      </trkpt>
      <trkpt lat="46.641" lon="6.11642">
        <ele>1246.4</ele>
        <time>2020-07-14T09:34:52Z</time>
      </trkpt>
      <trkpt lat="46.64095" lon="6.11644">
        <ele>1244.1</ele>
        <time>2020-07-14T09:35:04Z</time>
      </trkpt>
      <trkpt lat="46.6409" lon="6.11642">
        <ele>1243.4</ele>
        <time>2020-07-14T09:35:07Z</time>
      </trkpt>
      <trkpt lat="46.64077" lon="6.11643">
        <ele>1241.2</ele>
        <time>2020-07-14T09:35:16Z</time>
      </trkpt>
      <trkpt lat="46.64073" lon="6.11643">
        <ele>1240.9</ele>
        <time>2020-07-14T09:35:21Z</time>
      </trkpt>
      <trkpt lat="46.64071" lon="6.1165">
        <ele>1240.5</ele>
        <time>2020-07-14T09:35:25Z</time>
      </trkpt>
      <trkpt lat="46.64072" lon="6.11667">
        <ele>1237.6</ele>
        <time>2020-07-14T09:35:36Z</time>
      </trkpt>
      <trkpt lat="46.64074" lon="6.11674">
        <ele>1236</ele>
        <time>2020-07-14T09:35:46Z</time>
      </trkpt>
      <trkpt lat="46.64075" lon="6.1168">
        <ele>1235.7</ele>
        <time>2020-07-14T09:35:48Z</time>
      </trkpt>
      <trkpt lat="46.64077" lon="6.11691">
        <ele>1235.4</ele>
        <time>2020-07-14T09:35:51Z</time>
      </trkpt>
      <trkpt lat="46.64078" lon="6.11697">
        <ele>1235.2</ele>
        <time>2020-07-14T09:35:53Z</time>
      </trkpt>
      <trkpt lat="46.6408" lon="6.11704">
        <ele>1234.8</ele>
        <time>2020-07-14T09:35:58Z</time>
      </trkpt>
      <trkpt lat="46.6408" lon="6.11713">
        <ele>1234.7</ele>
        <time>2020-07-14T09:36:01Z</time>
      </trkpt>
      <trkpt lat="46.64081" lon="6.1172">
        <ele>1234.6</ele>
        <time>2020-07-14T09:36:04Z</time>
      </trkpt>
      <trkpt lat="46.64083" lon="6.11727">
        <ele>1235.2</ele>
        <time>2020-07-14T09:36:13Z</time>
      </trkpt>
      <trkpt lat="46.64087" lon="6.11731">
        <ele>1235.6</ele>
        <time>2020-07-14T09:36:16Z</time>
      </trkpt>
      <trkpt lat="46.64091" lon="6.11738">
        <ele>1236.2</ele>
        <time>2020-07-14T09:36:20Z</time>
      </trkpt>
      <trkpt lat="46.64094" lon="6.11743">
        <ele>1236.5</ele>
        <time>2020-07-14T09:36:25Z</time>
      </trkpt>
      <trkpt lat="46.64097" lon="6.11749">
        <ele>1236</ele>
        <time>2020-07-14T09:36:33Z</time>
      </trkpt>
      <trkpt lat="46.64099" lon="6.11755">
        <ele>1235.3</ele>
        <time>2020-07-14T09:36:39Z</time>
      </trkpt>
      <trkpt lat="46.64102" lon="6.11761">
        <ele>1234.8</ele>
        <time>2020-07-14T09:36:43Z</time>
      </trkpt>
      <trkpt lat="46.64104" lon="6.11767">
        <ele>1234.4</ele>
        <time>2020-07-14T09:36:48Z</time>
      </trkpt>
      <trkpt lat="46.64109" lon="6.11771">
        <ele>1233.8</ele>
        <time>2020-07-14T09:37:00Z</time>
      </trkpt>
      <trkpt lat="46.64115" lon="6.11771">
        <ele>1233.5</ele>
        <time>2020-07-14T09:37:02Z</time>
      </trkpt>
      <trkpt lat="46.64119" lon="6.11771">
        <ele>1231.8</ele>
        <time>2020-07-14T09:37:12Z</time>
      </trkpt>
      <trkpt lat="46.64126" lon="6.11774">
        <ele>1230.3</ele>
        <time>2020-07-14T09:37:22Z</time>
      </trkpt>
      <trkpt lat="46.64131" lon="6.11776">
        <ele>1229.5</ele>
        <time>2020-07-14T09:37:39Z</time>
      </trkpt>
      <trkpt lat="46.64133" lon="6.11782">
        <ele>1229.4</ele>
        <time>2020-07-14T09:37:41Z</time>
      </trkpt>
      <trkpt lat="46.64136" lon="6.11789">
        <ele>1229.2</ele>
        <time>2020-07-14T09:37:44Z</time>
      </trkpt>
      <trkpt lat="46.64139" lon="6.11796">
        <ele>1229.2</ele>
        <time>2020-07-14T09:37:48Z</time>
      </trkpt>
      <trkpt lat="46.6414" lon="6.11802">
        <ele>1229</ele>
        <time>2020-07-14T09:37:54Z</time>
      </trkpt>
      <trkpt lat="46.64138" lon="6.11809">
        <ele>1228.1</ele>
        <time>2020-07-14T09:38:07Z</time>
      </trkpt>
      <trkpt lat="46.64135" lon="6.11814">
        <ele>1227</ele>
        <time>2020-07-14T09:38:16Z</time>
      </trkpt>
      <trkpt lat="46.64133" lon="6.11821">
        <ele>1226.5</ele>
        <time>2020-07-14T09:38:20Z</time>
      </trkpt>
      <trkpt lat="46.64131" lon="6.11828">
        <ele>1226.3</ele>
        <time>2020-07-14T09:38:23Z</time>
      </trkpt>
      <trkpt lat="46.64129" lon="6.11835">
        <ele>1226.1</ele>
        <time>2020-07-14T09:38:26Z</time>
      </trkpt>
      <trkpt lat="46.64128" lon="6.11841">
        <ele>1226.2</ele>
        <time>2020-07-14T09:38:29Z</time>
      </trkpt>
      <trkpt lat="46.64127" lon="6.11849">
        <ele>1226.1</ele>
        <time>2020-07-14T09:38:33Z</time>
      </trkpt>
      <trkpt lat="46.64125" lon="6.11855">
        <ele>1225.9</ele>
        <time>2020-07-14T09:38:39Z</time>
      </trkpt>
      <trkpt lat="46.64124" lon="6.11861">
        <ele>1226</ele>
        <time>2020-07-14T09:38:44Z</time>
      </trkpt>
      <trkpt lat="46.64121" lon="6.11867">
        <ele>1224.9</ele>
        <time>2020-07-14T09:38:59Z</time>
      </trkpt>
      <trkpt lat="46.64116" lon="6.11867">
        <ele>1224</ele>
        <time>2020-07-14T09:39:05Z</time>
      </trkpt>
      <trkpt lat="46.64111" lon="6.11866">
        <ele>1223.2</ele>
        <time>2020-07-14T09:39:09Z</time>
      </trkpt>
      <trkpt lat="46.64106" lon="6.11864">
        <ele>1221.9</ele>
        <time>2020-07-14T09:39:14Z</time>
      </trkpt>
      <trkpt lat="46.64096" lon="6.11853">
        <ele>1217.5</ele>
        <time>2020-07-14T09:39:25Z</time>
      </trkpt>
      <trkpt lat="46.64092" lon="6.11852">
        <ele>1216.4</ele>
        <time>2020-07-14T09:39:29Z</time>
      </trkpt>
      <trkpt lat="46.64086" lon="6.11851">
        <ele>1215.2</ele>
        <time>2020-07-14T09:39:34Z</time>
      </trkpt>
      <trkpt lat="46.64081" lon="6.11851">
        <ele>1214.4</ele>
        <time>2020-07-14T09:39:37Z</time>
      </trkpt>
      <trkpt lat="46.64076" lon="6.11852">
        <ele>1212.3</ele>
        <time>2020-07-14T09:39:45Z</time>
      </trkpt>
      <trkpt lat="46.64071" lon="6.11853">
        <ele>1210.5</ele>
        <time>2020-07-14T09:39:52Z</time>
      </trkpt>
      <trkpt lat="46.64066" lon="6.11854">
        <ele>1208.5</ele>
        <time>2020-07-14T09:39:59Z</time>
      </trkpt>
      <trkpt lat="46.64053" lon="6.11855">
        <ele>1204.4</ele>
        <time>2020-07-14T09:40:12Z</time>
      </trkpt>
      <trkpt lat="46.64048" lon="6.11859">
        <ele>1204</ele>
        <time>2020-07-14T09:40:15Z</time>
      </trkpt>
      <trkpt lat="46.64042" lon="6.11861">
        <ele>1203.5</ele>
        <time>2020-07-14T09:40:19Z</time>
      </trkpt>
      <trkpt lat="46.64037" lon="6.11862">
        <ele>1203.4</ele>
        <time>2020-07-14T09:40:24Z</time>
      </trkpt>
      <trkpt lat="46.64031" lon="6.11864">
        <ele>1203.5</ele>
        <time>2020-07-14T09:40:27Z</time>
      </trkpt>
      <trkpt lat="46.64026" lon="6.11867">
        <ele>1203.7</ele>
        <time>2020-07-14T09:40:30Z</time>
      </trkpt>
      <trkpt lat="46.64021" lon="6.1187">
        <ele>1204</ele>
        <time>2020-07-14T09:40:33Z</time>
      </trkpt>
      <trkpt lat="46.64017" lon="6.11871">
        <ele>1204.7</ele>
        <time>2020-07-14T09:40:37Z</time>
      </trkpt>
      <trkpt lat="46.64012" lon="6.11868">
        <ele>1205.8</ele>
        <time>2020-07-14T09:40:43Z</time>
      </trkpt>
      <trkpt lat="46.64008" lon="6.11864">
        <ele>1206.7</ele>
        <time>2020-07-14T09:40:48Z</time>
      </trkpt>
      <trkpt lat="46.64004" lon="6.1186">
        <ele>1207.4</ele>
        <time>2020-07-14T09:40:52Z</time>
      </trkpt>
      <trkpt lat="46.64001" lon="6.11854">
        <ele>1208.3</ele>
        <time>2020-07-14T09:40:58Z</time>
      </trkpt>
      <trkpt lat="46.63999" lon="6.11848">
        <ele>1209</ele>
        <time>2020-07-14T09:41:02Z</time>
      </trkpt>
      <trkpt lat="46.63996" lon="6.11842">
        <ele>1209.6</ele>
        <time>2020-07-14T09:41:06Z</time>
      </trkpt>
      <trkpt lat="46.63992" lon="6.11836">
        <ele>1210.6</ele>
        <time>2020-07-14T09:41:12Z</time>
      </trkpt>
      <trkpt lat="46.63991" lon="6.11829">
        <ele>1212.3</ele>
        <time>2020-07-14T09:41:26Z</time>
      </trkpt>
      <trkpt lat="46.6399" lon="6.11835">
        <ele>1211.8</ele>
        <time>2020-07-14T09:42:21Z</time>
      </trkpt>
      <trkpt lat="46.63987" lon="6.11831">
        <ele>1211.9</ele>
        <time>2020-07-14T09:42:48Z</time>
      </trkpt>
      <trkpt lat="46.63982" lon="6.11829">
        <ele>1212.5</ele>
        <time>2020-07-14T09:42:56Z</time>
      </trkpt>
      <trkpt lat="46.63978" lon="6.11827">
        <ele>1213.2</ele>
        <time>2020-07-14T09:43:03Z</time>
      </trkpt>
      <trkpt lat="46.63973" lon="6.11823">
        <ele>1213.9</ele>
        <time>2020-07-14T09:43:10Z</time>
      </trkpt>
      <trkpt lat="46.63969" lon="6.11819">
        <ele>1214.3</ele>
        <time>2020-07-14T09:43:14Z</time>
      </trkpt>
      <trkpt lat="46.63965" lon="6.11815">
        <ele>1214.5</ele>
        <time>2020-07-14T09:43:19Z</time>
      </trkpt>
      <trkpt lat="46.6396" lon="6.11811">
        <ele>1214.7</ele>
        <time>2020-07-14T09:43:24Z</time>
      </trkpt>
      <trkpt lat="46.63955" lon="6.11808">
        <ele>1214.5</ele>
        <time>2020-07-14T09:43:28Z</time>
      </trkpt>
      <trkpt lat="46.63951" lon="6.11802">
        <ele>1214.1</ele>
        <time>2020-07-14T09:43:32Z</time>
      </trkpt>
      <trkpt lat="46.63947" lon="6.11799">
        <ele>1213.5</ele>
        <time>2020-07-14T09:43:37Z</time>
      </trkpt>
      <trkpt lat="46.63943" lon="6.11796">
        <ele>1212.7</ele>
        <time>2020-07-14T09:43:42Z</time>
      </trkpt>
      <trkpt lat="46.63932" lon="6.11781">
        <ele>1210</ele>
        <time>2020-07-14T09:43:55Z</time>
      </trkpt>
      <trkpt lat="46.63927" lon="6.11777">
        <ele>1209.5</ele>
        <time>2020-07-14T09:43:59Z</time>
      </trkpt>
      <trkpt lat="46.63923" lon="6.11773">
        <ele>1208.8</ele>
        <time>2020-07-14T09:44:04Z</time>
      </trkpt>
      <trkpt lat="46.63919" lon="6.11769">
        <ele>1208.4</ele>
        <time>2020-07-14T09:44:10Z</time>
      </trkpt>
      <trkpt lat="46.63915" lon="6.11768">
        <ele>1208.2</ele>
        <time>2020-07-14T09:44:15Z</time>
      </trkpt>
      <trkpt lat="46.6391" lon="6.11764">
        <ele>1208.3</ele>
        <time>2020-07-14T09:44:19Z</time>
      </trkpt>
      <trkpt lat="46.63904" lon="6.11758">
        <ele>1208.4</ele>
        <time>2020-07-14T09:44:22Z</time>
      </trkpt>
      <trkpt lat="46.63899" lon="6.11755">
        <ele>1208.6</ele>
        <time>2020-07-14T09:44:25Z</time>
      </trkpt>
      <trkpt lat="46.63894" lon="6.11752">
        <ele>1208.7</ele>
        <time>2020-07-14T09:44:28Z</time>
      </trkpt>
      <trkpt lat="46.63889" lon="6.1175">
        <ele>1209.1</ele>
        <time>2020-07-14T09:44:33Z</time>
      </trkpt>
      <trkpt lat="46.63885" lon="6.11747">
        <ele>1209.4</ele>
        <time>2020-07-14T09:44:39Z</time>
      </trkpt>
      <trkpt lat="46.63881" lon="6.11742">
        <ele>1209.8</ele>
        <time>2020-07-14T09:44:44Z</time>
      </trkpt>
      <trkpt lat="46.63877" lon="6.11737">
        <ele>1210.2</ele>
        <time>2020-07-14T09:44:49Z</time>
      </trkpt>
      <trkpt lat="46.63874" lon="6.11732">
        <ele>1210.5</ele>
        <time>2020-07-14T09:44:54Z</time>
      </trkpt>
      <trkpt lat="46.6387" lon="6.11725">
        <ele>1210.9</ele>
        <time>2020-07-14T09:44:58Z</time>
      </trkpt>
      <trkpt lat="46.63863" lon="6.1171">
        <ele>1211.8</ele>
        <time>2020-07-14T09:45:09Z</time>
      </trkpt>
      <trkpt lat="46.6386" lon="6.11705">
        <ele>1212.2</ele>
        <time>2020-07-14T09:45:14Z</time>
      </trkpt>
      <trkpt lat="46.63856" lon="6.11701">
        <ele>1213.3</ele>
        <time>2020-07-14T09:45:22Z</time>
      </trkpt>
      <trkpt lat="46.63852" lon="6.11694">
        <ele>1214.1</ele>
        <time>2020-07-14T09:45:28Z</time>
      </trkpt>
      <trkpt lat="46.63848" lon="6.11692">
        <ele>1214.8</ele>
        <time>2020-07-14T09:45:33Z</time>
      </trkpt>
      <trkpt lat="46.63844" lon="6.11687">
        <ele>1215.7</ele>
        <time>2020-07-14T09:45:39Z</time>
      </trkpt>
      <trkpt lat="46.63839" lon="6.11681">
        <ele>1216.6</ele>
        <time>2020-07-14T09:46:12Z</time>
      </trkpt>
      <trkpt lat="46.63835" lon="6.11676">
        <ele>1216.5</ele>
        <time>2020-07-14T09:46:14Z</time>
      </trkpt>
      <trkpt lat="46.63832" lon="6.1167">
        <ele>1216.3</ele>
        <time>2020-07-14T09:46:18Z</time>
      </trkpt>
      <trkpt lat="46.63831" lon="6.11663">
        <ele>1216.1</ele>
        <time>2020-07-14T09:46:22Z</time>
      </trkpt>
      <trkpt lat="46.63829" lon="6.11657">
        <ele>1215.9</ele>
        <time>2020-07-14T09:46:27Z</time>
      </trkpt>
      <trkpt lat="46.63829" lon="6.1165">
        <ele>1215.9</ele>
        <time>2020-07-14T09:46:32Z</time>
      </trkpt>
      <trkpt lat="46.6383" lon="6.11643">
        <ele>1216.1</ele>
        <time>2020-07-14T09:46:37Z</time>
      </trkpt>
      <trkpt lat="46.63829" lon="6.11636">
        <ele>1216.3</ele>
        <time>2020-07-14T09:46:39Z</time>
      </trkpt>
      <trkpt lat="46.63827" lon="6.11629">
        <ele>1216.7</ele>
        <time>2020-07-14T09:46:43Z</time>
      </trkpt>
      <trkpt lat="46.63822" lon="6.11626">
        <ele>1218.1</ele>
        <time>2020-07-14T09:46:51Z</time>
      </trkpt>
      <trkpt lat="46.6382" lon="6.11617">
        <ele>1219</ele>
        <time>2020-07-14T09:46:55Z</time>
      </trkpt>
      <trkpt lat="46.63819" lon="6.11611">
        <ele>1219.7</ele>
        <time>2020-07-14T09:46:58Z</time>
      </trkpt>
      <trkpt lat="46.63815" lon="6.11606">
        <ele>1221.5</ele>
        <time>2020-07-14T09:47:05Z</time>
      </trkpt>
      <trkpt lat="46.6381" lon="6.116">
        <ele>1222.3</ele>
        <time>2020-07-14T09:47:08Z</time>
      </trkpt>
      <trkpt lat="46.63806" lon="6.11597">
        <ele>1223.2</ele>
        <time>2020-07-14T09:47:13Z</time>
      </trkpt>
      <trkpt lat="46.63803" lon="6.11591">
        <ele>1224</ele>
        <time>2020-07-14T09:47:17Z</time>
      </trkpt>
      <trkpt lat="46.63801" lon="6.11585">
        <ele>1225.2</ele>
        <time>2020-07-14T09:47:24Z</time>
      </trkpt>
      <trkpt lat="46.63801" lon="6.11578">
        <ele>1226.2</ele>
        <time>2020-07-14T09:47:31Z</time>
      </trkpt>
      <trkpt lat="46.63797" lon="6.11551">
        <ele>1227.1</ele>
        <time>2020-07-14T09:47:43Z</time>
      </trkpt>
      <trkpt lat="46.63795" lon="6.11543">
        <ele>1227.2</ele>
        <time>2020-07-14T09:47:47Z</time>
      </trkpt>
      <trkpt lat="46.63796" lon="6.11535">
        <ele>1227.2</ele>
        <time>2020-07-14T09:47:51Z</time>
      </trkpt>
      <trkpt lat="46.63796" lon="6.11527">
        <ele>1226.8</ele>
        <time>2020-07-14T09:47:57Z</time>
      </trkpt>
      <trkpt lat="46.63795" lon="6.11519">
        <ele>1226.2</ele>
        <time>2020-07-14T09:48:01Z</time>
      </trkpt>
      <trkpt lat="46.63793" lon="6.11511">
        <ele>1225.5</ele>
        <time>2020-07-14T09:48:05Z</time>
      </trkpt>
      <trkpt lat="46.63792" lon="6.11502">
        <ele>1224.5</ele>
        <time>2020-07-14T09:48:11Z</time>
      </trkpt>
      <trkpt lat="46.63789" lon="6.11484">
        <ele>1223</ele>
        <time>2020-07-14T09:48:20Z</time>
      </trkpt>
      <trkpt lat="46.63788" lon="6.11478">
        <ele>1223.2</ele>
        <time>2020-07-14T09:48:27Z</time>
      </trkpt>
      <trkpt lat="46.63789" lon="6.1147">
        <ele>1223.1</ele>
        <time>2020-07-14T09:48:32Z</time>
      </trkpt>
      <trkpt lat="46.63789" lon="6.11463">
        <ele>1222.8</ele>
        <time>2020-07-14T09:48:38Z</time>
      </trkpt>
      <trkpt lat="46.63786" lon="6.11456">
        <ele>1222.1</ele>
        <time>2020-07-14T09:48:44Z</time>
      </trkpt>
      <trkpt lat="46.63783" lon="6.11452">
        <ele>1221.6</ele>
        <time>2020-07-14T09:48:48Z</time>
      </trkpt>
      <trkpt lat="46.63781" lon="6.11445">
        <ele>1221</ele>
        <time>2020-07-14T09:48:52Z</time>
      </trkpt>
      <trkpt lat="46.63781" lon="6.11438">
        <ele>1219.7</ele>
        <time>2020-07-14T09:49:01Z</time>
      </trkpt>
      <trkpt lat="46.63779" lon="6.11429">
        <ele>1219</ele>
        <time>2020-07-14T09:49:09Z</time>
      </trkpt>
      <trkpt lat="46.63776" lon="6.1142">
        <ele>1219</ele>
        <time>2020-07-14T09:49:13Z</time>
      </trkpt>
      <trkpt lat="46.63775" lon="6.11411">
        <ele>1219.2</ele>
        <time>2020-07-14T09:49:17Z</time>
      </trkpt>
      <trkpt lat="46.63776" lon="6.11405">
        <ele>1219.4</ele>
        <time>2020-07-14T09:49:23Z</time>
      </trkpt>
      <trkpt lat="46.63774" lon="6.11398">
        <ele>1219.1</ele>
        <time>2020-07-14T09:49:28Z</time>
      </trkpt>
      <trkpt lat="46.63772" lon="6.11391">
        <ele>1218.3</ele>
        <time>2020-07-14T09:49:34Z</time>
      </trkpt>
      <trkpt lat="46.6377" lon="6.11384">
        <ele>1217.5</ele>
        <time>2020-07-14T09:49:40Z</time>
      </trkpt>
      <trkpt lat="46.6377" lon="6.11377">
        <ele>1216.9</ele>
        <time>2020-07-14T09:49:47Z</time>
      </trkpt>
      <trkpt lat="46.63767" lon="6.11371">
        <ele>1216.7</ele>
        <time>2020-07-14T09:49:55Z</time>
      </trkpt>
      <trkpt lat="46.63763" lon="6.11362">
        <ele>1216.6</ele>
        <time>2020-07-14T09:50:00Z</time>
      </trkpt>
      <trkpt lat="46.63759" lon="6.11355">
        <ele>1216.6</ele>
        <time>2020-07-14T09:50:03Z</time>
      </trkpt>
      <trkpt lat="46.63756" lon="6.1135">
        <ele>1216.3</ele>
        <time>2020-07-14T09:50:07Z</time>
      </trkpt>
      <trkpt lat="46.63753" lon="6.11345">
        <ele>1215.7</ele>
        <time>2020-07-14T09:50:12Z</time>
      </trkpt>
      <trkpt lat="46.63749" lon="6.11339">
        <ele>1215.2</ele>
        <time>2020-07-14T09:50:17Z</time>
      </trkpt>
      <trkpt lat="46.63746" lon="6.11334">
        <ele>1215</ele>
        <time>2020-07-14T09:50:21Z</time>
      </trkpt>
      <trkpt lat="46.63743" lon="6.11328">
        <ele>1215</ele>
        <time>2020-07-14T09:50:23Z</time>
      </trkpt>
      <trkpt lat="46.6374" lon="6.11323">
        <ele>1215.1</ele>
        <time>2020-07-14T09:50:26Z</time>
      </trkpt>
      <trkpt lat="46.63736" lon="6.11317">
        <ele>1215.7</ele>
        <time>2020-07-14T09:50:31Z</time>
      </trkpt>
      <trkpt lat="46.63734" lon="6.11312">
        <ele>1216.7</ele>
        <time>2020-07-14T09:50:37Z</time>
      </trkpt>
      <trkpt lat="46.6373" lon="6.11305">
        <ele>1217.2</ele>
        <time>2020-07-14T09:50:40Z</time>
      </trkpt>
      <trkpt lat="46.63727" lon="6.113">
        <ele>1217.9</ele>
        <time>2020-07-14T09:50:45Z</time>
      </trkpt>
      <trkpt lat="46.63724" lon="6.11294">
        <ele>1218.3</ele>
        <time>2020-07-14T09:50:49Z</time>
      </trkpt>
      <trkpt lat="46.63721" lon="6.11287">
        <ele>1218.5</ele>
        <time>2020-07-14T09:50:55Z</time>
      </trkpt>
      <trkpt lat="46.63718" lon="6.11282">
        <ele>1218.2</ele>
        <time>2020-07-14T09:50:58Z</time>
      </trkpt>
      <trkpt lat="46.63714" lon="6.11277">
        <ele>1217.9</ele>
        <time>2020-07-14T09:51:02Z</time>
      </trkpt>
      <trkpt lat="46.6371" lon="6.11274">
        <ele>1217.8</ele>
        <time>2020-07-14T09:51:05Z</time>
      </trkpt>
      <trkpt lat="46.63706" lon="6.1127">
        <ele>1218.1</ele>
        <time>2020-07-14T09:51:11Z</time>
      </trkpt>
      <trkpt lat="46.63701" lon="6.11264">
        <ele>1218.4</ele>
        <time>2020-07-14T09:51:15Z</time>
      </trkpt>
      <trkpt lat="46.63698" lon="6.11258">
        <ele>1218.7</ele>
        <time>2020-07-14T09:51:21Z</time>
      </trkpt>
      <trkpt lat="46.63693" lon="6.11254">
        <ele>1219</ele>
        <time>2020-07-14T09:51:25Z</time>
      </trkpt>
      <trkpt lat="46.63688" lon="6.1125">
        <ele>1219.3</ele>
        <time>2020-07-14T09:51:29Z</time>
      </trkpt>
      <trkpt lat="46.63684" lon="6.11246">
        <ele>1219.5</ele>
        <time>2020-07-14T09:51:35Z</time>
      </trkpt>
      <trkpt lat="46.6368" lon="6.11241">
        <ele>1219.6</ele>
        <time>2020-07-14T09:51:40Z</time>
      </trkpt>
      <trkpt lat="46.63677" lon="6.11236">
        <ele>1219.4</ele>
        <time>2020-07-14T09:51:45Z</time>
      </trkpt>
      <trkpt lat="46.63674" lon="6.11231">
        <ele>1219</ele>
        <time>2020-07-14T09:51:50Z</time>
      </trkpt>
      <trkpt lat="46.63671" lon="6.11226">
        <ele>1218.3</ele>
        <time>2020-07-14T09:51:56Z</time>
      </trkpt>
      <trkpt lat="46.63667" lon="6.11221">
        <ele>1217.6</ele>
        <time>2020-07-14T09:52:02Z</time>
      </trkpt>
      <trkpt lat="46.63664" lon="6.11217">
        <ele>1216.6</ele>
        <time>2020-07-14T09:52:09Z</time>
      </trkpt>
      <trkpt lat="46.6366" lon="6.11213">
        <ele>1215.9</ele>
        <time>2020-07-14T09:52:13Z</time>
      </trkpt>
      <trkpt lat="46.63656" lon="6.11209">
        <ele>1214.6</ele>
        <time>2020-07-14T09:52:20Z</time>
      </trkpt>
      <trkpt lat="46.63648" lon="6.11199">
        <ele>1225.8</ele>
        <time>2020-07-14T09:53:45Z</time>
      </trkpt>
      <trkpt lat="46.63648" lon="6.11191">
        <ele>1226</ele>
        <time>2020-07-14T09:53:49Z</time>
      </trkpt>
      <trkpt lat="46.63647" lon="6.11184">
        <ele>1225.9</ele>
        <time>2020-07-14T09:53:52Z</time>
      </trkpt>
      <trkpt lat="46.63647" lon="6.11176">
        <ele>1225.4</ele>
        <time>2020-07-14T09:53:57Z</time>
      </trkpt>
      <trkpt lat="46.63648" lon="6.11167">
        <ele>1224.9</ele>
        <time>2020-07-14T09:54:00Z</time>
      </trkpt>
      <trkpt lat="46.63648" lon="6.1116">
        <ele>1224</ele>
        <time>2020-07-14T09:54:06Z</time>
      </trkpt>
      <trkpt lat="46.63648" lon="6.11153">
        <ele>1222.5</ele>
        <time>2020-07-14T09:54:16Z</time>
      </trkpt>
      <trkpt lat="46.63651" lon="6.11147">
        <ele>1221.7</ele>
        <time>2020-07-14T09:54:25Z</time>
      </trkpt>
      <trkpt lat="46.63655" lon="6.11143">
        <ele>1221.7</ele>
        <time>2020-07-14T09:54:30Z</time>
      </trkpt>
      <trkpt lat="46.63658" lon="6.11138">
        <ele>1221.7</ele>
        <time>2020-07-14T09:54:37Z</time>
      </trkpt>
      <trkpt lat="46.63661" lon="6.11133">
        <ele>1222.3</ele>
        <time>2020-07-14T09:54:46Z</time>
      </trkpt>
      <trkpt lat="46.63678" lon="6.11119">
        <ele>1224.3</ele>
        <time>2020-07-14T09:55:04Z</time>
      </trkpt>
      <trkpt lat="46.63679" lon="6.11113">
        <ele>1224.1</ele>
        <time>2020-07-14T09:55:13Z</time>
      </trkpt>
      <trkpt lat="46.63684" lon="6.11111">
        <ele>1224</ele>
        <time>2020-07-14T09:55:17Z</time>
      </trkpt>
      <trkpt lat="46.63688" lon="6.11111">
        <ele>1224</ele>
        <time>2020-07-14T09:55:23Z</time>
      </trkpt>
      <trkpt lat="46.63693" lon="6.11112">
        <ele>1224.1</ele>
        <time>2020-07-14T09:55:27Z</time>
      </trkpt>
      <trkpt lat="46.63698" lon="6.11109">
        <ele>1224.3</ele>
        <time>2020-07-14T09:55:31Z</time>
      </trkpt>
      <trkpt lat="46.63701" lon="6.11103">
        <ele>1224.4</ele>
        <time>2020-07-14T09:55:34Z</time>
      </trkpt>
      <trkpt lat="46.63703" lon="6.11097">
        <ele>1224.3</ele>
        <time>2020-07-14T09:55:37Z</time>
      </trkpt>
      <trkpt lat="46.63704" lon="6.11089">
        <ele>1224.1</ele>
        <time>2020-07-14T09:55:41Z</time>
      </trkpt>
      <trkpt lat="46.63708" lon="6.11085">
        <ele>1223.7</ele>
        <time>2020-07-14T09:55:49Z</time>
      </trkpt>
      <trkpt lat="46.63711" lon="6.1108">
        <ele>1223.6</ele>
        <time>2020-07-14T09:55:57Z</time>
      </trkpt>
      <trkpt lat="46.63714" lon="6.11075">
        <ele>1223.7</ele>
        <time>2020-07-14T09:56:04Z</time>
      </trkpt>
      <trkpt lat="46.63717" lon="6.11068">
        <ele>1223.7</ele>
        <time>2020-07-14T09:56:07Z</time>
      </trkpt>
      <trkpt lat="46.63717" lon="6.11062">
        <ele>1223.7</ele>
        <time>2020-07-14T09:56:09Z</time>
      </trkpt>
      <trkpt lat="46.63717" lon="6.11055">
        <ele>1223.7</ele>
        <time>2020-07-14T09:56:13Z</time>
      </trkpt>
      <trkpt lat="46.63722" lon="6.11055">
        <ele>1222.9</ele>
        <time>2020-07-14T09:57:08Z</time>
      </trkpt>
      <trkpt lat="46.63727" lon="6.11058">
        <ele>1223.6</ele>
        <time>2020-07-14T09:57:13Z</time>
      </trkpt>
      <trkpt lat="46.63732" lon="6.11061">
        <ele>1224.5</ele>
        <time>2020-07-14T09:57:19Z</time>
      </trkpt>
      <trkpt lat="46.63736" lon="6.11063">
        <ele>1225.1</ele>
        <time>2020-07-14T09:57:24Z</time>
      </trkpt>
      <trkpt lat="46.63736" lon="6.11063">
        <ele>1227.6</ele>
        <time>2020-07-14T09:57:45Z</time>
      </trkpt>
      <trkpt lat="46.63731" lon="6.11059">
        <ele>1228.1</ele>
        <time>2020-07-14T09:57:54Z</time>
      </trkpt>
      <trkpt lat="46.63728" lon="6.11054">
        <ele>1228</ele>
        <time>2020-07-14T09:58:02Z</time>
      </trkpt>
      <trkpt lat="46.63726" lon="6.11048">
        <ele>1228.3</ele>
        <time>2020-07-14T09:58:07Z</time>
      </trkpt>
      <trkpt lat="46.63723" lon="6.11041">
        <ele>1228.4</ele>
        <time>2020-07-14T09:58:18Z</time>
      </trkpt>
      <trkpt lat="46.6372" lon="6.11036">
        <ele>1228.1</ele>
        <time>2020-07-14T09:58:27Z</time>
      </trkpt>
      <trkpt lat="46.6372" lon="6.11029">
        <ele>1228.1</ele>
        <time>2020-07-14T09:58:32Z</time>
      </trkpt>
      <trkpt lat="46.6372" lon="6.11022">
        <ele>1228.1</ele>
        <time>2020-07-14T09:58:37Z</time>
      </trkpt>
      <trkpt lat="46.63715" lon="6.11007">
        <ele>1223.2</ele>
        <time>2020-07-14T09:59:01Z</time>
      </trkpt>
      <trkpt lat="46.63713" lon="6.11002">
        <ele>1221.9</ele>
        <time>2020-07-14T09:59:07Z</time>
      </trkpt>
      <trkpt lat="46.63709" lon="6.10998">
        <ele>1219.7</ele>
        <time>2020-07-14T09:59:17Z</time>
      </trkpt>
      <trkpt lat="46.63704" lon="6.10998">
        <ele>1218.5</ele>
        <time>2020-07-14T09:59:31Z</time>
      </trkpt>
      <trkpt lat="46.63699" lon="6.11">
        <ele>1218.6</ele>
        <time>2020-07-14T09:59:40Z</time>
      </trkpt>
      <trkpt lat="46.63694" lon="6.10998">
        <ele>1218.8</ele>
        <time>2020-07-14T09:59:44Z</time>
      </trkpt>
      <trkpt lat="46.63689" lon="6.10999">
        <ele>1219.8</ele>
        <time>2020-07-14T10:00:01Z</time>
      </trkpt>
      <trkpt lat="46.63684" lon="6.10997">
        <ele>1220.2</ele>
        <time>2020-07-14T10:00:14Z</time>
      </trkpt>
      <trkpt lat="46.63679" lon="6.10998">
        <ele>1220.8</ele>
        <time>2020-07-14T10:00:20Z</time>
      </trkpt>
      <trkpt lat="46.63675" lon="6.10996">
        <ele>1222</ele>
        <time>2020-07-14T10:00:26Z</time>
      </trkpt>
      <trkpt lat="46.6367" lon="6.10996">
        <ele>1223.1</ele>
        <time>2020-07-14T10:00:30Z</time>
      </trkpt>
      <trkpt lat="46.63665" lon="6.10998">
        <ele>1224.3</ele>
        <time>2020-07-14T10:00:35Z</time>
      </trkpt>
      <trkpt lat="46.63661" lon="6.11001">
        <ele>1225.2</ele>
        <time>2020-07-14T10:00:43Z</time>
      </trkpt>
      <trkpt lat="46.63656" lon="6.11004">
        <ele>1225</ele>
        <time>2020-07-14T10:00:51Z</time>
      </trkpt>
      <trkpt lat="46.63651" lon="6.11004">
        <ele>1224.5</ele>
        <time>2020-07-14T10:00:56Z</time>
      </trkpt>
      <trkpt lat="46.63646" lon="6.11002">
        <ele>1223.7</ele>
        <time>2020-07-14T10:01:01Z</time>
      </trkpt>
      <trkpt lat="46.63641" lon="6.10998">
        <ele>1222.8</ele>
        <time>2020-07-14T10:01:09Z</time>
      </trkpt>
      <trkpt lat="46.63639" lon="6.10993">
        <ele>1221.9</ele>
        <time>2020-07-14T10:01:22Z</time>
      </trkpt>
      <trkpt lat="46.63635" lon="6.10988">
        <ele>1221.5</ele>
        <time>2020-07-14T10:01:29Z</time>
      </trkpt>
      <trkpt lat="46.6363" lon="6.10983">
        <ele>1221.2</ele>
        <time>2020-07-14T10:01:35Z</time>
      </trkpt>
      <trkpt lat="46.63625" lon="6.10978">
        <ele>1221.2</ele>
        <time>2020-07-14T10:01:38Z</time>
      </trkpt>
      <trkpt lat="46.63621" lon="6.10974">
        <ele>1221.2</ele>
        <time>2020-07-14T10:01:41Z</time>
      </trkpt>
      <trkpt lat="46.63616" lon="6.1097">
        <ele>1221.2</ele>
        <time>2020-07-14T10:01:44Z</time>
      </trkpt>
      <trkpt lat="46.63612" lon="6.10969">
        <ele>1221.2</ele>
        <time>2020-07-14T10:01:47Z</time>
      </trkpt>
      <trkpt lat="46.63598" lon="6.10965">
        <ele>1220.7</ele>
        <time>2020-07-14T10:01:56Z</time>
      </trkpt>
      <trkpt lat="46.63593" lon="6.10964">
        <ele>1220.6</ele>
        <time>2020-07-14T10:02:00Z</time>
      </trkpt>
      <trkpt lat="46.63588" lon="6.10964">
        <ele>1220.3</ele>
        <time>2020-07-14T10:02:05Z</time>
      </trkpt>
      <trkpt lat="46.63582" lon="6.10963">
        <ele>1220.3</ele>
        <time>2020-07-14T10:02:09Z</time>
      </trkpt>
      <trkpt lat="46.63577" lon="6.10961">
        <ele>1220.2</ele>
        <time>2020-07-14T10:02:14Z</time>
      </trkpt>
      <trkpt lat="46.63572" lon="6.10958">
        <ele>1219.8</ele>
        <time>2020-07-14T10:02:19Z</time>
      </trkpt>
      <trkpt lat="46.63568" lon="6.10957">
        <ele>1219.1</ele>
        <time>2020-07-14T10:02:24Z</time>
      </trkpt>
      <trkpt lat="46.63564" lon="6.10954">
        <ele>1218.5</ele>
        <time>2020-07-14T10:02:28Z</time>
      </trkpt>
      <trkpt lat="46.63558" lon="6.10952">
        <ele>1217.6</ele>
        <time>2020-07-14T10:02:34Z</time>
      </trkpt>
      <trkpt lat="46.63554" lon="6.10947">
        <ele>1216.9</ele>
        <time>2020-07-14T10:02:38Z</time>
      </trkpt>
      <trkpt lat="46.6355" lon="6.10944">
        <ele>1215.9</ele>
        <time>2020-07-14T10:02:43Z</time>
      </trkpt>
      <trkpt lat="46.63545" lon="6.10941">
        <ele>1214.8</ele>
        <time>2020-07-14T10:02:48Z</time>
      </trkpt>
      <trkpt lat="46.6354" lon="6.1094">
        <ele>1213.7</ele>
        <time>2020-07-14T10:02:56Z</time>
      </trkpt>
      <trkpt lat="46.63535" lon="6.10937">
        <ele>1213.3</ele>
        <time>2020-07-14T10:03:02Z</time>
      </trkpt>
      <trkpt lat="46.63531" lon="6.10935">
        <ele>1212.9</ele>
        <time>2020-07-14T10:03:06Z</time>
      </trkpt>
      <trkpt lat="46.63526" lon="6.10932">
        <ele>1212.2</ele>
        <time>2020-07-14T10:03:11Z</time>
      </trkpt>
      <trkpt lat="46.63522" lon="6.1093">
        <ele>1211.6</ele>
        <time>2020-07-14T10:03:15Z</time>
      </trkpt>
      <trkpt lat="46.63517" lon="6.10927">
        <ele>1211.2</ele>
        <time>2020-07-14T10:03:18Z</time>
      </trkpt>
      <trkpt lat="46.63512" lon="6.10923">
        <ele>1210.4</ele>
        <time>2020-07-14T10:03:22Z</time>
      </trkpt>
      <trkpt lat="46.63509" lon="6.10918">
        <ele>1209.6</ele>
        <time>2020-07-14T10:03:26Z</time>
      </trkpt>
      <trkpt lat="46.63505" lon="6.10913">
        <ele>1208.6</ele>
        <time>2020-07-14T10:03:31Z</time>
      </trkpt>
      <trkpt lat="46.63501" lon="6.1091">
        <ele>1207.8</ele>
        <time>2020-07-14T10:03:45Z</time>
      </trkpt>
      <trkpt lat="46.63496" lon="6.1091">
        <ele>1207.8</ele>
        <time>2020-07-14T10:03:52Z</time>
      </trkpt>
      <trkpt lat="46.63491" lon="6.10908">
        <ele>1208.2</ele>
        <time>2020-07-14T10:03:56Z</time>
      </trkpt>
      <trkpt lat="46.63486" lon="6.10905">
        <ele>1208.8</ele>
        <time>2020-07-14T10:04:01Z</time>
      </trkpt>
      <trkpt lat="46.63481" lon="6.10904">
        <ele>1209.3</ele>
        <time>2020-07-14T10:04:06Z</time>
      </trkpt>
      <trkpt lat="46.63476" lon="6.10904">
        <ele>1209.6</ele>
        <time>2020-07-14T10:04:09Z</time>
      </trkpt>
      <trkpt lat="46.63471" lon="6.10903">
        <ele>1209.9</ele>
        <time>2020-07-14T10:04:12Z</time>
      </trkpt>
      <trkpt lat="46.63466" lon="6.10901">
        <ele>1210.1</ele>
        <time>2020-07-14T10:04:16Z</time>
      </trkpt>
      <trkpt lat="46.63459" lon="6.10901">
        <ele>1211.1</ele>
        <time>2020-07-14T10:04:26Z</time>
      </trkpt>
      <trkpt lat="46.63454" lon="6.10901">
        <ele>1211.7</ele>
        <time>2020-07-14T10:04:29Z</time>
      </trkpt>
      <trkpt lat="46.63449" lon="6.10902">
        <ele>1212.3</ele>
        <time>2020-07-14T10:04:33Z</time>
      </trkpt>
      <trkpt lat="46.63444" lon="6.109">
        <ele>1213.4</ele>
        <time>2020-07-14T10:04:39Z</time>
      </trkpt>
      <trkpt lat="46.6344" lon="6.10901">
        <ele>1214</ele>
        <time>2020-07-14T10:04:45Z</time>
      </trkpt>
      <trkpt lat="46.63435" lon="6.10904">
        <ele>1213.9</ele>
        <time>2020-07-14T10:04:55Z</time>
      </trkpt>
      <trkpt lat="46.63428" lon="6.10912">
        <ele>1209.4</ele>
        <time>2020-07-14T10:05:18Z</time>
      </trkpt>
      <trkpt lat="46.63424" lon="6.10917">
        <ele>1208.2</ele>
        <time>2020-07-14T10:05:25Z</time>
      </trkpt>
      <trkpt lat="46.63422" lon="6.10924">
        <ele>1208.1</ele>
        <time>2020-07-14T10:05:39Z</time>
      </trkpt>
      <trkpt lat="46.63419" lon="6.1093">
        <ele>1208.8</ele>
        <time>2020-07-14T10:05:43Z</time>
      </trkpt>
      <trkpt lat="46.63416" lon="6.10935">
        <ele>1209.5</ele>
        <time>2020-07-14T10:05:47Z</time>
      </trkpt>
      <trkpt lat="46.63413" lon="6.10941">
        <ele>1210.6</ele>
        <time>2020-07-14T10:05:52Z</time>
      </trkpt>
      <trkpt lat="46.63411" lon="6.10948">
        <ele>1211</ele>
        <time>2020-07-14T10:05:54Z</time>
      </trkpt>
      <trkpt lat="46.6341" lon="6.10958">
        <ele>1211.3</ele>
        <time>2020-07-14T10:05:56Z</time>
      </trkpt>
      <trkpt lat="46.63408" lon="6.10965">
        <ele>1211.5</ele>
        <time>2020-07-14T10:05:58Z</time>
      </trkpt>
      <trkpt lat="46.63405" lon="6.10974">
        <ele>1211.8</ele>
        <time>2020-07-14T10:06:01Z</time>
      </trkpt>
      <trkpt lat="46.63402" lon="6.1098">
        <ele>1212.1</ele>
        <time>2020-07-14T10:06:06Z</time>
      </trkpt>
      <trkpt lat="46.63399" lon="6.10986">
        <ele>1213.4</ele>
        <time>2020-07-14T10:06:14Z</time>
      </trkpt>
      <trkpt lat="46.63397" lon="6.10995">
        <ele>1213.8</ele>
        <time>2020-07-14T10:06:16Z</time>
      </trkpt>
      <trkpt lat="46.63395" lon="6.11003">
        <ele>1214.3</ele>
        <time>2020-07-14T10:06:18Z</time>
      </trkpt>
      <trkpt lat="46.63393" lon="6.1101">
        <ele>1215.1</ele>
        <time>2020-07-14T10:06:22Z</time>
      </trkpt>
      <trkpt lat="46.6339" lon="6.11017">
        <ele>1215.9</ele>
        <time>2020-07-14T10:06:27Z</time>
      </trkpt>
      <trkpt lat="46.63388" lon="6.11023">
        <ele>1216.8</ele>
        <time>2020-07-14T10:06:38Z</time>
      </trkpt>
      <trkpt lat="46.63383" lon="6.11033">
        <ele>1215.9</ele>
        <time>2020-07-14T10:06:53Z</time>
      </trkpt>
      <trkpt lat="46.63379" lon="6.11039">
        <ele>1215.1</ele>
        <time>2020-07-14T10:06:59Z</time>
      </trkpt>
      <trkpt lat="46.63375" lon="6.11044">
        <ele>1213.8</ele>
        <time>2020-07-14T10:07:05Z</time>
      </trkpt>
      <trkpt lat="46.63372" lon="6.11051">
        <ele>1212.2</ele>
        <time>2020-07-14T10:07:10Z</time>
      </trkpt>
      <trkpt lat="46.63369" lon="6.11056">
        <ele>1211.2</ele>
        <time>2020-07-14T10:07:13Z</time>
      </trkpt>
      <trkpt lat="46.63366" lon="6.11063">
        <ele>1210.7</ele>
        <time>2020-07-14T10:07:15Z</time>
      </trkpt>
      <trkpt lat="46.63364" lon="6.11069">
        <ele>1209.7</ele>
        <time>2020-07-14T10:07:19Z</time>
      </trkpt>
      <trkpt lat="46.6336" lon="6.11074">
        <ele>1209.1</ele>
        <time>2020-07-14T10:07:23Z</time>
      </trkpt>
      <trkpt lat="46.63357" lon="6.11082">
        <ele>1208.9</ele>
        <time>2020-07-14T10:07:25Z</time>
      </trkpt>
      <trkpt lat="46.63356" lon="6.11089">
        <ele>1208.8</ele>
        <time>2020-07-14T10:07:28Z</time>
      </trkpt>
      <trkpt lat="46.63353" lon="6.11097">
        <ele>1208.8</ele>
        <time>2020-07-14T10:07:32Z</time>
      </trkpt>
      <trkpt lat="46.6335" lon="6.11103">
        <ele>1208.7</ele>
        <time>2020-07-14T10:07:37Z</time>
      </trkpt>
      <trkpt lat="46.63348" lon="6.11122">
        <ele>1210</ele>
        <time>2020-07-14T10:07:53Z</time>
      </trkpt>
      <trkpt lat="46.63347" lon="6.11129">
        <ele>1210.3</ele>
        <time>2020-07-14T10:07:55Z</time>
      </trkpt>
      <trkpt lat="46.63345" lon="6.11136">
        <ele>1210.7</ele>
        <time>2020-07-14T10:07:58Z</time>
      </trkpt>
      <trkpt lat="46.63342" lon="6.11143">
        <ele>1211.5</ele>
        <time>2020-07-14T10:08:04Z</time>
      </trkpt>
      <trkpt lat="46.6334" lon="6.11149">
        <ele>1212</ele>
        <time>2020-07-14T10:08:08Z</time>
      </trkpt>
      <trkpt lat="46.63337" lon="6.11155">
        <ele>1212.6</ele>
        <time>2020-07-14T10:08:13Z</time>
      </trkpt>
      <trkpt lat="46.63334" lon="6.11161">
        <ele>1212.9</ele>
        <time>2020-07-14T10:08:17Z</time>
      </trkpt>
      <trkpt lat="46.6333" lon="6.11166">
        <ele>1213.4</ele>
        <time>2020-07-14T10:08:23Z</time>
      </trkpt>
      <trkpt lat="46.63325" lon="6.11171">
        <ele>1213.7</ele>
        <time>2020-07-14T10:08:30Z</time>
      </trkpt>
      <trkpt lat="46.63321" lon="6.11176">
        <ele>1213.8</ele>
        <time>2020-07-14T10:08:34Z</time>
      </trkpt>
      <trkpt lat="46.63316" lon="6.11179">
        <ele>1213.8</ele>
        <time>2020-07-14T10:08:37Z</time>
      </trkpt>
      <trkpt lat="46.63311" lon="6.11183">
        <ele>1213.9</ele>
        <time>2020-07-14T10:08:41Z</time>
      </trkpt>
      <trkpt lat="46.63307" lon="6.11186">
        <ele>1214</ele>
        <time>2020-07-14T10:08:43Z</time>
      </trkpt>
      <trkpt lat="46.63301" lon="6.11192">
        <ele>1214.4</ele>
        <time>2020-07-14T10:08:46Z</time>
      </trkpt>
      <trkpt lat="46.63297" lon="6.11196">
        <ele>1214.7</ele>
        <time>2020-07-14T10:08:48Z</time>
      </trkpt>
      <trkpt lat="46.63293" lon="6.112">
        <ele>1216</ele>
        <time>2020-07-14T10:08:53Z</time>
      </trkpt>
      <trkpt lat="46.63289" lon="6.11204">
        <ele>1219.2</ele>
        <time>2020-07-14T10:09:02Z</time>
      </trkpt>
      <trkpt lat="46.63285" lon="6.11209">
        <ele>1220.2</ele>
        <time>2020-07-14T10:09:04Z</time>
      </trkpt>
      <trkpt lat="46.63281" lon="6.11215">
        <ele>1221.7</ele>
        <time>2020-07-14T10:09:07Z</time>
      </trkpt>
      <trkpt lat="46.63279" lon="6.11221">
        <ele>1223.7</ele>
        <time>2020-07-14T10:09:12Z</time>
      </trkpt>
      <trkpt lat="46.63276" lon="6.11226">
        <ele>1225.5</ele>
        <time>2020-07-14T10:09:24Z</time>
      </trkpt>
      <trkpt lat="46.63272" lon="6.11232">
        <ele>1225.2</ele>
        <time>2020-07-14T10:09:29Z</time>
      </trkpt>
      <trkpt lat="46.63269" lon="6.11237">
        <ele>1224.8</ele>
        <time>2020-07-14T10:09:34Z</time>
      </trkpt>
      <trkpt lat="46.63265" lon="6.11242">
        <ele>1224</ele>
        <time>2020-07-14T10:09:41Z</time>
      </trkpt>
      <trkpt lat="46.63262" lon="6.1125">
        <ele>1223.1</ele>
        <time>2020-07-14T10:09:59Z</time>
      </trkpt>
      <trkpt lat="46.6326" lon="6.11256">
        <ele>1223.4</ele>
        <time>2020-07-14T10:10:03Z</time>
      </trkpt>
      <trkpt lat="46.63256" lon="6.11261">
        <ele>1223.7</ele>
        <time>2020-07-14T10:10:07Z</time>
      </trkpt>
      <trkpt lat="46.63253" lon="6.11267">
        <ele>1224.4</ele>
        <time>2020-07-14T10:10:13Z</time>
      </trkpt>
      <trkpt lat="46.63247" lon="6.11275">
        <ele>1227.4</ele>
        <time>2020-07-14T10:10:24Z</time>
      </trkpt>
      <trkpt lat="46.63242" lon="6.11281">
        <ele>1227.8</ele>
        <time>2020-07-14T10:10:26Z</time>
      </trkpt>
      <trkpt lat="46.63238" lon="6.11285">
        <ele>1228.7</ele>
        <time>2020-07-14T10:10:30Z</time>
      </trkpt>
      <trkpt lat="46.63232" lon="6.11288">
        <ele>1229.5</ele>
        <time>2020-07-14T10:10:33Z</time>
      </trkpt>
      <trkpt lat="46.63226" lon="6.11292">
        <ele>1231.2</ele>
        <time>2020-07-14T10:10:39Z</time>
      </trkpt>
      <trkpt lat="46.63221" lon="6.11295">
        <ele>1232.8</ele>
        <time>2020-07-14T10:10:50Z</time>
      </trkpt>
      <trkpt lat="46.63215" lon="6.11298">
        <ele>1232.6</ele>
        <time>2020-07-14T10:10:55Z</time>
      </trkpt>
      <trkpt lat="46.6321" lon="6.113">
        <ele>1232</ele>
        <time>2020-07-14T10:11:00Z</time>
      </trkpt>
      <trkpt lat="46.63207" lon="6.11305">
        <ele>1229.4</ele>
        <time>2020-07-14T10:11:18Z</time>
      </trkpt>
      <trkpt lat="46.63203" lon="6.11309">
        <ele>1228.4</ele>
        <time>2020-07-14T10:11:25Z</time>
      </trkpt>
      <trkpt lat="46.63199" lon="6.11311">
        <ele>1227.9</ele>
        <time>2020-07-14T10:11:31Z</time>
      </trkpt>
      <trkpt lat="46.63193" lon="6.11313">
        <ele>1227.6</ele>
        <time>2020-07-14T10:11:36Z</time>
      </trkpt>
      <trkpt lat="46.63189" lon="6.11314">
        <ele>1227.5</ele>
        <time>2020-07-14T10:11:39Z</time>
      </trkpt>
      <trkpt lat="46.63184" lon="6.11316">
        <ele>1227.4</ele>
        <time>2020-07-14T10:11:42Z</time>
      </trkpt>
      <trkpt lat="46.63178" lon="6.1132">
        <ele>1227.4</ele>
        <time>2020-07-14T10:11:45Z</time>
      </trkpt>
      <trkpt lat="46.63173" lon="6.11324">
        <ele>1227.3</ele>
        <time>2020-07-14T10:11:49Z</time>
      </trkpt>
      <trkpt lat="46.63168" lon="6.11326">
        <ele>1226.6</ele>
        <time>2020-07-14T10:12:04Z</time>
      </trkpt>
      <trkpt lat="46.63164" lon="6.11328">
        <ele>1226.2</ele>
        <time>2020-07-14T10:12:09Z</time>
      </trkpt>
      <trkpt lat="46.63159" lon="6.11328">
        <ele>1225.7</ele>
        <time>2020-07-14T10:12:14Z</time>
      </trkpt>
      <trkpt lat="46.63153" lon="6.11326">
        <ele>1225</ele>
        <time>2020-07-14T10:12:19Z</time>
      </trkpt>
      <trkpt lat="46.63148" lon="6.11323">
        <ele>1223.9</ele>
        <time>2020-07-14T10:12:26Z</time>
      </trkpt>
      <trkpt lat="46.63143" lon="6.11321">
        <ele>1223.5</ele>
        <time>2020-07-14T10:12:30Z</time>
      </trkpt>
      <trkpt lat="46.63139" lon="6.11318">
        <ele>1223</ele>
        <time>2020-07-14T10:12:34Z</time>
      </trkpt>
      <trkpt lat="46.63134" lon="6.11316">
        <ele>1222.6</ele>
        <time>2020-07-14T10:12:37Z</time>
      </trkpt>
      <trkpt lat="46.63129" lon="6.11313">
        <ele>1222.4</ele>
        <time>2020-07-14T10:12:40Z</time>
      </trkpt>
      <trkpt lat="46.63123" lon="6.11309">
        <ele>1222.3</ele>
        <time>2020-07-14T10:12:44Z</time>
      </trkpt>
      <trkpt lat="46.6312" lon="6.11305">
        <ele>1222.3</ele>
        <time>2020-07-14T10:12:48Z</time>
      </trkpt>
      <trkpt lat="46.63117" lon="6.11299">
        <ele>1222.2</ele>
        <time>2020-07-14T10:12:53Z</time>
      </trkpt>
      <trkpt lat="46.63114" lon="6.11294">
        <ele>1222.2</ele>
        <time>2020-07-14T10:12:58Z</time>
      </trkpt>
      <trkpt lat="46.63111" lon="6.11288">
        <ele>1221.9</ele>
        <time>2020-07-14T10:13:03Z</time>
      </trkpt>
      <trkpt lat="46.63109" lon="6.1128">
        <ele>1221.8</ele>
        <time>2020-07-14T10:13:06Z</time>
      </trkpt>
      <trkpt lat="46.63108" lon="6.11273">
        <ele>1221.6</ele>
        <time>2020-07-14T10:13:11Z</time>
      </trkpt>
      <trkpt lat="46.63106" lon="6.11264">
        <ele>1221.3</ele>
        <time>2020-07-14T10:13:16Z</time>
      </trkpt>
      <trkpt lat="46.63103" lon="6.11257">
        <ele>1220.9</ele>
        <time>2020-07-14T10:13:20Z</time>
      </trkpt>
      <trkpt lat="46.63101" lon="6.11251">
        <ele>1220.3</ele>
        <time>2020-07-14T10:13:25Z</time>
      </trkpt>
      <trkpt lat="46.631" lon="6.11245">
        <ele>1219.6</ele>
        <time>2020-07-14T10:13:31Z</time>
      </trkpt>
      <trkpt lat="46.63097" lon="6.11239">
        <ele>1219.1</ele>
        <time>2020-07-14T10:13:37Z</time>
      </trkpt>
      <trkpt lat="46.63096" lon="6.11231">
        <ele>1219</ele>
        <time>2020-07-14T10:13:47Z</time>
      </trkpt>
      <trkpt lat="46.63095" lon="6.11223">
        <ele>1219.1</ele>
        <time>2020-07-14T10:13:51Z</time>
      </trkpt>
      <trkpt lat="46.63096" lon="6.11217">
        <ele>1220</ele>
        <time>2020-07-14T10:14:05Z</time>
      </trkpt>
      <trkpt lat="46.63094" lon="6.1121">
        <ele>1220.3</ele>
        <time>2020-07-14T10:14:09Z</time>
      </trkpt>
      <trkpt lat="46.6309" lon="6.11202">
        <ele>1220.4</ele>
        <time>2020-07-14T10:14:11Z</time>
      </trkpt>
      <trkpt lat="46.63087" lon="6.11196">
        <ele>1220.4</ele>
        <time>2020-07-14T10:14:14Z</time>
      </trkpt>
      <trkpt lat="46.63085" lon="6.11189">
        <ele>1220.3</ele>
        <time>2020-07-14T10:14:21Z</time>
      </trkpt>
      <trkpt lat="46.63081" lon="6.11182">
        <ele>1220.2</ele>
        <time>2020-07-14T10:14:28Z</time>
      </trkpt>
      <trkpt lat="46.63079" lon="6.11176">
        <ele>1220.1</ele>
        <time>2020-07-14T10:14:31Z</time>
      </trkpt>
      <trkpt lat="46.63076" lon="6.11169">
        <ele>1219.9</ele>
        <time>2020-07-14T10:14:35Z</time>
      </trkpt>
      <trkpt lat="46.63073" lon="6.11163">
        <ele>1219.6</ele>
        <time>2020-07-14T10:14:40Z</time>
      </trkpt>
      <trkpt lat="46.63072" lon="6.11156">
        <ele>1219.3</ele>
        <time>2020-07-14T10:14:47Z</time>
      </trkpt>
      <trkpt lat="46.63071" lon="6.11149">
        <ele>1219</ele>
        <time>2020-07-14T10:14:54Z</time>
      </trkpt>
      <trkpt lat="46.6307" lon="6.11141">
        <ele>1218.7</ele>
        <time>2020-07-14T10:15:00Z</time>
      </trkpt>
      <trkpt lat="46.63069" lon="6.11135">
        <ele>1218.1</ele>
        <time>2020-07-14T10:15:08Z</time>
      </trkpt>
      <trkpt lat="46.63068" lon="6.11129">
        <ele>1218.4</ele>
        <time>2020-07-14T10:15:15Z</time>
      </trkpt>
      <trkpt lat="46.63068" lon="6.11121">
        <ele>1218.3</ele>
        <time>2020-07-14T10:15:21Z</time>
      </trkpt>
      <trkpt lat="46.63067" lon="6.11113">
        <ele>1218.2</ele>
        <time>2020-07-14T10:15:25Z</time>
      </trkpt>
      <trkpt lat="46.63065" lon="6.11106">
        <ele>1217.8</ele>
        <time>2020-07-14T10:15:30Z</time>
      </trkpt>
      <trkpt lat="46.63063" lon="6.111">
        <ele>1217.3</ele>
        <time>2020-07-14T10:15:35Z</time>
      </trkpt>
      <trkpt lat="46.63062" lon="6.11092">
        <ele>1216.8</ele>
        <time>2020-07-14T10:15:41Z</time>
      </trkpt>
      <trkpt lat="46.63061" lon="6.11085">
        <ele>1216.5</ele>
        <time>2020-07-14T10:15:45Z</time>
      </trkpt>
      <trkpt lat="46.63058" lon="6.11079">
        <ele>1216.2</ele>
        <time>2020-07-14T10:15:49Z</time>
      </trkpt>
      <trkpt lat="46.63056" lon="6.11072">
        <ele>1215.5</ele>
        <time>2020-07-14T10:15:54Z</time>
      </trkpt>
      <trkpt lat="46.63048" lon="6.11059">
        <ele>1213.2</ele>
        <time>2020-07-14T10:16:14Z</time>
      </trkpt>
      <trkpt lat="46.63044" lon="6.11053">
        <ele>1212.6</ele>
        <time>2020-07-14T10:16:20Z</time>
      </trkpt>
      <trkpt lat="46.63041" lon="6.11049">
        <ele>1211.9</ele>
        <time>2020-07-14T10:16:25Z</time>
      </trkpt>
      <trkpt lat="46.63037" lon="6.11044">
        <ele>1211</ele>
        <time>2020-07-14T10:16:34Z</time>
      </trkpt>
      <trkpt lat="46.63035" lon="6.11031">
        <ele>1196.6</ele>
        <time>2020-07-14T10:53:26Z</time>
      </trkpt>
      <trkpt lat="46.63031" lon="6.11025">
        <ele>1191.7</ele>
        <time>2020-07-14T10:54:12Z</time>
      </trkpt>
      <trkpt lat="46.6303" lon="6.11027">
        <ele>1191.8</ele>
        <time>2020-07-14T10:55:10Z</time>
      </trkpt>
      <trkpt lat="46.63027" lon="6.11025">
        <ele>1192.9</ele>
        <time>2020-07-14T10:57:37Z</time>
      </trkpt>
      <trkpt lat="46.6302" lon="6.11023">
        <ele>1192</ele>
        <time>2020-07-14T10:57:41Z</time>
      </trkpt>
      <trkpt lat="46.63015" lon="6.11022">
        <ele>1191.3</ele>
        <time>2020-07-14T10:57:44Z</time>
      </trkpt>
      <trkpt lat="46.6301" lon="6.11022">
        <ele>1190.3</ele>
        <time>2020-07-14T10:57:49Z</time>
      </trkpt>
      <trkpt lat="46.63006" lon="6.1102">
        <ele>1189.4</ele>
        <time>2020-07-14T10:57:53Z</time>
      </trkpt>
      <trkpt lat="46.63002" lon="6.11015">
        <ele>1188.6</ele>
        <time>2020-07-14T10:57:58Z</time>
      </trkpt>
      <trkpt lat="46.62999" lon="6.1101">
        <ele>1187.8</ele>
        <time>2020-07-14T10:58:06Z</time>
      </trkpt>
      <trkpt lat="46.62996" lon="6.11005">
        <ele>1187.1</ele>
        <time>2020-07-14T10:58:12Z</time>
      </trkpt>
      <trkpt lat="46.62992" lon="6.10996">
        <ele>1186.3</ele>
        <time>2020-07-14T10:58:18Z</time>
      </trkpt>
      <trkpt lat="46.62987" lon="6.1099">
        <ele>1186</ele>
        <time>2020-07-14T10:58:20Z</time>
      </trkpt>
      <trkpt lat="46.62983" lon="6.10986">
        <ele>1185.4</ele>
        <time>2020-07-14T10:58:23Z</time>
      </trkpt>
      <trkpt lat="46.62979" lon="6.10984">
        <ele>1184.5</ele>
        <time>2020-07-14T10:58:28Z</time>
      </trkpt>
      <trkpt lat="46.62973" lon="6.10978">
        <ele>1183.4</ele>
        <time>2020-07-14T10:58:35Z</time>
      </trkpt>
      <trkpt lat="46.62969" lon="6.10972">
        <ele>1183.1</ele>
        <time>2020-07-14T10:58:37Z</time>
      </trkpt>
      <trkpt lat="46.62966" lon="6.10967">
        <ele>1182.8</ele>
        <time>2020-07-14T10:58:40Z</time>
      </trkpt>
      <trkpt lat="46.62962" lon="6.10963">
        <ele>1182.7</ele>
        <time>2020-07-14T10:58:46Z</time>
      </trkpt>
      <trkpt lat="46.62957" lon="6.10961">
        <ele>1183</ele>
        <time>2020-07-14T10:58:53Z</time>
      </trkpt>
      <trkpt lat="46.62952" lon="6.10959">
        <ele>1183.4</ele>
        <time>2020-07-14T10:59:03Z</time>
      </trkpt>
      <trkpt lat="46.62948" lon="6.10956">
        <ele>1183.9</ele>
        <time>2020-07-14T10:59:13Z</time>
      </trkpt>
      <trkpt lat="46.62944" lon="6.10951">
        <ele>1183.8</ele>
        <time>2020-07-14T10:59:22Z</time>
      </trkpt>
      <trkpt lat="46.62939" lon="6.10949">
        <ele>1182.3</ele>
        <time>2020-07-14T10:59:30Z</time>
      </trkpt>
      <trkpt lat="46.62937" lon="6.10943">
        <ele>1180.1</ele>
        <time>2020-07-14T10:59:37Z</time>
      </trkpt>
      <trkpt lat="46.62934" lon="6.10935">
        <ele>1178.7</ele>
        <time>2020-07-14T10:59:45Z</time>
      </trkpt>
      <trkpt lat="46.62929" lon="6.10932">
        <ele>1178.6</ele>
        <time>2020-07-14T10:59:51Z</time>
      </trkpt>
      <trkpt lat="46.62923" lon="6.10928">
        <ele>1179.3</ele>
        <time>2020-07-14T10:59:57Z</time>
      </trkpt>
      <trkpt lat="46.62919" lon="6.10924">
        <ele>1180</ele>
        <time>2020-07-14T11:00:01Z</time>
      </trkpt>
      <trkpt lat="46.62914" lon="6.10919">
        <ele>1180.4</ele>
        <time>2020-07-14T11:00:05Z</time>
      </trkpt>
      <trkpt lat="46.62909" lon="6.10916">
        <ele>1180.6</ele>
        <time>2020-07-14T11:00:10Z</time>
      </trkpt>
      <trkpt lat="46.62906" lon="6.10911">
        <ele>1180.7</ele>
        <time>2020-07-14T11:00:18Z</time>
      </trkpt>
      <trkpt lat="46.62901" lon="6.10906">
        <ele>1180.5</ele>
        <time>2020-07-14T11:00:25Z</time>
      </trkpt>
      <trkpt lat="46.62898" lon="6.10899">
        <ele>1180.3</ele>
        <time>2020-07-14T11:00:28Z</time>
      </trkpt>
      <trkpt lat="46.62896" lon="6.10893">
        <ele>1179.8</ele>
        <time>2020-07-14T11:00:32Z</time>
      </trkpt>
      <trkpt lat="46.62892" lon="6.10888">
        <ele>1179.4</ele>
        <time>2020-07-14T11:00:39Z</time>
      </trkpt>
      <trkpt lat="46.62888" lon="6.10883">
        <ele>1179.8</ele>
        <time>2020-07-14T11:00:46Z</time>
      </trkpt>
      <trkpt lat="46.62884" lon="6.10876">
        <ele>1181</ele>
        <time>2020-07-14T11:00:52Z</time>
      </trkpt>
      <trkpt lat="46.62881" lon="6.10872">
        <ele>1182</ele>
        <time>2020-07-14T11:00:57Z</time>
      </trkpt>
      <trkpt lat="46.62877" lon="6.10867">
        <ele>1183.2</ele>
        <time>2020-07-14T11:01:05Z</time>
      </trkpt>
      <trkpt lat="46.62875" lon="6.1086">
        <ele>1183.8</ele>
        <time>2020-07-14T11:01:11Z</time>
      </trkpt>
      <trkpt lat="46.62872" lon="6.10854">
        <ele>1184.3</ele>
        <time>2020-07-14T11:01:17Z</time>
      </trkpt>
      <trkpt lat="46.62869" lon="6.10849">
        <ele>1184.9</ele>
        <time>2020-07-14T11:01:25Z</time>
      </trkpt>
      <trkpt lat="46.62867" lon="6.10855">
        <ele>1183.8</ele>
        <time>2020-07-14T11:01:40Z</time>
      </trkpt>
      <trkpt lat="46.62863" lon="6.10859">
        <ele>1182.2</ele>
        <time>2020-07-14T11:01:47Z</time>
      </trkpt>
      <trkpt lat="46.62858" lon="6.10859">
        <ele>1180</ele>
        <time>2020-07-14T11:01:55Z</time>
      </trkpt>
      <trkpt lat="46.62853" lon="6.1086">
        <ele>1178.7</ele>
        <time>2020-07-14T11:02:00Z</time>
      </trkpt>
      <trkpt lat="46.62849" lon="6.10859">
        <ele>1177.1</ele>
        <time>2020-07-14T11:02:06Z</time>
      </trkpt>
      <trkpt lat="46.62843" lon="6.10859">
        <ele>1176.2</ele>
        <time>2020-07-14T11:02:10Z</time>
      </trkpt>
      <trkpt lat="46.62838" lon="6.10859">
        <ele>1175.4</ele>
        <time>2020-07-14T11:02:14Z</time>
      </trkpt>
      <trkpt lat="46.62833" lon="6.10856">
        <ele>1175.1</ele>
        <time>2020-07-14T11:02:16Z</time>
      </trkpt>
      <trkpt lat="46.62828" lon="6.10853">
        <ele>1174.6</ele>
        <time>2020-07-14T11:02:19Z</time>
      </trkpt>
      <trkpt lat="46.62824" lon="6.10849">
        <ele>1173.4</ele>
        <time>2020-07-14T11:02:26Z</time>
      </trkpt>
      <trkpt lat="46.62819" lon="6.10843">
        <ele>1172.7</ele>
        <time>2020-07-14T11:02:30Z</time>
      </trkpt>
      <trkpt lat="46.62815" lon="6.10837">
        <ele>1171.9</ele>
        <time>2020-07-14T11:02:35Z</time>
      </trkpt>
      <trkpt lat="46.62812" lon="6.10832">
        <ele>1171.2</ele>
        <time>2020-07-14T11:02:39Z</time>
      </trkpt>
      <trkpt lat="46.62807" lon="6.10827">
        <ele>1170.7</ele>
        <time>2020-07-14T11:02:43Z</time>
      </trkpt>
      <trkpt lat="46.62803" lon="6.10823">
        <ele>1170</ele>
        <time>2020-07-14T11:02:48Z</time>
      </trkpt>
      <trkpt lat="46.628" lon="6.10817">
        <ele>1169.8</ele>
        <time>2020-07-14T11:02:53Z</time>
      </trkpt>
      <trkpt lat="46.62797" lon="6.10813">
        <ele>1170.2</ele>
        <time>2020-07-14T11:02:57Z</time>
      </trkpt>
      <trkpt lat="46.62797" lon="6.10821">
        <ele>1166.3</ele>
        <time>2020-07-14T11:03:42Z</time>
      </trkpt>
      <trkpt lat="46.62789" lon="6.1083">
        <ele>1161.6</ele>
        <time>2020-07-14T11:03:56Z</time>
      </trkpt>
      <trkpt lat="46.62785" lon="6.10836">
        <ele>1161.2</ele>
        <time>2020-07-14T11:03:59Z</time>
      </trkpt>
      <trkpt lat="46.62782" lon="6.10841">
        <ele>1160.8</ele>
        <time>2020-07-14T11:04:01Z</time>
      </trkpt>
      <trkpt lat="46.62778" lon="6.10846">
        <ele>1159.8</ele>
        <time>2020-07-14T11:04:05Z</time>
      </trkpt>
      <trkpt lat="46.62775" lon="6.10851">
        <ele>1158.4</ele>
        <time>2020-07-14T11:04:11Z</time>
      </trkpt>
      <trkpt lat="46.62772" lon="6.10857">
        <ele>1157.5</ele>
        <time>2020-07-14T11:04:15Z</time>
      </trkpt>
      <trkpt lat="46.62769" lon="6.10863">
        <ele>1156.5</ele>
        <time>2020-07-14T11:04:24Z</time>
      </trkpt>
      <trkpt lat="46.62765" lon="6.10867">
        <ele>1156.3</ele>
        <time>2020-07-14T11:04:29Z</time>
      </trkpt>
      <trkpt lat="46.62762" lon="6.10872">
        <ele>1156.1</ele>
        <time>2020-07-14T11:04:35Z</time>
      </trkpt>
      <trkpt lat="46.62759" lon="6.10878">
        <ele>1155.8</ele>
        <time>2020-07-14T11:04:41Z</time>
      </trkpt>
      <trkpt lat="46.62757" lon="6.10885">
        <ele>1155.2</ele>
        <time>2020-07-14T11:04:47Z</time>
      </trkpt>
      <trkpt lat="46.62754" lon="6.10892">
        <ele>1154.9</ele>
        <time>2020-07-14T11:04:50Z</time>
      </trkpt>
      <trkpt lat="46.62752" lon="6.10899">
        <ele>1154.6</ele>
        <time>2020-07-14T11:04:53Z</time>
      </trkpt>
      <trkpt lat="46.6275" lon="6.10905">
        <ele>1154.1</ele>
        <time>2020-07-14T11:04:58Z</time>
      </trkpt>
      <trkpt lat="46.62747" lon="6.1091">
        <ele>1153</ele>
        <time>2020-07-14T11:05:05Z</time>
      </trkpt>
      <trkpt lat="46.62743" lon="6.10915">
        <ele>1151.6</ele>
        <time>2020-07-14T11:05:12Z</time>
      </trkpt>
      <trkpt lat="46.62738" lon="6.10919">
        <ele>1150.9</ele>
        <time>2020-07-14T11:05:15Z</time>
      </trkpt>
      <trkpt lat="46.62732" lon="6.10924">
        <ele>1150.5</ele>
        <time>2020-07-14T11:05:17Z</time>
      </trkpt>
      <trkpt lat="46.62728" lon="6.10929">
        <ele>1149.9</ele>
        <time>2020-07-14T11:05:20Z</time>
      </trkpt>
      <trkpt lat="46.62723" lon="6.1093">
        <ele>1148.6</ele>
        <time>2020-07-14T11:05:28Z</time>
      </trkpt>
      <trkpt lat="46.62718" lon="6.10929">
        <ele>1148</ele>
        <time>2020-07-14T11:05:40Z</time>
      </trkpt>
      <trkpt lat="46.62712" lon="6.10928">
        <ele>1147.8</ele>
        <time>2020-07-14T11:05:42Z</time>
      </trkpt>
      <trkpt lat="46.62707" lon="6.10926">
        <ele>1147.6</ele>
        <time>2020-07-14T11:05:45Z</time>
      </trkpt>
      <trkpt lat="46.62703" lon="6.10926">
        <ele>1147.4</ele>
        <time>2020-07-14T11:05:48Z</time>
      </trkpt>
      <trkpt lat="46.62698" lon="6.10925">
        <ele>1147.5</ele>
        <time>2020-07-14T11:05:52Z</time>
      </trkpt>
      <trkpt lat="46.62693" lon="6.10924">
        <ele>1147.7</ele>
        <time>2020-07-14T11:05:56Z</time>
      </trkpt>
      <trkpt lat="46.62687" lon="6.10924">
        <ele>1147.8</ele>
        <time>2020-07-14T11:06:00Z</time>
      </trkpt>
      <trkpt lat="46.62683" lon="6.10925">
        <ele>1148.1</ele>
        <time>2020-07-14T11:06:05Z</time>
      </trkpt>
      <trkpt lat="46.62674" lon="6.10923">
        <ele>1147.9</ele>
        <time>2020-07-14T11:06:20Z</time>
      </trkpt>
      <trkpt lat="46.62669" lon="6.10923">
        <ele>1147.5</ele>
        <time>2020-07-14T11:06:25Z</time>
      </trkpt>
      <trkpt lat="46.62664" lon="6.10921">
        <ele>1147</ele>
        <time>2020-07-14T11:06:29Z</time>
      </trkpt>
      <trkpt lat="46.6266" lon="6.10919">
        <ele>1146.4</ele>
        <time>2020-07-14T11:06:35Z</time>
      </trkpt>
      <trkpt lat="46.62655" lon="6.10916">
        <ele>1145.9</ele>
        <time>2020-07-14T11:06:39Z</time>
      </trkpt>
      <trkpt lat="46.6265" lon="6.10912">
        <ele>1145.2</ele>
        <time>2020-07-14T11:06:45Z</time>
      </trkpt>
      <trkpt lat="46.62645" lon="6.10907">
        <ele>1145</ele>
        <time>2020-07-14T11:06:47Z</time>
      </trkpt>
      <trkpt lat="46.6264" lon="6.109">
        <ele>1144.9</ele>
        <time>2020-07-14T11:06:49Z</time>
      </trkpt>
      <trkpt lat="46.62635" lon="6.10895">
        <ele>1144.7</ele>
        <time>2020-07-14T11:06:51Z</time>
      </trkpt>
      <trkpt lat="46.62631" lon="6.10891">
        <ele>1144.3</ele>
        <time>2020-07-14T11:06:55Z</time>
      </trkpt>
      <trkpt lat="46.62627" lon="6.10888">
        <ele>1143.2</ele>
        <time>2020-07-14T11:07:02Z</time>
      </trkpt>
      <trkpt lat="46.62623" lon="6.10885">
        <ele>1142.1</ele>
        <time>2020-07-14T11:07:08Z</time>
      </trkpt>
      <trkpt lat="46.62618" lon="6.10884">
        <ele>1141.5</ele>
        <time>2020-07-14T11:07:11Z</time>
      </trkpt>
      <trkpt lat="46.62614" lon="6.10882">
        <ele>1140.8</ele>
        <time>2020-07-14T11:07:14Z</time>
      </trkpt>
      <trkpt lat="46.62609" lon="6.10879">
        <ele>1140.2</ele>
        <time>2020-07-14T11:07:19Z</time>
      </trkpt>
      <trkpt lat="46.62604" lon="6.10875">
        <ele>1140.1</ele>
        <time>2020-07-14T11:07:23Z</time>
      </trkpt>
      <trkpt lat="46.62599" lon="6.10872">
        <ele>1140.3</ele>
        <time>2020-07-14T11:07:27Z</time>
      </trkpt>
      <trkpt lat="46.62595" lon="6.1087">
        <ele>1140.4</ele>
        <time>2020-07-14T11:07:31Z</time>
      </trkpt>
      <trkpt lat="46.62591" lon="6.10865">
        <ele>1140.8</ele>
        <time>2020-07-14T11:07:39Z</time>
      </trkpt>
      <trkpt lat="46.62586" lon="6.10864">
        <ele>1140.7</ele>
        <time>2020-07-14T11:07:45Z</time>
      </trkpt>
      <trkpt lat="46.62581" lon="6.10863">
        <ele>1140.2</ele>
        <time>2020-07-14T11:07:49Z</time>
      </trkpt>
      <trkpt lat="46.62576" lon="6.10863">
        <ele>1139.8</ele>
        <time>2020-07-14T11:07:54Z</time>
      </trkpt>
      <trkpt lat="46.62571" lon="6.10865">
        <ele>1139.7</ele>
        <time>2020-07-14T11:07:56Z</time>
      </trkpt>
      <trkpt lat="46.62566" lon="6.10867">
        <ele>1139.3</ele>
        <time>2020-07-14T11:08:00Z</time>
      </trkpt>
      <trkpt lat="46.62562" lon="6.1087">
        <ele>1138.7</ele>
        <time>2020-07-14T11:08:08Z</time>
      </trkpt>
      <trkpt lat="46.62557" lon="6.10872">
        <ele>1138.2</ele>
        <time>2020-07-14T11:08:16Z</time>
      </trkpt>
      <trkpt lat="46.62552" lon="6.10874">
        <ele>1137.7</ele>
        <time>2020-07-14T11:08:20Z</time>
      </trkpt>
      <trkpt lat="46.62548" lon="6.10877">
        <ele>1137.2</ele>
        <time>2020-07-14T11:08:24Z</time>
      </trkpt>
      <trkpt lat="46.62543" lon="6.10879">
        <ele>1137</ele>
        <time>2020-07-14T11:08:28Z</time>
      </trkpt>
      <trkpt lat="46.62537" lon="6.10879">
        <ele>1137.3</ele>
        <time>2020-07-14T11:08:32Z</time>
      </trkpt>
      <trkpt lat="46.62532" lon="6.10878">
        <ele>1137.7</ele>
        <time>2020-07-14T11:08:35Z</time>
      </trkpt>
      <trkpt lat="46.62527" lon="6.10879">
        <ele>1138.4</ele>
        <time>2020-07-14T11:08:39Z</time>
      </trkpt>
      <trkpt lat="46.62523" lon="6.10881">
        <ele>1139.2</ele>
        <time>2020-07-14T11:08:47Z</time>
      </trkpt>
      <trkpt lat="46.62518" lon="6.10884">
        <ele>1139.2</ele>
        <time>2020-07-14T11:08:54Z</time>
      </trkpt>
      <trkpt lat="46.62512" lon="6.10889">
        <ele>1139.1</ele>
        <time>2020-07-14T11:08:59Z</time>
      </trkpt>
      <trkpt lat="46.62507" lon="6.1089">
        <ele>1138.9</ele>
        <time>2020-07-14T11:09:01Z</time>
      </trkpt>
      <trkpt lat="46.62502" lon="6.10892">
        <ele>1138.5</ele>
        <time>2020-07-14T11:09:06Z</time>
      </trkpt>
      <trkpt lat="46.62497" lon="6.10894">
        <ele>1138.2</ele>
        <time>2020-07-14T11:09:09Z</time>
      </trkpt>
      <trkpt lat="46.62493" lon="6.10897">
        <ele>1137.4</ele>
        <time>2020-07-14T11:09:18Z</time>
      </trkpt>
      <trkpt lat="46.62488" lon="6.10898">
        <ele>1136.6</ele>
        <time>2020-07-14T11:09:24Z</time>
      </trkpt>
      <trkpt lat="46.62483" lon="6.10897">
        <ele>1136.2</ele>
        <time>2020-07-14T11:09:28Z</time>
      </trkpt>
      <trkpt lat="46.62479" lon="6.10897">
        <ele>1136</ele>
        <time>2020-07-14T11:09:32Z</time>
      </trkpt>
      <trkpt lat="46.6247" lon="6.10894">
        <ele>1136.5</ele>
        <time>2020-07-14T11:09:52Z</time>
      </trkpt>
      <trkpt lat="46.62464" lon="6.10895">
        <ele>1136.8</ele>
        <time>2020-07-14T11:10:00Z</time>
      </trkpt>
      <trkpt lat="46.62458" lon="6.10895">
        <ele>1136.8</ele>
        <time>2020-07-14T11:10:02Z</time>
      </trkpt>
      <trkpt lat="46.62452" lon="6.10895">
        <ele>1136.7</ele>
        <time>2020-07-14T11:10:04Z</time>
      </trkpt>
      <trkpt lat="46.62446" lon="6.10894">
        <ele>1136.5</ele>
        <time>2020-07-14T11:10:07Z</time>
      </trkpt>
      <trkpt lat="46.62441" lon="6.10892">
        <ele>1135.9</ele>
        <time>2020-07-14T11:10:12Z</time>
      </trkpt>
      <trkpt lat="46.62437" lon="6.10891">
        <ele>1135</ele>
        <time>2020-07-14T11:10:18Z</time>
      </trkpt>
      <trkpt lat="46.62429" lon="6.10886">
        <ele>1137.7</ele>
        <time>2020-07-14T11:11:01Z</time>
      </trkpt>
      <trkpt lat="46.62426" lon="6.10879">
        <ele>1137.7</ele>
        <time>2020-07-14T11:11:05Z</time>
      </trkpt>
      <trkpt lat="46.62425" lon="6.10872">
        <ele>1133.8</ele>
        <time>2020-07-14T11:11:37Z</time>
      </trkpt>
      <trkpt lat="46.62421" lon="6.10867">
        <ele>1134.2</ele>
        <time>2020-07-14T11:11:41Z</time>
      </trkpt>
      <trkpt lat="46.62417" lon="6.10861">
        <ele>1134.6</ele>
        <time>2020-07-14T11:11:45Z</time>
      </trkpt>
      <trkpt lat="46.62413" lon="6.10855">
        <ele>1134.9</ele>
        <time>2020-07-14T11:11:49Z</time>
      </trkpt>
      <trkpt lat="46.62411" lon="6.10849">
        <ele>1135</ele>
        <time>2020-07-14T11:11:56Z</time>
      </trkpt>
      <trkpt lat="46.6241" lon="6.10841">
        <ele>1134.7</ele>
        <time>2020-07-14T11:12:03Z</time>
      </trkpt>
      <trkpt lat="46.62408" lon="6.10835">
        <ele>1134.2</ele>
        <time>2020-07-14T11:12:09Z</time>
      </trkpt>
      <trkpt lat="46.62405" lon="6.10831">
        <ele>1134</ele>
        <time>2020-07-14T11:12:14Z</time>
      </trkpt>
      <trkpt lat="46.62401" lon="6.10826">
        <ele>1134.3</ele>
        <time>2020-07-14T11:12:18Z</time>
      </trkpt>
      <trkpt lat="46.62397" lon="6.1082">
        <ele>1134.4</ele>
        <time>2020-07-14T11:12:22Z</time>
      </trkpt>
      <trkpt lat="46.62394" lon="6.10814">
        <ele>1134.4</ele>
        <time>2020-07-14T11:12:26Z</time>
      </trkpt>
      <trkpt lat="46.6239" lon="6.10808">
        <ele>1134.1</ele>
        <time>2020-07-14T11:12:30Z</time>
      </trkpt>
      <trkpt lat="46.62387" lon="6.10802">
        <ele>1133.5</ele>
        <time>2020-07-14T11:12:35Z</time>
      </trkpt>
      <trkpt lat="46.62383" lon="6.10798">
        <ele>1132.6</ele>
        <time>2020-07-14T11:12:43Z</time>
      </trkpt>
      <trkpt lat="46.62378" lon="6.10793">
        <ele>1132.6</ele>
        <time>2020-07-14T11:12:47Z</time>
      </trkpt>
      <trkpt lat="46.62373" lon="6.10788">
        <ele>1133</ele>
        <time>2020-07-14T11:12:52Z</time>
      </trkpt>
      <trkpt lat="46.62369" lon="6.10785">
        <ele>1133.2</ele>
        <time>2020-07-14T11:12:54Z</time>
      </trkpt>
      <trkpt lat="46.62364" lon="6.10782">
        <ele>1133.9</ele>
        <time>2020-07-14T11:12:58Z</time>
      </trkpt>
      <trkpt lat="46.62359" lon="6.10782">
        <ele>1135.3</ele>
        <time>2020-07-14T11:13:07Z</time>
      </trkpt>
      <trkpt lat="46.62355" lon="6.10774">
        <ele>1136.1</ele>
        <time>2020-07-14T11:13:17Z</time>
      </trkpt>
      <trkpt lat="46.62352" lon="6.10766">
        <ele>1136.5</ele>
        <time>2020-07-14T11:13:19Z</time>
      </trkpt>
      <trkpt lat="46.6235" lon="6.10759">
        <ele>1137.2</ele>
        <time>2020-07-14T11:13:23Z</time>
      </trkpt>
      <trkpt lat="46.62347" lon="6.10753">
        <ele>1138.4</ele>
        <time>2020-07-14T11:13:28Z</time>
      </trkpt>
      <trkpt lat="46.62345" lon="6.10747">
        <ele>1139</ele>
        <time>2020-07-14T11:13:31Z</time>
      </trkpt>
      <trkpt lat="46.62341" lon="6.1073">
        <ele>1140.1</ele>
        <time>2020-07-14T11:13:43Z</time>
      </trkpt>
      <trkpt lat="46.62339" lon="6.10723">
        <ele>1140.2</ele>
        <time>2020-07-14T11:13:46Z</time>
      </trkpt>
      <trkpt lat="46.62338" lon="6.10716">
        <ele>1140.6</ele>
        <time>2020-07-14T11:13:51Z</time>
      </trkpt>
      <trkpt lat="46.62337" lon="6.1071">
        <ele>1140.5</ele>
        <time>2020-07-14T11:13:59Z</time>
      </trkpt>
      <trkpt lat="46.62337" lon="6.10702">
        <ele>1139.9</ele>
        <time>2020-07-14T11:14:04Z</time>
      </trkpt>
      <trkpt lat="46.62336" lon="6.10695">
        <ele>1139.4</ele>
        <time>2020-07-14T11:14:08Z</time>
      </trkpt>
      <trkpt lat="46.62333" lon="6.10688">
        <ele>1139</ele>
        <time>2020-07-14T11:14:15Z</time>
      </trkpt>
      <trkpt lat="46.6233" lon="6.10682">
        <ele>1139.1</ele>
        <time>2020-07-14T11:14:19Z</time>
      </trkpt>
      <trkpt lat="46.62327" lon="6.10676">
        <ele>1139.5</ele>
        <time>2020-07-14T11:14:23Z</time>
      </trkpt>
      <trkpt lat="46.62324" lon="6.1067">
        <ele>1139.7</ele>
        <time>2020-07-14T11:14:28Z</time>
      </trkpt>
      <trkpt lat="46.62321" lon="6.10664">
        <ele>1139.5</ele>
        <time>2020-07-14T11:14:34Z</time>
      </trkpt>
      <trkpt lat="46.62317" lon="6.10659">
        <ele>1138.7</ele>
        <time>2020-07-14T11:14:41Z</time>
      </trkpt>
      <trkpt lat="46.62315" lon="6.10653">
        <ele>1138.2</ele>
        <time>2020-07-14T11:14:46Z</time>
      </trkpt>
      <trkpt lat="46.62312" lon="6.10646">
        <ele>1137.8</ele>
        <time>2020-07-14T11:14:49Z</time>
      </trkpt>
      <trkpt lat="46.62308" lon="6.10641">
        <ele>1137.6</ele>
        <time>2020-07-14T11:14:51Z</time>
      </trkpt>
      <trkpt lat="46.62305" lon="6.10636">
        <ele>1137.3</ele>
        <time>2020-07-14T11:14:56Z</time>
      </trkpt>
      <trkpt lat="46.62305" lon="6.10629">
        <ele>1136.9</ele>
        <time>2020-07-14T11:15:01Z</time>
      </trkpt>
      <trkpt lat="46.62304" lon="6.10622">
        <ele>1136.4</ele>
        <time>2020-07-14T11:15:05Z</time>
      </trkpt>
      <trkpt lat="46.62303" lon="6.10615">
        <ele>1135.8</ele>
        <time>2020-07-14T11:15:10Z</time>
      </trkpt>
      <trkpt lat="46.62299" lon="6.10611">
        <ele>1135.1</ele>
        <time>2020-07-14T11:15:15Z</time>
      </trkpt>
      <trkpt lat="46.62295" lon="6.10603">
        <ele>1134.7</ele>
        <time>2020-07-14T11:15:18Z</time>
      </trkpt>
      <trkpt lat="46.62291" lon="6.10598">
        <ele>1134.4</ele>
        <time>2020-07-14T11:15:20Z</time>
      </trkpt>
      <trkpt lat="46.62288" lon="6.10594">
        <ele>1134.2</ele>
        <time>2020-07-14T11:15:24Z</time>
      </trkpt>
      <trkpt lat="46.62286" lon="6.10587">
        <ele>1134.2</ele>
        <time>2020-07-14T11:15:29Z</time>
      </trkpt>
      <trkpt lat="46.62283" lon="6.10581">
        <ele>1133.7</ele>
        <time>2020-07-14T11:15:38Z</time>
      </trkpt>
      <trkpt lat="46.62281" lon="6.10575">
        <ele>1132.6</ele>
        <time>2020-07-14T11:15:44Z</time>
      </trkpt>
      <trkpt lat="46.62278" lon="6.10569">
        <ele>1131.8</ele>
        <time>2020-07-14T11:15:49Z</time>
      </trkpt>
      <trkpt lat="46.62276" lon="6.10561">
        <ele>1131.2</ele>
        <time>2020-07-14T11:15:54Z</time>
      </trkpt>
      <trkpt lat="46.62273" lon="6.10555">
        <ele>1130.8</ele>
        <time>2020-07-14T11:15:57Z</time>
      </trkpt>
      <trkpt lat="46.62268" lon="6.10548">
        <ele>1130.3</ele>
        <time>2020-07-14T11:16:01Z</time>
      </trkpt>
      <trkpt lat="46.62264" lon="6.10545">
        <ele>1130</ele>
        <time>2020-07-14T11:16:03Z</time>
      </trkpt>
      <trkpt lat="46.6226" lon="6.1054">
        <ele>1129.7</ele>
        <time>2020-07-14T11:16:05Z</time>
      </trkpt>
      <trkpt lat="46.62256" lon="6.10534">
        <ele>1129.3</ele>
        <time>2020-07-14T11:16:08Z</time>
      </trkpt>
      <trkpt lat="46.62253" lon="6.10527">
        <ele>1128.9</ele>
        <time>2020-07-14T11:16:12Z</time>
      </trkpt>
      <trkpt lat="46.62255" lon="6.1052">
        <ele>1128.7</ele>
        <time>2020-07-14T11:16:17Z</time>
      </trkpt>
      <trkpt lat="46.62259" lon="6.10517">
        <ele>1128.7</ele>
        <time>2020-07-14T11:16:22Z</time>
      </trkpt>
      <trkpt lat="46.62263" lon="6.10513">
        <ele>1131.2</ele>
        <time>2020-07-14T11:16:55Z</time>
      </trkpt>
      <trkpt lat="46.62267" lon="6.10507">
        <ele>1133</ele>
        <time>2020-07-14T11:17:12Z</time>
      </trkpt>
      <trkpt lat="46.62272" lon="6.10501">
        <ele>1133.8</ele>
        <time>2020-07-14T11:17:18Z</time>
      </trkpt>
      <trkpt lat="46.62275" lon="6.10496">
        <ele>1134.2</ele>
        <time>2020-07-14T11:17:23Z</time>
      </trkpt>
      <trkpt lat="46.6228" lon="6.10493">
        <ele>1134.6</ele>
        <time>2020-07-14T11:17:31Z</time>
      </trkpt>
      <trkpt lat="46.62285" lon="6.1049">
        <ele>1134.5</ele>
        <time>2020-07-14T11:17:35Z</time>
      </trkpt>
      <trkpt lat="46.62291" lon="6.10486">
        <ele>1134.9</ele>
        <time>2020-07-14T11:17:43Z</time>
      </trkpt>
      <trkpt lat="46.62295" lon="6.10482">
        <ele>1135</ele>
        <time>2020-07-14T11:17:45Z</time>
      </trkpt>
      <trkpt lat="46.62298" lon="6.10477">
        <ele>1135.2</ele>
        <time>2020-07-14T11:17:47Z</time>
      </trkpt>
      <trkpt lat="46.623" lon="6.10471">
        <ele>1135.4</ele>
        <time>2020-07-14T11:17:50Z</time>
      </trkpt>
      <trkpt lat="46.62302" lon="6.10463">
        <ele>1135.9</ele>
        <time>2020-07-14T11:17:54Z</time>
      </trkpt>
      <trkpt lat="46.62303" lon="6.10455">
        <ele>1136.4</ele>
        <time>2020-07-14T11:17:57Z</time>
      </trkpt>
      <trkpt lat="46.62309" lon="6.10443">
        <ele>1137.5</ele>
        <time>2020-07-14T11:18:06Z</time>
      </trkpt>
      <trkpt lat="46.62313" lon="6.10438">
        <ele>1137.8</ele>
        <time>2020-07-14T11:18:12Z</time>
      </trkpt>
      <trkpt lat="46.62317" lon="6.10433">
        <ele>1137.9</ele>
        <time>2020-07-14T11:18:17Z</time>
      </trkpt>
      <trkpt lat="46.6232" lon="6.10428">
        <ele>1138</ele>
        <time>2020-07-14T11:18:20Z</time>
      </trkpt>
      <trkpt lat="46.62321" lon="6.10422">
        <ele>1138.5</ele>
        <time>2020-07-14T11:18:25Z</time>
      </trkpt>
      <trkpt lat="46.62323" lon="6.10414">
        <ele>1138.7</ele>
        <time>2020-07-14T11:18:29Z</time>
      </trkpt>
      <trkpt lat="46.62325" lon="6.10408">
        <ele>1138.6</ele>
        <time>2020-07-14T11:18:34Z</time>
      </trkpt>
      <trkpt lat="46.62328" lon="6.10402">
        <ele>1138.4</ele>
        <time>2020-07-14T11:18:37Z</time>
      </trkpt>
      <trkpt lat="46.62332" lon="6.10397">
        <ele>1138.4</ele>
        <time>2020-07-14T11:18:42Z</time>
      </trkpt>
      <trkpt lat="46.62334" lon="6.10391">
        <ele>1138.4</ele>
        <time>2020-07-14T11:18:47Z</time>
      </trkpt>
      <trkpt lat="46.62336" lon="6.10385">
        <ele>1138.7</ele>
        <time>2020-07-14T11:18:52Z</time>
      </trkpt>
      <trkpt lat="46.62338" lon="6.10379">
        <ele>1139</ele>
        <time>2020-07-14T11:18:56Z</time>
      </trkpt>
      <trkpt lat="46.6234" lon="6.10372">
        <ele>1139.5</ele>
        <time>2020-07-14T11:19:01Z</time>
      </trkpt>
      <trkpt lat="46.62351" lon="6.10356">
        <ele>1141.5</ele>
        <time>2020-07-14T11:19:13Z</time>
      </trkpt>
      <trkpt lat="46.62352" lon="6.1035">
        <ele>1142.2</ele>
        <time>2020-07-14T11:19:18Z</time>
      </trkpt>
      <trkpt lat="46.62355" lon="6.10345">
        <ele>1143.1</ele>
        <time>2020-07-14T11:19:24Z</time>
      </trkpt>
      <trkpt lat="46.6236" lon="6.10342">
        <ele>1143.9</ele>
        <time>2020-07-14T11:19:30Z</time>
      </trkpt>
      <trkpt lat="46.62364" lon="6.10337">
        <ele>1144.2</ele>
        <time>2020-07-14T11:19:33Z</time>
      </trkpt>
      <trkpt lat="46.62369" lon="6.10335">
        <ele>1144.6</ele>
        <time>2020-07-14T11:19:38Z</time>
      </trkpt>
      <trkpt lat="46.62375" lon="6.10335">
        <ele>1144.8</ele>
        <time>2020-07-14T11:19:41Z</time>
      </trkpt>
      <trkpt lat="46.6238" lon="6.10332">
        <ele>1145.2</ele>
        <time>2020-07-14T11:19:45Z</time>
      </trkpt>
      <trkpt lat="46.62384" lon="6.10328">
        <ele>1145.7</ele>
        <time>2020-07-14T11:19:49Z</time>
      </trkpt>
      <trkpt lat="46.62388" lon="6.10323">
        <ele>1146.2</ele>
        <time>2020-07-14T11:19:54Z</time>
      </trkpt>
      <trkpt lat="46.62406" lon="6.10312">
        <ele>1145.4</ele>
        <time>2020-07-14T11:20:07Z</time>
      </trkpt>
      <trkpt lat="46.62411" lon="6.1031">
        <ele>1144.7</ele>
        <time>2020-07-14T11:20:14Z</time>
      </trkpt>
      <trkpt lat="46.6242" lon="6.10304">
        <ele>1139.7</ele>
        <time>2020-07-14T11:20:35Z</time>
      </trkpt>
      <trkpt lat="46.62425" lon="6.10301">
        <ele>1139.1</ele>
        <time>2020-07-14T11:20:39Z</time>
      </trkpt>
      <trkpt lat="46.62429" lon="6.10298">
        <ele>1138.4</ele>
        <time>2020-07-14T11:20:44Z</time>
      </trkpt>
      <trkpt lat="46.62435" lon="6.10297">
        <ele>1138</ele>
        <time>2020-07-14T11:20:50Z</time>
      </trkpt>
      <trkpt lat="46.62439" lon="6.10294">
        <ele>1138.2</ele>
        <time>2020-07-14T11:20:54Z</time>
      </trkpt>
      <trkpt lat="46.62444" lon="6.10291">
        <ele>1138.6</ele>
        <time>2020-07-14T11:20:58Z</time>
      </trkpt>
      <trkpt lat="46.62447" lon="6.10285">
        <ele>1139.1</ele>
        <time>2020-07-14T11:21:03Z</time>
      </trkpt>
      <trkpt lat="46.62451" lon="6.1028">
        <ele>1139.5</ele>
        <time>2020-07-14T11:21:06Z</time>
      </trkpt>
      <trkpt lat="46.62469" lon="6.10257">
        <ele>1143.5</ele>
        <time>2020-07-14T11:21:27Z</time>
      </trkpt>
      <trkpt lat="46.62489" lon="6.1025">
        <ele>1147.5</ele>
        <time>2020-07-14T11:21:50Z</time>
      </trkpt>
      <trkpt lat="46.62498" lon="6.10245">
        <ele>1148.3</ele>
        <time>2020-07-14T11:22:01Z</time>
      </trkpt>
      <trkpt lat="46.62502" lon="6.10242">
        <ele>1148.7</ele>
        <time>2020-07-14T11:22:11Z</time>
      </trkpt>
      <trkpt lat="46.62505" lon="6.10237">
        <ele>1149.7</ele>
        <time>2020-07-14T11:22:21Z</time>
      </trkpt>
      <trkpt lat="46.62511" lon="6.10234">
        <ele>1152</ele>
        <time>2020-07-14T11:22:33Z</time>
      </trkpt>
      <trkpt lat="46.62516" lon="6.10232">
        <ele>1152.6</ele>
        <time>2020-07-14T11:22:36Z</time>
      </trkpt>
      <trkpt lat="46.62521" lon="6.10229">
        <ele>1153.4</ele>
        <time>2020-07-14T11:22:40Z</time>
      </trkpt>
      <trkpt lat="46.62527" lon="6.10224">
        <ele>1154</ele>
        <time>2020-07-14T11:22:44Z</time>
      </trkpt>
      <trkpt lat="46.62532" lon="6.10221">
        <ele>1154.2</ele>
        <time>2020-07-14T11:22:46Z</time>
      </trkpt>
      <trkpt lat="46.62536" lon="6.10216">
        <ele>1154.7</ele>
        <time>2020-07-14T11:22:49Z</time>
      </trkpt>
      <trkpt lat="46.62539" lon="6.1021">
        <ele>1155.6</ele>
        <time>2020-07-14T11:22:55Z</time>
      </trkpt>
      <trkpt lat="46.62543" lon="6.10206">
        <ele>1157.1</ele>
        <time>2020-07-14T11:23:01Z</time>
      </trkpt>
      <trkpt lat="46.62546" lon="6.10202">
        <ele>1158.9</ele>
        <time>2020-07-14T11:23:08Z</time>
      </trkpt>
      <trkpt lat="46.62551" lon="6.10198">
        <ele>1159.7</ele>
        <time>2020-07-14T11:23:12Z</time>
      </trkpt>
      <trkpt lat="46.62552" lon="6.10191">
        <ele>1160.4</ele>
        <time>2020-07-14T11:23:16Z</time>
      </trkpt>
      <trkpt lat="46.62553" lon="6.10184">
        <ele>1161</ele>
        <time>2020-07-14T11:23:21Z</time>
      </trkpt>
      <trkpt lat="46.62555" lon="6.10177">
        <ele>1162.3</ele>
        <time>2020-07-14T11:23:29Z</time>
      </trkpt>
      <trkpt lat="46.6256" lon="6.10174">
        <ele>1162.9</ele>
        <time>2020-07-14T11:23:32Z</time>
      </trkpt>
      <trkpt lat="46.62565" lon="6.10172">
        <ele>1163.5</ele>
        <time>2020-07-14T11:23:36Z</time>
      </trkpt>
      <trkpt lat="46.6257" lon="6.10169">
        <ele>1164</ele>
        <time>2020-07-14T11:23:40Z</time>
      </trkpt>
      <trkpt lat="46.62575" lon="6.1016">
        <ele>1164.6</ele>
        <time>2020-07-14T11:23:48Z</time>
      </trkpt>
      <trkpt lat="46.6258" lon="6.10157">
        <ele>1164.5</ele>
        <time>2020-07-14T11:23:53Z</time>
      </trkpt>
      <trkpt lat="46.62588" lon="6.1015">
        <ele>1163.2</ele>
        <time>2020-07-14T11:24:05Z</time>
      </trkpt>
      <trkpt lat="46.62593" lon="6.10148">
        <ele>1162.6</ele>
        <time>2020-07-14T11:24:09Z</time>
      </trkpt>
      <trkpt lat="46.62598" lon="6.10146">
        <ele>1161.7</ele>
        <time>2020-07-14T11:24:14Z</time>
      </trkpt>
      <trkpt lat="46.62603" lon="6.10145">
        <ele>1160.8</ele>
        <time>2020-07-14T11:24:19Z</time>
      </trkpt>
      <trkpt lat="46.62611" lon="6.10138">
        <ele>1157.1</ele>
        <time>2020-07-14T11:24:36Z</time>
      </trkpt>
      <trkpt lat="46.62616" lon="6.10136">
        <ele>1156</ele>
        <time>2020-07-14T11:24:43Z</time>
      </trkpt>
      <trkpt lat="46.62619" lon="6.1013">
        <ele>1155.5</ele>
        <time>2020-07-14T11:24:50Z</time>
      </trkpt>
      <trkpt lat="46.62644" lon="6.10118">
        <ele>1156.6</ele>
        <time>2020-07-14T11:25:06Z</time>
      </trkpt>
      <trkpt lat="46.62649" lon="6.10117">
        <ele>1157</ele>
        <time>2020-07-14T11:25:09Z</time>
      </trkpt>
      <trkpt lat="46.62654" lon="6.10115">
        <ele>1157.3</ele>
        <time>2020-07-14T11:25:12Z</time>
      </trkpt>
      <trkpt lat="46.62674" lon="6.10106">
        <ele>1160.4</ele>
        <time>2020-07-14T11:25:40Z</time>
      </trkpt>
      <trkpt lat="46.62692" lon="6.10085">
        <ele>1160.3</ele>
        <time>2020-07-14T11:25:57Z</time>
      </trkpt>
      <trkpt lat="46.62695" lon="6.1008">
        <ele>1160.4</ele>
        <time>2020-07-14T11:26:01Z</time>
      </trkpt>
      <trkpt lat="46.62705" lon="6.10065">
        <ele>1161.2</ele>
        <time>2020-07-14T11:26:14Z</time>
      </trkpt>
      <trkpt lat="46.62707" lon="6.1004">
        <ele>1164.1</ele>
        <time>2020-07-14T11:26:29Z</time>
      </trkpt>
      <trkpt lat="46.62711" lon="6.10037">
        <ele>1163.3</ele>
        <time>2020-07-14T11:26:50Z</time>
      </trkpt>
      <trkpt lat="46.62714" lon="6.10032">
        <ele>1163.1</ele>
        <time>2020-07-14T11:26:54Z</time>
      </trkpt>
      <trkpt lat="46.62719" lon="6.10025">
        <ele>1163.1</ele>
        <time>2020-07-14T11:26:57Z</time>
      </trkpt>
      <trkpt lat="46.62723" lon="6.1002">
        <ele>1163.1</ele>
        <time>2020-07-14T11:27:01Z</time>
      </trkpt>
      <trkpt lat="46.62726" lon="6.10013">
        <ele>1163.2</ele>
        <time>2020-07-14T11:27:07Z</time>
      </trkpt>
      <trkpt lat="46.62728" lon="6.10007">
        <ele>1163.8</ele>
        <time>2020-07-14T11:27:13Z</time>
      </trkpt>
      <trkpt lat="46.6274" lon="6.09983">
        <ele>1167.4</ele>
        <time>2020-07-14T11:27:31Z</time>
      </trkpt>
      <trkpt lat="46.62744" lon="6.0998">
        <ele>1168.2</ele>
        <time>2020-07-14T11:27:40Z</time>
      </trkpt>
      <trkpt lat="46.62747" lon="6.0996">
        <ele>1171.6</ele>
        <time>2020-07-14T11:27:52Z</time>
      </trkpt>
      <trkpt lat="46.62753" lon="6.09951">
        <ele>1173.4</ele>
        <time>2020-07-14T11:28:00Z</time>
      </trkpt>
      <trkpt lat="46.62765" lon="6.09936">
        <ele>1175.7</ele>
        <time>2020-07-14T11:28:14Z</time>
      </trkpt>
      <trkpt lat="46.62766" lon="6.09928">
        <ele>1176</ele>
        <time>2020-07-14T11:28:18Z</time>
      </trkpt>
      <trkpt lat="46.62768" lon="6.09922">
        <ele>1176.3</ele>
        <time>2020-07-14T11:28:22Z</time>
      </trkpt>
      <trkpt lat="46.6277" lon="6.09915">
        <ele>1177</ele>
        <time>2020-07-14T11:28:27Z</time>
      </trkpt>
      <trkpt lat="46.62772" lon="6.0991">
        <ele>1177.4</ele>
        <time>2020-07-14T11:28:32Z</time>
      </trkpt>
      <trkpt lat="46.62777" lon="6.09906">
        <ele>1177.4</ele>
        <time>2020-07-14T11:28:35Z</time>
      </trkpt>
      <trkpt lat="46.62781" lon="6.09903">
        <ele>1177.6</ele>
        <time>2020-07-14T11:28:40Z</time>
      </trkpt>
      <trkpt lat="46.62784" lon="6.09897">
        <ele>1178</ele>
        <time>2020-07-14T11:28:45Z</time>
      </trkpt>
      <trkpt lat="46.62786" lon="6.09892">
        <ele>1178.3</ele>
        <time>2020-07-14T11:28:48Z</time>
      </trkpt>
      <trkpt lat="46.62787" lon="6.09885">
        <ele>1178.6</ele>
        <time>2020-07-14T11:28:50Z</time>
      </trkpt>
      <trkpt lat="46.62788" lon="6.09878">
        <ele>1179.2</ele>
        <time>2020-07-14T11:28:54Z</time>
      </trkpt>
      <trkpt lat="46.62789" lon="6.09872">
        <ele>1180.1</ele>
        <time>2020-07-14T11:28:59Z</time>
      </trkpt>
      <trkpt lat="46.62791" lon="6.09866">
        <ele>1181.5</ele>
        <time>2020-07-14T11:29:10Z</time>
      </trkpt>
      <trkpt lat="46.62795" lon="6.09863">
        <ele>1179.9</ele>
        <time>2020-07-14T11:29:33Z</time>
      </trkpt>
      <trkpt lat="46.62799" lon="6.09858">
        <ele>1178.3</ele>
        <time>2020-07-14T11:29:40Z</time>
      </trkpt>
      <trkpt lat="46.62817" lon="6.09835">
        <ele>1174.2</ele>
        <time>2020-07-14T11:29:57Z</time>
      </trkpt>
      <trkpt lat="46.62822" lon="6.09833">
        <ele>1173.9</ele>
        <time>2020-07-14T11:30:01Z</time>
      </trkpt>
      <trkpt lat="46.62827" lon="6.09833">
        <ele>1173.5</ele>
        <time>2020-07-14T11:30:04Z</time>
      </trkpt>
      <trkpt lat="46.62832" lon="6.09829">
        <ele>1172.7</ele>
        <time>2020-07-14T11:30:09Z</time>
      </trkpt>
      <trkpt lat="46.62836" lon="6.09824">
        <ele>1171.9</ele>
        <time>2020-07-14T11:30:15Z</time>
      </trkpt>
      <trkpt lat="46.62842" lon="6.09809">
        <ele>1171.8</ele>
        <time>2020-07-14T11:30:28Z</time>
      </trkpt>
      <trkpt lat="46.62845" lon="6.09802">
        <ele>1172.1</ele>
        <time>2020-07-14T11:30:34Z</time>
      </trkpt>
      <trkpt lat="46.62848" lon="6.09797">
        <ele>1172.3</ele>
        <time>2020-07-14T11:30:40Z</time>
      </trkpt>
      <trkpt lat="46.6285" lon="6.09791">
        <ele>1172.2</ele>
        <time>2020-07-14T11:30:46Z</time>
      </trkpt>
      <trkpt lat="46.62851" lon="6.09784">
        <ele>1171.6</ele>
        <time>2020-07-14T11:30:52Z</time>
      </trkpt>
      <trkpt lat="46.62853" lon="6.09777">
        <ele>1171</ele>
        <time>2020-07-14T11:30:57Z</time>
      </trkpt>
      <trkpt lat="46.62856" lon="6.09771">
        <ele>1170.6</ele>
        <time>2020-07-14T11:31:01Z</time>
      </trkpt>
      <trkpt lat="46.62874" lon="6.09739">
        <ele>1165.9</ele>
        <time>2020-07-14T11:31:28Z</time>
      </trkpt>
      <trkpt lat="46.62893" lon="6.09721">
        <ele>1167.8</ele>
        <time>2020-07-14T11:31:40Z</time>
      </trkpt>
      <trkpt lat="46.62896" lon="6.09713">
        <ele>1168.5</ele>
        <time>2020-07-14T11:31:45Z</time>
      </trkpt>
      <trkpt lat="46.62903" lon="6.09697">
        <ele>1169.7</ele>
        <time>2020-07-14T11:31:59Z</time>
      </trkpt>
      <trkpt lat="46.62906" lon="6.0969">
        <ele>1169.9</ele>
        <time>2020-07-14T11:32:03Z</time>
      </trkpt>
      <trkpt lat="46.62907" lon="6.09683">
        <ele>1170.1</ele>
        <time>2020-07-14T11:32:07Z</time>
      </trkpt>
      <trkpt lat="46.6291" lon="6.09678">
        <ele>1170.8</ele>
        <time>2020-07-14T11:32:13Z</time>
      </trkpt>
      <trkpt lat="46.62914" lon="6.09675">
        <ele>1171.4</ele>
        <time>2020-07-14T11:32:19Z</time>
      </trkpt>
      <trkpt lat="46.62921" lon="6.09662">
        <ele>1172.2</ele>
        <time>2020-07-14T11:32:27Z</time>
      </trkpt>
      <trkpt lat="46.62926" lon="6.09657">
        <ele>1172.4</ele>
        <time>2020-07-14T11:32:31Z</time>
      </trkpt>
      <trkpt lat="46.62928" lon="6.0965">
        <ele>1172.9</ele>
        <time>2020-07-14T11:32:35Z</time>
      </trkpt>
      <trkpt lat="46.62931" lon="6.09644">
        <ele>1173.5</ele>
        <time>2020-07-14T11:32:40Z</time>
      </trkpt>
      <trkpt lat="46.62934" lon="6.09638">
        <ele>1174.4</ele>
        <time>2020-07-14T11:32:46Z</time>
      </trkpt>
      <trkpt lat="46.62933" lon="6.0963">
        <ele>1174.7</ele>
        <time>2020-07-14T11:32:49Z</time>
      </trkpt>
      <trkpt lat="46.62936" lon="6.09625">
        <ele>1175.2</ele>
        <time>2020-07-14T11:32:55Z</time>
      </trkpt>
      <trkpt lat="46.6294" lon="6.09611">
        <ele>1176.1</ele>
        <time>2020-07-14T11:33:05Z</time>
      </trkpt>
      <trkpt lat="46.62942" lon="6.09605">
        <ele>1176.2</ele>
        <time>2020-07-14T11:33:09Z</time>
      </trkpt>
      <trkpt lat="46.62944" lon="6.09599">
        <ele>1176.3</ele>
        <time>2020-07-14T11:33:13Z</time>
      </trkpt>
      <trkpt lat="46.62947" lon="6.09594">
        <ele>1176.3</ele>
        <time>2020-07-14T11:33:16Z</time>
      </trkpt>
      <trkpt lat="46.62951" lon="6.09589">
        <ele>1176.2</ele>
        <time>2020-07-14T11:33:20Z</time>
      </trkpt>
      <trkpt lat="46.62953" lon="6.09583">
        <ele>1175.7</ele>
        <time>2020-07-14T11:33:27Z</time>
      </trkpt>
      <trkpt lat="46.62952" lon="6.09575">
        <ele>1174.6</ele>
        <time>2020-07-14T11:33:35Z</time>
      </trkpt>
      <trkpt lat="46.62949" lon="6.0956">
        <ele>1171.1</ele>
        <time>2020-07-14T11:33:44Z</time>
      </trkpt>
      <trkpt lat="46.62949" lon="6.09553">
        <ele>1170.5</ele>
        <time>2020-07-14T11:33:48Z</time>
      </trkpt>
      <trkpt lat="46.62947" lon="6.09546">
        <ele>1170.1</ele>
        <time>2020-07-14T11:33:54Z</time>
      </trkpt>
      <trkpt lat="46.62951" lon="6.09471">
        <ele>1163.3</ele>
        <time>2020-07-14T11:34:46Z</time>
      </trkpt>
      <trkpt lat="46.62953" lon="6.09464">
        <ele>1163.9</ele>
        <time>2020-07-14T11:34:51Z</time>
      </trkpt>
      <trkpt lat="46.62946" lon="6.09419">
        <ele>1163.3</ele>
        <time>2020-07-14T11:35:16Z</time>
      </trkpt>
      <trkpt lat="46.62945" lon="6.09411">
        <ele>1163.1</ele>
        <time>2020-07-14T11:35:20Z</time>
      </trkpt>
      <trkpt lat="46.62944" lon="6.09404">
        <ele>1163</ele>
        <time>2020-07-14T11:35:23Z</time>
      </trkpt>
      <trkpt lat="46.62943" lon="6.09396">
        <ele>1162.8</ele>
        <time>2020-07-14T11:35:26Z</time>
      </trkpt>
      <trkpt lat="46.62942" lon="6.0939">
        <ele>1162.7</ele>
        <time>2020-07-14T11:35:31Z</time>
      </trkpt>
      <trkpt lat="46.62942" lon="6.09382">
        <ele>1162.7</ele>
        <time>2020-07-14T11:35:36Z</time>
      </trkpt>
      <trkpt lat="46.62942" lon="6.09375">
        <ele>1162.7</ele>
        <time>2020-07-14T11:35:42Z</time>
      </trkpt>
      <trkpt lat="46.62939" lon="6.0937">
        <ele>1162.1</ele>
        <time>2020-07-14T11:35:48Z</time>
      </trkpt>
      <trkpt lat="46.62925" lon="6.09354">
        <ele>1161.8</ele>
        <time>2020-07-14T11:36:00Z</time>
      </trkpt>
      <trkpt lat="46.62922" lon="6.0935">
        <ele>1162.1</ele>
        <time>2020-07-14T11:36:04Z</time>
      </trkpt>
      <trkpt lat="46.62901" lon="6.09316">
        <ele>1163</ele>
        <time>2020-07-14T11:36:28Z</time>
      </trkpt>
      <trkpt lat="46.62894" lon="6.09304">
        <ele>1163.2</ele>
        <time>2020-07-14T11:36:44Z</time>
      </trkpt>
      <trkpt lat="46.6289" lon="6.093">
        <ele>1163.1</ele>
        <time>2020-07-14T11:36:47Z</time>
      </trkpt>
      <trkpt lat="46.62885" lon="6.09295">
        <ele>1163</ele>
        <time>2020-07-14T11:36:51Z</time>
      </trkpt>
      <trkpt lat="46.62881" lon="6.09291">
        <ele>1162.9</ele>
        <time>2020-07-14T11:36:53Z</time>
      </trkpt>
      <trkpt lat="46.62851" lon="6.09275">
        <ele>1160.3</ele>
        <time>2020-07-14T11:37:44Z</time>
      </trkpt>
      <trkpt lat="46.6284" lon="6.09269">
        <ele>1159.1</ele>
        <time>2020-07-14T11:38:01Z</time>
      </trkpt>
      <trkpt lat="46.62829" lon="6.09266">
        <ele>1157.5</ele>
        <time>2020-07-14T11:38:14Z</time>
      </trkpt>
      <trkpt lat="46.62811" lon="6.09256">
        <ele>1157.3</ele>
        <time>2020-07-14T11:38:24Z</time>
      </trkpt>
      <trkpt lat="46.62806" lon="6.09255">
        <ele>1157.1</ele>
        <time>2020-07-14T11:38:28Z</time>
      </trkpt>
      <trkpt lat="46.62802" lon="6.09255">
        <ele>1157</ele>
        <time>2020-07-14T11:38:30Z</time>
      </trkpt>
      <trkpt lat="46.62797" lon="6.09254">
        <ele>1156.7</ele>
        <time>2020-07-14T11:38:33Z</time>
      </trkpt>
      <trkpt lat="46.62756" lon="6.09182">
        <ele>1156.1</ele>
        <time>2020-07-14T11:39:42Z</time>
      </trkpt>
      <trkpt lat="46.62755" lon="6.09175">
        <ele>1156.3</ele>
        <time>2020-07-14T11:39:44Z</time>
      </trkpt>
      <trkpt lat="46.62754" lon="6.09168">
        <ele>1156.5</ele>
        <time>2020-07-14T11:39:48Z</time>
      </trkpt>
      <trkpt lat="46.62753" lon="6.0916">
        <ele>1157</ele>
        <time>2020-07-14T11:39:54Z</time>
      </trkpt>
      <trkpt lat="46.62752" lon="6.09153">
        <ele>1157.3</ele>
        <time>2020-07-14T11:39:56Z</time>
      </trkpt>
      <trkpt lat="46.6275" lon="6.09145">
        <ele>1157.5</ele>
        <time>2020-07-14T11:40:00Z</time>
      </trkpt>
      <trkpt lat="46.62749" lon="6.09138">
        <ele>1157.3</ele>
        <time>2020-07-14T11:40:04Z</time>
      </trkpt>
      <trkpt lat="46.62748" lon="6.09131">
        <ele>1156.9</ele>
        <time>2020-07-14T11:40:09Z</time>
      </trkpt>
      <trkpt lat="46.62747" lon="6.09124">
        <ele>1156.3</ele>
        <time>2020-07-14T11:40:13Z</time>
      </trkpt>
      <trkpt lat="46.62746" lon="6.09116">
        <ele>1155.8</ele>
        <time>2020-07-14T11:40:17Z</time>
      </trkpt>
      <trkpt lat="46.62746" lon="6.09108">
        <ele>1155.3</ele>
        <time>2020-07-14T11:40:21Z</time>
      </trkpt>
      <trkpt lat="46.62746" lon="6.09101">
        <ele>1154.1</ele>
        <time>2020-07-14T11:40:33Z</time>
      </trkpt>
      <trkpt lat="46.62743" lon="6.09088">
        <ele>1153.4</ele>
        <time>2020-07-14T11:40:39Z</time>
      </trkpt>
      <trkpt lat="46.62741" lon="6.09081">
        <ele>1153.2</ele>
        <time>2020-07-14T11:40:41Z</time>
      </trkpt>
      <trkpt lat="46.62738" lon="6.09075">
        <ele>1152.9</ele>
        <time>2020-07-14T11:40:44Z</time>
      </trkpt>
      <trkpt lat="46.62734" lon="6.09069">
        <ele>1151.8</ele>
        <time>2020-07-14T11:40:51Z</time>
      </trkpt>
      <trkpt lat="46.62723" lon="6.09061">
        <ele>1149</ele>
        <time>2020-07-14T11:41:04Z</time>
      </trkpt>
      <trkpt lat="46.62713" lon="6.09062">
        <ele>1146.8</ele>
        <time>2020-07-14T11:41:17Z</time>
      </trkpt>
      <trkpt lat="46.62708" lon="6.09065">
        <ele>1145.4</ele>
        <time>2020-07-14T11:41:23Z</time>
      </trkpt>
      <trkpt lat="46.62704" lon="6.09069">
        <ele>1144.8</ele>
        <time>2020-07-14T11:41:25Z</time>
      </trkpt>
      <trkpt lat="46.627" lon="6.09073">
        <ele>1143.7</ele>
        <time>2020-07-14T11:41:29Z</time>
      </trkpt>
      <trkpt lat="46.62695" lon="6.09074">
        <ele>1142.1</ele>
        <time>2020-07-14T11:41:35Z</time>
      </trkpt>
      <trkpt lat="46.6269" lon="6.09074">
        <ele>1141.3</ele>
        <time>2020-07-14T11:41:43Z</time>
      </trkpt>
      <trkpt lat="46.62686" lon="6.09076">
        <ele>1141.4</ele>
        <time>2020-07-14T11:41:54Z</time>
      </trkpt>
      <trkpt lat="46.62687" lon="6.09069">
        <ele>1141.2</ele>
        <time>2020-07-14T11:42:21Z</time>
      </trkpt>
      <trkpt lat="46.62688" lon="6.09062">
        <ele>1140.8</ele>
        <time>2020-07-14T11:42:28Z</time>
      </trkpt>
      <trkpt lat="46.62691" lon="6.09042">
        <ele>1141.1</ele>
        <time>2020-07-14T11:42:37Z</time>
      </trkpt>
      <trkpt lat="46.62692" lon="6.09036">
        <ele>1141.8</ele>
        <time>2020-07-14T11:42:44Z</time>
      </trkpt>
      <trkpt lat="46.627" lon="6.09022">
        <ele>1144.6</ele>
        <time>2020-07-14T11:42:56Z</time>
      </trkpt>
      <trkpt lat="46.62719" lon="6.09013">
        <ele>1144.4</ele>
        <time>2020-07-14T11:43:11Z</time>
      </trkpt>
      <trkpt lat="46.62723" lon="6.0901">
        <ele>1144.3</ele>
        <time>2020-07-14T11:43:16Z</time>
      </trkpt>
      <trkpt lat="46.62738" lon="6.08999">
        <ele>1142.3</ele>
        <time>2020-07-14T11:43:28Z</time>
      </trkpt>
      <trkpt lat="46.62742" lon="6.08995">
        <ele>1142</ele>
        <time>2020-07-14T11:43:31Z</time>
      </trkpt>
      <trkpt lat="46.62746" lon="6.08991">
        <ele>1141.5</ele>
        <time>2020-07-14T11:43:35Z</time>
      </trkpt>
      <trkpt lat="46.62749" lon="6.08986">
        <ele>1141.4</ele>
        <time>2020-07-14T11:43:39Z</time>
      </trkpt>
      <trkpt lat="46.62752" lon="6.0898">
        <ele>1141.4</ele>
        <time>2020-07-14T11:43:43Z</time>
      </trkpt>
      <trkpt lat="46.62753" lon="6.08973">
        <ele>1141.6</ele>
        <time>2020-07-14T11:43:48Z</time>
      </trkpt>
      <trkpt lat="46.62755" lon="6.08966">
        <ele>1142</ele>
        <time>2020-07-14T11:43:52Z</time>
      </trkpt>
      <trkpt lat="46.62754" lon="6.08947">
        <ele>1143.3</ele>
        <time>2020-07-14T11:44:02Z</time>
      </trkpt>
      <trkpt lat="46.62768" lon="6.08915">
        <ele>1142.8</ele>
        <time>2020-07-14T11:44:33Z</time>
      </trkpt>
      <trkpt lat="46.62771" lon="6.08909">
        <ele>1142.9</ele>
        <time>2020-07-14T11:44:38Z</time>
      </trkpt>
      <trkpt lat="46.62772" lon="6.089">
        <ele>1142.9</ele>
        <time>2020-07-14T11:44:41Z</time>
      </trkpt>
      <trkpt lat="46.62774" lon="6.08893">
        <ele>1142.7</ele>
        <time>2020-07-14T11:44:47Z</time>
      </trkpt>
      <trkpt lat="46.62783" lon="6.08882">
        <ele>1141.5</ele>
        <time>2020-07-14T11:44:57Z</time>
      </trkpt>
      <trkpt lat="46.62787" lon="6.08879">
        <ele>1141.4</ele>
        <time>2020-07-14T11:45:02Z</time>
      </trkpt>
      <trkpt lat="46.62791" lon="6.08874">
        <ele>1141.4</ele>
        <time>2020-07-14T11:45:12Z</time>
      </trkpt>
      <trkpt lat="46.62797" lon="6.08869">
        <ele>1141.4</ele>
        <time>2020-07-14T11:45:15Z</time>
      </trkpt>
      <trkpt lat="46.62799" lon="6.08863">
        <ele>1141.4</ele>
        <time>2020-07-14T11:45:17Z</time>
      </trkpt>
      <trkpt lat="46.62801" lon="6.08857">
        <ele>1141.4</ele>
        <time>2020-07-14T11:45:21Z</time>
      </trkpt>
      <trkpt lat="46.628" lon="6.08851">
        <ele>1141.5</ele>
        <time>2020-07-14T11:45:24Z</time>
      </trkpt>
      <trkpt lat="46.62804" lon="6.08845">
        <ele>1140.9</ele>
        <time>2020-07-14T11:45:30Z</time>
      </trkpt>
      <trkpt lat="46.62808" lon="6.08842">
        <ele>1139.9</ele>
        <time>2020-07-14T11:45:35Z</time>
      </trkpt>
      <trkpt lat="46.62813" lon="6.0884">
        <ele>1138.5</ele>
        <time>2020-07-14T11:45:40Z</time>
      </trkpt>
      <trkpt lat="46.62818" lon="6.08836">
        <ele>1137.4</ele>
        <time>2020-07-14T11:45:44Z</time>
      </trkpt>
      <trkpt lat="46.62821" lon="6.08823">
        <ele>1134.4</ele>
        <time>2020-07-14T11:45:56Z</time>
      </trkpt>
      <trkpt lat="46.6282" lon="6.08816">
        <ele>1133.5</ele>
        <time>2020-07-14T11:46:02Z</time>
      </trkpt>
      <trkpt lat="46.62819" lon="6.08809">
        <ele>1131.9</ele>
        <time>2020-07-14T11:46:09Z</time>
      </trkpt>
      <trkpt lat="46.62817" lon="6.08803">
        <ele>1129.9</ele>
        <time>2020-07-14T11:46:16Z</time>
      </trkpt>
      <trkpt lat="46.62814" lon="6.08797">
        <ele>1128</ele>
        <time>2020-07-14T11:46:22Z</time>
      </trkpt>
      <trkpt lat="46.62813" lon="6.08788">
        <ele>1126.7</ele>
        <time>2020-07-14T11:46:26Z</time>
      </trkpt>
      <trkpt lat="46.62812" lon="6.08781">
        <ele>1125.4</ele>
        <time>2020-07-14T11:46:30Z</time>
      </trkpt>
      <trkpt lat="46.62814" lon="6.08774">
        <ele>1123.5</ele>
        <time>2020-07-14T11:46:35Z</time>
      </trkpt>
      <trkpt lat="46.62817" lon="6.08769">
        <ele>1121.4</ele>
        <time>2020-07-14T11:46:41Z</time>
      </trkpt>
      <trkpt lat="46.62819" lon="6.08762">
        <ele>1120.4</ele>
        <time>2020-07-14T11:46:44Z</time>
      </trkpt>
      <trkpt lat="46.62821" lon="6.08755">
        <ele>1119.8</ele>
        <time>2020-07-14T11:46:47Z</time>
      </trkpt>
      <trkpt lat="46.62824" lon="6.08748">
        <ele>1119.3</ele>
        <time>2020-07-14T11:46:49Z</time>
      </trkpt>
      <trkpt lat="46.62826" lon="6.08743">
        <ele>1118.9</ele>
        <time>2020-07-14T11:46:52Z</time>
      </trkpt>
      <trkpt lat="46.62829" lon="6.08737">
        <ele>1118.4</ele>
        <time>2020-07-14T11:46:58Z</time>
      </trkpt>
      <trkpt lat="46.62833" lon="6.08733">
        <ele>1118.3</ele>
        <time>2020-07-14T11:47:04Z</time>
      </trkpt>
      <trkpt lat="46.62837" lon="6.08728">
        <ele>1118.6</ele>
        <time>2020-07-14T11:47:11Z</time>
      </trkpt>
      <trkpt lat="46.62845" lon="6.08714">
        <ele>1119.8</ele>
        <time>2020-07-14T11:47:20Z</time>
      </trkpt>
      <trkpt lat="46.62848" lon="6.08708">
        <ele>1120</ele>
        <time>2020-07-14T11:47:23Z</time>
      </trkpt>
      <trkpt lat="46.62851" lon="6.08703">
        <ele>1120.6</ele>
        <time>2020-07-14T11:47:28Z</time>
      </trkpt>
      <trkpt lat="46.62853" lon="6.08696">
        <ele>1121.7</ele>
        <time>2020-07-14T11:47:34Z</time>
      </trkpt>
      <trkpt lat="46.62855" lon="6.0869">
        <ele>1122.5</ele>
        <time>2020-07-14T11:47:42Z</time>
      </trkpt>
      <trkpt lat="46.62859" lon="6.08685">
        <ele>1122.8</ele>
        <time>2020-07-14T11:47:49Z</time>
      </trkpt>
      <trkpt lat="46.62874" lon="6.08674">
        <ele>1122.3</ele>
        <time>2020-07-14T11:48:02Z</time>
      </trkpt>
      <trkpt lat="46.62879" lon="6.08671">
        <ele>1122.5</ele>
        <time>2020-07-14T11:48:09Z</time>
      </trkpt>
      <trkpt lat="46.62884" lon="6.08669">
        <ele>1123.1</ele>
        <time>2020-07-14T11:48:15Z</time>
      </trkpt>
      <trkpt lat="46.62888" lon="6.08665">
        <ele>1123.5</ele>
        <time>2020-07-14T11:48:20Z</time>
      </trkpt>
      <trkpt lat="46.629" lon="6.08648">
        <ele>1124.9</ele>
        <time>2020-07-14T11:48:34Z</time>
      </trkpt>
      <trkpt lat="46.62905" lon="6.08649">
        <ele>1124.3</ele>
        <time>2020-07-14T11:48:51Z</time>
      </trkpt>
      <trkpt lat="46.62909" lon="6.08647">
        <ele>1122.5</ele>
        <time>2020-07-14T11:48:57Z</time>
      </trkpt>
      <trkpt lat="46.62917" lon="6.08643">
        <ele>1121.3</ele>
        <time>2020-07-14T11:49:01Z</time>
      </trkpt>
      <trkpt lat="46.62922" lon="6.08642">
        <ele>1120.7</ele>
        <time>2020-07-14T11:49:03Z</time>
      </trkpt>
      <trkpt lat="46.62929" lon="6.08643">
        <ele>1120.2</ele>
        <time>2020-07-14T11:49:05Z</time>
      </trkpt>
      <trkpt lat="46.62934" lon="6.08642">
        <ele>1119.3</ele>
        <time>2020-07-14T11:49:09Z</time>
      </trkpt>
      <trkpt lat="46.6294" lon="6.08641">
        <ele>1118.9</ele>
        <time>2020-07-14T11:49:11Z</time>
      </trkpt>
      <trkpt lat="46.62945" lon="6.08639">
        <ele>1118.4</ele>
        <time>2020-07-14T11:49:14Z</time>
      </trkpt>
      <trkpt lat="46.6295" lon="6.08638">
        <ele>1117.7</ele>
        <time>2020-07-14T11:49:19Z</time>
      </trkpt>
      <trkpt lat="46.62959" lon="6.0862">
        <ele>1115.1</ele>
        <time>2020-07-14T11:49:37Z</time>
      </trkpt>
      <trkpt lat="46.62963" lon="6.08614">
        <ele>1113.4</ele>
        <time>2020-07-14T11:49:48Z</time>
      </trkpt>
      <trkpt lat="46.62967" lon="6.08608">
        <ele>1112.2</ele>
        <time>2020-07-14T11:50:02Z</time>
      </trkpt>
      <trkpt lat="46.62969" lon="6.08603">
        <ele>1112.1</ele>
        <time>2020-07-14T11:50:08Z</time>
      </trkpt>
      <trkpt lat="46.62975" lon="6.08596">
        <ele>1112.4</ele>
        <time>2020-07-14T11:50:15Z</time>
      </trkpt>
      <trkpt lat="46.62981" lon="6.08593">
        <ele>1112.8</ele>
        <time>2020-07-14T11:50:20Z</time>
      </trkpt>
      <trkpt lat="46.62989" lon="6.08588">
        <ele>1113</ele>
        <time>2020-07-14T11:50:24Z</time>
      </trkpt>
      <trkpt lat="46.62995" lon="6.08584">
        <ele>1113.2</ele>
        <time>2020-07-14T11:50:26Z</time>
      </trkpt>
      <trkpt lat="46.63" lon="6.0858">
        <ele>1113.5</ele>
        <time>2020-07-14T11:50:30Z</time>
      </trkpt>
      <trkpt lat="46.63005" lon="6.08575">
        <ele>1113.9</ele>
        <time>2020-07-14T11:50:36Z</time>
      </trkpt>
      <trkpt lat="46.63009" lon="6.08569">
        <ele>1114.3</ele>
        <time>2020-07-14T11:50:40Z</time>
      </trkpt>
      <trkpt lat="46.63013" lon="6.08567">
        <ele>1115.1</ele>
        <time>2020-07-14T11:50:49Z</time>
      </trkpt>
      <trkpt lat="46.63035" lon="6.08552">
        <ele>1116.4</ele>
        <time>2020-07-14T11:50:57Z</time>
      </trkpt>
      <trkpt lat="46.6304" lon="6.08549">
        <ele>1116.6</ele>
        <time>2020-07-14T11:50:59Z</time>
      </trkpt>
      <trkpt lat="46.63045" lon="6.08547">
        <ele>1116.9</ele>
        <time>2020-07-14T11:51:03Z</time>
      </trkpt>
      <trkpt lat="46.6305" lon="6.08544">
        <ele>1117.4</ele>
        <time>2020-07-14T11:51:07Z</time>
      </trkpt>
      <trkpt lat="46.63059" lon="6.08521">
        <ele>1119.6</ele>
        <time>2020-07-14T11:51:22Z</time>
      </trkpt>
      <trkpt lat="46.6306" lon="6.08513">
        <ele>1120.2</ele>
        <time>2020-07-14T11:51:26Z</time>
      </trkpt>
      <trkpt lat="46.63062" lon="6.08508">
        <ele>1121.4</ele>
        <time>2020-07-14T11:51:32Z</time>
      </trkpt>
      <trkpt lat="46.63067" lon="6.08496">
        <ele>1123.3</ele>
        <time>2020-07-14T11:51:42Z</time>
      </trkpt>
      <trkpt lat="46.63101" lon="6.08466">
        <ele>1124.8</ele>
        <time>2020-07-14T11:52:12Z</time>
      </trkpt>
      <trkpt lat="46.63112" lon="6.0846">
        <ele>1126.2</ele>
        <time>2020-07-14T11:52:23Z</time>
      </trkpt>
      <trkpt lat="46.63137" lon="6.08433">
        <ele>1132</ele>
        <time>2020-07-14T11:52:51Z</time>
      </trkpt>
      <trkpt lat="46.63136" lon="6.08426">
        <ele>1132.1</ele>
        <time>2020-07-14T11:52:53Z</time>
      </trkpt>
      <trkpt lat="46.63135" lon="6.08419">
        <ele>1132.2</ele>
        <time>2020-07-14T11:52:59Z</time>
      </trkpt>
      <trkpt lat="46.63139" lon="6.08414">
        <ele>1132.1</ele>
        <time>2020-07-14T11:53:03Z</time>
      </trkpt>
      <trkpt lat="46.63144" lon="6.08411">
        <ele>1131.9</ele>
        <time>2020-07-14T11:53:06Z</time>
      </trkpt>
      <trkpt lat="46.63148" lon="6.08409">
        <ele>1131.7</ele>
        <time>2020-07-14T11:53:10Z</time>
      </trkpt>
      <trkpt lat="46.63152" lon="6.08405">
        <ele>1131.3</ele>
        <time>2020-07-14T11:53:14Z</time>
      </trkpt>
      <trkpt lat="46.63155" lon="6.08399">
        <ele>1130.9</ele>
        <time>2020-07-14T11:53:19Z</time>
      </trkpt>
      <trkpt lat="46.63163" lon="6.0839">
        <ele>1130</ele>
        <time>2020-07-14T11:53:30Z</time>
      </trkpt>
      <trkpt lat="46.63167" lon="6.08385">
        <ele>1129.7</ele>
        <time>2020-07-14T11:53:34Z</time>
      </trkpt>
      <trkpt lat="46.63177" lon="6.08369">
        <ele>1128.7</ele>
        <time>2020-07-14T11:53:49Z</time>
      </trkpt>
      <trkpt lat="46.63181" lon="6.08366">
        <ele>1128.5</ele>
        <time>2020-07-14T11:53:55Z</time>
      </trkpt>
      <trkpt lat="46.63186" lon="6.08364">
        <ele>1128.3</ele>
        <time>2020-07-14T11:54:03Z</time>
      </trkpt>
      <trkpt lat="46.63191" lon="6.08362">
        <ele>1128.3</ele>
        <time>2020-07-14T11:54:09Z</time>
      </trkpt>
      <trkpt lat="46.63196" lon="6.0836">
        <ele>1128</ele>
        <time>2020-07-14T11:54:15Z</time>
      </trkpt>
      <trkpt lat="46.63201" lon="6.08356">
        <ele>1127.7</ele>
        <time>2020-07-14T11:54:18Z</time>
      </trkpt>
      <trkpt lat="46.63205" lon="6.08354">
        <ele>1127.5</ele>
        <time>2020-07-14T11:54:21Z</time>
      </trkpt>
      <trkpt lat="46.63213" lon="6.08351">
        <ele>1125.9</ele>
        <time>2020-07-14T11:54:30Z</time>
      </trkpt>
      <trkpt lat="46.63217" lon="6.08346">
        <ele>1124.9</ele>
        <time>2020-07-14T11:54:38Z</time>
      </trkpt>
      <trkpt lat="46.6322" lon="6.08342">
        <ele>1123.6</ele>
        <time>2020-07-14T11:54:45Z</time>
      </trkpt>
      <trkpt lat="46.63222" lon="6.08335">
        <ele>1122.9</ele>
        <time>2020-07-14T11:54:48Z</time>
      </trkpt>
      <trkpt lat="46.63223" lon="6.08327">
        <ele>1121.9</ele>
        <time>2020-07-14T11:54:53Z</time>
      </trkpt>
      <trkpt lat="46.63222" lon="6.0832">
        <ele>1120.8</ele>
        <time>2020-07-14T11:54:58Z</time>
      </trkpt>
      <trkpt lat="46.63223" lon="6.08313">
        <ele>1119.8</ele>
        <time>2020-07-14T11:55:03Z</time>
      </trkpt>
      <trkpt lat="46.63226" lon="6.08306">
        <ele>1118.9</ele>
        <time>2020-07-14T11:55:07Z</time>
      </trkpt>
      <trkpt lat="46.63226" lon="6.08299">
        <ele>1117.8</ele>
        <time>2020-07-14T11:55:13Z</time>
      </trkpt>
      <trkpt lat="46.63228" lon="6.08292">
        <ele>1117</ele>
        <time>2020-07-14T11:55:18Z</time>
      </trkpt>
      <trkpt lat="46.6323" lon="6.08286">
        <ele>1116.1</ele>
        <time>2020-07-14T11:55:25Z</time>
      </trkpt>
      <trkpt lat="46.63231" lon="6.08279">
        <ele>1115.4</ele>
        <time>2020-07-14T11:55:31Z</time>
      </trkpt>
      <trkpt lat="46.63233" lon="6.08255">
        <ele>1112.4</ele>
        <time>2020-07-14T11:55:46Z</time>
      </trkpt>
      <trkpt lat="46.63236" lon="6.08241">
        <ele>1111.3</ele>
        <time>2020-07-14T11:55:55Z</time>
      </trkpt>
      <trkpt lat="46.6324" lon="6.08235">
        <ele>1111.2</ele>
        <time>2020-07-14T11:56:00Z</time>
      </trkpt>
      <trkpt lat="46.63245" lon="6.08223">
        <ele>1110.7</ele>
        <time>2020-07-14T11:56:13Z</time>
      </trkpt>
      <trkpt lat="46.63247" lon="6.08216">
        <ele>1110.3</ele>
        <time>2020-07-14T11:56:17Z</time>
      </trkpt>
      <trkpt lat="46.63249" lon="6.0821">
        <ele>1110</ele>
        <time>2020-07-14T11:56:20Z</time>
      </trkpt>
      <trkpt lat="46.6325" lon="6.08203">
        <ele>1109.8</ele>
        <time>2020-07-14T11:56:24Z</time>
      </trkpt>
      <trkpt lat="46.63253" lon="6.08196">
        <ele>1109.6</ele>
        <time>2020-07-14T11:56:28Z</time>
      </trkpt>
      <trkpt lat="46.63257" lon="6.0819">
        <ele>1109.5</ele>
        <time>2020-07-14T11:56:32Z</time>
      </trkpt>
      <trkpt lat="46.63261" lon="6.08187">
        <ele>1109.4</ele>
        <time>2020-07-14T11:56:36Z</time>
      </trkpt>
      <trkpt lat="46.63265" lon="6.08182">
        <ele>1108.6</ele>
        <time>2020-07-14T11:56:42Z</time>
      </trkpt>
      <trkpt lat="46.63267" lon="6.08175">
        <ele>1107.7</ele>
        <time>2020-07-14T11:56:47Z</time>
      </trkpt>
      <trkpt lat="46.63269" lon="6.08169">
        <ele>1106.2</ele>
        <time>2020-07-14T11:56:53Z</time>
      </trkpt>
      <trkpt lat="46.63271" lon="6.08163">
        <ele>1104.9</ele>
        <time>2020-07-14T11:56:58Z</time>
      </trkpt>
      <trkpt lat="46.63272" lon="6.08157">
        <ele>1103</ele>
        <time>2020-07-14T11:57:05Z</time>
      </trkpt>
      <trkpt lat="46.63276" lon="6.08152">
        <ele>1100.5</ele>
        <time>2020-07-14T11:57:27Z</time>
      </trkpt>
      <trkpt lat="46.63283" lon="6.08148">
        <ele>1101.6</ele>
        <time>2020-07-14T11:57:49Z</time>
      </trkpt>
      <trkpt lat="46.63285" lon="6.08142">
        <ele>1101.6</ele>
        <time>2020-07-14T11:57:54Z</time>
      </trkpt>
      <trkpt lat="46.63287" lon="6.08136">
        <ele>1101.1</ele>
        <time>2020-07-14T11:58:00Z</time>
      </trkpt>
      <trkpt lat="46.6329" lon="6.0813">
        <ele>1100.1</ele>
        <time>2020-07-14T11:58:06Z</time>
      </trkpt>
      <trkpt lat="46.63289" lon="6.08124">
        <ele>1099.2</ele>
        <time>2020-07-14T11:58:33Z</time>
      </trkpt>
      <trkpt lat="46.63289" lon="6.08126">
        <ele>1104.6</ele>
        <time>2020-07-14T11:59:42Z</time>
      </trkpt>
      <trkpt lat="46.63285" lon="6.08134">
        <ele>1105.7</ele>
        <time>2020-07-14T11:59:49Z</time>
      </trkpt>
      <trkpt lat="46.63285" lon="6.08141">
        <ele>1106</ele>
        <time>2020-07-14T11:59:51Z</time>
      </trkpt>
      <trkpt lat="46.63285" lon="6.08148">
        <ele>1106.4</ele>
        <time>2020-07-14T11:59:54Z</time>
      </trkpt>
      <trkpt lat="46.63284" lon="6.08155">
        <ele>1106.9</ele>
        <time>2020-07-14T12:00:02Z</time>
      </trkpt>
      <trkpt lat="46.6328" lon="6.08158">
        <ele>1106</ele>
        <time>2020-07-14T12:00:17Z</time>
      </trkpt>
      <trkpt lat="46.63282" lon="6.08164">
        <ele>1104.8</ele>
        <time>2020-07-14T12:00:35Z</time>
      </trkpt>
      <trkpt lat="46.63278" lon="6.08168">
        <ele>1104.6</ele>
        <time>2020-07-14T12:00:40Z</time>
      </trkpt>
      <trkpt lat="46.63267" lon="6.08173">
        <ele>1103.4</ele>
        <time>2020-07-14T12:00:59Z</time>
      </trkpt>
      <trkpt lat="46.63264" lon="6.08178">
        <ele>1103.1</ele>
        <time>2020-07-14T12:01:07Z</time>
      </trkpt>
      <trkpt lat="46.63261" lon="6.08184">
        <ele>1103.1</ele>
        <time>2020-07-14T12:01:10Z</time>
      </trkpt>
      <trkpt lat="46.63258" lon="6.08189">
        <ele>1103.2</ele>
        <time>2020-07-14T12:01:15Z</time>
      </trkpt>
      <trkpt lat="46.63255" lon="6.08195">
        <ele>1103.1</ele>
        <time>2020-07-14T12:01:19Z</time>
      </trkpt>
      <trkpt lat="46.63252" lon="6.08201">
        <ele>1102.8</ele>
        <time>2020-07-14T12:01:24Z</time>
      </trkpt>
      <trkpt lat="46.63248" lon="6.08207">
        <ele>1102.6</ele>
        <time>2020-07-14T12:01:28Z</time>
      </trkpt>
      <trkpt lat="46.63244" lon="6.08211">
        <ele>1102.6</ele>
        <time>2020-07-14T12:01:33Z</time>
      </trkpt>
      <trkpt lat="46.63242" lon="6.08217">
        <ele>1102.7</ele>
        <time>2020-07-14T12:01:38Z</time>
      </trkpt>
      <trkpt lat="46.63239" lon="6.08223">
        <ele>1102.8</ele>
        <time>2020-07-14T12:01:43Z</time>
      </trkpt>
      <trkpt lat="46.63224" lon="6.08233">
        <ele>1104.4</ele>
        <time>2020-07-14T12:02:30Z</time>
      </trkpt>
      <trkpt lat="46.63217" lon="6.08234">
        <ele>1099.6</ele>
        <time>2020-07-14T12:03:43Z</time>
      </trkpt>
      <trkpt lat="46.63206" lon="6.08228">
        <ele>1101.3</ele>
        <time>2020-07-14T12:03:58Z</time>
      </trkpt>
      <trkpt lat="46.63201" lon="6.08225">
        <ele>1102.1</ele>
        <time>2020-07-14T12:04:03Z</time>
      </trkpt>
      <trkpt lat="46.63197" lon="6.08224">
        <ele>1104.2</ele>
        <time>2020-07-14T12:04:11Z</time>
      </trkpt>
      <trkpt lat="46.63188" lon="6.08226">
        <ele>1110.2</ele>
        <time>2020-07-14T12:04:56Z</time>
      </trkpt>
      <trkpt lat="46.63184" lon="6.08224">
        <ele>1111.1</ele>
        <time>2020-07-14T12:05:02Z</time>
      </trkpt>
      <trkpt lat="46.6318" lon="6.08221">
        <ele>1112</ele>
        <time>2020-07-14T12:05:08Z</time>
      </trkpt>
      <trkpt lat="46.63176" lon="6.08214">
        <ele>1112.3</ele>
        <time>2020-07-14T12:05:11Z</time>
      </trkpt>
      <trkpt lat="46.63172" lon="6.08209">
        <ele>1112.6</ele>
        <time>2020-07-14T12:05:15Z</time>
      </trkpt>
      <trkpt lat="46.63161" lon="6.08205">
        <ele>1116.9</ele>
        <time>2020-07-14T12:06:00Z</time>
      </trkpt>
      <trkpt lat="46.63156" lon="6.08202">
        <ele>1119.2</ele>
        <time>2020-07-14T12:06:07Z</time>
      </trkpt>
      <trkpt lat="46.63153" lon="6.08198">
        <ele>1121.6</ele>
        <time>2020-07-14T12:06:15Z</time>
      </trkpt>
      <trkpt lat="46.63148" lon="6.08195">
        <ele>1123.3</ele>
        <time>2020-07-14T12:06:23Z</time>
      </trkpt>
      <trkpt lat="46.63146" lon="6.0819">
        <ele>1124.5</ele>
        <time>2020-07-14T12:06:33Z</time>
      </trkpt>
      <trkpt lat="46.63135" lon="6.08163">
        <ele>1125.9</ele>
        <time>2020-07-14T12:09:12Z</time>
      </trkpt>
      <trkpt lat="46.63137" lon="6.08157">
        <ele>1127.4</ele>
        <time>2020-07-14T12:09:20Z</time>
      </trkpt>
      <trkpt lat="46.63135" lon="6.08149">
        <ele>1128.1</ele>
        <time>2020-07-14T12:09:27Z</time>
      </trkpt>
      <trkpt lat="46.63136" lon="6.08142">
        <ele>1129.2</ele>
        <time>2020-07-14T12:09:35Z</time>
      </trkpt>
      <trkpt lat="46.63138" lon="6.08116">
        <ele>1136.4</ele>
        <time>2020-07-14T12:10:13Z</time>
      </trkpt>
      <trkpt lat="46.63136" lon="6.0811">
        <ele>1136.4</ele>
        <time>2020-07-14T12:10:18Z</time>
      </trkpt>
      <trkpt lat="46.63133" lon="6.08104">
        <ele>1135.9</ele>
        <time>2020-07-14T12:10:34Z</time>
      </trkpt>
      <trkpt lat="46.63132" lon="6.08087">
        <ele>1139.9</ele>
        <time>2020-07-14T12:12:00Z</time>
      </trkpt>
      <trkpt lat="46.63134" lon="6.08081">
        <ele>1138.4</ele>
        <time>2020-07-14T12:12:13Z</time>
      </trkpt>
      <trkpt lat="46.63137" lon="6.08075">
        <ele>1137.8</ele>
        <time>2020-07-14T12:12:22Z</time>
      </trkpt>
      <trkpt lat="46.63135" lon="6.08069">
        <ele>1138.2</ele>
        <time>2020-07-14T12:12:41Z</time>
      </trkpt>
      <trkpt lat="46.63132" lon="6.08064">
        <ele>1138.7</ele>
        <time>2020-07-14T12:12:46Z</time>
      </trkpt>
      <trkpt lat="46.6313" lon="6.08058">
        <ele>1138.7</ele>
        <time>2020-07-14T12:12:54Z</time>
      </trkpt>
      <trkpt lat="46.63129" lon="6.08051">
        <ele>1137.8</ele>
        <time>2020-07-14T12:13:00Z</time>
      </trkpt>
      <trkpt lat="46.63125" lon="6.08048">
        <ele>1134.9</ele>
        <time>2020-07-14T12:13:13Z</time>
      </trkpt>
      <trkpt lat="46.63122" lon="6.08043">
        <ele>1134</ele>
        <time>2020-07-14T12:13:27Z</time>
      </trkpt>
      <trkpt lat="46.63104" lon="6.07995">
        <ele>1145.1</ele>
        <time>2020-07-14T12:15:59Z</time>
      </trkpt>
      <trkpt lat="46.63104" lon="6.07965">
        <ele>1147.6</ele>
        <time>2020-07-14T12:18:00Z</time>
      </trkpt>
      <trkpt lat="46.631" lon="6.07959">
        <ele>1147.5</ele>
        <time>2020-07-14T12:18:02Z</time>
      </trkpt>
      <trkpt lat="46.63095" lon="6.07949">
        <ele>1146.5</ele>
        <time>2020-07-14T12:18:14Z</time>
      </trkpt>
      <trkpt lat="46.6309" lon="6.07944">
        <ele>1146.4</ele>
        <time>2020-07-14T12:18:20Z</time>
      </trkpt>
      <trkpt lat="46.63087" lon="6.07939">
        <ele>1146.3</ele>
        <time>2020-07-14T12:18:26Z</time>
      </trkpt>
      <trkpt lat="46.63083" lon="6.07935">
        <ele>1146.1</ele>
        <time>2020-07-14T12:18:30Z</time>
      </trkpt>
      <trkpt lat="46.63075" lon="6.07928">
        <ele>1143.2</ele>
        <time>2020-07-14T12:19:11Z</time>
      </trkpt>
      <trkpt lat="46.63072" lon="6.0792">
        <ele>1143.1</ele>
        <time>2020-07-14T12:19:13Z</time>
      </trkpt>
      <trkpt lat="46.63069" lon="6.07911">
        <ele>1143.2</ele>
        <time>2020-07-14T12:19:15Z</time>
      </trkpt>
      <trkpt lat="46.63066" lon="6.07905">
        <ele>1143.3</ele>
        <time>2020-07-14T12:19:20Z</time>
      </trkpt>
      <trkpt lat="46.63062" lon="6.07901">
        <ele>1143</ele>
        <time>2020-07-14T12:19:27Z</time>
      </trkpt>
      <trkpt lat="46.63057" lon="6.079">
        <ele>1142.6</ele>
        <time>2020-07-14T12:19:36Z</time>
      </trkpt>
      <trkpt lat="46.63052" lon="6.07899">
        <ele>1142</ele>
        <time>2020-07-14T12:19:45Z</time>
      </trkpt>
      <trkpt lat="46.63046" lon="6.07895">
        <ele>1141.8</ele>
        <time>2020-07-14T12:19:47Z</time>
      </trkpt>
      <trkpt lat="46.63042" lon="6.07892">
        <ele>1141.7</ele>
        <time>2020-07-14T12:19:50Z</time>
      </trkpt>
      <trkpt lat="46.63034" lon="6.07881">
        <ele>1140.3</ele>
        <time>2020-07-14T12:20:29Z</time>
      </trkpt>
      <trkpt lat="46.63035" lon="6.07875">
        <ele>1141.1</ele>
        <time>2020-07-14T12:20:38Z</time>
      </trkpt>
      <trkpt lat="46.63036" lon="6.07868">
        <ele>1142</ele>
        <time>2020-07-14T12:20:47Z</time>
      </trkpt>
      <trkpt lat="46.63038" lon="6.0786">
        <ele>1142.8</ele>
        <time>2020-07-14T12:20:55Z</time>
      </trkpt>
      <trkpt lat="46.6304" lon="6.07852">
        <ele>1143.4</ele>
        <time>2020-07-14T12:21:02Z</time>
      </trkpt>
      <trkpt lat="46.63039" lon="6.07846">
        <ele>1143.6</ele>
        <time>2020-07-14T12:21:06Z</time>
      </trkpt>
      <trkpt lat="46.63038" lon="6.07838">
        <ele>1144</ele>
        <time>2020-07-14T12:21:16Z</time>
      </trkpt>
      <trkpt lat="46.63034" lon="6.07833">
        <ele>1144.6</ele>
        <time>2020-07-14T12:21:20Z</time>
      </trkpt>
      <trkpt lat="46.63033" lon="6.07826">
        <ele>1146</ele>
        <time>2020-07-14T12:21:27Z</time>
      </trkpt>
      <trkpt lat="46.63033" lon="6.07819">
        <ele>1146.7</ele>
        <time>2020-07-14T12:21:37Z</time>
      </trkpt>
      <trkpt lat="46.63028" lon="6.07816">
        <ele>1146.1</ele>
        <time>2020-07-14T12:21:49Z</time>
      </trkpt>
      <trkpt lat="46.63022" lon="6.07814">
        <ele>1146</ele>
        <time>2020-07-14T12:21:52Z</time>
      </trkpt>
      <trkpt lat="46.63018" lon="6.07812">
        <ele>1146</ele>
        <time>2020-07-14T12:21:56Z</time>
      </trkpt>
      <trkpt lat="46.63015" lon="6.07815">
        <ele>1148.7</ele>
        <time>2020-07-14T12:23:45Z</time>
      </trkpt>
      <trkpt lat="46.63006" lon="6.07814">
        <ele>1151.3</ele>
        <time>2020-07-14T12:23:58Z</time>
      </trkpt>
      <trkpt lat="46.63002" lon="6.0781">
        <ele>1151.6</ele>
        <time>2020-07-14T12:24:02Z</time>
      </trkpt>
      <trkpt lat="46.62997" lon="6.07808">
        <ele>1151.6</ele>
        <time>2020-07-14T12:24:07Z</time>
      </trkpt>
      <trkpt lat="46.62991" lon="6.07807">
        <ele>1151.2</ele>
        <time>2020-07-14T12:24:15Z</time>
      </trkpt>
      <trkpt lat="46.62986" lon="6.07807">
        <ele>1150.7</ele>
        <time>2020-07-14T12:24:19Z</time>
      </trkpt>
      <trkpt lat="46.62981" lon="6.07807">
        <ele>1150.2</ele>
        <time>2020-07-14T12:24:22Z</time>
      </trkpt>
      <trkpt lat="46.62976" lon="6.07806">
        <ele>1149.5</ele>
        <time>2020-07-14T12:24:27Z</time>
      </trkpt>
      <trkpt lat="46.62971" lon="6.07805">
        <ele>1148.7</ele>
        <time>2020-07-14T12:24:35Z</time>
      </trkpt>
      <trkpt lat="46.62966" lon="6.07803">
        <ele>1148.6</ele>
        <time>2020-07-14T12:24:39Z</time>
      </trkpt>
      <trkpt lat="46.62961" lon="6.07802">
        <ele>1148.6</ele>
        <time>2020-07-14T12:24:41Z</time>
      </trkpt>
      <trkpt lat="46.62956" lon="6.07801">
        <ele>1148.5</ele>
        <time>2020-07-14T12:24:46Z</time>
      </trkpt>
      <trkpt lat="46.62951" lon="6.078">
        <ele>1147</ele>
        <time>2020-07-14T12:24:58Z</time>
      </trkpt>
      <trkpt lat="46.62945" lon="6.078">
        <ele>1146.9</ele>
        <time>2020-07-14T12:25:01Z</time>
      </trkpt>
      <trkpt lat="46.62941" lon="6.07799">
        <ele>1147.2</ele>
        <time>2020-07-14T12:25:06Z</time>
      </trkpt>
      <trkpt lat="46.62937" lon="6.07793">
        <ele>1147.9</ele>
        <time>2020-07-14T12:25:13Z</time>
      </trkpt>
      <trkpt lat="46.62935" lon="6.07786">
        <ele>1149.2</ele>
        <time>2020-07-14T12:25:23Z</time>
      </trkpt>
      <trkpt lat="46.62931" lon="6.07779">
        <ele>1149.3</ele>
        <time>2020-07-14T12:25:27Z</time>
      </trkpt>
      <trkpt lat="46.62927" lon="6.07774">
        <ele>1148.9</ele>
        <time>2020-07-14T12:25:31Z</time>
      </trkpt>
      <trkpt lat="46.62923" lon="6.07771">
        <ele>1148.5</ele>
        <time>2020-07-14T12:25:35Z</time>
      </trkpt>
      <trkpt lat="46.62919" lon="6.07769">
        <ele>1148.6</ele>
        <time>2020-07-14T12:25:55Z</time>
      </trkpt>
      <trkpt lat="46.62916" lon="6.07764">
        <ele>1146.6</ele>
        <time>2020-07-14T12:26:12Z</time>
      </trkpt>
      <trkpt lat="46.62911" lon="6.07763">
        <ele>1147.4</ele>
        <time>2020-07-14T12:26:24Z</time>
      </trkpt>
      <trkpt lat="46.62907" lon="6.07765">
        <ele>1148.6</ele>
        <time>2020-07-14T12:26:33Z</time>
      </trkpt>
      <trkpt lat="46.62902" lon="6.07769">
        <ele>1149.1</ele>
        <time>2020-07-14T12:26:43Z</time>
      </trkpt>
      <trkpt lat="46.62898" lon="6.07773">
        <ele>1150</ele>
        <time>2020-07-14T12:27:00Z</time>
      </trkpt>
      <trkpt lat="46.62897" lon="6.0778">
        <ele>1151.2</ele>
        <time>2020-07-14T12:27:07Z</time>
      </trkpt>
      <trkpt lat="46.62896" lon="6.07789">
        <ele>1153.7</ele>
        <time>2020-07-14T12:27:23Z</time>
      </trkpt>
      <trkpt lat="46.62895" lon="6.07796">
        <ele>1154.8</ele>
        <time>2020-07-14T12:27:27Z</time>
      </trkpt>
      <trkpt lat="46.62895" lon="6.07803">
        <ele>1156.3</ele>
        <time>2020-07-14T12:27:31Z</time>
      </trkpt>
      <trkpt lat="46.62893" lon="6.07809">
        <ele>1158.4</ele>
        <time>2020-07-14T12:27:36Z</time>
      </trkpt>
      <trkpt lat="46.62891" lon="6.07816">
        <ele>1163.5</ele>
        <time>2020-07-14T12:27:46Z</time>
      </trkpt>
      <trkpt lat="46.62889" lon="6.07811">
        <ele>1169.4</ele>
        <time>2020-07-14T12:29:32Z</time>
      </trkpt>
      <trkpt lat="46.62888" lon="6.07805">
        <ele>1171.4</ele>
        <time>2020-07-14T12:29:41Z</time>
      </trkpt>
      <trkpt lat="46.62887" lon="6.07798">
        <ele>1171.6</ele>
        <time>2020-07-14T12:29:52Z</time>
      </trkpt>
      <trkpt lat="46.62891" lon="6.07788">
        <ele>1171.3</ele>
        <time>2020-07-14T12:30:00Z</time>
      </trkpt>
      <trkpt lat="46.62905" lon="6.07764">
        <ele>1170.2</ele>
        <time>2020-07-14T12:30:24Z</time>
      </trkpt>
      <trkpt lat="46.62908" lon="6.07758">
        <ele>1170</ele>
        <time>2020-07-14T12:30:32Z</time>
      </trkpt>
      <trkpt lat="46.62911" lon="6.07753">
        <ele>1167.5</ele>
        <time>2020-07-14T12:30:45Z</time>
      </trkpt>
      <trkpt lat="46.62918" lon="6.07752">
        <ele>1165.7</ele>
        <time>2020-07-14T12:31:05Z</time>
      </trkpt>
      <trkpt lat="46.62922" lon="6.07754">
        <ele>1163</ele>
        <time>2020-07-14T12:31:15Z</time>
      </trkpt>
      <trkpt lat="46.62929" lon="6.07763">
        <ele>1158</ele>
        <time>2020-07-14T12:31:32Z</time>
      </trkpt>
      <trkpt lat="46.62933" lon="6.07767">
        <ele>1157.6</ele>
        <time>2020-07-14T12:31:38Z</time>
      </trkpt>
      <trkpt lat="46.62936" lon="6.07774">
        <ele>1157.3</ele>
        <time>2020-07-14T12:31:43Z</time>
      </trkpt>
      <trkpt lat="46.62939" lon="6.07778">
        <ele>1157.4</ele>
        <time>2020-07-14T12:31:48Z</time>
      </trkpt>
      <trkpt lat="46.62943" lon="6.07781">
        <ele>1157.9</ele>
        <time>2020-07-14T12:31:57Z</time>
      </trkpt>
      <trkpt lat="46.62947" lon="6.07785">
        <ele>1158.6</ele>
        <time>2020-07-14T12:32:06Z</time>
      </trkpt>
      <trkpt lat="46.62952" lon="6.07788">
        <ele>1158.5</ele>
        <time>2020-07-14T12:32:12Z</time>
      </trkpt>
      <trkpt lat="46.62957" lon="6.0779">
        <ele>1158.2</ele>
        <time>2020-07-14T12:32:16Z</time>
      </trkpt>
      <trkpt lat="46.62962" lon="6.07792">
        <ele>1157.1</ele>
        <time>2020-07-14T12:32:32Z</time>
      </trkpt>
      <trkpt lat="46.62966" lon="6.07798">
        <ele>1156.6</ele>
        <time>2020-07-14T12:32:50Z</time>
      </trkpt>
      <trkpt lat="46.6297" lon="6.07803">
        <ele>1156.4</ele>
        <time>2020-07-14T12:32:53Z</time>
      </trkpt>
      <trkpt lat="46.62965" lon="6.07807">
        <ele>1154.8</ele>
        <time>2020-07-14T12:33:03Z</time>
      </trkpt>
      <trkpt lat="46.6296" lon="6.07809">
        <ele>1153.8</ele>
        <time>2020-07-14T12:33:08Z</time>
      </trkpt>
      <trkpt lat="46.62955" lon="6.07809">
        <ele>1153.3</ele>
        <time>2020-07-14T12:33:13Z</time>
      </trkpt>
      <trkpt lat="46.62951" lon="6.07808">
        <ele>1153.6</ele>
        <time>2020-07-14T12:33:20Z</time>
      </trkpt>
      <trkpt lat="46.62946" lon="6.07805">
        <ele>1155.2</ele>
        <time>2020-07-14T12:33:26Z</time>
      </trkpt>
      <trkpt lat="46.62943" lon="6.078">
        <ele>1158.2</ele>
        <time>2020-07-14T12:33:35Z</time>
      </trkpt>
      <trkpt lat="46.6294" lon="6.07795">
        <ele>1161.6</ele>
        <time>2020-07-14T12:33:43Z</time>
      </trkpt>
      <trkpt lat="46.62939" lon="6.07786">
        <ele>1163.7</ele>
        <time>2020-07-14T12:33:48Z</time>
      </trkpt>
      <trkpt lat="46.62937" lon="6.07779">
        <ele>1164.3</ele>
        <time>2020-07-14T12:33:50Z</time>
      </trkpt>
      <trkpt lat="46.62934" lon="6.07772">
        <ele>1164.8</ele>
        <time>2020-07-14T12:33:53Z</time>
      </trkpt>
      <trkpt lat="46.6293" lon="6.07766">
        <ele>1164.9</ele>
        <time>2020-07-14T12:33:57Z</time>
      </trkpt>
      <trkpt lat="46.62927" lon="6.0776">
        <ele>1164.3</ele>
        <time>2020-07-14T12:34:02Z</time>
      </trkpt>
      <trkpt lat="46.62923" lon="6.07755">
        <ele>1162.9</ele>
        <time>2020-07-14T12:34:08Z</time>
      </trkpt>
      <trkpt lat="46.62919" lon="6.07752">
        <ele>1161.3</ele>
        <time>2020-07-14T12:34:14Z</time>
      </trkpt>
      <trkpt lat="46.62915" lon="6.07748">
        <ele>1159.9</ele>
        <time>2020-07-14T12:34:21Z</time>
      </trkpt>
      <trkpt lat="46.62916" lon="6.07741">
        <ele>1160.5</ele>
        <time>2020-07-14T12:34:35Z</time>
      </trkpt>
      <trkpt lat="46.62915" lon="6.07735">
        <ele>1160.8</ele>
        <time>2020-07-14T12:34:39Z</time>
      </trkpt>
      <trkpt lat="46.62917" lon="6.07728">
        <ele>1160.6</ele>
        <time>2020-07-14T12:34:46Z</time>
      </trkpt>
      <trkpt lat="46.6292" lon="6.07713">
        <ele>1157</ele>
        <time>2020-07-14T12:34:57Z</time>
      </trkpt>
      <trkpt lat="46.62923" lon="6.07698">
        <ele>1152</ele>
        <time>2020-07-14T12:35:20Z</time>
      </trkpt>
      <trkpt lat="46.62925" lon="6.07691">
        <ele>1150.6</ele>
        <time>2020-07-14T12:35:28Z</time>
      </trkpt>
      <trkpt lat="46.62932" lon="6.07678">
        <ele>1142.1</ele>
        <time>2020-07-14T12:37:32Z</time>
      </trkpt>
      <trkpt lat="46.62936" lon="6.07675">
        <ele>1138.5</ele>
        <time>2020-07-14T12:37:45Z</time>
      </trkpt>
      <trkpt lat="46.62934" lon="6.07656">
        <ele>1145.5</ele>
        <time>2020-07-14T12:38:52Z</time>
      </trkpt>
      <trkpt lat="46.62935" lon="6.07649">
        <ele>1144.1</ele>
        <time>2020-07-14T12:38:59Z</time>
      </trkpt>
      <trkpt lat="46.62935" lon="6.07642">
        <ele>1143.1</ele>
        <time>2020-07-14T12:39:04Z</time>
      </trkpt>
      <trkpt lat="46.62935" lon="6.07635">
        <ele>1142.5</ele>
        <time>2020-07-14T12:39:08Z</time>
      </trkpt>
      <trkpt lat="46.62939" lon="6.0763">
        <ele>1142.3</ele>
        <time>2020-07-14T12:39:15Z</time>
      </trkpt>
      <trkpt lat="46.62943" lon="6.07628">
        <ele>1142.7</ele>
        <time>2020-07-14T12:39:19Z</time>
      </trkpt>
      <trkpt lat="46.62948" lon="6.07626">
        <ele>1143.1</ele>
        <time>2020-07-14T12:39:24Z</time>
      </trkpt>
      <trkpt lat="46.6295" lon="6.07619">
        <ele>1144.4</ele>
        <time>2020-07-14T12:39:48Z</time>
      </trkpt>
      <trkpt lat="46.62951" lon="6.07613">
        <ele>1144.9</ele>
        <time>2020-07-14T12:39:54Z</time>
      </trkpt>
      <trkpt lat="46.6295" lon="6.07606">
        <ele>1145.1</ele>
        <time>2020-07-14T12:39:58Z</time>
      </trkpt>
      <trkpt lat="46.62953" lon="6.07599">
        <ele>1145.1</ele>
        <time>2020-07-14T12:40:05Z</time>
      </trkpt>
      <trkpt lat="46.62953" lon="6.07591">
        <ele>1144.9</ele>
        <time>2020-07-14T12:40:08Z</time>
      </trkpt>
      <trkpt lat="46.62953" lon="6.07582">
        <ele>1144.8</ele>
        <time>2020-07-14T12:40:12Z</time>
      </trkpt>
      <trkpt lat="46.62955" lon="6.07566">
        <ele>1145.1</ele>
        <time>2020-07-14T12:40:25Z</time>
      </trkpt>
      <trkpt lat="46.62958" lon="6.07554">
        <ele>1145</ele>
        <time>2020-07-14T12:40:48Z</time>
      </trkpt>
      <trkpt lat="46.62962" lon="6.07549">
        <ele>1144.5</ele>
        <time>2020-07-14T12:40:52Z</time>
      </trkpt>
      <trkpt lat="46.62964" lon="6.07542">
        <ele>1143.5</ele>
        <time>2020-07-14T12:41:02Z</time>
      </trkpt>
      <trkpt lat="46.62975" lon="6.07523">
        <ele>1143.1</ele>
        <time>2020-07-14T12:41:12Z</time>
      </trkpt>
      <trkpt lat="46.62975" lon="6.07515">
        <ele>1143</ele>
        <time>2020-07-14T12:41:18Z</time>
      </trkpt>
      <trkpt lat="46.62979" lon="6.07503">
        <ele>1141.6</ele>
        <time>2020-07-14T12:41:28Z</time>
      </trkpt>
      <trkpt lat="46.62983" lon="6.07497">
        <ele>1141.3</ele>
        <time>2020-07-14T12:41:31Z</time>
      </trkpt>
      <trkpt lat="46.62985" lon="6.07489">
        <ele>1140.7</ele>
        <time>2020-07-14T12:41:35Z</time>
      </trkpt>
      <trkpt lat="46.62986" lon="6.07482">
        <ele>1140.1</ele>
        <time>2020-07-14T12:41:40Z</time>
      </trkpt>
      <trkpt lat="46.6299" lon="6.07482">
        <ele>1139.8</ele>
        <time>2020-07-14T12:41:46Z</time>
      </trkpt>
      <trkpt lat="46.62995" lon="6.07481">
        <ele>1139.7</ele>
        <time>2020-07-14T12:41:58Z</time>
      </trkpt>
      <trkpt lat="46.62999" lon="6.07478">
        <ele>1139.7</ele>
        <time>2020-07-14T12:42:02Z</time>
      </trkpt>
      <trkpt lat="46.63004" lon="6.07476">
        <ele>1139.3</ele>
        <time>2020-07-14T12:42:08Z</time>
      </trkpt>
      <trkpt lat="46.63009" lon="6.07475">
        <ele>1138.1</ele>
        <time>2020-07-14T12:42:13Z</time>
      </trkpt>
      <trkpt lat="46.63015" lon="6.07473">
        <ele>1137.5</ele>
        <time>2020-07-14T12:42:15Z</time>
      </trkpt>
      <trkpt lat="46.6302" lon="6.0747">
        <ele>1136.9</ele>
        <time>2020-07-14T12:42:17Z</time>
      </trkpt>
      <trkpt lat="46.63024" lon="6.07464">
        <ele>1135.9</ele>
        <time>2020-07-14T12:42:20Z</time>
      </trkpt>
      <trkpt lat="46.63027" lon="6.07458">
        <ele>1134.8</ele>
        <time>2020-07-14T12:42:23Z</time>
      </trkpt>
      <trkpt lat="46.63029" lon="6.07449">
        <ele>1133.6</ele>
        <time>2020-07-14T12:42:28Z</time>
      </trkpt>
      <trkpt lat="46.63032" lon="6.07443">
        <ele>1132.8</ele>
        <time>2020-07-14T12:42:33Z</time>
      </trkpt>
      <trkpt lat="46.63035" lon="6.07439">
        <ele>1133</ele>
        <time>2020-07-14T12:42:41Z</time>
      </trkpt>
      <trkpt lat="46.63037" lon="6.07431">
        <ele>1133.3</ele>
        <time>2020-07-14T12:42:45Z</time>
      </trkpt>
      <trkpt lat="46.63039" lon="6.07425">
        <ele>1132.9</ele>
        <time>2020-07-14T12:42:56Z</time>
      </trkpt>
      <trkpt lat="46.63043" lon="6.07421">
        <ele>1132.1</ele>
        <time>2020-07-14T12:43:03Z</time>
      </trkpt>
      <trkpt lat="46.63047" lon="6.07417">
        <ele>1131.3</ele>
        <time>2020-07-14T12:43:09Z</time>
      </trkpt>
      <trkpt lat="46.63052" lon="6.07412">
        <ele>1130.7</ele>
        <time>2020-07-14T12:43:21Z</time>
      </trkpt>
      <trkpt lat="46.63056" lon="6.0741">
        <ele>1130.5</ele>
        <time>2020-07-14T12:43:24Z</time>
      </trkpt>
      <trkpt lat="46.63061" lon="6.07407">
        <ele>1130.2</ele>
        <time>2020-07-14T12:43:29Z</time>
      </trkpt>
      <trkpt lat="46.63065" lon="6.07405">
        <ele>1130</ele>
        <time>2020-07-14T12:43:32Z</time>
      </trkpt>
      <trkpt lat="46.6307" lon="6.074">
        <ele>1129.7</ele>
        <time>2020-07-14T12:43:37Z</time>
      </trkpt>
      <trkpt lat="46.63074" lon="6.07396">
        <ele>1128.8</ele>
        <time>2020-07-14T12:43:43Z</time>
      </trkpt>
      <trkpt lat="46.63079" lon="6.07394">
        <ele>1127.6</ele>
        <time>2020-07-14T12:43:51Z</time>
      </trkpt>
      <trkpt lat="46.63084" lon="6.07391">
        <ele>1123.8</ele>
        <time>2020-07-14T12:44:07Z</time>
      </trkpt>
      <trkpt lat="46.63089" lon="6.0739">
        <ele>1122.6</ele>
        <time>2020-07-14T12:44:11Z</time>
      </trkpt>
      <trkpt lat="46.63094" lon="6.07386">
        <ele>1121.2</ele>
        <time>2020-07-14T12:44:17Z</time>
      </trkpt>
      <trkpt lat="46.631" lon="6.07384">
        <ele>1119</ele>
        <time>2020-07-14T12:44:26Z</time>
      </trkpt>
      <trkpt lat="46.63105" lon="6.07383">
        <ele>1117</ele>
        <time>2020-07-14T12:44:35Z</time>
      </trkpt>
      <trkpt lat="46.6311" lon="6.0738">
        <ele>1115.8</ele>
        <time>2020-07-14T12:44:41Z</time>
      </trkpt>
      <trkpt lat="46.63114" lon="6.07379">
        <ele>1113.7</ele>
        <time>2020-07-14T12:44:54Z</time>
      </trkpt>
      <trkpt lat="46.63125" lon="6.0736">
        <ele>1110</ele>
        <time>2020-07-14T12:45:13Z</time>
      </trkpt>
      <trkpt lat="46.63128" lon="6.07355">
        <ele>1109.7</ele>
        <time>2020-07-14T12:45:16Z</time>
      </trkpt>
      <trkpt lat="46.63132" lon="6.0735">
        <ele>1109.3</ele>
        <time>2020-07-14T12:45:20Z</time>
      </trkpt>
      <trkpt lat="46.63136" lon="6.07347">
        <ele>1109.2</ele>
        <time>2020-07-14T12:45:23Z</time>
      </trkpt>
      <trkpt lat="46.6314" lon="6.07342">
        <ele>1109.4</ele>
        <time>2020-07-14T12:45:25Z</time>
      </trkpt>
      <trkpt lat="46.63143" lon="6.07337">
        <ele>1109.8</ele>
        <time>2020-07-14T12:45:27Z</time>
      </trkpt>
      <trkpt lat="46.63147" lon="6.07332">
        <ele>1111.2</ele>
        <time>2020-07-14T12:45:33Z</time>
      </trkpt>
      <trkpt lat="46.6315" lon="6.07327">
        <ele>1113.2</ele>
        <time>2020-07-14T12:45:39Z</time>
      </trkpt>
      <trkpt lat="46.63154" lon="6.0732">
        <ele>1114.5</ele>
        <time>2020-07-14T12:45:45Z</time>
      </trkpt>
      <trkpt lat="46.63157" lon="6.07313">
        <ele>1115.2</ele>
        <time>2020-07-14T12:45:51Z</time>
      </trkpt>
      <trkpt lat="46.6316" lon="6.07308">
        <ele>1115.1</ele>
        <time>2020-07-14T12:45:54Z</time>
      </trkpt>
      <trkpt lat="46.63166" lon="6.07305">
        <ele>1114.3</ele>
        <time>2020-07-14T12:45:59Z</time>
      </trkpt>
      <trkpt lat="46.6317" lon="6.073">
        <ele>1113</ele>
        <time>2020-07-14T12:46:03Z</time>
      </trkpt>
      <trkpt lat="46.63173" lon="6.07293">
        <ele>1111.9</ele>
        <time>2020-07-14T12:46:06Z</time>
      </trkpt>
      <trkpt lat="46.63185" lon="6.07293">
        <ele>1108</ele>
        <time>2020-07-14T12:46:25Z</time>
      </trkpt>
      <trkpt lat="46.63188" lon="6.07298">
        <ele>1107.8</ele>
        <time>2020-07-14T12:46:27Z</time>
      </trkpt>
      <trkpt lat="46.63191" lon="6.07302">
        <ele>1107.3</ele>
        <time>2020-07-14T12:46:31Z</time>
      </trkpt>
      <trkpt lat="46.63196" lon="6.07306">
        <ele>1106.4</ele>
        <time>2020-07-14T12:46:37Z</time>
      </trkpt>
      <trkpt lat="46.632" lon="6.07308">
        <ele>1105</ele>
        <time>2020-07-14T12:46:48Z</time>
      </trkpt>
      <trkpt lat="46.63204" lon="6.0731">
        <ele>1104.7</ele>
        <time>2020-07-14T12:46:55Z</time>
      </trkpt>
      <trkpt lat="46.63209" lon="6.07311">
        <ele>1103.7</ele>
        <time>2020-07-14T12:47:08Z</time>
      </trkpt>
      <trkpt lat="46.63214" lon="6.07315">
        <ele>1102.9</ele>
        <time>2020-07-14T12:47:16Z</time>
      </trkpt>
      <trkpt lat="46.63218" lon="6.07318">
        <ele>1102.5</ele>
        <time>2020-07-14T12:47:21Z</time>
      </trkpt>
      <trkpt lat="46.63221" lon="6.07323">
        <ele>1102.3</ele>
        <time>2020-07-14T12:47:27Z</time>
      </trkpt>
      <trkpt lat="46.63225" lon="6.07327">
        <ele>1102</ele>
        <time>2020-07-14T12:47:31Z</time>
      </trkpt>
      <trkpt lat="46.6323" lon="6.0733">
        <ele>1101.6</ele>
        <time>2020-07-14T12:47:37Z</time>
      </trkpt>
      <trkpt lat="46.63235" lon="6.07334">
        <ele>1101.3</ele>
        <time>2020-07-14T12:47:42Z</time>
      </trkpt>
      <trkpt lat="46.63238" lon="6.07339">
        <ele>1100.8</ele>
        <time>2020-07-14T12:47:49Z</time>
      </trkpt>
      <trkpt lat="46.63242" lon="6.07345">
        <ele>1099.8</ele>
        <time>2020-07-14T12:47:59Z</time>
      </trkpt>
      <trkpt lat="46.63248" lon="6.07348">
        <ele>1099.3</ele>
        <time>2020-07-14T12:48:04Z</time>
      </trkpt>
      <trkpt lat="46.63252" lon="6.07351">
        <ele>1098.9</ele>
        <time>2020-07-14T12:48:07Z</time>
      </trkpt>
      <trkpt lat="46.63256" lon="6.07355">
        <ele>1097.9</ele>
        <time>2020-07-14T12:48:14Z</time>
      </trkpt>
      <trkpt lat="46.63262" lon="6.07358">
        <ele>1097.4</ele>
        <time>2020-07-14T12:48:18Z</time>
      </trkpt>
      <trkpt lat="46.63267" lon="6.07361">
        <ele>1096.9</ele>
        <time>2020-07-14T12:48:23Z</time>
      </trkpt>
      <trkpt lat="46.63272" lon="6.07363">
        <ele>1096.7</ele>
        <time>2020-07-14T12:48:26Z</time>
      </trkpt>
      <trkpt lat="46.63276" lon="6.07367">
        <ele>1096.3</ele>
        <time>2020-07-14T12:48:31Z</time>
      </trkpt>
      <trkpt lat="46.6328" lon="6.07368">
        <ele>1095.7</ele>
        <time>2020-07-14T12:48:36Z</time>
      </trkpt>
      <trkpt lat="46.63285" lon="6.0737">
        <ele>1095.4</ele>
        <time>2020-07-14T12:48:40Z</time>
      </trkpt>
      <trkpt lat="46.63289" lon="6.07371">
        <ele>1095.1</ele>
        <time>2020-07-14T12:48:45Z</time>
      </trkpt>
      <trkpt lat="46.63295" lon="6.07371">
        <ele>1094.4</ele>
        <time>2020-07-14T12:48:54Z</time>
      </trkpt>
      <trkpt lat="46.63299" lon="6.07369">
        <ele>1094.2</ele>
        <time>2020-07-14T12:48:58Z</time>
      </trkpt>
      <trkpt lat="46.63304" lon="6.07367">
        <ele>1094.2</ele>
        <time>2020-07-14T12:49:03Z</time>
      </trkpt>
      <trkpt lat="46.63308" lon="6.07364">
        <ele>1094.4</ele>
        <time>2020-07-14T12:49:07Z</time>
      </trkpt>
      <trkpt lat="46.63313" lon="6.0736">
        <ele>1094.6</ele>
        <time>2020-07-14T12:49:12Z</time>
      </trkpt>
      <trkpt lat="46.63318" lon="6.07356">
        <ele>1094.8</ele>
        <time>2020-07-14T12:49:15Z</time>
      </trkpt>
      <trkpt lat="46.63322" lon="6.07354">
        <ele>1095.1</ele>
        <time>2020-07-14T12:49:18Z</time>
      </trkpt>
      <trkpt lat="46.63328" lon="6.07351">
        <ele>1095.4</ele>
        <time>2020-07-14T12:49:22Z</time>
      </trkpt>
      <trkpt lat="46.63333" lon="6.07348">
        <ele>1095.6</ele>
        <time>2020-07-14T12:49:26Z</time>
      </trkpt>
      <trkpt lat="46.63337" lon="6.07343">
        <ele>1096</ele>
        <time>2020-07-14T12:49:30Z</time>
      </trkpt>
      <trkpt lat="46.63341" lon="6.07339">
        <ele>1096.6</ele>
        <time>2020-07-14T12:49:36Z</time>
      </trkpt>
      <trkpt lat="46.63345" lon="6.07337">
        <ele>1097.1</ele>
        <time>2020-07-14T12:49:46Z</time>
      </trkpt>
      <trkpt lat="46.6335" lon="6.07334">
        <ele>1097.2</ele>
        <time>2020-07-14T12:49:50Z</time>
      </trkpt>
      <trkpt lat="46.63354" lon="6.07331">
        <ele>1097.2</ele>
        <time>2020-07-14T12:49:54Z</time>
      </trkpt>
      <trkpt lat="46.63358" lon="6.07325">
        <ele>1097.2</ele>
        <time>2020-07-14T12:49:58Z</time>
      </trkpt>
      <trkpt lat="46.63362" lon="6.07319">
        <ele>1097.2</ele>
        <time>2020-07-14T12:50:03Z</time>
      </trkpt>
      <trkpt lat="46.63366" lon="6.07315">
        <ele>1097.1</ele>
        <time>2020-07-14T12:50:05Z</time>
      </trkpt>
      <trkpt lat="46.6337" lon="6.0731">
        <ele>1096.9</ele>
        <time>2020-07-14T12:50:09Z</time>
      </trkpt>
      <trkpt lat="46.63372" lon="6.07304">
        <ele>1095.4</ele>
        <time>2020-07-14T12:50:19Z</time>
      </trkpt>
      <trkpt lat="46.63375" lon="6.07299">
        <ele>1093.6</ele>
        <time>2020-07-14T12:50:26Z</time>
      </trkpt>
      <trkpt lat="46.63379" lon="6.07293">
        <ele>1092.1</ele>
        <time>2020-07-14T12:50:32Z</time>
      </trkpt>
      <trkpt lat="46.63382" lon="6.07287">
        <ele>1090.5</ele>
        <time>2020-07-14T12:50:39Z</time>
      </trkpt>
      <trkpt lat="46.63385" lon="6.07284">
        <ele>1088.8</ele>
        <time>2020-07-14T12:50:46Z</time>
      </trkpt>
      <trkpt lat="46.6339" lon="6.07282">
        <ele>1087.2</ele>
        <time>2020-07-14T12:50:53Z</time>
      </trkpt>
      <trkpt lat="46.63394" lon="6.07277">
        <ele>1085.4</ele>
        <time>2020-07-14T12:51:01Z</time>
      </trkpt>
      <trkpt lat="46.63398" lon="6.07274">
        <ele>1083.9</ele>
        <time>2020-07-14T12:51:09Z</time>
      </trkpt>
      <trkpt lat="46.63402" lon="6.0727">
        <ele>1082.3</ele>
        <time>2020-07-14T12:51:16Z</time>
      </trkpt>
      <trkpt lat="46.63406" lon="6.07265">
        <ele>1081.3</ele>
        <time>2020-07-14T12:51:20Z</time>
      </trkpt>
      <trkpt lat="46.6341" lon="6.07261">
        <ele>1079.4</ele>
        <time>2020-07-14T12:51:27Z</time>
      </trkpt>
      <trkpt lat="46.63414" lon="6.07259">
        <ele>1078.2</ele>
        <time>2020-07-14T12:51:32Z</time>
      </trkpt>
      <trkpt lat="46.63418" lon="6.07255">
        <ele>1076.9</ele>
        <time>2020-07-14T12:51:37Z</time>
      </trkpt>
      <trkpt lat="46.63423" lon="6.07251">
        <ele>1076.1</ele>
        <time>2020-07-14T12:51:40Z</time>
      </trkpt>
      <trkpt lat="46.63427" lon="6.07246">
        <ele>1075</ele>
        <time>2020-07-14T12:51:44Z</time>
      </trkpt>
      <trkpt lat="46.63429" lon="6.0724">
        <ele>1073.6</ele>
        <time>2020-07-14T12:51:50Z</time>
      </trkpt>
      <trkpt lat="46.63431" lon="6.07234">
        <ele>1072.4</ele>
        <time>2020-07-14T12:51:56Z</time>
      </trkpt>
      <trkpt lat="46.63432" lon="6.07227">
        <ele>1071</ele>
        <time>2020-07-14T12:52:02Z</time>
      </trkpt>
      <trkpt lat="46.6343" lon="6.0722">
        <ele>1069.2</ele>
        <time>2020-07-14T12:52:08Z</time>
      </trkpt>
      <trkpt lat="46.63429" lon="6.07207">
        <ele>1065.7</ele>
        <time>2020-07-14T12:52:22Z</time>
      </trkpt>
      <trkpt lat="46.63429" lon="6.07199">
        <ele>1065.5</ele>
        <time>2020-07-14T12:52:26Z</time>
      </trkpt>
      <trkpt lat="46.63428" lon="6.07192">
        <ele>1065.6</ele>
        <time>2020-07-14T12:52:32Z</time>
      </trkpt>
      <trkpt lat="46.63426" lon="6.07186">
        <ele>1065.6</ele>
        <time>2020-07-14T12:52:36Z</time>
      </trkpt>
      <trkpt lat="46.63427" lon="6.07179">
        <ele>1065.4</ele>
        <time>2020-07-14T12:52:40Z</time>
      </trkpt>
      <trkpt lat="46.63431" lon="6.07178">
        <ele>1064.1</ele>
        <time>2020-07-14T12:52:58Z</time>
      </trkpt>
      <trkpt lat="46.63429" lon="6.07179">
        <ele>1062.3</ele>
        <time>2020-07-14T12:53:23Z</time>
      </trkpt>
      <trkpt lat="46.63425" lon="6.07176">
        <ele>1061.7</ele>
        <time>2020-07-14T12:53:33Z</time>
      </trkpt>
      <trkpt lat="46.63425" lon="6.07168">
        <ele>1061.5</ele>
        <time>2020-07-14T12:53:39Z</time>
      </trkpt>
      <trkpt lat="46.6343" lon="6.07168">
        <ele>1060.6</ele>
        <time>2020-07-14T12:53:46Z</time>
      </trkpt>
      <trkpt lat="46.63434" lon="6.0717">
        <ele>1059.1</ele>
        <time>2020-07-14T12:53:56Z</time>
      </trkpt>
      <trkpt lat="46.63439" lon="6.0717">
        <ele>1058.4</ele>
        <time>2020-07-14T12:54:01Z</time>
      </trkpt>
      <trkpt lat="46.63444" lon="6.07169">
        <ele>1057.9</ele>
        <time>2020-07-14T12:54:06Z</time>
      </trkpt>
      <trkpt lat="46.63449" lon="6.07166">
        <ele>1057.8</ele>
        <time>2020-07-14T12:54:08Z</time>
      </trkpt>
      <trkpt lat="46.63453" lon="6.07164">
        <ele>1057.7</ele>
        <time>2020-07-14T12:54:12Z</time>
      </trkpt>
      <trkpt lat="46.63458" lon="6.07163">
        <ele>1057.1</ele>
        <time>2020-07-14T12:54:19Z</time>
      </trkpt>
      <trkpt lat="46.63462" lon="6.07163">
        <ele>1057.2</ele>
        <time>2020-07-14T12:54:27Z</time>
      </trkpt>
      <trkpt lat="46.63467" lon="6.07162">
        <ele>1057.5</ele>
        <time>2020-07-14T12:54:32Z</time>
      </trkpt>
      <trkpt lat="46.63472" lon="6.07161">
        <ele>1057.9</ele>
        <time>2020-07-14T12:54:37Z</time>
      </trkpt>
      <trkpt lat="46.63478" lon="6.07161">
        <ele>1058</ele>
        <time>2020-07-14T12:54:41Z</time>
      </trkpt>
      <trkpt lat="46.63482" lon="6.0716">
        <ele>1057.8</ele>
        <time>2020-07-14T12:54:46Z</time>
      </trkpt>
      <trkpt lat="46.63487" lon="6.0716">
        <ele>1057.7</ele>
        <time>2020-07-14T12:54:51Z</time>
      </trkpt>
      <trkpt lat="46.63492" lon="6.0716">
        <ele>1057.4</ele>
        <time>2020-07-14T12:54:56Z</time>
      </trkpt>
      <trkpt lat="46.63496" lon="6.0716">
        <ele>1057</ele>
        <time>2020-07-14T12:55:01Z</time>
      </trkpt>
      <trkpt lat="46.63501" lon="6.07163">
        <ele>1055.5</ele>
        <time>2020-07-14T12:55:14Z</time>
      </trkpt>
      <trkpt lat="46.63506" lon="6.07165">
        <ele>1053.6</ele>
        <time>2020-07-14T12:55:22Z</time>
      </trkpt>
      <trkpt lat="46.63511" lon="6.07167">
        <ele>1052.7</ele>
        <time>2020-07-14T12:55:30Z</time>
      </trkpt>
      <trkpt lat="46.63514" lon="6.07171">
        <ele>1052.1</ele>
        <time>2020-07-14T12:55:42Z</time>
      </trkpt>
      <trkpt lat="46.63519" lon="6.07168">
        <ele>1050.5</ele>
        <time>2020-07-14T12:55:54Z</time>
      </trkpt>
      <trkpt lat="46.63523" lon="6.07163">
        <ele>1049.6</ele>
        <time>2020-07-14T12:56:00Z</time>
      </trkpt>
      <trkpt lat="46.63527" lon="6.07162">
        <ele>1049.3</ele>
        <time>2020-07-14T12:56:07Z</time>
      </trkpt>
      <trkpt lat="46.63531" lon="6.07164">
        <ele>1049.6</ele>
        <time>2020-07-14T12:56:12Z</time>
      </trkpt>
      <trkpt lat="46.63537" lon="6.07166">
        <ele>1049.7</ele>
        <time>2020-07-14T12:56:16Z</time>
      </trkpt>
      <trkpt lat="46.63542" lon="6.07169">
        <ele>1049.7</ele>
        <time>2020-07-14T12:56:21Z</time>
      </trkpt>
      <trkpt lat="46.63546" lon="6.07173">
        <ele>1049.5</ele>
        <time>2020-07-14T12:56:26Z</time>
      </trkpt>
      <trkpt lat="46.63556" lon="6.0719">
        <ele>1048.6</ele>
        <time>2020-07-14T12:56:40Z</time>
      </trkpt>
      <trkpt lat="46.6356" lon="6.07197">
        <ele>1048.8</ele>
        <time>2020-07-14T12:56:45Z</time>
      </trkpt>
      <trkpt lat="46.63563" lon="6.07203">
        <ele>1049</ele>
        <time>2020-07-14T12:56:50Z</time>
      </trkpt>
      <trkpt lat="46.63568" lon="6.07207">
        <ele>1049.1</ele>
        <time>2020-07-14T12:56:56Z</time>
      </trkpt>
      <trkpt lat="46.63573" lon="6.0721">
        <ele>1049.2</ele>
        <time>2020-07-14T12:57:01Z</time>
      </trkpt>
      <trkpt lat="46.63576" lon="6.07215">
        <ele>1049.6</ele>
        <time>2020-07-14T12:57:07Z</time>
      </trkpt>
      <trkpt lat="46.63581" lon="6.07211">
        <ele>1049.7</ele>
        <time>2020-07-14T12:57:30Z</time>
      </trkpt>
      <trkpt lat="46.63585" lon="6.07209">
        <ele>1049.5</ele>
        <time>2020-07-14T12:57:33Z</time>
      </trkpt>
      <trkpt lat="46.63591" lon="6.07207">
        <ele>1049.1</ele>
        <time>2020-07-14T12:57:37Z</time>
      </trkpt>
      <trkpt lat="46.63597" lon="6.07208">
        <ele>1048.3</ele>
        <time>2020-07-14T12:57:41Z</time>
      </trkpt>
      <trkpt lat="46.63602" lon="6.07209">
        <ele>1047.7</ele>
        <time>2020-07-14T12:57:44Z</time>
      </trkpt>
      <trkpt lat="46.63607" lon="6.07209">
        <ele>1046.4</ele>
        <time>2020-07-14T12:57:49Z</time>
      </trkpt>
      <trkpt lat="46.63621" lon="6.07201">
        <ele>1042.6</ele>
        <time>2020-07-14T12:58:00Z</time>
      </trkpt>
      <trkpt lat="46.63625" lon="6.07197">
        <ele>1041.4</ele>
        <time>2020-07-14T12:58:05Z</time>
      </trkpt>
      <trkpt lat="46.63629" lon="6.07191">
        <ele>1039.5</ele>
        <time>2020-07-14T12:58:12Z</time>
      </trkpt>
      <trkpt lat="46.63632" lon="6.07186">
        <ele>1037.4</ele>
        <time>2020-07-14T12:58:19Z</time>
      </trkpt>
      <trkpt lat="46.63636" lon="6.07182">
        <ele>1034.8</ele>
        <time>2020-07-14T12:58:25Z</time>
      </trkpt>
      <trkpt lat="46.6364" lon="6.07177">
        <ele>1032.5</ele>
        <time>2020-07-14T12:58:30Z</time>
      </trkpt>
      <trkpt lat="46.63644" lon="6.07171">
        <ele>1030.9</ele>
        <time>2020-07-14T12:58:35Z</time>
      </trkpt>
      <trkpt lat="46.63647" lon="6.07159">
        <ele>1032.4</ele>
        <time>2020-07-14T12:59:22Z</time>
      </trkpt>
      <trkpt lat="46.6365" lon="6.07165">
        <ele>1035.6</ele>
        <time>2020-07-14T12:59:39Z</time>
      </trkpt>
      <trkpt lat="46.63654" lon="6.07168">
        <ele>1037.8</ele>
        <time>2020-07-14T12:59:52Z</time>
      </trkpt>
      <trkpt lat="46.6366" lon="6.07167">
        <ele>1039.7</ele>
        <time>2020-07-14T13:00:04Z</time>
      </trkpt>
      <trkpt lat="46.63664" lon="6.07166">
        <ele>1041.7</ele>
        <time>2020-07-14T13:00:13Z</time>
      </trkpt>
      <trkpt lat="46.63668" lon="6.07161">
        <ele>1043.8</ele>
        <time>2020-07-14T13:00:22Z</time>
      </trkpt>
      <trkpt lat="46.63672" lon="6.07156">
        <ele>1044.6</ele>
        <time>2020-07-14T13:00:28Z</time>
      </trkpt>
      <trkpt lat="46.63676" lon="6.07155">
        <ele>1045.6</ele>
        <time>2020-07-14T13:00:41Z</time>
      </trkpt>
      <trkpt lat="46.63681" lon="6.07155">
        <ele>1045</ele>
        <time>2020-07-14T13:00:49Z</time>
      </trkpt>
      <trkpt lat="46.63686" lon="6.07159">
        <ele>1044.2</ele>
        <time>2020-07-14T13:00:53Z</time>
      </trkpt>
      <trkpt lat="46.63691" lon="6.07165">
        <ele>1043.4</ele>
        <time>2020-07-14T13:00:58Z</time>
      </trkpt>
      <trkpt lat="46.63695" lon="6.07169">
        <ele>1043</ele>
        <time>2020-07-14T13:01:02Z</time>
      </trkpt>
      <trkpt lat="46.63697" lon="6.07175">
        <ele>1042.8</ele>
        <time>2020-07-14T13:01:05Z</time>
      </trkpt>
      <trkpt lat="46.637" lon="6.07181">
        <ele>1042.7</ele>
        <time>2020-07-14T13:01:08Z</time>
      </trkpt>
      <trkpt lat="46.63704" lon="6.07188">
        <ele>1042.7</ele>
        <time>2020-07-14T13:01:11Z</time>
      </trkpt>
      <trkpt lat="46.63708" lon="6.07192">
        <ele>1042.7</ele>
        <time>2020-07-14T13:01:14Z</time>
      </trkpt>
      <trkpt lat="46.63709" lon="6.07198">
        <ele>1042.8</ele>
        <time>2020-07-14T13:01:19Z</time>
      </trkpt>
      <trkpt lat="46.63711" lon="6.07206">
        <ele>1043.4</ele>
        <time>2020-07-14T13:01:25Z</time>
      </trkpt>
      <trkpt lat="46.6371" lon="6.07213">
        <ele>1044.9</ele>
        <time>2020-07-14T13:01:32Z</time>
      </trkpt>
      <trkpt lat="46.63708" lon="6.0722">
        <ele>1046.9</ele>
        <time>2020-07-14T13:01:38Z</time>
      </trkpt>
      <trkpt lat="46.63707" lon="6.07227">
        <ele>1049.1</ele>
        <time>2020-07-14T13:01:44Z</time>
      </trkpt>
      <trkpt lat="46.63705" lon="6.07236">
        <ele>1051</ele>
        <time>2020-07-14T13:01:49Z</time>
      </trkpt>
      <trkpt lat="46.63704" lon="6.07242">
        <ele>1053.1</ele>
        <time>2020-07-14T13:01:54Z</time>
      </trkpt>
      <trkpt lat="46.63703" lon="6.07249">
        <ele>1057.3</ele>
        <time>2020-07-14T13:02:04Z</time>
      </trkpt>
      <trkpt lat="46.63703" lon="6.07256">
        <ele>1060.8</ele>
        <time>2020-07-14T13:02:15Z</time>
      </trkpt>
      <trkpt lat="46.63698" lon="6.07269">
        <ele>1065.8</ele>
        <time>2020-07-14T13:02:36Z</time>
      </trkpt>
      <trkpt lat="46.63694" lon="6.07275">
        <ele>1066.6</ele>
        <time>2020-07-14T13:02:42Z</time>
      </trkpt>
      <trkpt lat="46.6369" lon="6.07278">
        <ele>1067.9</ele>
        <time>2020-07-14T13:02:48Z</time>
      </trkpt>
      <trkpt lat="46.63686" lon="6.07288">
        <ele>1070</ele>
        <time>2020-07-14T13:03:00Z</time>
      </trkpt>
      <trkpt lat="46.63683" lon="6.07293">
        <ele>1070.8</ele>
        <time>2020-07-14T13:03:07Z</time>
      </trkpt>
      <trkpt lat="46.63681" lon="6.07318">
        <ele>1072</ele>
        <time>2020-07-14T13:03:27Z</time>
      </trkpt>
      <trkpt lat="46.63681" lon="6.07325">
        <ele>1071.4</ele>
        <time>2020-07-14T13:03:31Z</time>
      </trkpt>
      <trkpt lat="46.63678" lon="6.07331">
        <ele>1071</ele>
        <time>2020-07-14T13:03:36Z</time>
      </trkpt>
      <trkpt lat="46.63674" lon="6.07335">
        <ele>1071</ele>
        <time>2020-07-14T13:03:43Z</time>
      </trkpt>
      <trkpt lat="46.63671" lon="6.07342">
        <ele>1071.4</ele>
        <time>2020-07-14T13:03:50Z</time>
      </trkpt>
      <trkpt lat="46.63668" lon="6.07347">
        <ele>1071.8</ele>
        <time>2020-07-14T13:03:54Z</time>
      </trkpt>
      <trkpt lat="46.63666" lon="6.07352">
        <ele>1072.7</ele>
        <time>2020-07-14T13:04:00Z</time>
      </trkpt>
      <trkpt lat="46.63663" lon="6.07358">
        <ele>1073.7</ele>
        <time>2020-07-14T13:04:07Z</time>
      </trkpt>
      <trkpt lat="46.6366" lon="6.07363">
        <ele>1075.1</ele>
        <time>2020-07-14T13:04:14Z</time>
      </trkpt>
      <trkpt lat="46.6366" lon="6.0737">
        <ele>1076.2</ele>
        <time>2020-07-14T13:04:21Z</time>
      </trkpt>
      <trkpt lat="46.6365" lon="6.07393">
        <ele>1079</ele>
        <time>2020-07-14T13:04:42Z</time>
      </trkpt>
      <trkpt lat="46.63647" lon="6.07424">
        <ele>1082.8</ele>
        <time>2020-07-14T13:05:10Z</time>
      </trkpt>
      <trkpt lat="46.63649" lon="6.07431">
        <ele>1082.6</ele>
        <time>2020-07-14T13:05:14Z</time>
      </trkpt>
      <trkpt lat="46.63651" lon="6.0744">
        <ele>1082.5</ele>
        <time>2020-07-14T13:05:18Z</time>
      </trkpt>
      <trkpt lat="46.63652" lon="6.07447">
        <ele>1082.4</ele>
        <time>2020-07-14T13:05:23Z</time>
      </trkpt>
      <trkpt lat="46.63654" lon="6.07454">
        <ele>1082.4</ele>
        <time>2020-07-14T13:05:30Z</time>
      </trkpt>
      <trkpt lat="46.63654" lon="6.07461">
        <ele>1082.4</ele>
        <time>2020-07-14T13:05:33Z</time>
      </trkpt>
      <trkpt lat="46.63653" lon="6.07469">
        <ele>1082.5</ele>
        <time>2020-07-14T13:05:36Z</time>
      </trkpt>
      <trkpt lat="46.63653" lon="6.07475">
        <ele>1082.6</ele>
        <time>2020-07-14T13:05:39Z</time>
      </trkpt>
      <trkpt lat="46.63657" lon="6.0748">
        <ele>1082.9</ele>
        <time>2020-07-14T13:05:46Z</time>
      </trkpt>
      <trkpt lat="46.63661" lon="6.07483">
        <ele>1082.4</ele>
        <time>2020-07-14T13:05:54Z</time>
      </trkpt>
      <trkpt lat="46.63665" lon="6.07487">
        <ele>1081.5</ele>
        <time>2020-07-14T13:06:01Z</time>
      </trkpt>
      <trkpt lat="46.63663" lon="6.07493">
        <ele>1080.9</ele>
        <time>2020-07-14T13:06:11Z</time>
      </trkpt>
      <trkpt lat="46.6366" lon="6.07498">
        <ele>1079.8</ele>
        <time>2020-07-14T13:06:23Z</time>
      </trkpt>
      <trkpt lat="46.63658" lon="6.07505">
        <ele>1078.8</ele>
        <time>2020-07-14T13:06:34Z</time>
      </trkpt>
      <trkpt lat="46.6366" lon="6.07511">
        <ele>1078.2</ele>
        <time>2020-07-14T13:06:40Z</time>
      </trkpt>
      <trkpt lat="46.63662" lon="6.07517">
        <ele>1077.3</ele>
        <time>2020-07-14T13:06:46Z</time>
      </trkpt>
      <trkpt lat="46.63664" lon="6.07522">
        <ele>1076.6</ele>
        <time>2020-07-14T13:06:51Z</time>
      </trkpt>
      <trkpt lat="46.63667" lon="6.07528">
        <ele>1075.4</ele>
        <time>2020-07-14T13:07:01Z</time>
      </trkpt>
      <trkpt lat="46.6367" lon="6.07534">
        <ele>1075.1</ele>
        <time>2020-07-14T13:07:06Z</time>
      </trkpt>
      <trkpt lat="46.63673" lon="6.0754">
        <ele>1075</ele>
        <time>2020-07-14T13:07:09Z</time>
      </trkpt>
      <trkpt lat="46.63676" lon="6.07546">
        <ele>1074.7</ele>
        <time>2020-07-14T13:07:13Z</time>
      </trkpt>
      <trkpt lat="46.63678" lon="6.07552">
        <ele>1074.4</ele>
        <time>2020-07-14T13:07:17Z</time>
      </trkpt>
      <trkpt lat="46.63681" lon="6.07558">
        <ele>1074</ele>
        <time>2020-07-14T13:07:21Z</time>
      </trkpt>
      <trkpt lat="46.63683" lon="6.07564">
        <ele>1073.5</ele>
        <time>2020-07-14T13:07:26Z</time>
      </trkpt>
      <trkpt lat="46.63685" lon="6.07571">
        <ele>1072.6</ele>
        <time>2020-07-14T13:07:32Z</time>
      </trkpt>
      <trkpt lat="46.63687" lon="6.07577">
        <ele>1071.5</ele>
        <time>2020-07-14T13:07:40Z</time>
      </trkpt>
      <trkpt lat="46.63691" lon="6.07582">
        <ele>1068.1</ele>
        <time>2020-07-14T13:07:56Z</time>
      </trkpt>
      <trkpt lat="46.63695" lon="6.07584">
        <ele>1063.2</ele>
        <time>2020-07-14T13:08:16Z</time>
      </trkpt>
      <trkpt lat="46.637" lon="6.07586">
        <ele>1060.8</ele>
        <time>2020-07-14T13:08:23Z</time>
      </trkpt>
      <trkpt lat="46.63704" lon="6.07588">
        <ele>1057</ele>
        <time>2020-07-14T13:08:33Z</time>
      </trkpt>
      <trkpt lat="46.63709" lon="6.07589">
        <ele>1054.4</ele>
        <time>2020-07-14T13:08:40Z</time>
      </trkpt>
      <trkpt lat="46.63713" lon="6.07592">
        <ele>1052.1</ele>
        <time>2020-07-14T13:08:46Z</time>
      </trkpt>
      <trkpt lat="46.63717" lon="6.07597">
        <ele>1050.2</ele>
        <time>2020-07-14T13:08:51Z</time>
      </trkpt>
      <trkpt lat="46.63721" lon="6.07599">
        <ele>1048.4</ele>
        <time>2020-07-14T13:08:56Z</time>
      </trkpt>
      <trkpt lat="46.63726" lon="6.07602">
        <ele>1046</ele>
        <time>2020-07-14T13:09:08Z</time>
      </trkpt>
      <trkpt lat="46.6373" lon="6.07606">
        <ele>1045.7</ele>
        <time>2020-07-14T13:09:13Z</time>
      </trkpt>
      <trkpt lat="46.63742" lon="6.07618">
        <ele>1045.9</ele>
        <time>2020-07-14T13:09:32Z</time>
      </trkpt>
      <trkpt lat="46.63745" lon="6.07622">
        <ele>1047</ele>
        <time>2020-07-14T13:09:40Z</time>
      </trkpt>
      <trkpt lat="46.63747" lon="6.07628">
        <ele>1048.3</ele>
        <time>2020-07-14T13:09:47Z</time>
      </trkpt>
      <trkpt lat="46.6375" lon="6.07635">
        <ele>1049.6</ele>
        <time>2020-07-14T13:09:54Z</time>
      </trkpt>
      <trkpt lat="46.63753" lon="6.07641">
        <ele>1050.3</ele>
        <time>2020-07-14T13:09:58Z</time>
      </trkpt>
      <trkpt lat="46.63757" lon="6.07645">
        <ele>1050.8</ele>
        <time>2020-07-14T13:10:03Z</time>
      </trkpt>
      <trkpt lat="46.6376" lon="6.0765">
        <ele>1051</ele>
        <time>2020-07-14T13:10:08Z</time>
      </trkpt>
      <trkpt lat="46.63765" lon="6.07654">
        <ele>1051</ele>
        <time>2020-07-14T13:10:12Z</time>
      </trkpt>
      <trkpt lat="46.6377" lon="6.07656">
        <ele>1050.4</ele>
        <time>2020-07-14T13:10:22Z</time>
      </trkpt>
      <trkpt lat="46.63773" lon="6.07661">
        <ele>1048.3</ele>
        <time>2020-07-14T13:10:32Z</time>
      </trkpt>
      <trkpt lat="46.63778" lon="6.07661">
        <ele>1046.2</ele>
        <time>2020-07-14T13:10:39Z</time>
      </trkpt>
      <trkpt lat="46.63784" lon="6.07662">
        <ele>1044.7</ele>
        <time>2020-07-14T13:10:44Z</time>
      </trkpt>
      <trkpt lat="46.63788" lon="6.07665">
        <ele>1042.7</ele>
        <time>2020-07-14T13:10:50Z</time>
      </trkpt>
      <trkpt lat="46.63793" lon="6.07662">
        <ele>1039.9</ele>
        <time>2020-07-14T13:11:01Z</time>
      </trkpt>
      <trkpt lat="46.63798" lon="6.07661">
        <ele>1039.7</ele>
        <time>2020-07-14T13:11:05Z</time>
      </trkpt>
      <trkpt lat="46.63803" lon="6.07659">
        <ele>1039.6</ele>
        <time>2020-07-14T13:11:10Z</time>
      </trkpt>
      <trkpt lat="46.63806" lon="6.07654">
        <ele>1039.1</ele>
        <time>2020-07-14T13:11:17Z</time>
      </trkpt>
      <trkpt lat="46.6381" lon="6.07649">
        <ele>1038.4</ele>
        <time>2020-07-14T13:11:22Z</time>
      </trkpt>
      <trkpt lat="46.63814" lon="6.07645">
        <ele>1037.7</ele>
        <time>2020-07-14T13:11:27Z</time>
      </trkpt>
      <trkpt lat="46.63817" lon="6.0764">
        <ele>1037</ele>
        <time>2020-07-14T13:11:35Z</time>
      </trkpt>
      <trkpt lat="46.63822" lon="6.07644">
        <ele>1035.8</ele>
        <time>2020-07-14T13:11:48Z</time>
      </trkpt>
      <trkpt lat="46.63826" lon="6.07647">
        <ele>1035</ele>
        <time>2020-07-14T13:11:54Z</time>
      </trkpt>
      <trkpt lat="46.63831" lon="6.0765">
        <ele>1034.3</ele>
        <time>2020-07-14T13:11:58Z</time>
      </trkpt>
      <trkpt lat="46.63835" lon="6.07654">
        <ele>1033.4</ele>
        <time>2020-07-14T13:12:02Z</time>
      </trkpt>
      <trkpt lat="46.63838" lon="6.07659">
        <ele>1032.2</ele>
        <time>2020-07-14T13:12:07Z</time>
      </trkpt>
      <trkpt lat="46.63851" lon="6.07678">
        <ele>1027.3</ele>
        <time>2020-07-14T13:12:25Z</time>
      </trkpt>
      <trkpt lat="46.63856" lon="6.07682">
        <ele>1026.9</ele>
        <time>2020-07-14T13:12:29Z</time>
      </trkpt>
      <trkpt lat="46.6386" lon="6.07686">
        <ele>1026.7</ele>
        <time>2020-07-14T13:12:34Z</time>
      </trkpt>
      <trkpt lat="46.63864" lon="6.0769">
        <ele>1026.4</ele>
        <time>2020-07-14T13:12:40Z</time>
      </trkpt>
      <trkpt lat="46.63866" lon="6.07698">
        <ele>1026.4</ele>
        <time>2020-07-14T13:12:43Z</time>
      </trkpt>
      <trkpt lat="46.63867" lon="6.07705">
        <ele>1026.4</ele>
        <time>2020-07-14T13:12:46Z</time>
      </trkpt>
      <trkpt lat="46.6387" lon="6.07712">
        <ele>1026.7</ele>
        <time>2020-07-14T13:12:51Z</time>
      </trkpt>
      <trkpt lat="46.63872" lon="6.0772">
        <ele>1027</ele>
        <time>2020-07-14T13:12:54Z</time>
      </trkpt>
      <trkpt lat="46.63874" lon="6.07726">
        <ele>1027.8</ele>
        <time>2020-07-14T13:12:59Z</time>
      </trkpt>
      <trkpt lat="46.63876" lon="6.07732">
        <ele>1028.5</ele>
        <time>2020-07-14T13:13:02Z</time>
      </trkpt>
      <trkpt lat="46.63879" lon="6.07737">
        <ele>1029.7</ele>
        <time>2020-07-14T13:13:07Z</time>
      </trkpt>
      <trkpt lat="46.63882" lon="6.07743">
        <ele>1032</ele>
        <time>2020-07-14T13:13:16Z</time>
      </trkpt>
      <trkpt lat="46.63886" lon="6.07748">
        <ele>1033.2</ele>
        <time>2020-07-14T13:13:22Z</time>
      </trkpt>
      <trkpt lat="46.63888" lon="6.07755">
        <ele>1034.1</ele>
        <time>2020-07-14T13:13:31Z</time>
      </trkpt>
      <trkpt lat="46.63889" lon="6.07762">
        <ele>1034.6</ele>
        <time>2020-07-14T13:13:35Z</time>
      </trkpt>
      <trkpt lat="46.63892" lon="6.0777">
        <ele>1035</ele>
        <time>2020-07-14T13:13:38Z</time>
      </trkpt>
      <trkpt lat="46.63895" lon="6.07776">
        <ele>1035.4</ele>
        <time>2020-07-14T13:13:41Z</time>
      </trkpt>
      <trkpt lat="46.63898" lon="6.07782">
        <ele>1036.2</ele>
        <time>2020-07-14T13:13:46Z</time>
      </trkpt>
      <trkpt lat="46.639" lon="6.07788">
        <ele>1037.5</ele>
        <time>2020-07-14T13:13:57Z</time>
      </trkpt>
      <trkpt lat="46.63903" lon="6.07794">
        <ele>1038.7</ele>
        <time>2020-07-14T13:14:07Z</time>
      </trkpt>
      <trkpt lat="46.63905" lon="6.07803">
        <ele>1039</ele>
        <time>2020-07-14T13:14:11Z</time>
      </trkpt>
      <trkpt lat="46.63904" lon="6.07811">
        <ele>1039</ele>
        <time>2020-07-14T13:14:13Z</time>
      </trkpt>
      <trkpt lat="46.63912" lon="6.07837">
        <ele>1038</ele>
        <time>2020-07-14T13:14:37Z</time>
      </trkpt>
      <trkpt lat="46.63916" lon="6.07844">
        <ele>1037.9</ele>
        <time>2020-07-14T13:14:41Z</time>
      </trkpt>
      <trkpt lat="46.63919" lon="6.07852">
        <ele>1038.1</ele>
        <time>2020-07-14T13:14:46Z</time>
      </trkpt>
      <trkpt lat="46.63926" lon="6.07873">
        <ele>1048.5</ele>
        <time>2020-07-14T13:16:31Z</time>
      </trkpt>
      <trkpt lat="46.63929" lon="6.0788">
        <ele>1049.5</ele>
        <time>2020-07-14T13:16:34Z</time>
      </trkpt>
      <trkpt lat="46.63931" lon="6.07891">
        <ele>1052.1</ele>
        <time>2020-07-14T13:16:47Z</time>
      </trkpt>
      <trkpt lat="46.63929" lon="6.07911">
        <ele>1051.2</ele>
        <time>2020-07-14T13:16:57Z</time>
      </trkpt>
      <trkpt lat="46.63927" lon="6.07918">
        <ele>1051</ele>
        <time>2020-07-14T13:17:01Z</time>
      </trkpt>
      <trkpt lat="46.63929" lon="6.07924">
        <ele>1050.6</ele>
        <time>2020-07-14T13:17:08Z</time>
      </trkpt>
      <trkpt lat="46.63932" lon="6.0793">
        <ele>1050.7</ele>
        <time>2020-07-14T13:17:12Z</time>
      </trkpt>
      <trkpt lat="46.63935" lon="6.07937">
        <ele>1051.2</ele>
        <time>2020-07-14T13:17:19Z</time>
      </trkpt>
      <trkpt lat="46.63938" lon="6.07943">
        <ele>1051.9</ele>
        <time>2020-07-14T13:17:24Z</time>
      </trkpt>
      <trkpt lat="46.63942" lon="6.07948">
        <ele>1052.5</ele>
        <time>2020-07-14T13:17:27Z</time>
      </trkpt>
      <trkpt lat="46.63945" lon="6.07953">
        <ele>1053.4</ele>
        <time>2020-07-14T13:17:32Z</time>
      </trkpt>
      <trkpt lat="46.63946" lon="6.0796">
        <ele>1054.5</ele>
        <time>2020-07-14T13:17:39Z</time>
      </trkpt>
      <trkpt lat="46.63948" lon="6.07967">
        <ele>1055.3</ele>
        <time>2020-07-14T13:17:45Z</time>
      </trkpt>
      <trkpt lat="46.63948" lon="6.07975">
        <ele>1055.8</ele>
        <time>2020-07-14T13:17:48Z</time>
      </trkpt>
      <trkpt lat="46.63952" lon="6.07992">
        <ele>1058.9</ele>
        <time>2020-07-14T13:18:00Z</time>
      </trkpt>
      <trkpt lat="46.63953" lon="6.07999">
        <ele>1059</ele>
        <time>2020-07-14T13:18:04Z</time>
      </trkpt>
      <trkpt lat="46.63953" lon="6.08005">
        <ele>1059.1</ele>
        <time>2020-07-14T13:18:12Z</time>
      </trkpt>
      <trkpt lat="46.63954" lon="6.08013">
        <ele>1059.2</ele>
        <time>2020-07-14T13:18:20Z</time>
      </trkpt>
      <trkpt lat="46.63956" lon="6.0802">
        <ele>1059.5</ele>
        <time>2020-07-14T13:18:26Z</time>
      </trkpt>
      <trkpt lat="46.63959" lon="6.08026">
        <ele>1059.6</ele>
        <time>2020-07-14T13:18:33Z</time>
      </trkpt>
      <trkpt lat="46.63963" lon="6.08026">
        <ele>1058.1</ele>
        <time>2020-07-14T13:18:53Z</time>
      </trkpt>
      <trkpt lat="46.63967" lon="6.0802">
        <ele>1057.9</ele>
        <time>2020-07-14T13:18:58Z</time>
      </trkpt>
      <trkpt lat="46.6397" lon="6.08015">
        <ele>1058</ele>
        <time>2020-07-14T13:19:02Z</time>
      </trkpt>
      <trkpt lat="46.63974" lon="6.0801">
        <ele>1059.1</ele>
        <time>2020-07-14T13:19:10Z</time>
      </trkpt>
      <trkpt lat="46.63975" lon="6.08003">
        <ele>1059.7</ele>
        <time>2020-07-14T13:19:13Z</time>
      </trkpt>
      <trkpt lat="46.63976" lon="6.07995">
        <ele>1061</ele>
        <time>2020-07-14T13:19:21Z</time>
      </trkpt>
      <trkpt lat="46.63977" lon="6.07986">
        <ele>1061.4</ele>
        <time>2020-07-14T13:19:23Z</time>
      </trkpt>
      <trkpt lat="46.6398" lon="6.0798">
        <ele>1062.1</ele>
        <time>2020-07-14T13:19:28Z</time>
      </trkpt>
      <trkpt lat="46.63982" lon="6.07974">
        <ele>1062.5</ele>
        <time>2020-07-14T13:19:33Z</time>
      </trkpt>
      <trkpt lat="46.63984" lon="6.07968">
        <ele>1062.4</ele>
        <time>2020-07-14T13:19:36Z</time>
      </trkpt>
      <trkpt lat="46.63988" lon="6.07963">
        <ele>1061.9</ele>
        <time>2020-07-14T13:19:43Z</time>
      </trkpt>
      <trkpt lat="46.6399" lon="6.07957">
        <ele>1061.6</ele>
        <time>2020-07-14T13:19:48Z</time>
      </trkpt>
      <trkpt lat="46.63993" lon="6.07952">
        <ele>1061.5</ele>
        <time>2020-07-14T13:19:50Z</time>
      </trkpt>
      <trkpt lat="46.63995" lon="6.07945">
        <ele>1061.5</ele>
        <time>2020-07-14T13:19:53Z</time>
      </trkpt>
      <trkpt lat="46.63999" lon="6.07941">
        <ele>1061.3</ele>
        <time>2020-07-14T13:20:01Z</time>
      </trkpt>
      <trkpt lat="46.64003" lon="6.07937">
        <ele>1061</ele>
        <time>2020-07-14T13:20:06Z</time>
      </trkpt>
      <trkpt lat="46.64008" lon="6.07931">
        <ele>1060.9</ele>
        <time>2020-07-14T13:20:09Z</time>
      </trkpt>
      <trkpt lat="46.64012" lon="6.07929">
        <ele>1060.8</ele>
        <time>2020-07-14T13:20:11Z</time>
      </trkpt>
      <trkpt lat="46.64018" lon="6.07927">
        <ele>1060.3</ele>
        <time>2020-07-14T13:20:15Z</time>
      </trkpt>
      <trkpt lat="46.64023" lon="6.07926">
        <ele>1059.4</ele>
        <time>2020-07-14T13:20:20Z</time>
      </trkpt>
      <trkpt lat="46.64025" lon="6.07921">
        <ele>1057.3</ele>
        <time>2020-07-14T13:20:31Z</time>
      </trkpt>
      <trkpt lat="46.6403" lon="6.07915">
        <ele>1054.7</ele>
        <time>2020-07-14T13:21:00Z</time>
      </trkpt>
      <trkpt lat="46.64022" lon="6.07895">
        <ele>1054.5</ele>
        <time>2020-07-14T13:21:22Z</time>
      </trkpt>
      <trkpt lat="46.64022" lon="6.07888">
        <ele>1054.6</ele>
        <time>2020-07-14T13:21:25Z</time>
      </trkpt>
      <trkpt lat="46.6402" lon="6.07879">
        <ele>1054.5</ele>
        <time>2020-07-14T13:21:28Z</time>
      </trkpt>
      <trkpt lat="46.64018" lon="6.07871">
        <ele>1054.1</ele>
        <time>2020-07-14T13:21:32Z</time>
      </trkpt>
      <trkpt lat="46.64018" lon="6.07864">
        <ele>1053</ele>
        <time>2020-07-14T13:21:39Z</time>
      </trkpt>
      <trkpt lat="46.64019" lon="6.07856">
        <ele>1052.9</ele>
        <time>2020-07-14T13:21:44Z</time>
      </trkpt>
      <trkpt lat="46.64019" lon="6.0785">
        <ele>1053</ele>
        <time>2020-07-14T13:21:47Z</time>
      </trkpt>
      <trkpt lat="46.64019" lon="6.07842">
        <ele>1053.7</ele>
        <time>2020-07-14T13:21:53Z</time>
      </trkpt>
      <trkpt lat="46.6402" lon="6.07835">
        <ele>1054.5</ele>
        <time>2020-07-14T13:21:57Z</time>
      </trkpt>
      <trkpt lat="46.64022" lon="6.07829">
        <ele>1056.1</ele>
        <time>2020-07-14T13:22:04Z</time>
      </trkpt>
      <trkpt lat="46.6402" lon="6.07822">
        <ele>1057.3</ele>
        <time>2020-07-14T13:22:10Z</time>
      </trkpt>
      <trkpt lat="46.64019" lon="6.07815">
        <ele>1058.2</ele>
        <time>2020-07-14T13:22:17Z</time>
      </trkpt>
      <trkpt lat="46.64016" lon="6.0781">
        <ele>1058.4</ele>
        <time>2020-07-14T13:22:24Z</time>
      </trkpt>
      <trkpt lat="46.64014" lon="6.07804">
        <ele>1058.2</ele>
        <time>2020-07-14T13:22:31Z</time>
      </trkpt>
      <trkpt lat="46.64013" lon="6.07797">
        <ele>1057.6</ele>
        <time>2020-07-14T13:22:36Z</time>
      </trkpt>
      <trkpt lat="46.64012" lon="6.0779">
        <ele>1056.7</ele>
        <time>2020-07-14T13:22:44Z</time>
      </trkpt>
      <trkpt lat="46.64012" lon="6.07783">
        <ele>1056.4</ele>
        <time>2020-07-14T13:22:53Z</time>
      </trkpt>
      <trkpt lat="46.64008" lon="6.07769">
        <ele>1057.1</ele>
        <time>2020-07-14T13:23:11Z</time>
      </trkpt>
      <trkpt lat="46.64006" lon="6.07764">
        <ele>1057.4</ele>
        <time>2020-07-14T13:23:18Z</time>
      </trkpt>
      <trkpt lat="46.64005" lon="6.07757">
        <ele>1057.5</ele>
        <time>2020-07-14T13:23:25Z</time>
      </trkpt>
      <trkpt lat="46.64002" lon="6.07748">
        <ele>1057.4</ele>
        <time>2020-07-14T13:23:30Z</time>
      </trkpt>
      <trkpt lat="46.63998" lon="6.07741">
        <ele>1057.3</ele>
        <time>2020-07-14T13:23:33Z</time>
      </trkpt>
      <trkpt lat="46.63994" lon="6.07735">
        <ele>1057.2</ele>
        <time>2020-07-14T13:23:35Z</time>
      </trkpt>
      <trkpt lat="46.63991" lon="6.0773">
        <ele>1056.8</ele>
        <time>2020-07-14T13:23:40Z</time>
      </trkpt>
      <trkpt lat="46.63988" lon="6.07723">
        <ele>1056.9</ele>
        <time>2020-07-14T13:23:46Z</time>
      </trkpt>
      <trkpt lat="46.63987" lon="6.07716">
        <ele>1057.1</ele>
        <time>2020-07-14T13:23:48Z</time>
      </trkpt>
      <trkpt lat="46.63986" lon="6.07704">
        <ele>1057.3</ele>
        <time>2020-07-14T13:23:50Z</time>
      </trkpt>
      <trkpt lat="46.63986" lon="6.07698">
        <ele>1057.5</ele>
        <time>2020-07-14T13:23:52Z</time>
      </trkpt>
      <trkpt lat="46.63986" lon="6.07688">
        <ele>1057.8</ele>
        <time>2020-07-14T13:23:56Z</time>
      </trkpt>
      <trkpt lat="46.63983" lon="6.07678">
        <ele>1058</ele>
        <time>2020-07-14T13:23:58Z</time>
      </trkpt>
      <trkpt lat="46.6398" lon="6.07668">
        <ele>1058.1</ele>
        <time>2020-07-14T13:24:00Z</time>
      </trkpt>
      <trkpt lat="46.63978" lon="6.07661">
        <ele>1058.3</ele>
        <time>2020-07-14T13:24:03Z</time>
      </trkpt>
      <trkpt lat="46.63977" lon="6.07654">
        <ele>1058.5</ele>
        <time>2020-07-14T13:24:06Z</time>
      </trkpt>
      <trkpt lat="46.63977" lon="6.07646">
        <ele>1058.6</ele>
        <time>2020-07-14T13:24:12Z</time>
      </trkpt>
      <trkpt lat="46.63977" lon="6.07639">
        <ele>1058.2</ele>
        <time>2020-07-14T13:24:18Z</time>
      </trkpt>
      <trkpt lat="46.63979" lon="6.07632">
        <ele>1056.8</ele>
        <time>2020-07-14T13:24:27Z</time>
      </trkpt>
      <trkpt lat="46.63981" lon="6.07626">
        <ele>1056.5</ele>
        <time>2020-07-14T13:24:36Z</time>
      </trkpt>
      <trkpt lat="46.63984" lon="6.07621">
        <ele>1056.6</ele>
        <time>2020-07-14T13:24:40Z</time>
      </trkpt>
      <trkpt lat="46.63988" lon="6.07616">
        <ele>1056.4</ele>
        <time>2020-07-14T13:24:46Z</time>
      </trkpt>
      <trkpt lat="46.63989" lon="6.0761">
        <ele>1055.8</ele>
        <time>2020-07-14T13:24:50Z</time>
      </trkpt>
      <trkpt lat="46.63993" lon="6.07603">
        <ele>1054.2</ele>
        <time>2020-07-14T13:24:55Z</time>
      </trkpt>
      <trkpt lat="46.63995" lon="6.07597">
        <ele>1052.8</ele>
        <time>2020-07-14T13:24:59Z</time>
      </trkpt>
      <trkpt lat="46.63999" lon="6.07592">
        <ele>1049.6</ele>
        <time>2020-07-14T13:25:07Z</time>
      </trkpt>
      <trkpt lat="46.64002" lon="6.07588">
        <ele>1047.4</ele>
        <time>2020-07-14T13:25:13Z</time>
      </trkpt>
      <trkpt lat="46.64008" lon="6.07589">
        <ele>1043.8</ele>
        <time>2020-07-14T13:25:24Z</time>
      </trkpt>
      <trkpt lat="46.64012" lon="6.07592">
        <ele>1041.9</ele>
        <time>2020-07-14T13:25:30Z</time>
      </trkpt>
      <trkpt lat="46.64017" lon="6.07593">
        <ele>1040.7</ele>
        <time>2020-07-14T13:25:34Z</time>
      </trkpt>
      <trkpt lat="46.64022" lon="6.07597">
        <ele>1039.4</ele>
        <time>2020-07-14T13:25:38Z</time>
      </trkpt>
      <trkpt lat="46.64026" lon="6.07601">
        <ele>1037.6</ele>
        <time>2020-07-14T13:25:43Z</time>
      </trkpt>
      <trkpt lat="46.64031" lon="6.07603">
        <ele>1035.6</ele>
        <time>2020-07-14T13:25:48Z</time>
      </trkpt>
      <trkpt lat="46.64036" lon="6.07605">
        <ele>1033</ele>
        <time>2020-07-14T13:25:54Z</time>
      </trkpt>
      <trkpt lat="46.64041" lon="6.07608">
        <ele>1029.9</ele>
        <time>2020-07-14T13:26:01Z</time>
      </trkpt>
      <trkpt lat="46.64044" lon="6.07613">
        <ele>1028</ele>
        <time>2020-07-14T13:26:05Z</time>
      </trkpt>
      <trkpt lat="46.6406" lon="6.07638">
        <ele>1019.7</ele>
        <time>2020-07-14T13:26:21Z</time>
      </trkpt>
      <trkpt lat="46.64064" lon="6.07642">
        <ele>1019.1</ele>
        <time>2020-07-14T13:26:25Z</time>
      </trkpt>
      <trkpt lat="46.64069" lon="6.07648">
        <ele>1018.8</ele>
        <time>2020-07-14T13:26:28Z</time>
      </trkpt>
      <trkpt lat="46.64076" lon="6.07654">
        <ele>1018.6</ele>
        <time>2020-07-14T13:26:54Z</time>
      </trkpt>
      <trkpt lat="46.64082" lon="6.07654">
        <ele>1018.8</ele>
        <time>2020-07-14T13:26:56Z</time>
      </trkpt>
      <trkpt lat="46.64089" lon="6.07657">
        <ele>1019.3</ele>
        <time>2020-07-14T13:27:00Z</time>
      </trkpt>
      <trkpt lat="46.64093" lon="6.0766">
        <ele>1019.6</ele>
        <time>2020-07-14T13:27:02Z</time>
      </trkpt>
      <trkpt lat="46.64099" lon="6.07661">
        <ele>1020</ele>
        <time>2020-07-14T13:27:05Z</time>
      </trkpt>
      <trkpt lat="46.64104" lon="6.07663">
        <ele>1020.3</ele>
        <time>2020-07-14T13:27:07Z</time>
      </trkpt>
      <trkpt lat="46.64108" lon="6.07666">
        <ele>1020.8</ele>
        <time>2020-07-14T13:27:10Z</time>
      </trkpt>
      <trkpt lat="46.64113" lon="6.07669">
        <ele>1021.2</ele>
        <time>2020-07-14T13:27:13Z</time>
      </trkpt>
      <trkpt lat="46.64117" lon="6.07672">
        <ele>1021.7</ele>
        <time>2020-07-14T13:27:16Z</time>
      </trkpt>
      <trkpt lat="46.6412" lon="6.0768">
        <ele>1022.1</ele>
        <time>2020-07-14T13:27:20Z</time>
      </trkpt>
      <trkpt lat="46.64124" lon="6.07686">
        <ele>1022.1</ele>
        <time>2020-07-14T13:27:23Z</time>
      </trkpt>
      <trkpt lat="46.64129" lon="6.07689">
        <ele>1022.1</ele>
        <time>2020-07-14T13:27:27Z</time>
      </trkpt>
      <trkpt lat="46.64133" lon="6.07693">
        <ele>1022.1</ele>
        <time>2020-07-14T13:27:34Z</time>
      </trkpt>
      <trkpt lat="46.64136" lon="6.077">
        <ele>1022.3</ele>
        <time>2020-07-14T13:27:40Z</time>
      </trkpt>
      <trkpt lat="46.64139" lon="6.07704">
        <ele>1022.5</ele>
        <time>2020-07-14T13:27:47Z</time>
      </trkpt>
      <trkpt lat="46.64143" lon="6.07709">
        <ele>1022.7</ele>
        <time>2020-07-14T13:27:50Z</time>
      </trkpt>
      <trkpt lat="46.64145" lon="6.07715">
        <ele>1023.3</ele>
        <time>2020-07-14T13:27:59Z</time>
      </trkpt>
      <trkpt lat="46.64147" lon="6.07722">
        <ele>1023.5</ele>
        <time>2020-07-14T13:28:01Z</time>
      </trkpt>
      <trkpt lat="46.64148" lon="6.07729">
        <ele>1023.8</ele>
        <time>2020-07-14T13:28:04Z</time>
      </trkpt>
      <trkpt lat="46.6415" lon="6.07735">
        <ele>1024.4</ele>
        <time>2020-07-14T13:28:09Z</time>
      </trkpt>
      <trkpt lat="46.64153" lon="6.07741">
        <ele>1024.6</ele>
        <time>2020-07-14T13:28:14Z</time>
      </trkpt>
      <trkpt lat="46.64154" lon="6.07748">
        <ele>1023.6</ele>
        <time>2020-07-14T13:28:22Z</time>
      </trkpt>
      <trkpt lat="46.64156" lon="6.07755">
        <ele>1022.3</ele>
        <time>2020-07-14T13:28:28Z</time>
      </trkpt>
      <trkpt lat="46.64159" lon="6.07761">
        <ele>1020.9</ele>
        <time>2020-07-14T13:28:35Z</time>
      </trkpt>
      <trkpt lat="46.64163" lon="6.07765">
        <ele>1020</ele>
        <time>2020-07-14T13:28:40Z</time>
      </trkpt>
      <trkpt lat="46.64166" lon="6.07771">
        <ele>1019.4</ele>
        <time>2020-07-14T13:28:45Z</time>
      </trkpt>
      <trkpt lat="46.64169" lon="6.07776">
        <ele>1018.8</ele>
        <time>2020-07-14T13:28:51Z</time>
      </trkpt>
      <trkpt lat="46.64173" lon="6.0778">
        <ele>1017.4</ele>
        <time>2020-07-14T13:28:59Z</time>
      </trkpt>
      <trkpt lat="46.64177" lon="6.07786">
        <ele>1016.5</ele>
        <time>2020-07-14T13:29:03Z</time>
      </trkpt>
      <trkpt lat="46.64181" lon="6.07791">
        <ele>1015.7</ele>
        <time>2020-07-14T13:29:07Z</time>
      </trkpt>
      <trkpt lat="46.64185" lon="6.07797">
        <ele>1014.7</ele>
        <time>2020-07-14T13:29:12Z</time>
      </trkpt>
      <trkpt lat="46.64188" lon="6.07804">
        <ele>1013.8</ele>
        <time>2020-07-14T13:29:17Z</time>
      </trkpt>
      <trkpt lat="46.64191" lon="6.07809">
        <ele>1013</ele>
        <time>2020-07-14T13:29:21Z</time>
      </trkpt>
      <trkpt lat="46.64195" lon="6.07814">
        <ele>1011.4</ele>
        <time>2020-07-14T13:29:28Z</time>
      </trkpt>
      <trkpt lat="46.64197" lon="6.0782">
        <ele>1010.1</ele>
        <time>2020-07-14T13:29:35Z</time>
      </trkpt>
      <trkpt lat="46.64199" lon="6.07827">
        <ele>1008.4</ele>
        <time>2020-07-14T13:29:43Z</time>
      </trkpt>
      <trkpt lat="46.64201" lon="6.07834">
        <ele>1006.4</ele>
        <time>2020-07-14T13:29:51Z</time>
      </trkpt>
      <trkpt lat="46.64204" lon="6.0784">
        <ele>1005.3</ele>
        <time>2020-07-14T13:29:55Z</time>
      </trkpt>
      <trkpt lat="46.64209" lon="6.07858">
        <ele>999.4</ele>
        <time>2020-07-14T13:30:19Z</time>
      </trkpt>
      <trkpt lat="46.64209" lon="6.07865">
        <ele>998.6</ele>
        <time>2020-07-14T13:30:23Z</time>
      </trkpt>
      <trkpt lat="46.6421" lon="6.07874">
        <ele>998.5</ele>
        <time>2020-07-14T13:30:25Z</time>
      </trkpt>
      <trkpt lat="46.64209" lon="6.07883">
        <ele>998.5</ele>
        <time>2020-07-14T13:30:27Z</time>
      </trkpt>
      <trkpt lat="46.64209" lon="6.07889">
        <ele>999.3</ele>
        <time>2020-07-14T13:30:34Z</time>
      </trkpt>
      <trkpt lat="46.64211" lon="6.07896">
        <ele>1001.2</ele>
        <time>2020-07-14T13:30:40Z</time>
      </trkpt>
      <trkpt lat="46.64214" lon="6.07928">
        <ele>1010.1</ele>
        <time>2020-07-14T13:30:58Z</time>
      </trkpt>
      <trkpt lat="46.64216" lon="6.07935">
        <ele>1011.4</ele>
        <time>2020-07-14T13:31:03Z</time>
      </trkpt>
      <trkpt lat="46.64218" lon="6.07944">
        <ele>1013.1</ele>
        <time>2020-07-14T13:31:10Z</time>
      </trkpt>
      <trkpt lat="46.64219" lon="6.07951">
        <ele>1014.2</ele>
        <time>2020-07-14T13:31:14Z</time>
      </trkpt>
      <trkpt lat="46.64221" lon="6.07958">
        <ele>1016.2</ele>
        <time>2020-07-14T13:31:21Z</time>
      </trkpt>
      <trkpt lat="46.64225" lon="6.07964">
        <ele>1017</ele>
        <time>2020-07-14T13:31:25Z</time>
      </trkpt>
      <trkpt lat="46.64228" lon="6.07969">
        <ele>1017.5</ele>
        <time>2020-07-14T13:31:28Z</time>
      </trkpt>
      <trkpt lat="46.6423" lon="6.07975">
        <ele>1018.2</ele>
        <time>2020-07-14T13:31:34Z</time>
      </trkpt>
      <trkpt lat="46.64234" lon="6.07979">
        <ele>1018.3</ele>
        <time>2020-07-14T13:31:42Z</time>
      </trkpt>
      <trkpt lat="46.64238" lon="6.07984">
        <ele>1018.1</ele>
        <time>2020-07-14T13:31:48Z</time>
      </trkpt>
      <trkpt lat="46.6424" lon="6.07991">
        <ele>1017.5</ele>
        <time>2020-07-14T13:31:55Z</time>
      </trkpt>
      <trkpt lat="46.64244" lon="6.07998">
        <ele>1017.2</ele>
        <time>2020-07-14T13:32:01Z</time>
      </trkpt>
      <trkpt lat="46.64247" lon="6.08003">
        <ele>1017.3</ele>
        <time>2020-07-14T13:32:07Z</time>
      </trkpt>
      <trkpt lat="46.6425" lon="6.0801">
        <ele>1017.4</ele>
        <time>2020-07-14T13:32:09Z</time>
      </trkpt>
      <trkpt lat="46.64253" lon="6.08017">
        <ele>1017.6</ele>
        <time>2020-07-14T13:32:12Z</time>
      </trkpt>
      <trkpt lat="46.64254" lon="6.08023">
        <ele>1018.9</ele>
        <time>2020-07-14T13:32:19Z</time>
      </trkpt>
      <trkpt lat="46.64257" lon="6.08028">
        <ele>1028.6</ele>
        <time>2020-07-14T13:33:14Z</time>
      </trkpt>
      <trkpt lat="46.6426" lon="6.08034">
        <ele>1029.3</ele>
        <time>2020-07-14T13:33:16Z</time>
      </trkpt>
      <trkpt lat="46.64264" lon="6.0804">
        <ele>1030.3</ele>
        <time>2020-07-14T13:33:19Z</time>
      </trkpt>
      <trkpt lat="46.64266" lon="6.08046">
        <ele>1032.4</ele>
        <time>2020-07-14T13:33:24Z</time>
      </trkpt>
      <trkpt lat="46.64268" lon="6.08053">
        <ele>1036.4</ele>
        <time>2020-07-14T13:33:35Z</time>
      </trkpt>
      <trkpt lat="46.64272" lon="6.08058">
        <ele>1038.2</ele>
        <time>2020-07-14T13:33:43Z</time>
      </trkpt>
      <trkpt lat="46.64274" lon="6.08064">
        <ele>1039.2</ele>
        <time>2020-07-14T13:33:52Z</time>
      </trkpt>
      <trkpt lat="46.64276" lon="6.0807">
        <ele>1039.3</ele>
        <time>2020-07-14T13:34:00Z</time>
      </trkpt>
      <trkpt lat="46.64279" lon="6.08075">
        <ele>1039.1</ele>
        <time>2020-07-14T13:34:08Z</time>
      </trkpt>
      <trkpt lat="46.64278" lon="6.08082">
        <ele>1038.9</ele>
        <time>2020-07-14T13:34:12Z</time>
      </trkpt>
      <trkpt lat="46.64279" lon="6.08089">
        <ele>1038.5</ele>
        <time>2020-07-14T13:34:17Z</time>
      </trkpt>
      <trkpt lat="46.64281" lon="6.08097">
        <ele>1038.2</ele>
        <time>2020-07-14T13:34:26Z</time>
      </trkpt>
      <trkpt lat="46.64284" lon="6.08102">
        <ele>1038.2</ele>
        <time>2020-07-14T13:34:36Z</time>
      </trkpt>
      <trkpt lat="46.64294" lon="6.08116">
        <ele>1047.1</ele>
        <time>2020-07-14T13:35:39Z</time>
      </trkpt>
      <trkpt lat="46.64297" lon="6.08121">
        <ele>1047.8</ele>
        <time>2020-07-14T13:35:42Z</time>
      </trkpt>
      <trkpt lat="46.64301" lon="6.08127">
        <ele>1048.5</ele>
        <time>2020-07-14T13:35:46Z</time>
      </trkpt>
      <trkpt lat="46.64305" lon="6.08132">
        <ele>1048.8</ele>
        <time>2020-07-14T13:35:48Z</time>
      </trkpt>
      <trkpt lat="46.64309" lon="6.08137">
        <ele>1049.1</ele>
        <time>2020-07-14T13:35:51Z</time>
      </trkpt>
      <trkpt lat="46.64313" lon="6.08141">
        <ele>1049.3</ele>
        <time>2020-07-14T13:35:57Z</time>
      </trkpt>
      <trkpt lat="46.64312" lon="6.0815">
        <ele>1050.1</ele>
        <time>2020-07-14T13:36:12Z</time>
      </trkpt>
      <trkpt lat="46.64313" lon="6.08157">
        <ele>1050.4</ele>
        <time>2020-07-14T13:36:14Z</time>
      </trkpt>
      <trkpt lat="46.64315" lon="6.08164">
        <ele>1051.5</ele>
        <time>2020-07-14T13:36:19Z</time>
      </trkpt>
      <trkpt lat="46.64315" lon="6.08171">
        <ele>1053.3</ele>
        <time>2020-07-14T13:36:26Z</time>
      </trkpt>
      <trkpt lat="46.64319" lon="6.08176">
        <ele>1054</ele>
        <time>2020-07-14T13:36:31Z</time>
      </trkpt>
      <trkpt lat="46.64323" lon="6.08179">
        <ele>1054.5</ele>
        <time>2020-07-14T13:36:40Z</time>
      </trkpt>
      <trkpt lat="46.64328" lon="6.08181">
        <ele>1054.1</ele>
        <time>2020-07-14T13:36:49Z</time>
      </trkpt>
      <trkpt lat="46.6433" lon="6.08187">
        <ele>1052.5</ele>
        <time>2020-07-14T13:37:08Z</time>
      </trkpt>
      <trkpt lat="46.64335" lon="6.08191">
        <ele>1055.1</ele>
        <time>2020-07-14T13:37:41Z</time>
      </trkpt>
      <trkpt lat="46.64341" lon="6.08197">
        <ele>1055.9</ele>
        <time>2020-07-14T13:37:44Z</time>
      </trkpt>
      <trkpt lat="46.64346" lon="6.08202">
        <ele>1056.6</ele>
        <time>2020-07-14T13:37:47Z</time>
      </trkpt>
      <trkpt lat="46.64349" lon="6.08209">
        <ele>1057</ele>
        <time>2020-07-14T13:37:49Z</time>
      </trkpt>
      <trkpt lat="46.64353" lon="6.08214">
        <ele>1057.4</ele>
        <time>2020-07-14T13:37:51Z</time>
      </trkpt>
      <trkpt lat="46.64358" lon="6.08219">
        <ele>1058</ele>
        <time>2020-07-14T13:37:54Z</time>
      </trkpt>
      <trkpt lat="46.64362" lon="6.08222">
        <ele>1058.8</ele>
        <time>2020-07-14T13:37:59Z</time>
      </trkpt>
      <trkpt lat="46.64366" lon="6.08225">
        <ele>1059.1</ele>
        <time>2020-07-14T13:38:07Z</time>
      </trkpt>
      <trkpt lat="46.64369" lon="6.0823">
        <ele>1058.8</ele>
        <time>2020-07-14T13:38:13Z</time>
      </trkpt>
      <trkpt lat="46.64373" lon="6.08234">
        <ele>1058.6</ele>
        <time>2020-07-14T13:38:18Z</time>
      </trkpt>
      <trkpt lat="46.64377" lon="6.08238">
        <ele>1058.4</ele>
        <time>2020-07-14T13:38:21Z</time>
      </trkpt>
      <trkpt lat="46.64384" lon="6.08246">
        <ele>1059.2</ele>
        <time>2020-07-14T13:38:34Z</time>
      </trkpt>
      <trkpt lat="46.64394" lon="6.08245">
        <ele>1061.8</ele>
        <time>2020-07-14T13:38:54Z</time>
      </trkpt>
      <trkpt lat="46.64398" lon="6.08241">
        <ele>1061.8</ele>
        <time>2020-07-14T13:39:01Z</time>
      </trkpt>
      <trkpt lat="46.64404" lon="6.08237">
        <ele>1058.5</ele>
        <time>2020-07-14T13:39:25Z</time>
      </trkpt>
      <trkpt lat="46.64408" lon="6.08234">
        <ele>1058</ele>
        <time>2020-07-14T13:39:29Z</time>
      </trkpt>
      <trkpt lat="46.64413" lon="6.08234">
        <ele>1057.7</ele>
        <time>2020-07-14T13:39:32Z</time>
      </trkpt>
      <trkpt lat="46.64417" lon="6.08236">
        <ele>1057.3</ele>
        <time>2020-07-14T13:39:39Z</time>
      </trkpt>
      <trkpt lat="46.64422" lon="6.08239">
        <ele>1056.2</ele>
        <time>2020-07-14T13:39:50Z</time>
      </trkpt>
      <trkpt lat="46.64426" lon="6.08243">
        <ele>1055.5</ele>
        <time>2020-07-14T13:39:59Z</time>
      </trkpt>
      <trkpt lat="46.6443" lon="6.08248">
        <ele>1054.9</ele>
        <time>2020-07-14T13:40:06Z</time>
      </trkpt>
      <trkpt lat="46.64434" lon="6.08251">
        <ele>1054.8</ele>
        <time>2020-07-14T13:40:09Z</time>
      </trkpt>
      <trkpt lat="46.64442" lon="6.08252">
        <ele>1055.9</ele>
        <time>2020-07-14T13:40:16Z</time>
      </trkpt>
      <trkpt lat="46.64448" lon="6.08254">
        <ele>1056.5</ele>
        <time>2020-07-14T13:40:23Z</time>
      </trkpt>
      <trkpt lat="46.64453" lon="6.08255">
        <ele>1057</ele>
        <time>2020-07-14T13:40:30Z</time>
      </trkpt>
      <trkpt lat="46.64459" lon="6.08255">
        <ele>1057</ele>
        <time>2020-07-14T13:40:34Z</time>
      </trkpt>
      <trkpt lat="46.64465" lon="6.08256">
        <ele>1057</ele>
        <time>2020-07-14T13:40:38Z</time>
      </trkpt>
      <trkpt lat="46.6447" lon="6.08257">
        <ele>1056.6</ele>
        <time>2020-07-14T13:40:44Z</time>
      </trkpt>
      <trkpt lat="46.64475" lon="6.08258">
        <ele>1054.9</ele>
        <time>2020-07-14T13:41:08Z</time>
      </trkpt>
      <trkpt lat="46.6448" lon="6.08259">
        <ele>1054</ele>
        <time>2020-07-14T13:41:15Z</time>
      </trkpt>
      <trkpt lat="46.64485" lon="6.0826">
        <ele>1052.2</ele>
        <time>2020-07-14T13:41:38Z</time>
      </trkpt>
      <trkpt lat="46.64489" lon="6.0826">
        <ele>1049.7</ele>
        <time>2020-07-14T13:41:51Z</time>
      </trkpt>
      <trkpt lat="46.64494" lon="6.08262">
        <ele>1048.6</ele>
        <time>2020-07-14T13:42:08Z</time>
      </trkpt>
      <trkpt lat="46.64499" lon="6.08265">
        <ele>1048.4</ele>
        <time>2020-07-14T13:42:12Z</time>
      </trkpt>
      <trkpt lat="46.64504" lon="6.08266">
        <ele>1047.9</ele>
        <time>2020-07-14T13:42:18Z</time>
      </trkpt>
      <trkpt lat="46.64509" lon="6.08267">
        <ele>1047.4</ele>
        <time>2020-07-14T13:42:23Z</time>
      </trkpt>
      <trkpt lat="46.64513" lon="6.08269">
        <ele>1046.5</ele>
        <time>2020-07-14T13:42:32Z</time>
      </trkpt>
      <trkpt lat="46.64518" lon="6.0827">
        <ele>1045.4</ele>
        <time>2020-07-14T13:42:40Z</time>
      </trkpt>
      <trkpt lat="46.64523" lon="6.0827">
        <ele>1045</ele>
        <time>2020-07-14T13:42:44Z</time>
      </trkpt>
      <trkpt lat="46.64528" lon="6.08271">
        <ele>1044.5</ele>
        <time>2020-07-14T13:42:48Z</time>
      </trkpt>
      <trkpt lat="46.64533" lon="6.08272">
        <ele>1043.6</ele>
        <time>2020-07-14T13:42:54Z</time>
      </trkpt>
      <trkpt lat="46.64538" lon="6.08273">
        <ele>1042.6</ele>
        <time>2020-07-14T13:43:01Z</time>
      </trkpt>
      <trkpt lat="46.64543" lon="6.08276">
        <ele>1041.5</ele>
        <time>2020-07-14T13:43:07Z</time>
      </trkpt>
      <trkpt lat="46.64547" lon="6.08281">
        <ele>1040.4</ele>
        <time>2020-07-14T13:43:13Z</time>
      </trkpt>
      <trkpt lat="46.64552" lon="6.08284">
        <ele>1039.6</ele>
        <time>2020-07-14T13:43:18Z</time>
      </trkpt>
      <trkpt lat="46.64556" lon="6.08287">
        <ele>1038.9</ele>
        <time>2020-07-14T13:43:25Z</time>
      </trkpt>
      <trkpt lat="46.6456" lon="6.08292">
        <ele>1038.4</ele>
        <time>2020-07-14T13:43:29Z</time>
      </trkpt>
      <trkpt lat="46.64564" lon="6.08297">
        <ele>1038</ele>
        <time>2020-07-14T13:43:33Z</time>
      </trkpt>
      <trkpt lat="46.64569" lon="6.08301">
        <ele>1037.4</ele>
        <time>2020-07-14T13:43:39Z</time>
      </trkpt>
      <trkpt lat="46.64573" lon="6.08303">
        <ele>1037</ele>
        <time>2020-07-14T13:43:45Z</time>
      </trkpt>
      <trkpt lat="46.64578" lon="6.08305">
        <ele>1036.6</ele>
        <time>2020-07-14T13:43:51Z</time>
      </trkpt>
      <trkpt lat="46.64583" lon="6.08307">
        <ele>1036.2</ele>
        <time>2020-07-14T13:43:57Z</time>
      </trkpt>
      <trkpt lat="46.64587" lon="6.08308">
        <ele>1035.6</ele>
        <time>2020-07-14T13:44:03Z</time>
      </trkpt>
      <trkpt lat="46.64595" lon="6.08309">
        <ele>1034.2</ele>
        <time>2020-07-14T13:44:13Z</time>
      </trkpt>
      <trkpt lat="46.64598" lon="6.08304">
        <ele>1032.5</ele>
        <time>2020-07-14T13:44:22Z</time>
      </trkpt>
      <trkpt lat="46.64596" lon="6.08298">
        <ele>1031.4</ele>
        <time>2020-07-14T13:44:29Z</time>
      </trkpt>
      <trkpt lat="46.64594" lon="6.08292">
        <ele>1030.3</ele>
        <time>2020-07-14T13:44:38Z</time>
      </trkpt>
      <trkpt lat="46.6459" lon="6.08286">
        <ele>1029</ele>
        <time>2020-07-14T13:45:02Z</time>
      </trkpt>
      <trkpt lat="46.64586" lon="6.08282">
        <ele>1029.1</ele>
        <time>2020-07-14T13:45:06Z</time>
      </trkpt>
      <trkpt lat="46.64582" lon="6.08277">
        <ele>1028.6</ele>
        <time>2020-07-14T13:45:12Z</time>
      </trkpt>
      <trkpt lat="46.64578" lon="6.08273">
        <ele>1027.3</ele>
        <time>2020-07-14T13:45:19Z</time>
      </trkpt>
      <trkpt lat="46.64574" lon="6.08268">
        <ele>1025.7</ele>
        <time>2020-07-14T13:45:26Z</time>
      </trkpt>
      <trkpt lat="46.64571" lon="6.08262">
        <ele>1024.7</ele>
        <time>2020-07-14T13:45:32Z</time>
      </trkpt>
      <trkpt lat="46.64567" lon="6.08258">
        <ele>1024.3</ele>
        <time>2020-07-14T13:45:38Z</time>
      </trkpt>
      <trkpt lat="46.64563" lon="6.08252">
        <ele>1023.9</ele>
        <time>2020-07-14T13:45:44Z</time>
      </trkpt>
      <trkpt lat="46.64561" lon="6.08245">
        <ele>1023.7</ele>
        <time>2020-07-14T13:45:50Z</time>
      </trkpt>
      <trkpt lat="46.64559" lon="6.0824">
        <ele>1023.4</ele>
        <time>2020-07-14T13:45:55Z</time>
      </trkpt>
      <trkpt lat="46.64555" lon="6.08234">
        <ele>1022.8</ele>
        <time>2020-07-14T13:46:00Z</time>
      </trkpt>
      <trkpt lat="46.6455" lon="6.0823">
        <ele>1022.1</ele>
        <time>2020-07-14T13:46:05Z</time>
      </trkpt>
      <trkpt lat="46.64548" lon="6.08224">
        <ele>1021.3</ele>
        <time>2020-07-14T13:46:10Z</time>
      </trkpt>
      <trkpt lat="46.64549" lon="6.0821">
        <ele>1017.1</ele>
        <time>2020-07-14T13:46:22Z</time>
      </trkpt>
      <trkpt lat="46.64552" lon="6.08203">
        <ele>1016</ele>
        <time>2020-07-14T13:46:26Z</time>
      </trkpt>
      <trkpt lat="46.64555" lon="6.08198">
        <ele>1014.8</ele>
        <time>2020-07-14T13:46:30Z</time>
      </trkpt>
      <trkpt lat="46.64559" lon="6.08193">
        <ele>1013.3</ele>
        <time>2020-07-14T13:46:35Z</time>
      </trkpt>
      <trkpt lat="46.64562" lon="6.08188">
        <ele>1012.1</ele>
        <time>2020-07-14T13:46:42Z</time>
      </trkpt>
      <trkpt lat="46.64565" lon="6.08182">
        <ele>1011.4</ele>
        <time>2020-07-14T13:46:47Z</time>
      </trkpt>
      <trkpt lat="46.64568" lon="6.08175">
        <ele>1010.8</ele>
        <time>2020-07-14T13:46:52Z</time>
      </trkpt>
      <trkpt lat="46.6457" lon="6.08168">
        <ele>1010.6</ele>
        <time>2020-07-14T13:46:56Z</time>
      </trkpt>
      <trkpt lat="46.64572" lon="6.08161">
        <ele>1010.4</ele>
        <time>2020-07-14T13:47:01Z</time>
      </trkpt>
      <trkpt lat="46.64575" lon="6.08152">
        <ele>1010.4</ele>
        <time>2020-07-14T13:47:05Z</time>
      </trkpt>
      <trkpt lat="46.64578" lon="6.08145">
        <ele>1010.4</ele>
        <time>2020-07-14T13:47:09Z</time>
      </trkpt>
      <trkpt lat="46.64581" lon="6.08139">
        <ele>1010.5</ele>
        <time>2020-07-14T13:47:13Z</time>
      </trkpt>
      <trkpt lat="46.64583" lon="6.08134">
        <ele>1010.8</ele>
        <time>2020-07-14T13:47:18Z</time>
      </trkpt>
      <trkpt lat="46.64586" lon="6.08127">
        <ele>1011.1</ele>
        <time>2020-07-14T13:47:23Z</time>
      </trkpt>
      <trkpt lat="46.64589" lon="6.0812">
        <ele>1011.4</ele>
        <time>2020-07-14T13:47:28Z</time>
      </trkpt>
      <trkpt lat="46.64592" lon="6.08114">
        <ele>1010.2</ele>
        <time>2020-07-14T13:48:11Z</time>
      </trkpt>
      <trkpt lat="46.64594" lon="6.08107">
        <ele>1009.7</ele>
        <time>2020-07-14T13:48:17Z</time>
      </trkpt>
      <trkpt lat="46.64596" lon="6.08102">
        <ele>1010</ele>
        <time>2020-07-14T13:48:26Z</time>
      </trkpt>
    </trkseg>
  </trk>
</gpx>